<?xml version="1.0" encoding="UTF-8" standalone="no" ?>
<gpx xmlns="http://www.topografix.com/GPX/1/1" creator="www.plotaroute.com" version="1.1"  xmlns:xsi="http://www.w3.org/2001/XMLSchema-instance" xsi:schemaLocation="http://www.topografix.com/GPX/1/1 http://www.topografix.com/GPX/1/1/gpx.xsd">
<metadata>
<desc>Route created on plotaroute.com</desc>
</metadata>
<trk>
<name>Sentiero Delle Orobie</name>
<trkseg>
<trkpt lat="45.938327" lon="9.929413">
<ele>598</ele>
<time>2022-01-08T00:00:00Z</time></trkpt>
<trkpt lat="45.938327" lon="9.929413">
<ele>598</ele>
<time>2022-01-08T00:00:00Z</time></trkpt>
<trkpt lat="45.938399" lon="9.929371">
<ele>597</ele>
<time>2022-01-08T00:00:03Z</time></trkpt>
<trkpt lat="45.938425" lon="9.929397">
<ele>598</ele>
<time>2022-01-08T00:00:04Z</time></trkpt>
<trkpt lat="45.93876" lon="9.929318">
<ele>596</ele>
<time>2022-01-08T00:00:18Z</time></trkpt>
<trkpt lat="45.938945" lon="9.929335">
<ele>595</ele>
<time>2022-01-08T00:00:25Z</time></trkpt>
<trkpt lat="45.938945" lon="9.929335">
<ele>595</ele>
<time>2022-01-08T00:00:25Z</time></trkpt>
<trkpt lat="45.939118" lon="9.92935">
<ele>595</ele>
<time>2022-01-08T00:00:32Z</time></trkpt>
<trkpt lat="45.939106" lon="9.929269">
<ele>594</ele>
<time>2022-01-08T00:00:35Z</time></trkpt>
<trkpt lat="45.938834" lon="9.928491">
<ele>587</ele>
<time>2022-01-08T00:00:59Z</time></trkpt>
<trkpt lat="45.938639" lon="9.92825">
<ele>586</ele>
<time>2022-01-08T00:01:09Z</time></trkpt>
<trkpt lat="45.938548" lon="9.928173">
<ele>585</ele>
<time>2022-01-08T00:01:13Z</time></trkpt>
<trkpt lat="45.938548" lon="9.928174">
<ele>585</ele>
<time>2022-01-08T00:01:14Z</time></trkpt>
<trkpt lat="45.938472" lon="9.92811">
<ele>584</ele>
<time>2022-01-08T00:01:17Z</time></trkpt>
<trkpt lat="45.938259" lon="9.927863">
<ele>580</ele>
<time>2022-01-08T00:01:28Z</time></trkpt>
<trkpt lat="45.937866" lon="9.92692">
<ele>566</ele>
<time>2022-01-08T00:01:59Z</time></trkpt>
<trkpt lat="45.937822" lon="9.926726">
<ele>562</ele>
<time>2022-01-08T00:02:04Z</time></trkpt>
<trkpt lat="45.937822" lon="9.926726">
<ele>562</ele>
<time>2022-01-08T00:02:04Z</time></trkpt>
<trkpt lat="45.937778" lon="9.926538">
<ele>559</ele>
<time>2022-01-08T00:02:10Z</time></trkpt>
<trkpt lat="45.937472" lon="9.926297">
<ele>554</ele>
<time>2022-01-08T00:02:24Z</time></trkpt>
<trkpt lat="45.937369" lon="9.926135">
<ele>552</ele>
<time>2022-01-08T00:02:30Z</time></trkpt>
<trkpt lat="45.937178" lon="9.926206">
<ele>552</ele>
<time>2022-01-08T00:02:38Z</time></trkpt>
<trkpt lat="45.936955" lon="9.926355">
<ele>551</ele>
<time>2022-01-08T00:02:48Z</time></trkpt>
<trkpt lat="45.936955" lon="9.926355">
<ele>551</ele>
<time>2022-01-08T00:02:48Z</time></trkpt>
<trkpt lat="45.936818" lon="9.926523">
<ele>550</ele>
<time>2022-01-08T00:02:55Z</time></trkpt>
<trkpt lat="45.936644" lon="9.926651">
<ele>549</ele>
<time>2022-01-08T00:03:03Z</time></trkpt>
<trkpt lat="45.936256" lon="9.927037">
<ele>553</ele>
<time>2022-01-08T00:03:22Z</time></trkpt>
<trkpt lat="45.935908" lon="9.927204">
<ele>551</ele>
<time>2022-01-08T00:03:36Z</time></trkpt>
<trkpt lat="45.93582" lon="9.92729">
<ele>551</ele>
<time>2022-01-08T00:03:41Z</time></trkpt>
<trkpt lat="45.93582" lon="9.92729">
<ele>551</ele>
<time>2022-01-08T00:03:41Z</time></trkpt>
<trkpt lat="45.935667" lon="9.92744">
<ele>551</ele>
<time>2022-01-08T00:03:48Z</time></trkpt>
<trkpt lat="45.935491" lon="9.927563">
<ele>551</ele>
<time>2022-01-08T00:03:56Z</time></trkpt>
<trkpt lat="45.935245" lon="9.927777">
<ele>550</ele>
<time>2022-01-08T00:04:07Z</time></trkpt>
<trkpt lat="45.935193" lon="9.927858">
<ele>550</ele>
<time>2022-01-08T00:04:10Z</time></trkpt>
<trkpt lat="45.934697" lon="9.928261">
<ele>548</ele>
<time>2022-01-08T00:04:33Z</time></trkpt>
<trkpt lat="45.934697" lon="9.928261">
<ele>548</ele>
<time>2022-01-08T00:04:33Z</time></trkpt>
<trkpt lat="45.934473" lon="9.928384">
<ele>548</ele>
<time>2022-01-08T00:04:43Z</time></trkpt>
<trkpt lat="45.934005" lon="9.928411">
<ele>547</ele>
<time>2022-01-08T00:05:02Z</time></trkpt>
<trkpt lat="45.933792" lon="9.928357">
<ele>546</ele>
<time>2022-01-08T00:05:10Z</time></trkpt>
<trkpt lat="45.933518" lon="9.928389">
<ele>546</ele>
<time>2022-01-08T00:05:21Z</time></trkpt>
<trkpt lat="45.933374" lon="9.92853">
<ele>546</ele>
<time>2022-01-08T00:05:28Z</time></trkpt>
<trkpt lat="45.933374" lon="9.92853">
<ele>546</ele>
<time>2022-01-08T00:05:28Z</time></trkpt>
<trkpt lat="45.933221" lon="9.928679">
<ele>546</ele>
<time>2022-01-08T00:05:36Z</time></trkpt>
<trkpt lat="45.932845" lon="9.928657">
<ele>545</ele>
<time>2022-01-08T00:05:51Z</time></trkpt>
<trkpt lat="45.932749" lon="9.92798">
<ele>543</ele>
<time>2022-01-08T00:06:10Z</time></trkpt>
<trkpt lat="45.932707" lon="9.927862">
<ele>543</ele>
<time>2022-01-08T00:06:14Z</time></trkpt>
<trkpt lat="45.932291" lon="9.927732">
<ele>541</ele>
<time>2022-01-08T00:06:31Z</time></trkpt>
<trkpt lat="45.932291" lon="9.927732">
<ele>541</ele>
<time>2022-01-08T00:06:31Z</time></trkpt>
<trkpt lat="45.931351" lon="9.927519">
<ele>540</ele>
<time>2022-01-08T00:07:09Z</time></trkpt>
<trkpt lat="45.930923" lon="9.926859">
<ele>539</ele>
<time>2022-01-08T00:07:34Z</time></trkpt>
<trkpt lat="45.930949" lon="9.926556">
<ele>542</ele>
<time>2022-01-08T00:07:43Z</time></trkpt>
<trkpt lat="45.930949" lon="9.926556">
<ele>542</ele>
<time>2022-01-08T00:07:43Z</time></trkpt>
<trkpt lat="45.930996" lon="9.926066">
<ele>553</ele>
<time>2022-01-08T00:07:56Z</time></trkpt>
<trkpt lat="45.931319" lon="9.926065">
<ele>553</ele>
<time>2022-01-08T00:08:09Z</time></trkpt>
<trkpt lat="45.931319" lon="9.926065">
<ele>553</ele>
<time>2022-01-08T00:08:09Z</time></trkpt>
<trkpt lat="45.931382" lon="9.926065">
<ele>553</ele>
<time>2022-01-08T00:08:12Z</time></trkpt>
<trkpt lat="45.931576" lon="9.92601">
<ele>554</ele>
<time>2022-01-08T00:08:20Z</time></trkpt>
<trkpt lat="45.932015" lon="9.925829">
<ele>554</ele>
<time>2022-01-08T00:08:38Z</time></trkpt>
<trkpt lat="45.932015" lon="9.925829">
<ele>554</ele>
<time>2022-01-08T00:08:38Z</time></trkpt>
<trkpt lat="45.932128" lon="9.925798">
<ele>554</ele>
<time>2022-01-08T00:08:43Z</time></trkpt>
<trkpt lat="45.93238" lon="9.925626">
<ele>556</ele>
<time>2022-01-08T00:08:54Z</time></trkpt>
<trkpt lat="45.932716" lon="9.925468">
<ele>559</ele>
<time>2022-01-08T00:09:08Z</time></trkpt>
<trkpt lat="45.932734" lon="9.925405">
<ele>560</ele>
<time>2022-01-08T00:09:10Z</time></trkpt>
<trkpt lat="45.932711" lon="9.925314">
<ele>562</ele>
<time>2022-01-08T00:09:13Z</time></trkpt>
<trkpt lat="45.932672" lon="9.925302">
<ele>563</ele>
<time>2022-01-08T00:09:14Z</time></trkpt>
<trkpt lat="45.932672" lon="9.925302">
<ele>563</ele>
<time>2022-01-08T00:09:14Z</time></trkpt>
<trkpt lat="45.932608" lon="9.925284">
<ele>563</ele>
<time>2022-01-08T00:09:17Z</time></trkpt>
<trkpt lat="45.932225" lon="9.925339">
<ele>565</ele>
<time>2022-01-08T00:09:32Z</time></trkpt>
<trkpt lat="45.9322" lon="9.925328">
<ele>566</ele>
<time>2022-01-08T00:09:33Z</time></trkpt>
<trkpt lat="45.932152" lon="9.925205">
<ele>570</ele>
<time>2022-01-08T00:09:37Z</time></trkpt>
<trkpt lat="45.932126" lon="9.92509">
<ele>574</ele>
<time>2022-01-08T00:09:41Z</time></trkpt>
<trkpt lat="45.932159" lon="9.925011">
<ele>575</ele>
<time>2022-01-08T00:09:43Z</time></trkpt>
<trkpt lat="45.932159" lon="9.925011">
<ele>575</ele>
<time>2022-01-08T00:09:43Z</time></trkpt>
<trkpt lat="45.932238" lon="9.924893">
<ele>580</ele>
<time>2022-01-08T00:09:48Z</time></trkpt>
<trkpt lat="45.932573" lon="9.924659">
<ele>587</ele>
<time>2022-01-08T00:10:03Z</time></trkpt>
<trkpt lat="45.93269" lon="9.924534">
<ele>592</ele>
<time>2022-01-08T00:10:09Z</time></trkpt>
<trkpt lat="45.93269" lon="9.924534">
<ele>592</ele>
<time>2022-01-08T00:10:09Z</time></trkpt>
<trkpt lat="45.932964" lon="9.924276">
<ele>598</ele>
<time>2022-01-08T00:10:22Z</time></trkpt>
<trkpt lat="45.933016" lon="9.924198">
<ele>600</ele>
<time>2022-01-08T00:10:25Z</time></trkpt>
<trkpt lat="45.933181" lon="9.92402">
<ele>602</ele>
<time>2022-01-08T00:10:33Z</time></trkpt>
<trkpt lat="45.933311" lon="9.923907">
<ele>603</ele>
<time>2022-01-08T00:10:39Z</time></trkpt>
<trkpt lat="45.933311" lon="9.923907">
<ele>603</ele>
<time>2022-01-08T00:10:39Z</time></trkpt>
<trkpt lat="45.933397" lon="9.923833">
<ele>604</ele>
<time>2022-01-08T00:10:43Z</time></trkpt>
<trkpt lat="45.933477" lon="9.923705">
<ele>608</ele>
<time>2022-01-08T00:10:48Z</time></trkpt>
<trkpt lat="45.933484" lon="9.923656">
<ele>610</ele>
<time>2022-01-08T00:10:49Z</time></trkpt>
<trkpt lat="45.933448" lon="9.923655">
<ele>610</ele>
<time>2022-01-08T00:10:51Z</time></trkpt>
<trkpt lat="45.932874" lon="9.923884">
<ele>616</ele>
<time>2022-01-08T00:11:15Z</time></trkpt>
<trkpt lat="45.932874" lon="9.923884">
<ele>616</ele>
<time>2022-01-08T00:11:15Z</time></trkpt>
<trkpt lat="45.932715" lon="9.923948">
<ele>617</ele>
<time>2022-01-08T00:11:21Z</time></trkpt>
<trkpt lat="45.932305" lon="9.924043">
<ele>624</ele>
<time>2022-01-08T00:11:38Z</time></trkpt>
<trkpt lat="45.932141" lon="9.924101">
<ele>626</ele>
<time>2022-01-08T00:11:45Z</time></trkpt>
<trkpt lat="45.932065" lon="9.924155">
<ele>625</ele>
<time>2022-01-08T00:11:48Z</time></trkpt>
<trkpt lat="45.932059" lon="9.924135">
<ele>626</ele>
<time>2022-01-08T00:11:49Z</time></trkpt>
<trkpt lat="45.932075" lon="9.924078">
<ele>628</ele>
<time>2022-01-08T00:11:50Z</time></trkpt>
<trkpt lat="45.932327" lon="9.923867">
<ele>631</ele>
<time>2022-01-08T00:12:02Z</time></trkpt>
<trkpt lat="45.932327" lon="9.923867">
<ele>631</ele>
<time>2022-01-08T00:12:02Z</time></trkpt>
<trkpt lat="45.932729" lon="9.923468">
<ele>636</ele>
<time>2022-01-08T00:12:22Z</time></trkpt>
<trkpt lat="45.932915" lon="9.923378">
<ele>634</ele>
<time>2022-01-08T00:12:29Z</time></trkpt>
<trkpt lat="45.932915" lon="9.923378">
<ele>634</ele>
<time>2022-01-08T00:12:29Z</time></trkpt>
<trkpt lat="45.93329" lon="9.923196">
<ele>631</ele>
<time>2022-01-08T00:12:45Z</time></trkpt>
<trkpt lat="45.933439" lon="9.923008">
<ele>637</ele>
<time>2022-01-08T00:12:53Z</time></trkpt>
<trkpt lat="45.933546" lon="9.922945">
<ele>639</ele>
<time>2022-01-08T00:12:58Z</time></trkpt>
<trkpt lat="45.933681" lon="9.922924">
<ele>640</ele>
<time>2022-01-08T00:13:03Z</time></trkpt>
<trkpt lat="45.933789" lon="9.923041">
<ele>634</ele>
<time>2022-01-08T00:13:09Z</time></trkpt>
<trkpt lat="45.933906" lon="9.92311">
<ele>630</ele>
<time>2022-01-08T00:13:14Z</time></trkpt>
<trkpt lat="45.933975" lon="9.923122">
<ele>629</ele>
<time>2022-01-08T00:13:17Z</time></trkpt>
<trkpt lat="45.934232" lon="9.923105">
<ele>629</ele>
<time>2022-01-08T00:13:27Z</time></trkpt>
<trkpt lat="45.934232" lon="9.923105">
<ele>629</ele>
<time>2022-01-08T00:13:27Z</time></trkpt>
<trkpt lat="45.934367" lon="9.923051">
<ele>630</ele>
<time>2022-01-08T00:13:33Z</time></trkpt>
<trkpt lat="45.934603" lon="9.922657">
<ele>647</ele>
<time>2022-01-08T00:13:47Z</time></trkpt>
<trkpt lat="45.934603" lon="9.922492">
<ele>654</ele>
<time>2022-01-08T00:13:52Z</time></trkpt>
<trkpt lat="45.934692" lon="9.922328">
<ele>661</ele>
<time>2022-01-08T00:13:57Z</time></trkpt>
<trkpt lat="45.934697" lon="9.922021">
<ele>676</ele>
<time>2022-01-08T00:14:06Z</time></trkpt>
<trkpt lat="45.934717" lon="9.921954">
<ele>679</ele>
<time>2022-01-08T00:14:08Z</time></trkpt>
<trkpt lat="45.934717" lon="9.921954">
<ele>679</ele>
<time>2022-01-08T00:14:08Z</time></trkpt>
<trkpt lat="45.934779" lon="9.92175">
<ele>689</ele>
<time>2022-01-08T00:14:14Z</time></trkpt>
<trkpt lat="45.934687" lon="9.921608">
<ele>695</ele>
<time>2022-01-08T00:14:20Z</time></trkpt>
<trkpt lat="45.934816" lon="9.921498">
<ele>700</ele>
<time>2022-01-08T00:14:26Z</time></trkpt>
<trkpt lat="45.934896" lon="9.921355">
<ele>705</ele>
<time>2022-01-08T00:14:31Z</time></trkpt>
<trkpt lat="45.934854" lon="9.921281">
<ele>707</ele>
<time>2022-01-08T00:14:33Z</time></trkpt>
<trkpt lat="45.934482" lon="9.921014">
<ele>717</ele>
<time>2022-01-08T00:14:50Z</time></trkpt>
<trkpt lat="45.934488" lon="9.920913">
<ele>721</ele>
<time>2022-01-08T00:14:53Z</time></trkpt>
<trkpt lat="45.93452" lon="9.92089">
<ele>721</ele>
<time>2022-01-08T00:14:54Z</time></trkpt>
<trkpt lat="45.93452" lon="9.92089">
<ele>721</ele>
<time>2022-01-08T00:14:54Z</time></trkpt>
<trkpt lat="45.934786" lon="9.920697">
<ele>729</ele>
<time>2022-01-08T00:15:06Z</time></trkpt>
<trkpt lat="45.935285" lon="9.92052">
<ele>739</ele>
<time>2022-01-08T00:15:27Z</time></trkpt>
<trkpt lat="45.935285" lon="9.92052">
<ele>739</ele>
<time>2022-01-08T00:15:27Z</time></trkpt>
<trkpt lat="45.9355" lon="9.920443">
<ele>745</ele>
<time>2022-01-08T00:15:36Z</time></trkpt>
<trkpt lat="45.935622" lon="9.920609">
<ele>740</ele>
<time>2022-01-08T00:15:43Z</time></trkpt>
<trkpt lat="45.935681" lon="9.920541">
<ele>743</ele>
<time>2022-01-08T00:15:46Z</time></trkpt>
<trkpt lat="45.935713" lon="9.920305">
<ele>753</ele>
<time>2022-01-08T00:15:52Z</time></trkpt>
<trkpt lat="45.9357" lon="9.920068">
<ele>763</ele>
<time>2022-01-08T00:15:59Z</time></trkpt>
<trkpt lat="45.935518" lon="9.919829">
<ele>772</ele>
<time>2022-01-08T00:16:09Z</time></trkpt>
<trkpt lat="45.935518" lon="9.919829">
<ele>772</ele>
<time>2022-01-08T00:16:09Z</time></trkpt>
<trkpt lat="45.935332" lon="9.919758">
<ele>773</ele>
<time>2022-01-08T00:16:16Z</time></trkpt>
<trkpt lat="45.935124" lon="9.919748">
<ele>772</ele>
<time>2022-01-08T00:16:25Z</time></trkpt>
<trkpt lat="45.934945" lon="9.919582">
<ele>779</ele>
<time>2022-01-08T00:16:33Z</time></trkpt>
<trkpt lat="45.934751" lon="9.919507">
<ele>782</ele>
<time>2022-01-08T00:16:41Z</time></trkpt>
<trkpt lat="45.934592" lon="9.919471">
<ele>783</ele>
<time>2022-01-08T00:16:48Z</time></trkpt>
<trkpt lat="45.934412" lon="9.919301">
<ele>790</ele>
<time>2022-01-08T00:16:56Z</time></trkpt>
<trkpt lat="45.934412" lon="9.919301">
<ele>790</ele>
<time>2022-01-08T00:16:56Z</time></trkpt>
<trkpt lat="45.934143" lon="9.918922">
<ele>804</ele>
<time>2022-01-08T00:17:12Z</time></trkpt>
<trkpt lat="45.933949" lon="9.918939">
<ele>805</ele>
<time>2022-01-08T00:17:19Z</time></trkpt>
<trkpt lat="45.93387" lon="9.918926">
<ele>807</ele>
<time>2022-01-08T00:17:23Z</time></trkpt>
<trkpt lat="45.933896" lon="9.918816">
<ele>810</ele>
<time>2022-01-08T00:17:26Z</time></trkpt>
<trkpt lat="45.934041" lon="9.918645">
<ele>815</ele>
<time>2022-01-08T00:17:33Z</time></trkpt>
<trkpt lat="45.934041" lon="9.918645">
<ele>815</ele>
<time>2022-01-08T00:17:33Z</time></trkpt>
<trkpt lat="45.934147" lon="9.91852">
<ele>818</ele>
<time>2022-01-08T00:17:39Z</time></trkpt>
<trkpt lat="45.934238" lon="9.918641">
<ele>815</ele>
<time>2022-01-08T00:17:44Z</time></trkpt>
<trkpt lat="45.934628" lon="9.918763">
<ele>814</ele>
<time>2022-01-08T00:18:00Z</time></trkpt>
<trkpt lat="45.934628" lon="9.918763">
<ele>814</ele>
<time>2022-01-08T00:18:00Z</time></trkpt>
<trkpt lat="45.93478" lon="9.918811">
<ele>814</ele>
<time>2022-01-08T00:18:06Z</time></trkpt>
<trkpt lat="45.935335" lon="9.918841">
<ele>818</ele>
<time>2022-01-08T00:18:28Z</time></trkpt>
<trkpt lat="45.935525" lon="9.918877">
<ele>819</ele>
<time>2022-01-08T00:18:36Z</time></trkpt>
<trkpt lat="45.935525" lon="9.918877">
<ele>819</ele>
<time>2022-01-08T00:18:36Z</time></trkpt>
<trkpt lat="45.935812" lon="9.918907">
<ele>820</ele>
<time>2022-01-08T00:18:47Z</time></trkpt>
<trkpt lat="45.936161" lon="9.919051">
<ele>809</ele>
<time>2022-01-08T00:19:02Z</time></trkpt>
<trkpt lat="45.936309" lon="9.919064">
<ele>807</ele>
<time>2022-01-08T00:19:08Z</time></trkpt>
<trkpt lat="45.93641" lon="9.91898">
<ele>811</ele>
<time>2022-01-08T00:19:13Z</time></trkpt>
<trkpt lat="45.93641" lon="9.91898">
<ele>811</ele>
<time>2022-01-08T00:19:13Z</time></trkpt>
<trkpt lat="45.93661" lon="9.918815">
<ele>818</ele>
<time>2022-01-08T00:19:22Z</time></trkpt>
<trkpt lat="45.936923" lon="9.918696">
<ele>823</ele>
<time>2022-01-08T00:19:35Z</time></trkpt>
<trkpt lat="45.937124" lon="9.918383">
<ele>836</ele>
<time>2022-01-08T00:19:47Z</time></trkpt>
<trkpt lat="45.937124" lon="9.918383">
<ele>836</ele>
<time>2022-01-08T00:19:47Z</time></trkpt>
<trkpt lat="45.937186" lon="9.918286">
<ele>840</ele>
<time>2022-01-08T00:19:50Z</time></trkpt>
<trkpt lat="45.937384" lon="9.918243">
<ele>839</ele>
<time>2022-01-08T00:19:58Z</time></trkpt>
<trkpt lat="45.937496" lon="9.918332">
<ele>835</ele>
<time>2022-01-08T00:20:04Z</time></trkpt>
<trkpt lat="45.9379" lon="9.918883">
<ele>825</ele>
<time>2022-01-08T00:20:26Z</time></trkpt>
<trkpt lat="45.93801" lon="9.918963">
<ele>826</ele>
<time>2022-01-08T00:20:31Z</time></trkpt>
<trkpt lat="45.93801" lon="9.918963">
<ele>826</ele>
<time>2022-01-08T00:20:31Z</time></trkpt>
<trkpt lat="45.938407" lon="9.919176">
<ele>830</ele>
<time>2022-01-08T00:20:48Z</time></trkpt>
<trkpt lat="45.938569" lon="9.9193">
<ele>825</ele>
<time>2022-01-08T00:20:55Z</time></trkpt>
<trkpt lat="45.939032" lon="9.919464">
<ele>824</ele>
<time>2022-01-08T00:21:14Z</time></trkpt>
<trkpt lat="45.939032" lon="9.919464">
<ele>824</ele>
<time>2022-01-08T00:21:14Z</time></trkpt>
<trkpt lat="45.939192" lon="9.919481">
<ele>824</ele>
<time>2022-01-08T00:21:21Z</time></trkpt>
<trkpt lat="45.93961" lon="9.919441">
<ele>821</ele>
<time>2022-01-08T00:21:37Z</time></trkpt>
<trkpt lat="45.939982" lon="9.919205">
<ele>831</ele>
<time>2022-01-08T00:21:54Z</time></trkpt>
<trkpt lat="45.940217" lon="9.919166">
<ele>828</ele>
<time>2022-01-08T00:22:03Z</time></trkpt>
<trkpt lat="45.940516" lon="9.918972">
<ele>830</ele>
<time>2022-01-08T00:22:16Z</time></trkpt>
<trkpt lat="45.940858" lon="9.918819">
<ele>832</ele>
<time>2022-01-08T00:22:31Z</time></trkpt>
<trkpt lat="45.940858" lon="9.918819">
<ele>832</ele>
<time>2022-01-08T00:22:31Z</time></trkpt>
<trkpt lat="45.940981" lon="9.918778">
<ele>833</ele>
<time>2022-01-08T00:22:36Z</time></trkpt>
<trkpt lat="45.941271" lon="9.918746">
<ele>833</ele>
<time>2022-01-08T00:22:47Z</time></trkpt>
<trkpt lat="45.941396" lon="9.918756">
<ele>831</ele>
<time>2022-01-08T00:22:52Z</time></trkpt>
<trkpt lat="45.941529" lon="9.918788">
<ele>828</ele>
<time>2022-01-08T00:22:58Z</time></trkpt>
<trkpt lat="45.941611" lon="9.918841">
<ele>825</ele>
<time>2022-01-08T00:23:01Z</time></trkpt>
<trkpt lat="45.941698" lon="9.918845">
<ele>824</ele>
<time>2022-01-08T00:23:05Z</time></trkpt>
<trkpt lat="45.941698" lon="9.918845">
<ele>824</ele>
<time>2022-01-08T00:23:05Z</time></trkpt>
<trkpt lat="45.942054" lon="9.918864">
<ele>823</ele>
<time>2022-01-08T00:23:19Z</time></trkpt>
<trkpt lat="45.942485" lon="9.918687">
<ele>835</ele>
<time>2022-01-08T00:23:37Z</time></trkpt>
<trkpt lat="45.943038" lon="9.918693">
<ele>831</ele>
<time>2022-01-08T00:23:59Z</time></trkpt>
<trkpt lat="45.943245" lon="9.918673">
<ele>831</ele>
<time>2022-01-08T00:24:08Z</time></trkpt>
<trkpt lat="45.943485" lon="9.918719">
<ele>823</ele>
<time>2022-01-08T00:24:17Z</time></trkpt>
<trkpt lat="45.943697" lon="9.91862">
<ele>823</ele>
<time>2022-01-08T00:24:26Z</time></trkpt>
<trkpt lat="45.943697" lon="9.91862">
<ele>823</ele>
<time>2022-01-08T00:24:26Z</time></trkpt>
<trkpt lat="45.943875" lon="9.918434">
<ele>827</ele>
<time>2022-01-08T00:24:35Z</time></trkpt>
<trkpt lat="45.944443" lon="9.917909">
<ele>831</ele>
<time>2022-01-08T00:25:02Z</time></trkpt>
<trkpt lat="45.944598" lon="9.91769">
<ele>832</ele>
<time>2022-01-08T00:25:11Z</time></trkpt>
<trkpt lat="45.944598" lon="9.91769">
<ele>832</ele>
<time>2022-01-08T00:25:11Z</time></trkpt>
<trkpt lat="45.944836" lon="9.917354">
<ele>827</ele>
<time>2022-01-08T00:25:24Z</time></trkpt>
<trkpt lat="45.944918" lon="9.917108">
<ele>824</ele>
<time>2022-01-08T00:25:32Z</time></trkpt>
<trkpt lat="45.944941" lon="9.916862">
<ele>825</ele>
<time>2022-01-08T00:25:39Z</time></trkpt>
<trkpt lat="45.944909" lon="9.91658">
<ele>826</ele>
<time>2022-01-08T00:25:47Z</time></trkpt>
<trkpt lat="45.944494" lon="9.916008">
<ele>837</ele>
<time>2022-01-08T00:26:10Z</time></trkpt>
<trkpt lat="45.9444" lon="9.915664">
<ele>836</ele>
<time>2022-01-08T00:26:20Z</time></trkpt>
<trkpt lat="45.944345" lon="9.915349">
<ele>834</ele>
<time>2022-01-08T00:26:29Z</time></trkpt>
<trkpt lat="45.944362" lon="9.914971">
<ele>828</ele>
<time>2022-01-08T00:26:40Z</time></trkpt>
<trkpt lat="45.944362" lon="9.914971">
<ele>828</ele>
<time>2022-01-08T00:26:40Z</time></trkpt>
<trkpt lat="45.944336" lon="9.914528">
<ele>826</ele>
<time>2022-01-08T00:26:52Z</time></trkpt>
<trkpt lat="45.944236" lon="9.914007">
<ele>827</ele>
<time>2022-01-08T00:27:07Z</time></trkpt>
<trkpt lat="45.944252" lon="9.913803">
<ele>826</ele>
<time>2022-01-08T00:27:13Z</time></trkpt>
<trkpt lat="45.944245" lon="9.912619">
<ele>824</ele>
<time>2022-01-08T00:27:46Z</time></trkpt>
<trkpt lat="45.944245" lon="9.912619">
<ele>824</ele>
<time>2022-01-08T00:27:46Z</time></trkpt>
<trkpt lat="45.944309" lon="9.91232">
<ele>822</ele>
<time>2022-01-08T00:27:55Z</time></trkpt>
<trkpt lat="45.944197" lon="9.911748">
<ele>824</ele>
<time>2022-01-08T00:28:11Z</time></trkpt>
<trkpt lat="45.944231" lon="9.911486">
<ele>825</ele>
<time>2022-01-08T00:28:19Z</time></trkpt>
<trkpt lat="45.944402" lon="9.911214">
<ele>821</ele>
<time>2022-01-08T00:28:29Z</time></trkpt>
<trkpt lat="45.944541" lon="9.911102">
<ele>818</ele>
<time>2022-01-08T00:28:35Z</time></trkpt>
<trkpt lat="45.944543" lon="9.910731">
<ele>819</ele>
<time>2022-01-08T00:28:45Z</time></trkpt>
<trkpt lat="45.9445" lon="9.910403">
<ele>821</ele>
<time>2022-01-08T00:28:55Z</time></trkpt>
<trkpt lat="45.944592" lon="9.909434">
<ele>824</ele>
<time>2022-01-08T00:29:22Z</time></trkpt>
<trkpt lat="45.944448" lon="9.909225">
<ele>832</ele>
<time>2022-01-08T00:29:30Z</time></trkpt>
<trkpt lat="45.944317" lon="9.908846">
<ele>843</ele>
<time>2022-01-08T00:29:42Z</time></trkpt>
<trkpt lat="45.944304" lon="9.908633">
<ele>847</ele>
<time>2022-01-08T00:29:48Z</time></trkpt>
<trkpt lat="45.944312" lon="9.908576">
<ele>847</ele>
<time>2022-01-08T00:29:50Z</time></trkpt>
<trkpt lat="45.944276" lon="9.908377">
<ele>852</ele>
<time>2022-01-08T00:29:55Z</time></trkpt>
<trkpt lat="45.944323" lon="9.908147">
<ele>853</ele>
<time>2022-01-08T00:30:02Z</time></trkpt>
<trkpt lat="45.944352" lon="9.908125">
<ele>853</ele>
<time>2022-01-08T00:30:03Z</time></trkpt>
<trkpt lat="45.944352" lon="9.908125">
<ele>853</ele>
<time>2022-01-08T00:30:03Z</time></trkpt>
<trkpt lat="45.944422" lon="9.908069">
<ele>851</ele>
<time>2022-01-08T00:30:07Z</time></trkpt>
<trkpt lat="45.944435" lon="9.907977">
<ele>852</ele>
<time>2022-01-08T00:30:09Z</time></trkpt>
<trkpt lat="45.944438" lon="9.907552">
<ele>860</ele>
<time>2022-01-08T00:30:21Z</time></trkpt>
<trkpt lat="45.944383" lon="9.907136">
<ele>863</ele>
<time>2022-01-08T00:30:33Z</time></trkpt>
<trkpt lat="45.944409" lon="9.906734">
<ele>863</ele>
<time>2022-01-08T00:30:44Z</time></trkpt>
<trkpt lat="45.94438" lon="9.906419">
<ele>863</ele>
<time>2022-01-08T00:30:53Z</time></trkpt>
<trkpt lat="45.944386" lon="9.906024">
<ele>860</ele>
<time>2022-01-08T00:31:04Z</time></trkpt>
<trkpt lat="45.944375" lon="9.905929">
<ele>860</ele>
<time>2022-01-08T00:31:07Z</time></trkpt>
<trkpt lat="45.944609" lon="9.905466">
<ele>846</ele>
<time>2022-01-08T00:31:23Z</time></trkpt>
<trkpt lat="45.944656" lon="9.905217">
<ele>844</ele>
<time>2022-01-08T00:31:30Z</time></trkpt>
<trkpt lat="45.944659" lon="9.905115">
<ele>844</ele>
<time>2022-01-08T00:31:33Z</time></trkpt>
<trkpt lat="45.94474" lon="9.9049">
<ele>840</ele>
<time>2022-01-08T00:31:39Z</time></trkpt>
<trkpt lat="45.944874" lon="9.904455">
<ele>838</ele>
<time>2022-01-08T00:31:53Z</time></trkpt>
<trkpt lat="45.944993" lon="9.904204">
<ele>834</ele>
<time>2022-01-08T00:32:01Z</time></trkpt>
<trkpt lat="45.945082" lon="9.903853">
<ele>835</ele>
<time>2022-01-08T00:32:12Z</time></trkpt>
<trkpt lat="45.945114" lon="9.903593">
<ele>838</ele>
<time>2022-01-08T00:32:19Z</time></trkpt>
<trkpt lat="45.945114" lon="9.903593">
<ele>838</ele>
<time>2022-01-08T00:32:19Z</time></trkpt>
<trkpt lat="45.945142" lon="9.903362">
<ele>840</ele>
<time>2022-01-08T00:32:26Z</time></trkpt>
<trkpt lat="45.945228" lon="9.903052">
<ele>838</ele>
<time>2022-01-08T00:32:35Z</time></trkpt>
<trkpt lat="45.945302" lon="9.90286">
<ele>836</ele>
<time>2022-01-08T00:32:41Z</time></trkpt>
<trkpt lat="45.945396" lon="9.902698">
<ele>833</ele>
<time>2022-01-08T00:32:47Z</time></trkpt>
<trkpt lat="45.945501" lon="9.902455">
<ele>831</ele>
<time>2022-01-08T00:32:55Z</time></trkpt>
<trkpt lat="45.945632" lon="9.90234">
<ele>825</ele>
<time>2022-01-08T00:33:01Z</time></trkpt>
<trkpt lat="45.94571" lon="9.902315">
<ele>821</ele>
<time>2022-01-08T00:33:04Z</time></trkpt>
<trkpt lat="45.945801" lon="9.902187">
<ele>818</ele>
<time>2022-01-08T00:33:09Z</time></trkpt>
<trkpt lat="45.945834" lon="9.901642">
<ele>821</ele>
<time>2022-01-08T00:33:25Z</time></trkpt>
<trkpt lat="45.945878" lon="9.901467">
<ele>822</ele>
<time>2022-01-08T00:33:30Z</time></trkpt>
<trkpt lat="45.945959" lon="9.901272">
<ele>822</ele>
<time>2022-01-08T00:33:36Z</time></trkpt>
<trkpt lat="45.946093" lon="9.901135">
<ele>821</ele>
<time>2022-01-08T00:33:43Z</time></trkpt>
<trkpt lat="45.946539" lon="9.900372">
<ele>830</ele>
<time>2022-01-08T00:34:11Z</time></trkpt>
<trkpt lat="45.946647" lon="9.900271">
<ele>832</ele>
<time>2022-01-08T00:34:16Z</time></trkpt>
<trkpt lat="45.946647" lon="9.900271">
<ele>832</ele>
<time>2022-01-08T00:34:16Z</time></trkpt>
<trkpt lat="45.947061" lon="9.899883">
<ele>822</ele>
<time>2022-01-08T00:34:35Z</time></trkpt>
<trkpt lat="45.947165" lon="9.899555">
<ele>820</ele>
<time>2022-01-08T00:34:46Z</time></trkpt>
<trkpt lat="45.947279" lon="9.899311">
<ele>817</ele>
<time>2022-01-08T00:34:54Z</time></trkpt>
<trkpt lat="45.947312" lon="9.899066">
<ele>817</ele>
<time>2022-01-08T00:35:01Z</time></trkpt>
<trkpt lat="45.947229" lon="9.898772">
<ele>821</ele>
<time>2022-01-08T00:35:10Z</time></trkpt>
<trkpt lat="45.947309" lon="9.898277">
<ele>819</ele>
<time>2022-01-08T00:35:24Z</time></trkpt>
<trkpt lat="45.947314" lon="9.898162">
<ele>819</ele>
<time>2022-01-08T00:35:27Z</time></trkpt>
<trkpt lat="45.947269" lon="9.897693">
<ele>823</ele>
<time>2022-01-08T00:35:40Z</time></trkpt>
<trkpt lat="45.947337" lon="9.897415">
<ele>823</ele>
<time>2022-01-08T00:35:48Z</time></trkpt>
<trkpt lat="45.947411" lon="9.897313">
<ele>821</ele>
<time>2022-01-08T00:35:52Z</time></trkpt>
<trkpt lat="45.947557" lon="9.897222">
<ele>819</ele>
<time>2022-01-08T00:35:59Z</time></trkpt>
<trkpt lat="45.94766" lon="9.89698">
<ele>820</ele>
<time>2022-01-08T00:36:07Z</time></trkpt>
<trkpt lat="45.947697" lon="9.89678">
<ele>821</ele>
<time>2022-01-08T00:36:12Z</time></trkpt>
<trkpt lat="45.947808" lon="9.89661">
<ele>820</ele>
<time>2022-01-08T00:36:19Z</time></trkpt>
<trkpt lat="45.947875" lon="9.896411">
<ele>819</ele>
<time>2022-01-08T00:36:25Z</time></trkpt>
<trkpt lat="45.947875" lon="9.896411">
<ele>819</ele>
<time>2022-01-08T00:36:25Z</time></trkpt>
<trkpt lat="45.947907" lon="9.896313">
<ele>819</ele>
<time>2022-01-08T00:36:28Z</time></trkpt>
<trkpt lat="45.947913" lon="9.896013">
<ele>821</ele>
<time>2022-01-08T00:36:36Z</time></trkpt>
<trkpt lat="45.947911" lon="9.895722">
<ele>822</ele>
<time>2022-01-08T00:36:45Z</time></trkpt>
<trkpt lat="45.94789" lon="9.895581">
<ele>823</ele>
<time>2022-01-08T00:36:49Z</time></trkpt>
<trkpt lat="45.947904" lon="9.895461">
<ele>822</ele>
<time>2022-01-08T00:36:52Z</time></trkpt>
<trkpt lat="45.947939" lon="9.895392">
<ele>822</ele>
<time>2022-01-08T00:36:54Z</time></trkpt>
<trkpt lat="45.948133" lon="9.89537">
<ele>817</ele>
<time>2022-01-08T00:37:02Z</time></trkpt>
<trkpt lat="45.948265" lon="9.895292">
<ele>815</ele>
<time>2022-01-08T00:37:08Z</time></trkpt>
<trkpt lat="45.948132" lon="9.89486">
<ele>819</ele>
<time>2022-01-08T00:37:21Z</time></trkpt>
<trkpt lat="45.94813" lon="9.894724">
<ele>820</ele>
<time>2022-01-08T00:37:25Z</time></trkpt>
<trkpt lat="45.948165" lon="9.894422">
<ele>822</ele>
<time>2022-01-08T00:37:33Z</time></trkpt>
<trkpt lat="45.948154" lon="9.894087">
<ele>824</ele>
<time>2022-01-08T00:37:43Z</time></trkpt>
<trkpt lat="45.948077" lon="9.893193">
<ele>832</ele>
<time>2022-01-08T00:38:08Z</time></trkpt>
<trkpt lat="45.947955" lon="9.892637">
<ele>834</ele>
<time>2022-01-08T00:38:24Z</time></trkpt>
<trkpt lat="45.947944" lon="9.892353">
<ele>835</ele>
<time>2022-01-08T00:38:32Z</time></trkpt>
<trkpt lat="45.947944" lon="9.892353">
<ele>835</ele>
<time>2022-01-08T00:38:32Z</time></trkpt>
<trkpt lat="45.947951" lon="9.891877">
<ele>837</ele>
<time>2022-01-08T00:38:45Z</time></trkpt>
<trkpt lat="45.948009" lon="9.891601">
<ele>839</ele>
<time>2022-01-08T00:38:53Z</time></trkpt>
<trkpt lat="45.948143" lon="9.891171">
<ele>840</ele>
<time>2022-01-08T00:39:06Z</time></trkpt>
<trkpt lat="45.94821" lon="9.891081">
<ele>840</ele>
<time>2022-01-08T00:39:10Z</time></trkpt>
<trkpt lat="45.948355" lon="9.89103">
<ele>843</ele>
<time>2022-01-08T00:39:16Z</time></trkpt>
<trkpt lat="45.948614" lon="9.890756">
<ele>849</ele>
<time>2022-01-08T00:39:29Z</time></trkpt>
<trkpt lat="45.948709" lon="9.890574">
<ele>851</ele>
<time>2022-01-08T00:39:35Z</time></trkpt>
<trkpt lat="45.948755" lon="9.890415">
<ele>852</ele>
<time>2022-01-08T00:39:40Z</time></trkpt>
<trkpt lat="45.948787" lon="9.889832">
<ele>852</ele>
<time>2022-01-08T00:39:56Z</time></trkpt>
<trkpt lat="45.948797" lon="9.88871">
<ele>857</ele>
<time>2022-01-08T00:40:28Z</time></trkpt>
<trkpt lat="45.948787" lon="9.888459">
<ele>859</ele>
<time>2022-01-08T00:40:35Z</time></trkpt>
<trkpt lat="45.948836" lon="9.888198">
<ele>863</ele>
<time>2022-01-08T00:40:42Z</time></trkpt>
<trkpt lat="45.948836" lon="9.888198">
<ele>863</ele>
<time>2022-01-08T00:40:42Z</time></trkpt>
<trkpt lat="45.948882" lon="9.887818">
<ele>866</ele>
<time>2022-01-08T00:40:53Z</time></trkpt>
<trkpt lat="45.948959" lon="9.88759">
<ele>871</ele>
<time>2022-01-08T00:41:00Z</time></trkpt>
<trkpt lat="45.949081" lon="9.887316">
<ele>878</ele>
<time>2022-01-08T00:41:09Z</time></trkpt>
<trkpt lat="45.949233" lon="9.887037">
<ele>886</ele>
<time>2022-01-08T00:41:19Z</time></trkpt>
<trkpt lat="45.949284" lon="9.886856">
<ele>889</ele>
<time>2022-01-08T00:41:24Z</time></trkpt>
<trkpt lat="45.949292" lon="9.886766">
<ele>889</ele>
<time>2022-01-08T00:41:27Z</time></trkpt>
<trkpt lat="45.949243" lon="9.886294">
<ele>890</ele>
<time>2022-01-08T00:41:40Z</time></trkpt>
<trkpt lat="45.948939" lon="9.8853">
<ele>887</ele>
<time>2022-01-08T00:42:11Z</time></trkpt>
<trkpt lat="45.948929" lon="9.885046">
<ele>889</ele>
<time>2022-01-08T00:42:18Z</time></trkpt>
<trkpt lat="45.948908" lon="9.88496">
<ele>888</ele>
<time>2022-01-08T00:42:20Z</time></trkpt>
<trkpt lat="45.94868" lon="9.88482">
<ele>881</ele>
<time>2022-01-08T00:42:30Z</time></trkpt>
<trkpt lat="45.948494" lon="9.884616">
<ele>876</ele>
<time>2022-01-08T00:42:39Z</time></trkpt>
<trkpt lat="45.94836" lon="9.884327">
<ele>872</ele>
<time>2022-01-08T00:42:49Z</time></trkpt>
<trkpt lat="45.948215" lon="9.883681">
<ele>870</ele>
<time>2022-01-08T00:43:08Z</time></trkpt>
<trkpt lat="45.948215" lon="9.883681">
<ele>870</ele>
<time>2022-01-08T00:43:08Z</time></trkpt>
<trkpt lat="45.948014" lon="9.882877">
<ele>871</ele>
<time>2022-01-08T00:43:32Z</time></trkpt>
<trkpt lat="45.947957" lon="9.882589">
<ele>872</ele>
<time>2022-01-08T00:43:40Z</time></trkpt>
<trkpt lat="45.947934" lon="9.882417">
<ele>873</ele>
<time>2022-01-08T00:43:45Z</time></trkpt>
<trkpt lat="45.947927" lon="9.882127">
<ele>876</ele>
<time>2022-01-08T00:43:53Z</time></trkpt>
<trkpt lat="45.94786" lon="9.881795">
<ele>877</ele>
<time>2022-01-08T00:44:03Z</time></trkpt>
<trkpt lat="45.947766" lon="9.881546">
<ele>878</ele>
<time>2022-01-08T00:44:11Z</time></trkpt>
<trkpt lat="45.947397" lon="9.88113">
<ele>877</ele>
<time>2022-01-08T00:44:29Z</time></trkpt>
<trkpt lat="45.947214" lon="9.880985">
<ele>880</ele>
<time>2022-01-08T00:44:38Z</time></trkpt>
<trkpt lat="45.947136" lon="9.880751">
<ele>883</ele>
<time>2022-01-08T00:44:45Z</time></trkpt>
<trkpt lat="45.947087" lon="9.880346">
<ele>885</ele>
<time>2022-01-08T00:44:57Z</time></trkpt>
<trkpt lat="45.947055" lon="9.879834">
<ele>887</ele>
<time>2022-01-08T00:45:11Z</time></trkpt>
<trkpt lat="45.947073" lon="9.879573">
<ele>888</ele>
<time>2022-01-08T00:45:18Z</time></trkpt>
<trkpt lat="45.947334" lon="9.878795">
<ele>887</ele>
<time>2022-01-08T00:45:42Z</time></trkpt>
<trkpt lat="45.947334" lon="9.878795">
<ele>887</ele>
<time>2022-01-08T00:45:42Z</time></trkpt>
<trkpt lat="45.947879" lon="9.878021">
<ele>894</ele>
<time>2022-01-08T00:46:13Z</time></trkpt>
<trkpt lat="45.948132" lon="9.877622">
<ele>899</ele>
<time>2022-01-08T00:46:28Z</time></trkpt>
<trkpt lat="45.94823" lon="9.877334">
<ele>901</ele>
<time>2022-01-08T00:46:37Z</time></trkpt>
<trkpt lat="45.948248" lon="9.876983">
<ele>903</ele>
<time>2022-01-08T00:46:47Z</time></trkpt>
<trkpt lat="45.948222" lon="9.876533">
<ele>905</ele>
<time>2022-01-08T00:46:59Z</time></trkpt>
<trkpt lat="45.948004" lon="9.875557">
<ele>909</ele>
<time>2022-01-08T00:47:28Z</time></trkpt>
<trkpt lat="45.948015" lon="9.874931">
<ele>911</ele>
<time>2022-01-08T00:47:45Z</time></trkpt>
<trkpt lat="45.947997" lon="9.874637">
<ele>912</ele>
<time>2022-01-08T00:47:54Z</time></trkpt>
<trkpt lat="45.948053" lon="9.874267">
<ele>913</ele>
<time>2022-01-08T00:48:04Z</time></trkpt>
<trkpt lat="45.948053" lon="9.874267">
<ele>913</ele>
<time>2022-01-08T00:48:04Z</time></trkpt>
<trkpt lat="45.948072" lon="9.874139">
<ele>913</ele>
<time>2022-01-08T00:48:08Z</time></trkpt>
<trkpt lat="45.948198" lon="9.873728">
<ele>911</ele>
<time>2022-01-08T00:48:20Z</time></trkpt>
<trkpt lat="45.948385" lon="9.873277">
<ele>906</ele>
<time>2022-01-08T00:48:35Z</time></trkpt>
<trkpt lat="45.948643" lon="9.872928">
<ele>911</ele>
<time>2022-01-08T00:48:49Z</time></trkpt>
<trkpt lat="45.948804" lon="9.872793">
<ele>913</ele>
<time>2022-01-08T00:48:57Z</time></trkpt>
<trkpt lat="45.948977" lon="9.872514">
<ele>913</ele>
<time>2022-01-08T00:49:07Z</time></trkpt>
<trkpt lat="45.949075" lon="9.872167">
<ele>914</ele>
<time>2022-01-08T00:49:17Z</time></trkpt>
<trkpt lat="45.949064" lon="9.871923">
<ele>914</ele>
<time>2022-01-08T00:49:24Z</time></trkpt>
<trkpt lat="45.949212" lon="9.87135">
<ele>917</ele>
<time>2022-01-08T00:49:41Z</time></trkpt>
<trkpt lat="45.949284" lon="9.870686">
<ele>921</ele>
<time>2022-01-08T00:50:00Z</time></trkpt>
<trkpt lat="45.949429" lon="9.870213">
<ele>924</ele>
<time>2022-01-08T00:50:14Z</time></trkpt>
<trkpt lat="45.949456" lon="9.870038">
<ele>925</ele>
<time>2022-01-08T00:50:19Z</time></trkpt>
<trkpt lat="45.949456" lon="9.870038">
<ele>925</ele>
<time>2022-01-08T00:50:19Z</time></trkpt>
<trkpt lat="45.949489" lon="9.869825">
<ele>925</ele>
<time>2022-01-08T00:50:25Z</time></trkpt>
<trkpt lat="45.949505" lon="9.869594">
<ele>926</ele>
<time>2022-01-08T00:50:32Z</time></trkpt>
<trkpt lat="45.949565" lon="9.86927">
<ele>927</ele>
<time>2022-01-08T00:50:41Z</time></trkpt>
<trkpt lat="45.94955" lon="9.868505">
<ele>930</ele>
<time>2022-01-08T00:51:03Z</time></trkpt>
<trkpt lat="45.949626" lon="9.86821">
<ele>932</ele>
<time>2022-01-08T00:51:11Z</time></trkpt>
<trkpt lat="45.949675" lon="9.867769">
<ele>936</ele>
<time>2022-01-08T00:51:24Z</time></trkpt>
<trkpt lat="45.949634" lon="9.867434">
<ele>939</ele>
<time>2022-01-08T00:51:33Z</time></trkpt>
<trkpt lat="45.949745" lon="9.866958">
<ele>941</ele>
<time>2022-01-08T00:51:47Z</time></trkpt>
<trkpt lat="45.949898" lon="9.866704">
<ele>939</ele>
<time>2022-01-08T00:51:57Z</time></trkpt>
<trkpt lat="45.949918" lon="9.866457">
<ele>940</ele>
<time>2022-01-08T00:52:04Z</time></trkpt>
<trkpt lat="45.950213" lon="9.865751">
<ele>949</ele>
<time>2022-01-08T00:52:27Z</time></trkpt>
<trkpt lat="45.950208" lon="9.865432">
<ele>952</ele>
<time>2022-01-08T00:52:35Z</time></trkpt>
<trkpt lat="45.950002" lon="9.864696">
<ele>954</ele>
<time>2022-01-08T00:52:58Z</time></trkpt>
<trkpt lat="45.950002" lon="9.864696">
<ele>954</ele>
<time>2022-01-08T00:52:58Z</time></trkpt>
<trkpt lat="45.949866" lon="9.86421">
<ele>961</ele>
<time>2022-01-08T00:53:12Z</time></trkpt>
<trkpt lat="45.949824" lon="9.863487">
<ele>966</ele>
<time>2022-01-08T00:53:32Z</time></trkpt>
<trkpt lat="45.949836" lon="9.863009">
<ele>969</ele>
<time>2022-01-08T00:53:46Z</time></trkpt>
<trkpt lat="45.949695" lon="9.861884">
<ele>978</ele>
<time>2022-01-08T00:54:17Z</time></trkpt>
<trkpt lat="45.949771" lon="9.861441">
<ele>978</ele>
<time>2022-01-08T00:54:30Z</time></trkpt>
<trkpt lat="45.949846" lon="9.861243">
<ele>977</ele>
<time>2022-01-08T00:54:36Z</time></trkpt>
<trkpt lat="45.949902" lon="9.860947">
<ele>977</ele>
<time>2022-01-08T00:54:45Z</time></trkpt>
<trkpt lat="45.94998" lon="9.860768">
<ele>976</ele>
<time>2022-01-08T00:54:51Z</time></trkpt>
<trkpt lat="45.950044" lon="9.860262">
<ele>980</ele>
<time>2022-01-08T00:55:05Z</time></trkpt>
<trkpt lat="45.950048" lon="9.859972">
<ele>981</ele>
<time>2022-01-08T00:55:13Z</time></trkpt>
<trkpt lat="45.950082" lon="9.859754">
<ele>983</ele>
<time>2022-01-08T00:55:20Z</time></trkpt>
<trkpt lat="45.950082" lon="9.859548">
<ele>984</ele>
<time>2022-01-08T00:55:25Z</time></trkpt>
<trkpt lat="45.950134" lon="9.859233">
<ele>987</ele>
<time>2022-01-08T00:55:34Z</time></trkpt>
<trkpt lat="45.950126" lon="9.859091">
<ele>987</ele>
<time>2022-01-08T00:55:38Z</time></trkpt>
<trkpt lat="45.950085" lon="9.858856">
<ele>987</ele>
<time>2022-01-08T00:55:45Z</time></trkpt>
<trkpt lat="45.950028" lon="9.858727">
<ele>987</ele>
<time>2022-01-08T00:55:49Z</time></trkpt>
<trkpt lat="45.950019" lon="9.858657">
<ele>987</ele>
<time>2022-01-08T00:55:51Z</time></trkpt>
<trkpt lat="45.950019" lon="9.858657">
<ele>987</ele>
<time>2022-01-08T00:55:51Z</time></trkpt>
<trkpt lat="45.949971" lon="9.858291">
<ele>987</ele>
<time>2022-01-08T00:56:02Z</time></trkpt>
<trkpt lat="45.949973" lon="9.857987">
<ele>988</ele>
<time>2022-01-08T00:56:10Z</time></trkpt>
<trkpt lat="45.950051" lon="9.856838">
<ele>994</ele>
<time>2022-01-08T00:56:42Z</time></trkpt>
<trkpt lat="45.950058" lon="9.856451">
<ele>998</ele>
<time>2022-01-08T00:56:53Z</time></trkpt>
<trkpt lat="45.949971" lon="9.855477">
<ele>1007</ele>
<time>2022-01-08T00:57:20Z</time></trkpt>
<trkpt lat="45.949911" lon="9.855113">
<ele>1012</ele>
<time>2022-01-08T00:57:31Z</time></trkpt>
<trkpt lat="45.949792" lon="9.854676">
<ele>1014</ele>
<time>2022-01-08T00:57:44Z</time></trkpt>
<trkpt lat="45.949611" lon="9.853695">
<ele>1022</ele>
<time>2022-01-08T00:58:12Z</time></trkpt>
<trkpt lat="45.949577" lon="9.85334">
<ele>1026</ele>
<time>2022-01-08T00:58:22Z</time></trkpt>
<trkpt lat="45.949502" lon="9.852818">
<ele>1031</ele>
<time>2022-01-08T00:58:37Z</time></trkpt>
<trkpt lat="45.949502" lon="9.852818">
<ele>1031</ele>
<time>2022-01-08T00:58:37Z</time></trkpt>
<trkpt lat="45.949435" lon="9.851194">
<ele>1041</ele>
<time>2022-01-08T00:59:22Z</time></trkpt>
<trkpt lat="45.949616" lon="9.850499">
<ele>1047</ele>
<time>2022-01-08T00:59:43Z</time></trkpt>
<trkpt lat="45.949865" lon="9.849247">
<ele>1054</ele>
<time>2022-01-08T01:00:19Z</time></trkpt>
<trkpt lat="45.949839" lon="9.848926">
<ele>1055</ele>
<time>2022-01-08T01:00:28Z</time></trkpt>
<trkpt lat="45.949855" lon="9.848639">
<ele>1055</ele>
<time>2022-01-08T01:00:36Z</time></trkpt>
<trkpt lat="45.949897" lon="9.848427">
<ele>1056</ele>
<time>2022-01-08T01:00:43Z</time></trkpt>
<trkpt lat="45.94992" lon="9.848376">
<ele>1056</ele>
<time>2022-01-08T01:00:44Z</time></trkpt>
<trkpt lat="45.94992" lon="9.848376">
<ele>1056</ele>
<time>2022-01-08T01:00:44Z</time></trkpt>
<trkpt lat="45.950289" lon="9.847517">
<ele>1072</ele>
<time>2022-01-08T01:01:12Z</time></trkpt>
<trkpt lat="45.950602" lon="9.847012">
<ele>1079</ele>
<time>2022-01-08T01:01:31Z</time></trkpt>
<trkpt lat="45.950713" lon="9.846783">
<ele>1080</ele>
<time>2022-01-08T01:01:39Z</time></trkpt>
<trkpt lat="45.950884" lon="9.84606">
<ele>1086</ele>
<time>2022-01-08T01:02:00Z</time></trkpt>
<trkpt lat="45.951372" lon="9.844759">
<ele>1107</ele>
<time>2022-01-08T01:02:41Z</time></trkpt>
<trkpt lat="45.951372" lon="9.844759">
<ele>1107</ele>
<time>2022-01-08T01:02:41Z</time></trkpt>
<trkpt lat="45.951499" lon="9.844331">
<ele>1108</ele>
<time>2022-01-08T01:02:54Z</time></trkpt>
<trkpt lat="45.951693" lon="9.843981">
<ele>1108</ele>
<time>2022-01-08T01:03:07Z</time></trkpt>
<trkpt lat="45.951941" lon="9.843911">
<ele>1118</ele>
<time>2022-01-08T01:03:17Z</time></trkpt>
<trkpt lat="45.952067" lon="9.843815">
<ele>1122</ele>
<time>2022-01-08T01:03:23Z</time></trkpt>
<trkpt lat="45.952256" lon="9.843471">
<ele>1124</ele>
<time>2022-01-08T01:03:35Z</time></trkpt>
<trkpt lat="45.952394" lon="9.843124">
<ele>1125</ele>
<time>2022-01-08T01:03:46Z</time></trkpt>
<trkpt lat="45.952438" lon="9.84274">
<ele>1125</ele>
<time>2022-01-08T01:03:57Z</time></trkpt>
<trkpt lat="45.952555" lon="9.842257">
<ele>1128</ele>
<time>2022-01-08T01:04:11Z</time></trkpt>
<trkpt lat="45.9527" lon="9.84209">
<ele>1136</ele>
<time>2022-01-08T01:04:19Z</time></trkpt>
<trkpt lat="45.952746" lon="9.841939">
<ele>1139</ele>
<time>2022-01-08T01:04:23Z</time></trkpt>
<trkpt lat="45.952759" lon="9.841763">
<ele>1140</ele>
<time>2022-01-08T01:04:28Z</time></trkpt>
<trkpt lat="45.952726" lon="9.841534">
<ele>1140</ele>
<time>2022-01-08T01:04:35Z</time></trkpt>
<trkpt lat="45.952757" lon="9.841205">
<ele>1143</ele>
<time>2022-01-08T01:04:44Z</time></trkpt>
<trkpt lat="45.952757" lon="9.841205">
<ele>1143</ele>
<time>2022-01-08T01:04:44Z</time></trkpt>
<trkpt lat="45.95279" lon="9.840856">
<ele>1145</ele>
<time>2022-01-08T01:04:54Z</time></trkpt>
<trkpt lat="45.952952" lon="9.840242">
<ele>1155</ele>
<time>2022-01-08T01:05:12Z</time></trkpt>
<trkpt lat="45.953015" lon="9.83987">
<ele>1159</ele>
<time>2022-01-08T01:05:23Z</time></trkpt>
<trkpt lat="45.953201" lon="9.83963">
<ele>1165</ele>
<time>2022-01-08T01:05:33Z</time></trkpt>
<trkpt lat="45.953454" lon="9.839088">
<ele>1175</ele>
<time>2022-01-08T01:05:51Z</time></trkpt>
<trkpt lat="45.95359" lon="9.838435">
<ele>1184</ele>
<time>2022-01-08T01:06:10Z</time></trkpt>
<trkpt lat="45.953875" lon="9.837733">
<ele>1196</ele>
<time>2022-01-08T01:06:33Z</time></trkpt>
<trkpt lat="45.953907" lon="9.837531">
<ele>1197</ele>
<time>2022-01-08T01:06:38Z</time></trkpt>
<trkpt lat="45.953882" lon="9.837199">
<ele>1201</ele>
<time>2022-01-08T01:06:48Z</time></trkpt>
<trkpt lat="45.953882" lon="9.837199">
<ele>1201</ele>
<time>2022-01-08T01:06:48Z</time></trkpt>
<trkpt lat="45.953862" lon="9.836918">
<ele>1205</ele>
<time>2022-01-08T01:06:55Z</time></trkpt>
<trkpt lat="45.953802" lon="9.836745">
<ele>1207</ele>
<time>2022-01-08T01:07:01Z</time></trkpt>
<trkpt lat="45.953739" lon="9.836691">
<ele>1207</ele>
<time>2022-01-08T01:07:04Z</time></trkpt>
<trkpt lat="45.95364" lon="9.835886">
<ele>1220</ele>
<time>2022-01-08T01:07:27Z</time></trkpt>
<trkpt lat="45.953992" lon="9.83518">
<ele>1229</ele>
<time>2022-01-08T01:07:51Z</time></trkpt>
<trkpt lat="45.95444" lon="9.834513">
<ele>1245</ele>
<time>2022-01-08T01:08:17Z</time></trkpt>
<trkpt lat="45.954436" lon="9.83435">
<ele>1246</ele>
<time>2022-01-08T01:08:21Z</time></trkpt>
<trkpt lat="45.954323" lon="9.834274">
<ele>1243</ele>
<time>2022-01-08T01:08:26Z</time></trkpt>
<trkpt lat="45.954016" lon="9.834491">
<ele>1236</ele>
<time>2022-01-08T01:08:40Z</time></trkpt>
<trkpt lat="45.953903" lon="9.8345">
<ele>1234</ele>
<time>2022-01-08T01:08:44Z</time></trkpt>
<trkpt lat="45.953834" lon="9.834401">
<ele>1235</ele>
<time>2022-01-08T01:08:48Z</time></trkpt>
<trkpt lat="45.953828" lon="9.834247">
<ele>1236</ele>
<time>2022-01-08T01:08:53Z</time></trkpt>
<trkpt lat="45.954047" lon="9.833977">
<ele>1242</ele>
<time>2022-01-08T01:09:04Z</time></trkpt>
<trkpt lat="45.954395" lon="9.833288">
<ele>1259</ele>
<time>2022-01-08T01:09:28Z</time></trkpt>
<trkpt lat="45.954447" lon="9.832933">
<ele>1264</ele>
<time>2022-01-08T01:09:38Z</time></trkpt>
<trkpt lat="45.954447" lon="9.832933">
<ele>1264</ele>
<time>2022-01-08T01:09:38Z</time></trkpt>
<trkpt lat="45.95452" lon="9.832444">
<ele>1271</ele>
<time>2022-01-08T01:09:52Z</time></trkpt>
<trkpt lat="45.954684" lon="9.832151">
<ele>1277</ele>
<time>2022-01-08T01:10:02Z</time></trkpt>
<trkpt lat="45.954892" lon="9.831349">
<ele>1289</ele>
<time>2022-01-08T01:10:26Z</time></trkpt>
<trkpt lat="45.954962" lon="9.83114">
<ele>1292</ele>
<time>2022-01-08T01:10:33Z</time></trkpt>
<trkpt lat="45.955037" lon="9.831001">
<ele>1295</ele>
<time>2022-01-08T01:10:38Z</time></trkpt>
<trkpt lat="45.955157" lon="9.830925">
<ele>1300</ele>
<time>2022-01-08T01:10:43Z</time></trkpt>
<trkpt lat="45.955316" lon="9.830345">
<ele>1313</ele>
<time>2022-01-08T01:11:00Z</time></trkpt>
<trkpt lat="45.955295" lon="9.829641">
<ele>1319</ele>
<time>2022-01-08T01:11:20Z</time></trkpt>
<trkpt lat="45.95524" lon="9.829021">
<ele>1319</ele>
<time>2022-01-08T01:11:37Z</time></trkpt>
<trkpt lat="45.955248" lon="9.828778">
<ele>1321</ele>
<time>2022-01-08T01:11:44Z</time></trkpt>
<trkpt lat="45.955471" lon="9.828347">
<ele>1335</ele>
<time>2022-01-08T01:11:59Z</time></trkpt>
<trkpt lat="45.955471" lon="9.828347">
<ele>1335</ele>
<time>2022-01-08T01:11:59Z</time></trkpt>
<trkpt lat="45.955509" lon="9.828274">
<ele>1337</ele>
<time>2022-01-08T01:12:02Z</time></trkpt>
<trkpt lat="45.95593" lon="9.827898">
<ele>1361</ele>
<time>2022-01-08T01:12:21Z</time></trkpt>
<trkpt lat="45.956131" lon="9.827523">
<ele>1372</ele>
<time>2022-01-08T01:12:35Z</time></trkpt>
<trkpt lat="45.956143" lon="9.827285">
<ele>1374</ele>
<time>2022-01-08T01:12:41Z</time></trkpt>
<trkpt lat="45.956054" lon="9.827052">
<ele>1371</ele>
<time>2022-01-08T01:12:49Z</time></trkpt>
<trkpt lat="45.955712" lon="9.827113">
<ele>1356</ele>
<time>2022-01-08T01:13:03Z</time></trkpt>
<trkpt lat="45.955683" lon="9.827069">
<ele>1356</ele>
<time>2022-01-08T01:13:04Z</time></trkpt>
<trkpt lat="45.955686" lon="9.826973">
<ele>1358</ele>
<time>2022-01-08T01:13:07Z</time></trkpt>
<trkpt lat="45.955715" lon="9.826754">
<ele>1363</ele>
<time>2022-01-08T01:13:13Z</time></trkpt>
<trkpt lat="45.955861" lon="9.82643">
<ele>1368</ele>
<time>2022-01-08T01:13:24Z</time></trkpt>
<trkpt lat="45.956243" lon="9.82617">
<ele>1381</ele>
<time>2022-01-08T01:13:41Z</time></trkpt>
<trkpt lat="45.956515" lon="9.825746">
<ele>1390</ele>
<time>2022-01-08T01:13:57Z</time></trkpt>
<trkpt lat="45.956811" lon="9.825123">
<ele>1395</ele>
<time>2022-01-08T01:14:18Z</time></trkpt>
<trkpt lat="45.957027" lon="9.824921">
<ele>1402</ele>
<time>2022-01-08T01:14:28Z</time></trkpt>
<trkpt lat="45.957027" lon="9.824921">
<ele>1402</ele>
<time>2022-01-08T01:14:28Z</time></trkpt>
<trkpt lat="45.957214" lon="9.824776">
<ele>1407</ele>
<time>2022-01-08T01:14:37Z</time></trkpt>
<trkpt lat="45.957522" lon="9.824375">
<ele>1412</ele>
<time>2022-01-08T01:14:53Z</time></trkpt>
<trkpt lat="45.957675" lon="9.824275">
<ele>1417</ele>
<time>2022-01-08T01:15:00Z</time></trkpt>
<trkpt lat="45.957713" lon="9.824133">
<ele>1417</ele>
<time>2022-01-08T01:15:04Z</time></trkpt>
<trkpt lat="45.957701" lon="9.824081">
<ele>1416</ele>
<time>2022-01-08T01:15:06Z</time></trkpt>
<trkpt lat="45.9577178" lon="9.8239498">
<ele>1416</ele>
<time>2022-01-08T01:15:10Z</time></trkpt>
<trkpt lat="45.957737" lon="9.823799">
<ele>1415</ele>
<time>2022-01-08T01:15:14Z</time></trkpt>
<trkpt lat="45.957783" lon="9.823738">
<ele>1416</ele>
<time>2022-01-08T01:15:16Z</time></trkpt>
<trkpt lat="45.957832" lon="9.823425">
<ele>1414</ele>
<time>2022-01-08T01:15:25Z</time></trkpt>
<trkpt lat="45.957864" lon="9.823349">
<ele>1414</ele>
<time>2022-01-08T01:15:28Z</time></trkpt>
<trkpt lat="45.957933" lon="9.823313">
<ele>1416</ele>
<time>2022-01-08T01:15:31Z</time></trkpt>
<trkpt lat="45.958052" lon="9.822883">
<ele>1415</ele>
<time>2022-01-08T01:15:44Z</time></trkpt>
<trkpt lat="45.958154" lon="9.822644">
<ele>1414</ele>
<time>2022-01-08T01:15:51Z</time></trkpt>
<trkpt lat="45.958295" lon="9.822422">
<ele>1414</ele>
<time>2022-01-08T01:16:00Z</time></trkpt>
<trkpt lat="45.958345" lon="9.822368">
<ele>1415</ele>
<time>2022-01-08T01:16:02Z</time></trkpt>
<trkpt lat="45.958556" lon="9.821882">
<ele>1420</ele>
<time>2022-01-08T01:16:18Z</time></trkpt>
<trkpt lat="45.95867" lon="9.821716">
<ele>1423</ele>
<time>2022-01-08T01:16:25Z</time></trkpt>
<trkpt lat="45.95867" lon="9.821716">
<ele>1423</ele>
<time>2022-01-08T01:16:25Z</time></trkpt>
<trkpt lat="45.958923" lon="9.82135">
<ele>1430</ele>
<time>2022-01-08T01:16:39Z</time></trkpt>
<trkpt lat="45.95895" lon="9.821238">
<ele>1430</ele>
<time>2022-01-08T01:16:42Z</time></trkpt>
<trkpt lat="45.959047" lon="9.821126">
<ele>1432</ele>
<time>2022-01-08T01:16:47Z</time></trkpt>
<trkpt lat="45.959082" lon="9.820983">
<ele>1431</ele>
<time>2022-01-08T01:16:52Z</time></trkpt>
<trkpt lat="45.959279" lon="9.82086">
<ele>1435</ele>
<time>2022-01-08T01:17:00Z</time></trkpt>
<trkpt lat="45.9595" lon="9.820549">
<ele>1441</ele>
<time>2022-01-08T01:17:13Z</time></trkpt>
<trkpt lat="45.95985" lon="9.820125">
<ele>1446</ele>
<time>2022-01-08T01:17:31Z</time></trkpt>
<trkpt lat="45.960272" lon="9.819952">
<ele>1452</ele>
<time>2022-01-08T01:17:49Z</time></trkpt>
<trkpt lat="45.960302" lon="9.819964">
<ele>1453</ele>
<time>2022-01-08T01:17:50Z</time></trkpt>
<trkpt lat="45.960353" lon="9.819887">
<ele>1454</ele>
<time>2022-01-08T01:17:53Z</time></trkpt>
<trkpt lat="45.960523" lon="9.819785">
<ele>1457</ele>
<time>2022-01-08T01:18:00Z</time></trkpt>
<trkpt lat="45.960523" lon="9.819785">
<ele>1457</ele>
<time>2022-01-08T01:18:00Z</time></trkpt>
<trkpt lat="45.960737" lon="9.819627">
<ele>1460</ele>
<time>2022-01-08T01:18:10Z</time></trkpt>
<trkpt lat="45.960796" lon="9.819608">
<ele>1461</ele>
<time>2022-01-08T01:18:12Z</time></trkpt>
<trkpt lat="45.960851" lon="9.819617">
<ele>1461</ele>
<time>2022-01-08T01:18:14Z</time></trkpt>
<trkpt lat="45.960904" lon="9.819571">
<ele>1462</ele>
<time>2022-01-08T01:18:17Z</time></trkpt>
<trkpt lat="45.960952" lon="9.819452">
<ele>1461</ele>
<time>2022-01-08T01:18:21Z</time></trkpt>
<trkpt lat="45.960993" lon="9.819395">
<ele>1461</ele>
<time>2022-01-08T01:18:23Z</time></trkpt>
<trkpt lat="45.961032" lon="9.819385">
<ele>1462</ele>
<time>2022-01-08T01:18:25Z</time></trkpt>
<trkpt lat="45.961089" lon="9.81942">
<ele>1463</ele>
<time>2022-01-08T01:18:27Z</time></trkpt>
<trkpt lat="45.961218" lon="9.819433">
<ele>1464</ele>
<time>2022-01-08T01:18:32Z</time></trkpt>
<trkpt lat="45.96126" lon="9.819341">
<ele>1464</ele>
<time>2022-01-08T01:18:35Z</time></trkpt>
<trkpt lat="45.96141" lon="9.819307">
<ele>1465</ele>
<time>2022-01-08T01:18:41Z</time></trkpt>
<trkpt lat="45.961593" lon="9.819358">
<ele>1468</ele>
<time>2022-01-08T01:18:49Z</time></trkpt>
<trkpt lat="45.96173" lon="9.81947">
<ele>1471</ele>
<time>2022-01-08T01:18:55Z</time></trkpt>
<trkpt lat="45.96182" lon="9.819398">
<ele>1472</ele>
<time>2022-01-08T01:18:59Z</time></trkpt>
<trkpt lat="45.962048" lon="9.819469">
<ele>1476</ele>
<time>2022-01-08T01:19:09Z</time></trkpt>
<trkpt lat="45.962135" lon="9.819424">
<ele>1477</ele>
<time>2022-01-08T01:19:12Z</time></trkpt>
<trkpt lat="45.962237" lon="9.819338">
<ele>1478</ele>
<time>2022-01-08T01:19:17Z</time></trkpt>
<trkpt lat="45.962384" lon="9.819369">
<ele>1481</ele>
<time>2022-01-08T01:19:23Z</time></trkpt>
<trkpt lat="45.962384" lon="9.819369">
<ele>1481</ele>
<time>2022-01-08T01:19:23Z</time></trkpt>
<trkpt lat="45.962485" lon="9.819419">
<ele>1483</ele>
<time>2022-01-08T01:19:27Z</time></trkpt>
<trkpt lat="45.962718" lon="9.819204">
<ele>1485</ele>
<time>2022-01-08T01:19:39Z</time></trkpt>
<trkpt lat="45.962983" lon="9.819174">
<ele>1489</ele>
<time>2022-01-08T01:19:49Z</time></trkpt>
<trkpt lat="45.963059" lon="9.819234">
<ele>1490</ele>
<time>2022-01-08T01:19:53Z</time></trkpt>
<trkpt lat="45.963167" lon="9.819245">
<ele>1492</ele>
<time>2022-01-08T01:19:57Z</time></trkpt>
<trkpt lat="45.963493" lon="9.819161">
<ele>1498</ele>
<time>2022-01-08T01:20:10Z</time></trkpt>
<trkpt lat="45.963534" lon="9.819107">
<ele>1500</ele>
<time>2022-01-08T01:20:12Z</time></trkpt>
<trkpt lat="45.963625" lon="9.819102">
<ele>1503</ele>
<time>2022-01-08T01:20:16Z</time></trkpt>
<trkpt lat="45.963707" lon="9.819169">
<ele>1503</ele>
<time>2022-01-08T01:20:20Z</time></trkpt>
<trkpt lat="45.963781" lon="9.819168">
<ele>1505</ele>
<time>2022-01-08T01:20:23Z</time></trkpt>
<trkpt lat="45.963881" lon="9.819265">
<ele>1508</ele>
<time>2022-01-08T01:20:28Z</time></trkpt>
<trkpt lat="45.963985" lon="9.81929">
<ele>1511</ele>
<time>2022-01-08T01:20:32Z</time></trkpt>
<trkpt lat="45.964028" lon="9.819329">
<ele>1512</ele>
<time>2022-01-08T01:20:34Z</time></trkpt>
<trkpt lat="45.964146" lon="9.819352">
<ele>1515</ele>
<time>2022-01-08T01:20:39Z</time></trkpt>
<trkpt lat="45.964207" lon="9.819445">
<ele>1517</ele>
<time>2022-01-08T01:20:42Z</time></trkpt>
<trkpt lat="45.964297" lon="9.819481">
<ele>1520</ele>
<time>2022-01-08T01:20:46Z</time></trkpt>
<trkpt lat="45.964297" lon="9.819481">
<ele>1520</ele>
<time>2022-01-08T01:20:46Z</time></trkpt>
<trkpt lat="45.964362" lon="9.819485">
<ele>1522</ele>
<time>2022-01-08T01:20:49Z</time></trkpt>
<trkpt lat="45.964556" lon="9.819585">
<ele>1527</ele>
<time>2022-01-08T01:20:57Z</time></trkpt>
<trkpt lat="45.964604" lon="9.819659">
<ele>1527</ele>
<time>2022-01-08T01:21:00Z</time></trkpt>
<trkpt lat="45.96483" lon="9.819866">
<ele>1531</ele>
<time>2022-01-08T01:21:10Z</time></trkpt>
<trkpt lat="45.965078" lon="9.819998">
<ele>1535</ele>
<time>2022-01-08T01:21:21Z</time></trkpt>
<trkpt lat="45.965282" lon="9.820149">
<ele>1545</ele>
<time>2022-01-08T01:21:30Z</time></trkpt>
<trkpt lat="45.965878" lon="9.820731">
<ele>1567</ele>
<time>2022-01-08T01:21:59Z</time></trkpt>
<trkpt lat="45.965939" lon="9.820726">
<ele>1570</ele>
<time>2022-01-08T01:22:02Z</time></trkpt>
<trkpt lat="45.965987" lon="9.820637">
<ele>1573</ele>
<time>2022-01-08T01:22:05Z</time></trkpt>
<trkpt lat="45.965987" lon="9.820637">
<ele>1573</ele>
<time>2022-01-08T01:22:05Z</time></trkpt>
<trkpt lat="45.966191" lon="9.820891">
<ele>1586</ele>
<time>2022-01-08T01:22:16Z</time></trkpt>
<trkpt lat="45.966227" lon="9.820811">
<ele>1585</ele>
<time>2022-01-08T01:22:18Z</time></trkpt>
<trkpt lat="45.966269" lon="9.820909">
<ele>1590</ele>
<time>2022-01-08T01:22:21Z</time></trkpt>
<trkpt lat="45.966326" lon="9.820813">
<ele>1591</ele>
<time>2022-01-08T01:22:25Z</time></trkpt>
<trkpt lat="45.966303" lon="9.820711">
<ele>1590</ele>
<time>2022-01-08T01:22:28Z</time></trkpt>
<trkpt lat="45.966358" lon="9.820705">
<ele>1593</ele>
<time>2022-01-08T01:22:30Z</time></trkpt>
<trkpt lat="45.966358" lon="9.820667">
<ele>1593</ele>
<time>2022-01-08T01:22:31Z</time></trkpt>
<trkpt lat="45.966358" lon="9.820631">
<ele>1593</ele>
<time>2022-01-08T01:22:32Z</time></trkpt>
<trkpt lat="45.96643" lon="9.820583">
<ele>1597</ele>
<time>2022-01-08T01:22:35Z</time></trkpt>
<trkpt lat="45.966454" lon="9.820468">
<ele>1599</ele>
<time>2022-01-08T01:22:39Z</time></trkpt>
<trkpt lat="45.966555" lon="9.820315">
<ele>1605</ele>
<time>2022-01-08T01:22:45Z</time></trkpt>
<trkpt lat="45.966585" lon="9.820117">
<ele>1608</ele>
<time>2022-01-08T01:22:50Z</time></trkpt>
<trkpt lat="45.966585" lon="9.820117">
<ele>1608</ele>
<time>2022-01-08T01:22:50Z</time></trkpt>
<trkpt lat="45.966598" lon="9.820031">
<ele>1609</ele>
<time>2022-01-08T01:22:53Z</time></trkpt>
<trkpt lat="45.966524" lon="9.81987">
<ele>1607</ele>
<time>2022-01-08T01:22:58Z</time></trkpt>
<trkpt lat="45.966504" lon="9.81969">
<ele>1610</ele>
<time>2022-01-08T01:23:03Z</time></trkpt>
<trkpt lat="45.966422" lon="9.819575">
<ele>1608</ele>
<time>2022-01-08T01:23:08Z</time></trkpt>
<trkpt lat="45.966389" lon="9.819475">
<ele>1608</ele>
<time>2022-01-08T01:23:11Z</time></trkpt>
<trkpt lat="45.96641" lon="9.819443">
<ele>1610</ele>
<time>2022-01-08T01:23:12Z</time></trkpt>
<trkpt lat="45.966556" lon="9.819476">
<ele>1617</ele>
<time>2022-01-08T01:23:18Z</time></trkpt>
<trkpt lat="45.966568" lon="9.819397">
<ele>1620</ele>
<time>2022-01-08T01:23:20Z</time></trkpt>
<trkpt lat="45.966513" lon="9.819261">
<ele>1620</ele>
<time>2022-01-08T01:23:25Z</time></trkpt>
<trkpt lat="45.966419" lon="9.819152">
<ele>1617</ele>
<time>2022-01-08T01:23:29Z</time></trkpt>
<trkpt lat="45.966406" lon="9.819105">
<ele>1617</ele>
<time>2022-01-08T01:23:31Z</time></trkpt>
<trkpt lat="45.966425" lon="9.819081">
<ele>1619</ele>
<time>2022-01-08T01:23:32Z</time></trkpt>
<trkpt lat="45.966701" lon="9.818988">
<ele>1637</ele>
<time>2022-01-08T01:23:43Z</time></trkpt>
<trkpt lat="45.966931" lon="9.819079">
<ele>1646</ele>
<time>2022-01-08T01:23:53Z</time></trkpt>
<trkpt lat="45.967073" lon="9.819084">
<ele>1653</ele>
<time>2022-01-08T01:23:58Z</time></trkpt>
<trkpt lat="45.967111" lon="9.819179">
<ele>1652</ele>
<time>2022-01-08T01:24:01Z</time></trkpt>
<trkpt lat="45.967122" lon="9.819284">
<ele>1651</ele>
<time>2022-01-08T01:24:04Z</time></trkpt>
<trkpt lat="45.96709" lon="9.819384">
<ele>1647</ele>
<time>2022-01-08T01:24:08Z</time></trkpt>
<trkpt lat="45.967116" lon="9.819447">
<ele>1647</ele>
<time>2022-01-08T01:24:10Z</time></trkpt>
<trkpt lat="45.967146" lon="9.819442">
<ele>1649</ele>
<time>2022-01-08T01:24:11Z</time></trkpt>
<trkpt lat="45.967175" lon="9.819386">
<ele>1651</ele>
<time>2022-01-08T01:24:13Z</time></trkpt>
<trkpt lat="45.967259" lon="9.81948">
<ele>1654</ele>
<time>2022-01-08T01:24:17Z</time></trkpt>
<trkpt lat="45.967259" lon="9.81948">
<ele>1654</ele>
<time>2022-01-08T01:24:17Z</time></trkpt>
<trkpt lat="45.967317" lon="9.819546">
<ele>1655</ele>
<time>2022-01-08T01:24:20Z</time></trkpt>
<trkpt lat="45.967327" lon="9.819594">
<ele>1655</ele>
<time>2022-01-08T01:24:21Z</time></trkpt>
<trkpt lat="45.967378" lon="9.819613">
<ele>1657</ele>
<time>2022-01-08T01:24:23Z</time></trkpt>
<trkpt lat="45.967409" lon="9.819661">
<ele>1658</ele>
<time>2022-01-08T01:24:25Z</time></trkpt>
<trkpt lat="45.967448" lon="9.819656">
<ele>1660</ele>
<time>2022-01-08T01:24:27Z</time></trkpt>
<trkpt lat="45.967557" lon="9.819726">
<ele>1664</ele>
<time>2022-01-08T01:24:32Z</time></trkpt>
<trkpt lat="45.967646" lon="9.81964">
<ele>1669</ele>
<time>2022-01-08T01:24:36Z</time></trkpt>
<trkpt lat="45.967822" lon="9.819693">
<ele>1675</ele>
<time>2022-01-08T01:24:43Z</time></trkpt>
<trkpt lat="45.967915" lon="9.819823">
<ele>1675</ele>
<time>2022-01-08T01:24:48Z</time></trkpt>
<trkpt lat="45.968035" lon="9.819851">
<ele>1679</ele>
<time>2022-01-08T01:24:53Z</time></trkpt>
<trkpt lat="45.968197" lon="9.820179">
<ele>1679</ele>
<time>2022-01-08T01:25:04Z</time></trkpt>
<trkpt lat="45.968286" lon="9.820268">
<ele>1681</ele>
<time>2022-01-08T01:25:09Z</time></trkpt>
<trkpt lat="45.968321" lon="9.820249">
<ele>1683</ele>
<time>2022-01-08T01:25:10Z</time></trkpt>
<trkpt lat="45.968328" lon="9.820161">
<ele>1684</ele>
<time>2022-01-08T01:25:13Z</time></trkpt>
<trkpt lat="45.968373" lon="9.820091">
<ele>1687</ele>
<time>2022-01-08T01:25:15Z</time></trkpt>
<trkpt lat="45.968447" lon="9.820109">
<ele>1690</ele>
<time>2022-01-08T01:25:18Z</time></trkpt>
<trkpt lat="45.968544" lon="9.820031">
<ele>1696</ele>
<time>2022-01-08T01:25:23Z</time></trkpt>
<trkpt lat="45.96868" lon="9.820114">
<ele>1701</ele>
<time>2022-01-08T01:25:29Z</time></trkpt>
<trkpt lat="45.968855" lon="9.820393">
<ele>1705</ele>
<time>2022-01-08T01:25:39Z</time></trkpt>
<trkpt lat="45.968948" lon="9.82064">
<ele>1705</ele>
<time>2022-01-08T01:25:47Z</time></trkpt>
<trkpt lat="45.968964" lon="9.820747">
<ele>1703</ele>
<time>2022-01-08T01:25:50Z</time></trkpt>
<trkpt lat="45.969" lon="9.820789">
<ele>1704</ele>
<time>2022-01-08T01:25:52Z</time></trkpt>
<trkpt lat="45.96904" lon="9.820785">
<ele>1706</ele>
<time>2022-01-08T01:25:54Z</time></trkpt>
<trkpt lat="45.96904" lon="9.820785">
<ele>1706</ele>
<time>2022-01-08T01:25:54Z</time></trkpt>
<trkpt lat="45.969152" lon="9.820774">
<ele>1711</ele>
<time>2022-01-08T01:25:58Z</time></trkpt>
<trkpt lat="45.969294" lon="9.820872">
<ele>1716</ele>
<time>2022-01-08T01:26:04Z</time></trkpt>
<trkpt lat="45.969307" lon="9.821039">
<ele>1714</ele>
<time>2022-01-08T01:26:09Z</time></trkpt>
<trkpt lat="45.969391" lon="9.821597">
<ele>1710</ele>
<time>2022-01-08T01:26:25Z</time></trkpt>
<trkpt lat="45.969479" lon="9.8217">
<ele>1713</ele>
<time>2022-01-08T01:26:29Z</time></trkpt>
<trkpt lat="45.969598" lon="9.821732">
<ele>1718</ele>
<time>2022-01-08T01:26:34Z</time></trkpt>
<trkpt lat="45.969666" lon="9.821672">
<ele>1721</ele>
<time>2022-01-08T01:26:38Z</time></trkpt>
<trkpt lat="45.969775" lon="9.821625">
<ele>1726</ele>
<time>2022-01-08T01:26:42Z</time></trkpt>
<trkpt lat="45.969937" lon="9.821635">
<ele>1733</ele>
<time>2022-01-08T01:26:49Z</time></trkpt>
<trkpt lat="45.969972" lon="9.821546">
<ele>1736</ele>
<time>2022-01-08T01:26:51Z</time></trkpt>
<trkpt lat="45.970076" lon="9.821486">
<ele>1742</ele>
<time>2022-01-08T01:26:56Z</time></trkpt>
<trkpt lat="45.970076" lon="9.821485">
<ele>1742</ele>
<time>2022-01-08T01:26:56Z</time></trkpt>
<trkpt lat="45.97014" lon="9.821448">
<ele>1745</ele>
<time>2022-01-08T01:26:59Z</time></trkpt>
<trkpt lat="45.970163" lon="9.821483">
<ele>1745</ele>
<time>2022-01-08T01:27:00Z</time></trkpt>
<trkpt lat="45.970192" lon="9.821458">
<ele>1747</ele>
<time>2022-01-08T01:27:01Z</time></trkpt>
<trkpt lat="45.970218" lon="9.821373">
<ele>1750</ele>
<time>2022-01-08T01:27:04Z</time></trkpt>
<trkpt lat="45.970173" lon="9.821348">
<ele>1748</ele>
<time>2022-01-08T01:27:06Z</time></trkpt>
<trkpt lat="45.970122" lon="9.821222">
<ele>1749</ele>
<time>2022-01-08T01:27:10Z</time></trkpt>
<trkpt lat="45.970027" lon="9.820854">
<ele>1752</ele>
<time>2022-01-08T01:27:21Z</time></trkpt>
<trkpt lat="45.970055" lon="9.820348">
<ele>1761</ele>
<time>2022-01-08T01:27:35Z</time></trkpt>
<trkpt lat="45.970083" lon="9.820222">
<ele>1764</ele>
<time>2022-01-08T01:27:39Z</time></trkpt>
<trkpt lat="45.970254" lon="9.820022">
<ele>1774</ele>
<time>2022-01-08T01:27:48Z</time></trkpt>
<trkpt lat="45.970254" lon="9.820022">
<ele>1774</ele>
<time>2022-01-08T01:27:48Z</time></trkpt>
<trkpt lat="45.97027" lon="9.819854">
<ele>1777</ele>
<time>2022-01-08T01:27:52Z</time></trkpt>
<trkpt lat="45.970445" lon="9.819733">
<ele>1785</ele>
<time>2022-01-08T01:28:00Z</time></trkpt>
<trkpt lat="45.970667" lon="9.819542">
<ele>1797</ele>
<time>2022-01-08T01:28:10Z</time></trkpt>
<trkpt lat="45.970797" lon="9.819626">
<ele>1801</ele>
<time>2022-01-08T01:28:16Z</time></trkpt>
<trkpt lat="45.970994" lon="9.819877">
<ele>1808</ele>
<time>2022-01-08T01:28:27Z</time></trkpt>
<trkpt lat="45.971063" lon="9.820039">
<ele>1809</ele>
<time>2022-01-08T01:28:32Z</time></trkpt>
<trkpt lat="45.971077" lon="9.820152">
<ele>1808</ele>
<time>2022-01-08T01:28:35Z</time></trkpt>
<trkpt lat="45.971054" lon="9.820243">
<ele>1805</ele>
<time>2022-01-08T01:28:38Z</time></trkpt>
<trkpt lat="45.971074" lon="9.820324">
<ele>1805</ele>
<time>2022-01-08T01:28:40Z</time></trkpt>
<trkpt lat="45.971295" lon="9.820416">
<ele>1814</ele>
<time>2022-01-08T01:28:50Z</time></trkpt>
<trkpt lat="45.971404" lon="9.820388">
<ele>1819</ele>
<time>2022-01-08T01:28:54Z</time></trkpt>
<trkpt lat="45.97161" lon="9.820488">
<ele>1828</ele>
<time>2022-01-08T01:29:03Z</time></trkpt>
<trkpt lat="45.97172" lon="9.820516">
<ele>1832</ele>
<time>2022-01-08T01:29:07Z</time></trkpt>
<trkpt lat="45.971755" lon="9.820503">
<ele>1834</ele>
<time>2022-01-08T01:29:09Z</time></trkpt>
<trkpt lat="45.971755" lon="9.820503">
<ele>1834</ele>
<time>2022-01-08T01:29:09Z</time></trkpt>
<trkpt lat="45.971795" lon="9.820488">
<ele>1836</ele>
<time>2022-01-08T01:29:10Z</time></trkpt>
<trkpt lat="45.971863" lon="9.820524">
<ele>1838</ele>
<time>2022-01-08T01:29:13Z</time></trkpt>
<trkpt lat="45.971908" lon="9.820586">
<ele>1839</ele>
<time>2022-01-08T01:29:16Z</time></trkpt>
<trkpt lat="45.972038" lon="9.820602">
<ele>1845</ele>
<time>2022-01-08T01:29:21Z</time></trkpt>
<trkpt lat="45.972281" lon="9.820524">
<ele>1856</ele>
<time>2022-01-08T01:29:31Z</time></trkpt>
<trkpt lat="45.972401" lon="9.820391">
<ele>1862</ele>
<time>2022-01-08T01:29:37Z</time></trkpt>
<trkpt lat="45.972434" lon="9.820381">
<ele>1863</ele>
<time>2022-01-08T01:29:38Z</time></trkpt>
<trkpt lat="45.972467" lon="9.820491">
<ele>1864</ele>
<time>2022-01-08T01:29:42Z</time></trkpt>
<trkpt lat="45.972412" lon="9.820561">
<ele>1861</ele>
<time>2022-01-08T01:29:45Z</time></trkpt>
<trkpt lat="45.972348" lon="9.820708">
<ele>1857</ele>
<time>2022-01-08T01:29:49Z</time></trkpt>
<trkpt lat="45.972371" lon="9.820793">
<ele>1858</ele>
<time>2022-01-08T01:29:52Z</time></trkpt>
<trkpt lat="45.972547" lon="9.820833">
<ele>1865</ele>
<time>2022-01-08T01:29:59Z</time></trkpt>
<trkpt lat="45.972641" lon="9.820882">
<ele>1867</ele>
<time>2022-01-08T01:30:03Z</time></trkpt>
<trkpt lat="45.972693" lon="9.820833">
<ele>1867</ele>
<time>2022-01-08T01:30:06Z</time></trkpt>
<trkpt lat="45.97303" lon="9.820668">
<ele>1874</ele>
<time>2022-01-08T01:30:20Z</time></trkpt>
<trkpt lat="45.973083" lon="9.82061">
<ele>1875</ele>
<time>2022-01-08T01:30:23Z</time></trkpt>
<trkpt lat="45.973196" lon="9.820389">
<ele>1878</ele>
<time>2022-01-08T01:30:30Z</time></trkpt>
<trkpt lat="45.973418" lon="9.820122">
<ele>1883</ele>
<time>2022-01-08T01:30:42Z</time></trkpt>
<trkpt lat="45.973449" lon="9.819994">
<ele>1884</ele>
<time>2022-01-08T01:30:46Z</time></trkpt>
<trkpt lat="45.973449" lon="9.819994">
<ele>1884</ele>
<time>2022-01-08T01:30:46Z</time></trkpt>
<trkpt lat="45.973751" lon="9.819637">
<ele>1893</ele>
<time>2022-01-08T01:31:01Z</time></trkpt>
<trkpt lat="45.973847" lon="9.81957">
<ele>1895</ele>
<time>2022-01-08T01:31:05Z</time></trkpt>
<trkpt lat="45.97394" lon="9.819468">
<ele>1897</ele>
<time>2022-01-08T01:31:10Z</time></trkpt>
<trkpt lat="45.974008" lon="9.819198">
<ele>1902</ele>
<time>2022-01-08T01:31:18Z</time></trkpt>
<trkpt lat="45.974076" lon="9.819101">
<ele>1905</ele>
<time>2022-01-08T01:31:22Z</time></trkpt>
<trkpt lat="45.974244" lon="9.818652">
<ele>1915</ele>
<time>2022-01-08T01:31:36Z</time></trkpt>
<trkpt lat="45.974199" lon="9.818348">
<ele>1922</ele>
<time>2022-01-08T01:31:45Z</time></trkpt>
<trkpt lat="45.974157" lon="9.818259">
<ele>1925</ele>
<time>2022-01-08T01:31:48Z</time></trkpt>
<trkpt lat="45.974109" lon="9.818099">
<ele>1930</ele>
<time>2022-01-08T01:31:53Z</time></trkpt>
<trkpt lat="45.973957" lon="9.817979">
<ele>1932</ele>
<time>2022-01-08T01:32:00Z</time></trkpt>
<trkpt lat="45.973895" lon="9.817743">
<ele>1939</ele>
<time>2022-01-08T01:32:07Z</time></trkpt>
<trkpt lat="45.973887" lon="9.817515">
<ele>1946</ele>
<time>2022-01-08T01:32:13Z</time></trkpt>
<trkpt lat="45.973996" lon="9.817109">
<ele>1963</ele>
<time>2022-01-08T01:32:25Z</time></trkpt>
<trkpt lat="45.974081" lon="9.816973">
<ele>1969</ele>
<time>2022-01-08T01:32:30Z</time></trkpt>
<trkpt lat="45.974322" lon="9.816784">
<ele>1976</ele>
<time>2022-01-08T01:32:41Z</time></trkpt>
<trkpt lat="45.974322" lon="9.816784">
<ele>1976</ele>
<time>2022-01-08T01:32:41Z</time></trkpt>
<trkpt lat="45.974525" lon="9.816669">
<ele>1979</ele>
<time>2022-01-08T01:32:50Z</time></trkpt>
<trkpt lat="45.974916" lon="9.816274">
<ele>1985</ele>
<time>2022-01-08T01:33:09Z</time></trkpt>
<trkpt lat="45.975103" lon="9.815995">
<ele>1991</ele>
<time>2022-01-08T01:33:20Z</time></trkpt>
<trkpt lat="45.975459" lon="9.815251">
<ele>2008</ele>
<time>2022-01-08T01:33:45Z</time></trkpt>
<trkpt lat="45.975543" lon="9.815138">
<ele>2010</ele>
<time>2022-01-08T01:33:50Z</time></trkpt>
<trkpt lat="45.975554" lon="9.815046">
<ele>2011</ele>
<time>2022-01-08T01:33:52Z</time></trkpt>
<trkpt lat="45.975724" lon="9.814773">
<ele>2016</ele>
<time>2022-01-08T01:34:02Z</time></trkpt>
<trkpt lat="45.975793" lon="9.814728">
<ele>2017</ele>
<time>2022-01-08T01:34:06Z</time></trkpt>
<trkpt lat="45.975833" lon="9.814746">
<ele>2017</ele>
<time>2022-01-08T01:34:07Z</time></trkpt>
<trkpt lat="45.975858" lon="9.814725">
<ele>2018</ele>
<time>2022-01-08T01:34:08Z</time></trkpt>
<trkpt lat="45.97584" lon="9.814509">
<ele>2019</ele>
<time>2022-01-08T01:34:14Z</time></trkpt>
<trkpt lat="45.975852" lon="9.814465">
<ele>2020</ele>
<time>2022-01-08T01:34:16Z</time></trkpt>
<trkpt lat="45.975952" lon="9.814496">
<ele>2023</ele>
<time>2022-01-08T01:34:20Z</time></trkpt>
<trkpt lat="45.97617" lon="9.814382">
<ele>2030</ele>
<time>2022-01-08T01:34:29Z</time></trkpt>
<trkpt lat="45.97626" lon="9.814285">
<ele>2033</ele>
<time>2022-01-08T01:34:34Z</time></trkpt>
<trkpt lat="45.976316" lon="9.814292">
<ele>2034</ele>
<time>2022-01-08T01:34:36Z</time></trkpt>
<trkpt lat="45.976316" lon="9.814292">
<ele>2034</ele>
<time>2022-01-08T01:34:36Z</time></trkpt>
<trkpt lat="45.97636" lon="9.814298">
<ele>2035</ele>
<time>2022-01-08T01:34:38Z</time></trkpt>
<trkpt lat="45.976461" lon="9.814406">
<ele>2038</ele>
<time>2022-01-08T01:34:43Z</time></trkpt>
<trkpt lat="45.976509" lon="9.814417">
<ele>2039</ele>
<time>2022-01-08T01:34:45Z</time></trkpt>
<trkpt lat="45.976751" lon="9.814224">
<ele>2047</ele>
<time>2022-01-08T01:34:56Z</time></trkpt>
<trkpt lat="45.976962" lon="9.813906">
<ele>2058</ele>
<time>2022-01-08T01:35:08Z</time></trkpt>
<trkpt lat="45.977053" lon="9.813886">
<ele>2062</ele>
<time>2022-01-08T01:35:12Z</time></trkpt>
<trkpt lat="45.977147" lon="9.813722">
<ele>2066</ele>
<time>2022-01-08T01:35:18Z</time></trkpt>
<trkpt lat="45.977169" lon="9.813614">
<ele>2067</ele>
<time>2022-01-08T01:35:21Z</time></trkpt>
<trkpt lat="45.977497" lon="9.813308">
<ele>2077</ele>
<time>2022-01-08T01:35:36Z</time></trkpt>
<trkpt lat="45.977647" lon="9.813074">
<ele>2088</ele>
<time>2022-01-08T01:35:45Z</time></trkpt>
<trkpt lat="45.977852" lon="9.813056">
<ele>2099</ele>
<time>2022-01-08T01:35:54Z</time></trkpt>
<trkpt lat="45.977934" lon="9.812811">
<ele>2103</ele>
<time>2022-01-08T01:36:01Z</time></trkpt>
<trkpt lat="45.978092" lon="9.81249">
<ele>2110</ele>
<time>2022-01-08T01:36:12Z</time></trkpt>
<trkpt lat="45.978279" lon="9.812202">
<ele>2118</ele>
<time>2022-01-08T01:36:23Z</time></trkpt>
<trkpt lat="45.978799" lon="9.811666">
<ele>2127</ele>
<time>2022-01-08T01:36:49Z</time></trkpt>
<trkpt lat="45.978799" lon="9.811666">
<ele>2127</ele>
<time>2022-01-08T01:36:49Z</time></trkpt>
<trkpt lat="45.979267" lon="9.811253">
<ele>2125</ele>
<time>2022-01-08T01:37:11Z</time></trkpt>
<trkpt lat="45.979279" lon="9.811076">
<ele>2125</ele>
<time>2022-01-08T01:37:16Z</time></trkpt>
<trkpt lat="45.979358" lon="9.810876">
<ele>2121</ele>
<time>2022-01-08T01:37:22Z</time></trkpt>
<trkpt lat="45.979454" lon="9.810556">
<ele>2121</ele>
<time>2022-01-08T01:37:32Z</time></trkpt>
<trkpt lat="45.979487" lon="9.81037">
<ele>2122</ele>
<time>2022-01-08T01:37:37Z</time></trkpt>
<trkpt lat="45.97954" lon="9.810363">
<ele>2119</ele>
<time>2022-01-08T01:37:39Z</time></trkpt>
<trkpt lat="45.979717" lon="9.810815">
<ele>2103</ele>
<time>2022-01-08T01:37:54Z</time></trkpt>
<trkpt lat="45.979736" lon="9.810825">
<ele>2101</ele>
<time>2022-01-08T01:37:54Z</time></trkpt>
<trkpt lat="45.979818" lon="9.810569">
<ele>2100</ele>
<time>2022-01-08T01:38:02Z</time></trkpt>
<trkpt lat="45.979844" lon="9.810578">
<ele>2099</ele>
<time>2022-01-08T01:38:03Z</time></trkpt>
<trkpt lat="45.979872" lon="9.81082">
<ele>2094</ele>
<time>2022-01-08T01:38:10Z</time></trkpt>
<trkpt lat="45.979959" lon="9.811026">
<ele>2087</ele>
<time>2022-01-08T01:38:17Z</time></trkpt>
<trkpt lat="45.979961" lon="9.811094">
<ele>2086</ele>
<time>2022-01-08T01:38:19Z</time></trkpt>
<trkpt lat="45.979976" lon="9.811106">
<ele>2085</ele>
<time>2022-01-08T01:38:19Z</time></trkpt>
<trkpt lat="45.980048" lon="9.811009">
<ele>2081</ele>
<time>2022-01-08T01:38:23Z</time></trkpt>
<trkpt lat="45.980061" lon="9.81103">
<ele>2080</ele>
<time>2022-01-08T01:38:24Z</time></trkpt>
<trkpt lat="45.980062" lon="9.811119">
<ele>2079</ele>
<time>2022-01-08T01:38:27Z</time></trkpt>
<trkpt lat="45.980119" lon="9.811066">
<ele>2075</ele>
<time>2022-01-08T01:38:29Z</time></trkpt>
<trkpt lat="45.980146" lon="9.810926">
<ele>2074</ele>
<time>2022-01-08T01:38:33Z</time></trkpt>
<trkpt lat="45.980182" lon="9.810838">
<ele>2073</ele>
<time>2022-01-08T01:38:36Z</time></trkpt>
<trkpt lat="45.980201" lon="9.810694">
<ele>2073</ele>
<time>2022-01-08T01:38:40Z</time></trkpt>
<trkpt lat="45.980191" lon="9.810517">
<ele>2076</ele>
<time>2022-01-08T01:38:45Z</time></trkpt>
<trkpt lat="45.980229" lon="9.810427">
<ele>2074</ele>
<time>2022-01-08T01:38:48Z</time></trkpt>
<trkpt lat="45.980231" lon="9.810298">
<ele>2075</ele>
<time>2022-01-08T01:38:52Z</time></trkpt>
<trkpt lat="45.980231" lon="9.810298">
<ele>2075</ele>
<time>2022-01-08T01:38:52Z</time></trkpt>
<trkpt lat="45.9803" lon="9.810164">
<ele>2072</ele>
<time>2022-01-08T01:38:57Z</time></trkpt>
<trkpt lat="45.980358" lon="9.809906">
<ele>2071</ele>
<time>2022-01-08T01:39:04Z</time></trkpt>
<trkpt lat="45.980609" lon="9.809407">
<ele>2061</ele>
<time>2022-01-08T01:39:21Z</time></trkpt>
<trkpt lat="45.980707" lon="9.809012">
<ele>2060</ele>
<time>2022-01-08T01:39:33Z</time></trkpt>
<trkpt lat="45.980768" lon="9.808922">
<ele>2056</ele>
<time>2022-01-08T01:39:36Z</time></trkpt>
<trkpt lat="45.980803" lon="9.808812">
<ele>2055</ele>
<time>2022-01-08T01:39:40Z</time></trkpt>
<trkpt lat="45.980864" lon="9.808713">
<ele>2051</ele>
<time>2022-01-08T01:39:43Z</time></trkpt>
<trkpt lat="45.980938" lon="9.808503">
<ele>2048</ele>
<time>2022-01-08T01:39:50Z</time></trkpt>
<trkpt lat="45.981147" lon="9.808164">
<ele>2038</ele>
<time>2022-01-08T01:40:03Z</time></trkpt>
<trkpt lat="45.98126" lon="9.80774">
<ele>2037</ele>
<time>2022-01-08T01:40:15Z</time></trkpt>
<trkpt lat="45.981249" lon="9.807596">
<ele>2040</ele>
<time>2022-01-08T01:40:19Z</time></trkpt>
<trkpt lat="45.981366" lon="9.807302">
<ele>2036</ele>
<time>2022-01-08T01:40:29Z</time></trkpt>
<trkpt lat="45.981366" lon="9.807302">
<ele>2036</ele>
<time>2022-01-08T01:40:29Z</time></trkpt>
<trkpt lat="45.981407" lon="9.807202">
<ele>2035</ele>
<time>2022-01-08T01:40:32Z</time></trkpt>
<trkpt lat="45.981444" lon="9.807015">
<ele>2035</ele>
<time>2022-01-08T01:40:37Z</time></trkpt>
<trkpt lat="45.981528" lon="9.806855">
<ele>2031</ele>
<time>2022-01-08T01:40:43Z</time></trkpt>
<trkpt lat="45.981534" lon="9.80678">
<ele>2032</ele>
<time>2022-01-08T01:40:45Z</time></trkpt>
<trkpt lat="45.981653" lon="9.806586">
<ele>2026</ele>
<time>2022-01-08T01:40:52Z</time></trkpt>
<trkpt lat="45.981727" lon="9.80635">
<ele>2027</ele>
<time>2022-01-08T01:41:00Z</time></trkpt>
<trkpt lat="45.981771" lon="9.80627">
<ele>2026</ele>
<time>2022-01-08T01:41:02Z</time></trkpt>
<trkpt lat="45.981786" lon="9.806194">
<ele>2027</ele>
<time>2022-01-08T01:41:05Z</time></trkpt>
<trkpt lat="45.981984" lon="9.805771">
<ele>2026</ele>
<time>2022-01-08T01:41:19Z</time></trkpt>
<trkpt lat="45.982141" lon="9.805513">
<ele>2025</ele>
<time>2022-01-08T01:41:28Z</time></trkpt>
<trkpt lat="45.982287" lon="9.805149">
<ele>2026</ele>
<time>2022-01-08T01:41:40Z</time></trkpt>
<trkpt lat="45.982583" lon="9.804731">
<ele>2022</ele>
<time>2022-01-08T01:41:57Z</time></trkpt>
<trkpt lat="45.982626" lon="9.804724">
<ele>2021</ele>
<time>2022-01-08T01:41:58Z</time></trkpt>
<trkpt lat="45.982669" lon="9.804649">
<ele>2021</ele>
<time>2022-01-08T01:42:01Z</time></trkpt>
<trkpt lat="45.982882" lon="9.804488">
<ele>2016</ele>
<time>2022-01-08T01:42:11Z</time></trkpt>
<trkpt lat="45.982899" lon="9.804443">
<ele>2017</ele>
<time>2022-01-08T01:42:12Z</time></trkpt>
<trkpt lat="45.982899" lon="9.804443">
<ele>2017</ele>
<time>2022-01-08T01:42:12Z</time></trkpt>
<trkpt lat="45.982941" lon="9.804333">
<ele>2017</ele>
<time>2022-01-08T01:42:16Z</time></trkpt>
<trkpt lat="45.982957" lon="9.804208">
<ele>2019</ele>
<time>2022-01-08T01:42:19Z</time></trkpt>
<trkpt lat="45.982882" lon="9.804122">
<ele>2023</ele>
<time>2022-01-08T01:42:23Z</time></trkpt>
<trkpt lat="45.983143" lon="9.803927">
<ele>2019</ele>
<time>2022-01-08T01:42:35Z</time></trkpt>
<trkpt lat="45.983148" lon="9.80385">
<ele>2021</ele>
<time>2022-01-08T01:42:37Z</time></trkpt>
<trkpt lat="45.98309" lon="9.803733">
<ele>2025</ele>
<time>2022-01-08T01:42:41Z</time></trkpt>
<trkpt lat="45.983106" lon="9.803697">
<ele>2025</ele>
<time>2022-01-08T01:42:42Z</time></trkpt>
<trkpt lat="45.983273" lon="9.803758">
<ele>2019</ele>
<time>2022-01-08T01:42:49Z</time></trkpt>
<trkpt lat="45.983429" lon="9.803767">
<ele>2015</ele>
<time>2022-01-08T01:42:55Z</time></trkpt>
<trkpt lat="45.983517" lon="9.803717">
<ele>2014</ele>
<time>2022-01-08T01:42:59Z</time></trkpt>
<trkpt lat="45.983778" lon="9.803676">
<ele>2009</ele>
<time>2022-01-08T01:43:10Z</time></trkpt>
<trkpt lat="45.983834" lon="9.803621">
<ele>2010</ele>
<time>2022-01-08T01:43:12Z</time></trkpt>
<trkpt lat="45.983918" lon="9.803609">
<ele>2008</ele>
<time>2022-01-08T01:43:16Z</time></trkpt>
<trkpt lat="45.98403" lon="9.803547">
<ele>2007</ele>
<time>2022-01-08T01:43:21Z</time></trkpt>
<trkpt lat="45.984129" lon="9.803575">
<ele>2005</ele>
<time>2022-01-08T01:43:25Z</time></trkpt>
<trkpt lat="45.984312" lon="9.80358">
<ele>2003</ele>
<time>2022-01-08T01:43:32Z</time></trkpt>
<trkpt lat="45.984451" lon="9.803559">
<ele>2002</ele>
<time>2022-01-08T01:43:38Z</time></trkpt>
<trkpt lat="45.984451" lon="9.803559">
<ele>2002</ele>
<time>2022-01-08T01:43:38Z</time></trkpt>
<trkpt lat="45.984517" lon="9.803549">
<ele>2002</ele>
<time>2022-01-08T01:43:40Z</time></trkpt>
<trkpt lat="45.984738" lon="9.803404">
<ele>2005</ele>
<time>2022-01-08T01:43:50Z</time></trkpt>
<trkpt lat="45.984815" lon="9.803442">
<ele>2004</ele>
<time>2022-01-08T01:43:53Z</time></trkpt>
<trkpt lat="45.984873" lon="9.80351">
<ele>2001</ele>
<time>2022-01-08T01:43:56Z</time></trkpt>
<trkpt lat="45.98497" lon="9.803496">
<ele>2001</ele>
<time>2022-01-08T01:44:00Z</time></trkpt>
<trkpt lat="45.985037" lon="9.803532">
<ele>1999</ele>
<time>2022-01-08T01:44:03Z</time></trkpt>
<trkpt lat="45.985048" lon="9.803569">
<ele>1998</ele>
<time>2022-01-08T01:44:04Z</time></trkpt>
<trkpt lat="45.985085" lon="9.803605">
<ele>1997</ele>
<time>2022-01-08T01:44:06Z</time></trkpt>
<trkpt lat="45.985295" lon="9.803726">
<ele>1992</ele>
<time>2022-01-08T01:44:15Z</time></trkpt>
<trkpt lat="45.985506" lon="9.803766">
<ele>1989</ele>
<time>2022-01-08T01:44:23Z</time></trkpt>
<trkpt lat="45.985923" lon="9.803963">
<ele>1979</ele>
<time>2022-01-08T01:44:41Z</time></trkpt>
<trkpt lat="45.986192" lon="9.803949">
<ele>1979</ele>
<time>2022-01-08T01:44:52Z</time></trkpt>
<trkpt lat="45.986275" lon="9.803989">
<ele>1977</ele>
<time>2022-01-08T01:44:55Z</time></trkpt>
<trkpt lat="45.986275" lon="9.803989">
<ele>1977</ele>
<time>2022-01-08T01:44:55Z</time></trkpt>
<trkpt lat="45.986536" lon="9.804034">
<ele>1975</ele>
<time>2022-01-08T01:45:06Z</time></trkpt>
<trkpt lat="45.986636" lon="9.804116">
<ele>1973</ele>
<time>2022-01-08T01:45:10Z</time></trkpt>
<trkpt lat="45.98696" lon="9.804113">
<ele>1973</ele>
<time>2022-01-08T01:45:23Z</time></trkpt>
<trkpt lat="45.987129" lon="9.804155">
<ele>1972</ele>
<time>2022-01-08T01:45:30Z</time></trkpt>
<trkpt lat="45.987299" lon="9.804234">
<ele>1970</ele>
<time>2022-01-08T01:45:37Z</time></trkpt>
<trkpt lat="45.987412" lon="9.804313">
<ele>1968</ele>
<time>2022-01-08T01:45:43Z</time></trkpt>
<trkpt lat="45.987632" lon="9.804342">
<ele>1965</ele>
<time>2022-01-08T01:45:51Z</time></trkpt>
<trkpt lat="45.987706" lon="9.804297">
<ele>1966</ele>
<time>2022-01-08T01:45:55Z</time></trkpt>
<trkpt lat="45.987765" lon="9.804187">
<ele>1968</ele>
<time>2022-01-08T01:45:58Z</time></trkpt>
<trkpt lat="45.987877" lon="9.8042">
<ele>1966</ele>
<time>2022-01-08T01:46:03Z</time></trkpt>
<trkpt lat="45.987938" lon="9.804153">
<ele>1966</ele>
<time>2022-01-08T01:46:06Z</time></trkpt>
<trkpt lat="45.988024" lon="9.804137">
<ele>1965</ele>
<time>2022-01-08T01:46:09Z</time></trkpt>
<trkpt lat="45.988158" lon="9.804057">
<ele>1964</ele>
<time>2022-01-08T01:46:15Z</time></trkpt>
<trkpt lat="45.988158" lon="9.804057">
<ele>1964</ele>
<time>2022-01-08T01:46:15Z</time></trkpt>
<trkpt lat="45.988319" lon="9.803905">
<ele>1964</ele>
<time>2022-01-08T01:46:23Z</time></trkpt>
<trkpt lat="45.988415" lon="9.803785">
<ele>1967</ele>
<time>2022-01-08T01:46:28Z</time></trkpt>
<trkpt lat="45.988434" lon="9.80367">
<ele>1969</ele>
<time>2022-01-08T01:46:31Z</time></trkpt>
<trkpt lat="45.988457" lon="9.803634">
<ele>1970</ele>
<time>2022-01-08T01:46:32Z</time></trkpt>
<trkpt lat="45.988551" lon="9.803697">
<ele>1969</ele>
<time>2022-01-08T01:46:37Z</time></trkpt>
<trkpt lat="45.988622" lon="9.803658">
<ele>1970</ele>
<time>2022-01-08T01:46:40Z</time></trkpt>
<trkpt lat="45.988884" lon="9.803741">
<ele>1970</ele>
<time>2022-01-08T01:46:50Z</time></trkpt>
<trkpt lat="45.988911" lon="9.803757">
<ele>1970</ele>
<time>2022-01-08T01:46:52Z</time></trkpt>
<trkpt lat="45.988932" lon="9.803806">
<ele>1969</ele>
<time>2022-01-08T01:46:53Z</time></trkpt>
<trkpt lat="45.989144" lon="9.803915">
<ele>1969</ele>
<time>2022-01-08T01:47:02Z</time></trkpt>
<trkpt lat="45.989614" lon="9.804891">
<ele>1961</ele>
<time>2022-01-08T01:47:35Z</time></trkpt>
<trkpt lat="45.989777" lon="9.804955">
<ele>1962</ele>
<time>2022-01-08T01:47:42Z</time></trkpt>
<trkpt lat="45.989886" lon="9.805081">
<ele>1960</ele>
<time>2022-01-08T01:47:48Z</time></trkpt>
<trkpt lat="45.99019" lon="9.805141">
<ele>1958</ele>
<time>2022-01-08T01:48:00Z</time></trkpt>
<trkpt lat="45.99031" lon="9.8051">
<ele>1959</ele>
<time>2022-01-08T01:48:05Z</time></trkpt>
<trkpt lat="45.99031" lon="9.8051">
<ele>1959</ele>
<time>2022-01-08T01:48:05Z</time></trkpt>
<trkpt lat="45.990637" lon="9.804987">
<ele>1960</ele>
<time>2022-01-08T01:48:18Z</time></trkpt>
<trkpt lat="45.990703" lon="9.804935">
<ele>1962</ele>
<time>2022-01-08T01:48:21Z</time></trkpt>
<trkpt lat="45.990796" lon="9.804906">
<ele>1963</ele>
<time>2022-01-08T01:48:25Z</time></trkpt>
<trkpt lat="45.990862" lon="9.804901">
<ele>1962</ele>
<time>2022-01-08T01:48:28Z</time></trkpt>
<trkpt lat="45.990896" lon="9.804928">
<ele>1961</ele>
<time>2022-01-08T01:48:29Z</time></trkpt>
<trkpt lat="45.991005" lon="9.804947">
<ele>1957</ele>
<time>2022-01-08T01:48:34Z</time></trkpt>
<trkpt lat="45.991082" lon="9.804935">
<ele>1956</ele>
<time>2022-01-08T01:48:37Z</time></trkpt>
<trkpt lat="45.99131" lon="9.804702">
<ele>1959</ele>
<time>2022-01-08T01:48:48Z</time></trkpt>
<trkpt lat="45.991391" lon="9.804648">
<ele>1959</ele>
<time>2022-01-08T01:48:52Z</time></trkpt>
<trkpt lat="45.991667" lon="9.804283">
<ele>1962</ele>
<time>2022-01-08T01:49:07Z</time></trkpt>
<trkpt lat="45.992004" lon="9.803964">
<ele>1964</ele>
<time>2022-01-08T01:49:23Z</time></trkpt>
<trkpt lat="45.992004" lon="9.803964">
<ele>1964</ele>
<time>2022-01-08T01:49:23Z</time></trkpt>
<trkpt lat="45.992239" lon="9.803699">
<ele>1963</ele>
<time>2022-01-08T01:49:35Z</time></trkpt>
<trkpt lat="45.992314" lon="9.803698">
<ele>1962</ele>
<time>2022-01-08T01:49:38Z</time></trkpt>
<trkpt lat="45.992423" lon="9.803608">
<ele>1961</ele>
<time>2022-01-08T01:49:43Z</time></trkpt>
<trkpt lat="45.992516" lon="9.803586">
<ele>1959</ele>
<time>2022-01-08T01:49:47Z</time></trkpt>
<trkpt lat="45.99257" lon="9.803628">
<ele>1958</ele>
<time>2022-01-08T01:49:49Z</time></trkpt>
<trkpt lat="45.9926" lon="9.803619">
<ele>1958</ele>
<time>2022-01-08T01:49:50Z</time></trkpt>
<trkpt lat="45.992672" lon="9.803522">
<ele>1959</ele>
<time>2022-01-08T01:49:54Z</time></trkpt>
<trkpt lat="45.992811" lon="9.803498">
<ele>1958</ele>
<time>2022-01-08T01:50:00Z</time></trkpt>
<trkpt lat="45.992884" lon="9.80356">
<ele>1957</ele>
<time>2022-01-08T01:50:03Z</time></trkpt>
<trkpt lat="45.9928938" lon="9.8036053">
<ele>1957</ele>
<time>2022-01-08T01:50:05Z</time></trkpt>
<trkpt lat="45.992935" lon="9.803796">
<ele>1954</ele>
<time>2022-01-08T01:50:10Z</time></trkpt>
<trkpt lat="45.99307" lon="9.803842">
<ele>1953</ele>
<time>2022-01-08T01:50:16Z</time></trkpt>
<trkpt lat="45.993153" lon="9.803757">
<ele>1954</ele>
<time>2022-01-08T01:50:20Z</time></trkpt>
<trkpt lat="45.993307" lon="9.803708">
<ele>1953</ele>
<time>2022-01-08T01:50:26Z</time></trkpt>
<trkpt lat="45.993412" lon="9.803595">
<ele>1953</ele>
<time>2022-01-08T01:50:31Z</time></trkpt>
<trkpt lat="45.993412" lon="9.803595">
<ele>1953</ele>
<time>2022-01-08T01:50:31Z</time></trkpt>
<trkpt lat="45.993464" lon="9.803539">
<ele>1953</ele>
<time>2022-01-08T01:50:34Z</time></trkpt>
<trkpt lat="45.993563" lon="9.803375">
<ele>1953</ele>
<time>2022-01-08T01:50:40Z</time></trkpt>
<trkpt lat="45.993706" lon="9.803272">
<ele>1952</ele>
<time>2022-01-08T01:50:46Z</time></trkpt>
<trkpt lat="45.994008" lon="9.802773">
<ele>1945</ele>
<time>2022-01-08T01:51:05Z</time></trkpt>
<trkpt lat="45.994172" lon="9.802632">
<ele>1942</ele>
<time>2022-01-08T01:51:13Z</time></trkpt>
<trkpt lat="45.994259" lon="9.802495">
<ele>1940</ele>
<time>2022-01-08T01:51:18Z</time></trkpt>
<trkpt lat="45.994517" lon="9.801976">
<ele>1937</ele>
<time>2022-01-08T01:51:35Z</time></trkpt>
<trkpt lat="45.994601" lon="9.801838">
<ele>1936</ele>
<time>2022-01-08T01:51:41Z</time></trkpt>
<trkpt lat="45.994636" lon="9.801614">
<ele>1935</ele>
<time>2022-01-08T01:51:47Z</time></trkpt>
<trkpt lat="45.99475" lon="9.80131">
<ele>1932</ele>
<time>2022-01-08T01:51:57Z</time></trkpt>
<trkpt lat="45.994901" lon="9.801029">
<ele>1928</ele>
<time>2022-01-08T01:52:07Z</time></trkpt>
<trkpt lat="45.994901" lon="9.801029">
<ele>1928</ele>
<time>2022-01-08T01:52:07Z</time></trkpt>
<trkpt lat="45.994997" lon="9.800849">
<ele>1925</ele>
<time>2022-01-08T01:52:13Z</time></trkpt>
<trkpt lat="45.99509" lon="9.800733">
<ele>1923</ele>
<time>2022-01-08T01:52:18Z</time></trkpt>
<trkpt lat="45.995187" lon="9.800498">
<ele>1920</ele>
<time>2022-01-08T01:52:25Z</time></trkpt>
<trkpt lat="45.995356" lon="9.800195">
<ele>1916</ele>
<time>2022-01-08T01:52:36Z</time></trkpt>
<trkpt lat="45.995635" lon="9.79983">
<ele>1906</ele>
<time>2022-01-08T01:52:51Z</time></trkpt>
<trkpt lat="45.995815" lon="9.79956">
<ele>1898</ele>
<time>2022-01-08T01:53:02Z</time></trkpt>
<trkpt lat="45.996079" lon="9.79935">
<ele>1888</ele>
<time>2022-01-08T01:53:14Z</time></trkpt>
<trkpt lat="45.99651" lon="9.798736">
<ele>1868</ele>
<time>2022-01-08T01:53:38Z</time></trkpt>
<trkpt lat="45.996607" lon="9.798645">
<ele>1865</ele>
<time>2022-01-08T01:53:43Z</time></trkpt>
<trkpt lat="45.996646" lon="9.798582">
<ele>1863</ele>
<time>2022-01-08T01:53:45Z</time></trkpt>
<trkpt lat="45.996644" lon="9.798458">
<ele>1861</ele>
<time>2022-01-08T01:53:49Z</time></trkpt>
<trkpt lat="45.996671" lon="9.798206">
<ele>1858</ele>
<time>2022-01-08T01:53:56Z</time></trkpt>
<trkpt lat="45.996756" lon="9.798019">
<ele>1855</ele>
<time>2022-01-08T01:54:02Z</time></trkpt>
<trkpt lat="45.996756" lon="9.798019">
<ele>1855</ele>
<time>2022-01-08T01:54:02Z</time></trkpt>
<trkpt lat="45.997069" lon="9.797078">
<ele>1843</ele>
<time>2022-01-08T01:54:31Z</time></trkpt>
<trkpt lat="45.997263" lon="9.796903">
<ele>1838</ele>
<time>2022-01-08T01:54:40Z</time></trkpt>
<trkpt lat="45.997328" lon="9.796871">
<ele>1837</ele>
<time>2022-01-08T01:54:43Z</time></trkpt>
<trkpt lat="45.99756" lon="9.796847">
<ele>1836</ele>
<time>2022-01-08T01:54:52Z</time></trkpt>
<trkpt lat="45.997585" lon="9.796881">
<ele>1837</ele>
<time>2022-01-08T01:54:54Z</time></trkpt>
<trkpt lat="45.997643" lon="9.796867">
<ele>1837</ele>
<time>2022-01-08T01:54:56Z</time></trkpt>
<trkpt lat="45.997807" lon="9.796906">
<ele>1840</ele>
<time>2022-01-08T01:55:03Z</time></trkpt>
<trkpt lat="45.99791" lon="9.796627">
<ele>1839</ele>
<time>2022-01-08T01:55:11Z</time></trkpt>
<trkpt lat="45.998021" lon="9.796542">
<ele>1840</ele>
<time>2022-01-08T01:55:16Z</time></trkpt>
<trkpt lat="45.998001" lon="9.796378">
<ele>1836</ele>
<time>2022-01-08T01:55:21Z</time></trkpt>
<trkpt lat="45.998151" lon="9.795673">
<ele>1829</ele>
<time>2022-01-08T01:55:42Z</time></trkpt>
<trkpt lat="45.998198" lon="9.795287">
<ele>1827</ele>
<time>2022-01-08T01:55:52Z</time></trkpt>
<trkpt lat="45.998342" lon="9.79484">
<ele>1828</ele>
<time>2022-01-08T01:56:06Z</time></trkpt>
<trkpt lat="45.998342" lon="9.79484">
<ele>1828</ele>
<time>2022-01-08T01:56:06Z</time></trkpt>
<trkpt lat="45.998427" lon="9.794573">
<ele>1830</ele>
<time>2022-01-08T01:56:14Z</time></trkpt>
<trkpt lat="45.998616" lon="9.794108">
<ele>1836</ele>
<time>2022-01-08T01:56:29Z</time></trkpt>
<trkpt lat="45.998773" lon="9.793602">
<ele>1833</ele>
<time>2022-01-08T01:56:45Z</time></trkpt>
<trkpt lat="45.998808" lon="9.793441">
<ele>1830</ele>
<time>2022-01-08T01:56:49Z</time></trkpt>
<trkpt lat="45.998882" lon="9.793255">
<ele>1831</ele>
<time>2022-01-08T01:56:55Z</time></trkpt>
<trkpt lat="45.999006" lon="9.79311">
<ele>1835</ele>
<time>2022-01-08T01:57:02Z</time></trkpt>
<trkpt lat="45.999152" lon="9.792878">
<ele>1839</ele>
<time>2022-01-08T01:57:11Z</time></trkpt>
<trkpt lat="45.999123" lon="9.792392">
<ele>1834</ele>
<time>2022-01-08T01:57:24Z</time></trkpt>
<trkpt lat="45.999136" lon="9.792328">
<ele>1835</ele>
<time>2022-01-08T01:57:26Z</time></trkpt>
<trkpt lat="45.99927" lon="9.79235">
<ele>1836</ele>
<time>2022-01-08T01:57:31Z</time></trkpt>
<trkpt lat="45.999525" lon="9.79223">
<ele>1838</ele>
<time>2022-01-08T01:57:42Z</time></trkpt>
<trkpt lat="45.999661" lon="9.792099">
<ele>1841</ele>
<time>2022-01-08T01:57:49Z</time></trkpt>
<trkpt lat="45.999735" lon="9.791919">
<ele>1844</ele>
<time>2022-01-08T01:57:55Z</time></trkpt>
<trkpt lat="45.99983" lon="9.79189">
<ele>1846</ele>
<time>2022-01-08T01:57:58Z</time></trkpt>
<trkpt lat="46.000046" lon="9.791983">
<ele>1846</ele>
<time>2022-01-08T01:58:07Z</time></trkpt>
<trkpt lat="46.000134" lon="9.791962">
<ele>1845</ele>
<time>2022-01-08T01:58:11Z</time></trkpt>
<trkpt lat="46.000134" lon="9.791962">
<ele>1845</ele>
<time>2022-01-08T01:58:11Z</time></trkpt>
<trkpt lat="46.00016" lon="9.79195">
<ele>1845</ele>
<time>2022-01-08T01:58:12Z</time></trkpt>
<trkpt lat="46.000329" lon="9.791689">
<ele>1848</ele>
<time>2022-01-08T01:58:22Z</time></trkpt>
<trkpt lat="46.000402" lon="9.791662">
<ele>1848</ele>
<time>2022-01-08T01:58:25Z</time></trkpt>
<trkpt lat="46.000497" lon="9.791676">
<ele>1846</ele>
<time>2022-01-08T01:58:29Z</time></trkpt>
<trkpt lat="46.000709" lon="9.791651">
<ele>1844</ele>
<time>2022-01-08T01:58:37Z</time></trkpt>
<trkpt lat="46.000911" lon="9.791662">
<ele>1841</ele>
<time>2022-01-08T01:58:46Z</time></trkpt>
<trkpt lat="46.00113" lon="9.791622">
<ele>1839</ele>
<time>2022-01-08T01:58:54Z</time></trkpt>
<trkpt lat="46.001202" lon="9.791537">
<ele>1839</ele>
<time>2022-01-08T01:58:58Z</time></trkpt>
<trkpt lat="46.001248" lon="9.791235">
<ele>1843</ele>
<time>2022-01-08T01:59:07Z</time></trkpt>
<trkpt lat="46.001391" lon="9.790863">
<ele>1845</ele>
<time>2022-01-08T01:59:19Z</time></trkpt>
<trkpt lat="46.001428" lon="9.790709">
<ele>1846</ele>
<time>2022-01-08T01:59:23Z</time></trkpt>
<trkpt lat="46.001541" lon="9.790573">
<ele>1845</ele>
<time>2022-01-08T01:59:29Z</time></trkpt>
<trkpt lat="46.001603" lon="9.790397">
<ele>1845</ele>
<time>2022-01-08T01:59:34Z</time></trkpt>
<trkpt lat="46.001675" lon="9.790278">
<ele>1845</ele>
<time>2022-01-08T01:59:39Z</time></trkpt>
<trkpt lat="46.001867" lon="9.790022">
<ele>1845</ele>
<time>2022-01-08T01:59:49Z</time></trkpt>
<trkpt lat="46.001867" lon="9.790022">
<ele>1845</ele>
<time>2022-01-08T01:59:49Z</time></trkpt>
<trkpt lat="46.001887" lon="9.789992">
<ele>1845</ele>
<time>2022-01-08T01:59:51Z</time></trkpt>
<trkpt lat="46.001908" lon="9.789583">
<ele>1849</ele>
<time>2022-01-08T02:00:02Z</time></trkpt>
<trkpt lat="46.001968" lon="9.789527">
<ele>1849</ele>
<time>2022-01-08T02:00:05Z</time></trkpt>
<trkpt lat="46.00206" lon="9.789499">
<ele>1847</ele>
<time>2022-01-08T02:00:09Z</time></trkpt>
<trkpt lat="46.00226" lon="9.789487">
<ele>1844</ele>
<time>2022-01-08T02:00:17Z</time></trkpt>
<trkpt lat="46.002288" lon="9.789465">
<ele>1843</ele>
<time>2022-01-08T02:00:18Z</time></trkpt>
<trkpt lat="46.002348" lon="9.789222">
<ele>1845</ele>
<time>2022-01-08T02:00:25Z</time></trkpt>
<trkpt lat="46.002444" lon="9.789059">
<ele>1844</ele>
<time>2022-01-08T02:00:31Z</time></trkpt>
<trkpt lat="46.002505" lon="9.78882">
<ele>1843</ele>
<time>2022-01-08T02:00:38Z</time></trkpt>
<trkpt lat="46.002549" lon="9.788797">
<ele>1843</ele>
<time>2022-01-08T02:00:40Z</time></trkpt>
<trkpt lat="46.002606" lon="9.788796">
<ele>1843</ele>
<time>2022-01-08T02:00:42Z</time></trkpt>
<trkpt lat="46.002825" lon="9.788869">
<ele>1844</ele>
<time>2022-01-08T02:00:51Z</time></trkpt>
<trkpt lat="46.002895" lon="9.788923">
<ele>1844</ele>
<time>2022-01-08T02:00:54Z</time></trkpt>
<trkpt lat="46.002994" lon="9.78905">
<ele>1844</ele>
<time>2022-01-08T02:01:00Z</time></trkpt>
<trkpt lat="46.003057" lon="9.789092">
<ele>1844</ele>
<time>2022-01-08T02:01:03Z</time></trkpt>
<trkpt lat="46.00312" lon="9.789073">
<ele>1845</ele>
<time>2022-01-08T02:01:05Z</time></trkpt>
<trkpt lat="46.003181" lon="9.789084">
<ele>1845</ele>
<time>2022-01-08T02:01:08Z</time></trkpt>
<trkpt lat="46.003223" lon="9.789147">
<ele>1845</ele>
<time>2022-01-08T02:01:10Z</time></trkpt>
<trkpt lat="46.003316" lon="9.789442">
<ele>1843</ele>
<time>2022-01-08T02:01:19Z</time></trkpt>
<trkpt lat="46.003378" lon="9.789566">
<ele>1842</ele>
<time>2022-01-08T02:01:23Z</time></trkpt>
<trkpt lat="46.003415" lon="9.789819">
<ele>1840</ele>
<time>2022-01-08T02:01:30Z</time></trkpt>
<trkpt lat="46.00342" lon="9.790271">
<ele>1837</ele>
<time>2022-01-08T02:01:43Z</time></trkpt>
<trkpt lat="46.00344" lon="9.790343">
<ele>1837</ele>
<time>2022-01-08T02:01:45Z</time></trkpt>
<trkpt lat="46.00353" lon="9.790354">
<ele>1837</ele>
<time>2022-01-08T02:01:49Z</time></trkpt>
<trkpt lat="46.003593" lon="9.790306">
<ele>1838</ele>
<time>2022-01-08T02:01:52Z</time></trkpt>
<trkpt lat="46.003726" lon="9.79029">
<ele>1839</ele>
<time>2022-01-08T02:01:57Z</time></trkpt>
<trkpt lat="46.003825" lon="9.790338">
<ele>1840</ele>
<time>2022-01-08T02:02:01Z</time></trkpt>
<trkpt lat="46.003911" lon="9.790341">
<ele>1840</ele>
<time>2022-01-08T02:02:05Z</time></trkpt>
<trkpt lat="46.004094" lon="9.79029">
<ele>1842</ele>
<time>2022-01-08T02:02:12Z</time></trkpt>
<trkpt lat="46.004206" lon="9.790282">
<ele>1843</ele>
<time>2022-01-08T02:02:17Z</time></trkpt>
<trkpt lat="46.004235" lon="9.790315">
<ele>1842</ele>
<time>2022-01-08T02:02:18Z</time></trkpt>
<trkpt lat="46.004249" lon="9.790372">
<ele>1841</ele>
<time>2022-01-08T02:02:20Z</time></trkpt>
<trkpt lat="46.004251" lon="9.790506">
<ele>1840</ele>
<time>2022-01-08T02:02:24Z</time></trkpt>
<trkpt lat="46.004314" lon="9.790568">
<ele>1839</ele>
<time>2022-01-08T02:02:27Z</time></trkpt>
<trkpt lat="46.004468" lon="9.790623">
<ele>1837</ele>
<time>2022-01-08T02:02:33Z</time></trkpt>
<trkpt lat="46.00458" lon="9.7906">
<ele>1836</ele>
<time>2022-01-08T02:02:37Z</time></trkpt>
<trkpt lat="46.004633" lon="9.790552">
<ele>1836</ele>
<time>2022-01-08T02:02:40Z</time></trkpt>
<trkpt lat="46.004641" lon="9.790644">
<ele>1835</ele>
<time>2022-01-08T02:02:43Z</time></trkpt>
<trkpt lat="46.004617" lon="9.790787">
<ele>1834</ele>
<time>2022-01-08T02:02:47Z</time></trkpt>
<trkpt lat="46.004643" lon="9.790792">
<ele>1833</ele>
<time>2022-01-08T02:02:48Z</time></trkpt>
<trkpt lat="46.004672" lon="9.790766">
<ele>1833</ele>
<time>2022-01-08T02:02:49Z</time></trkpt>
<trkpt lat="46.004732" lon="9.790958">
<ele>1834</ele>
<time>2022-01-08T02:02:55Z</time></trkpt>
<trkpt lat="46.004693" lon="9.791075">
<ele>1837</ele>
<time>2022-01-08T02:02:59Z</time></trkpt>
<trkpt lat="46.004612" lon="9.791215">
<ele>1839</ele>
<time>2022-01-08T02:03:04Z</time></trkpt>
<trkpt lat="46.004732" lon="9.791282">
<ele>1840</ele>
<time>2022-01-08T02:03:09Z</time></trkpt>
<trkpt lat="46.004812" lon="9.791244">
<ele>1839</ele>
<time>2022-01-08T02:03:12Z</time></trkpt>
<trkpt lat="46.00496" lon="9.791163">
<ele>1837</ele>
<time>2022-01-08T02:03:19Z</time></trkpt>
<trkpt lat="46.005086" lon="9.791183">
<ele>1836</ele>
<time>2022-01-08T02:03:24Z</time></trkpt>
<trkpt lat="46.005125" lon="9.79126">
<ele>1837</ele>
<time>2022-01-08T02:03:26Z</time></trkpt>
<trkpt lat="46.005229" lon="9.7914">
<ele>1839</ele>
<time>2022-01-08T02:03:32Z</time></trkpt>
<trkpt lat="46.005346" lon="9.791417">
<ele>1838</ele>
<time>2022-01-08T02:03:37Z</time></trkpt>
<trkpt lat="46.005546" lon="9.791296">
<ele>1831</ele>
<time>2022-01-08T02:03:45Z</time></trkpt>
<trkpt lat="46.00581" lon="9.791059">
<ele>1818</ele>
<time>2022-01-08T02:03:58Z</time></trkpt>
<trkpt lat="46.006058" lon="9.790983">
<ele>1812</ele>
<time>2022-01-08T02:04:08Z</time></trkpt>
<trkpt lat="46.0062" lon="9.790822">
<ele>1804</ele>
<time>2022-01-08T02:04:15Z</time></trkpt>
<trkpt lat="46.006371" lon="9.790667">
<ele>1799</ele>
<time>2022-01-08T02:04:23Z</time></trkpt>
<trkpt lat="46.006391" lon="9.79053">
<ele>1797</ele>
<time>2022-01-08T02:04:27Z</time></trkpt>
<trkpt lat="46.006465" lon="9.790474">
<ele>1794</ele>
<time>2022-01-08T02:04:31Z</time></trkpt>
<trkpt lat="46.006567" lon="9.790436">
<ele>1791</ele>
<time>2022-01-08T02:04:35Z</time></trkpt>
<trkpt lat="46.007094" lon="9.790373">
<ele>1779</ele>
<time>2022-01-08T02:04:56Z</time></trkpt>
<trkpt lat="46.007196" lon="9.79045">
<ele>1781</ele>
<time>2022-01-08T02:05:01Z</time></trkpt>
<trkpt lat="46.007243" lon="9.790547">
<ele>1786</ele>
<time>2022-01-08T02:05:04Z</time></trkpt>
<trkpt lat="46.0073" lon="9.790598">
<ele>1789</ele>
<time>2022-01-08T02:05:07Z</time></trkpt>
<trkpt lat="46.00734" lon="9.790683">
<ele>1794</ele>
<time>2022-01-08T02:05:09Z</time></trkpt>
<trkpt lat="46.007389" lon="9.790718">
<ele>1796</ele>
<time>2022-01-08T02:05:12Z</time></trkpt>
<trkpt lat="46.007419" lon="9.790564">
<ele>1786</ele>
<time>2022-01-08T02:05:16Z</time></trkpt>
<trkpt lat="46.007486" lon="9.790653">
<ele>1792</ele>
<time>2022-01-08T02:05:20Z</time></trkpt>
<trkpt lat="46.007572" lon="9.790646">
<ele>1793</ele>
<time>2022-01-08T02:05:23Z</time></trkpt>
<trkpt lat="46.007832" lon="9.790483">
<ele>1782</ele>
<time>2022-01-08T02:05:35Z</time></trkpt>
<trkpt lat="46.007832" lon="9.790483">
<ele>1782</ele>
<time>2022-01-08T02:05:35Z</time></trkpt>
<trkpt lat="46.008161" lon="9.790315">
<ele>1765</ele>
<time>2022-01-08T02:05:49Z</time></trkpt>
<trkpt lat="46.00823" lon="9.79034">
<ele>1768</ele>
<time>2022-01-08T02:05:51Z</time></trkpt>
<trkpt lat="46.008272" lon="9.790406">
<ele>1776</ele>
<time>2022-01-08T02:05:54Z</time></trkpt>
<trkpt lat="46.008338" lon="9.790418">
<ele>1778</ele>
<time>2022-01-08T02:05:57Z</time></trkpt>
<trkpt lat="46.008471" lon="9.790259">
<ele>1754</ele>
<time>2022-01-08T02:06:03Z</time></trkpt>
<trkpt lat="46.008677" lon="9.79027">
<ele>1751</ele>
<time>2022-01-08T02:06:12Z</time></trkpt>
<trkpt lat="46.00935" lon="9.790414">
<ele>1689</ele>
<time>2022-01-08T02:06:39Z</time></trkpt>
<trkpt lat="46.009451" lon="9.790454">
<ele>1850</ele>
<time>2022-01-08T02:06:43Z</time></trkpt>
<trkpt lat="46.009683" lon="9.790362">
<ele>1850</ele>
<time>2022-01-08T02:06:53Z</time></trkpt>
<trkpt lat="46.009748" lon="9.79041">
<ele>1850</ele>
<time>2022-01-08T02:06:56Z</time></trkpt>
<trkpt lat="46.009822" lon="9.790592">
<ele>1850</ele>
<time>2022-01-08T02:07:02Z</time></trkpt>
<trkpt lat="46.009872" lon="9.790619">
<ele>1850</ele>
<time>2022-01-08T02:07:04Z</time></trkpt>
<trkpt lat="46.010292" lon="9.790651">
<ele>1850</ele>
<time>2022-01-08T02:07:21Z</time></trkpt>
<trkpt lat="46.010392" lon="9.790719">
<ele>1850</ele>
<time>2022-01-08T02:07:25Z</time></trkpt>
<trkpt lat="46.010498" lon="9.790974">
<ele>1716</ele>
<time>2022-01-08T02:07:33Z</time></trkpt>
<trkpt lat="46.01076" lon="9.791173">
<ele>1716</ele>
<time>2022-01-08T02:07:45Z</time></trkpt>
<trkpt lat="46.011496" lon="9.791261">
<ele>1757</ele>
<time>2022-01-08T02:08:15Z</time></trkpt>
<trkpt lat="46.011541" lon="9.791325">
<ele>1761</ele>
<time>2022-01-08T02:08:17Z</time></trkpt>
<trkpt lat="46.011643" lon="9.791348">
<ele>1760</ele>
<time>2022-01-08T02:08:22Z</time></trkpt>
<trkpt lat="46.011716" lon="9.79127">
<ele>1752</ele>
<time>2022-01-08T02:08:25Z</time></trkpt>
<trkpt lat="46.011797" lon="9.791283">
<ele>1749</ele>
<time>2022-01-08T02:08:28Z</time></trkpt>
<trkpt lat="46.01184" lon="9.791403">
<ele>1753</ele>
<time>2022-01-08T02:08:32Z</time></trkpt>
<trkpt lat="46.011923" lon="9.791504">
<ele>1754</ele>
<time>2022-01-08T02:08:37Z</time></trkpt>
<trkpt lat="46.011965" lon="9.791639">
<ele>1759</ele>
<time>2022-01-08T02:08:41Z</time></trkpt>
<trkpt lat="46.012004" lon="9.791867">
<ele>1764</ele>
<time>2022-01-08T02:08:47Z</time></trkpt>
<trkpt lat="46.012004" lon="9.792076">
<ele>1771</ele>
<time>2022-01-08T02:08:53Z</time></trkpt>
<trkpt lat="46.012077" lon="9.792211">
<ele>1772</ele>
<time>2022-01-08T02:08:58Z</time></trkpt>
<trkpt lat="46.012084" lon="9.792443">
<ele>1780</ele>
<time>2022-01-08T02:09:04Z</time></trkpt>
<trkpt lat="46.012177" lon="9.792463">
<ele>1777</ele>
<time>2022-01-08T02:09:08Z</time></trkpt>
<trkpt lat="46.012261" lon="9.792453">
<ele>1773</ele>
<time>2022-01-08T02:09:11Z</time></trkpt>
<trkpt lat="46.012382" lon="9.79239">
<ele>1766</ele>
<time>2022-01-08T02:09:17Z</time></trkpt>
<trkpt lat="46.012593" lon="9.792402">
<ele>1760</ele>
<time>2022-01-08T02:09:25Z</time></trkpt>
<trkpt lat="46.012836" lon="9.792447">
<ele>1760</ele>
<time>2022-01-08T02:09:35Z</time></trkpt>
<trkpt lat="46.013049" lon="9.792527">
<ele>1760</ele>
<time>2022-01-08T02:09:44Z</time></trkpt>
<trkpt lat="46.013177" lon="9.792523">
<ele>1759</ele>
<time>2022-01-08T02:09:49Z</time></trkpt>
<trkpt lat="46.013294" lon="9.792476">
<ele>1756</ele>
<time>2022-01-08T02:09:54Z</time></trkpt>
<trkpt lat="46.013485" lon="9.792619">
<ele>1747</ele>
<time>2022-01-08T02:10:02Z</time></trkpt>
<trkpt lat="46.01363" lon="9.792782">
<ele>1736</ele>
<time>2022-01-08T02:10:10Z</time></trkpt>
<trkpt lat="46.013636" lon="9.792906">
<ele>1736</ele>
<time>2022-01-08T02:10:13Z</time></trkpt>
<trkpt lat="46.013583" lon="9.793188">
<ele>1741</ele>
<time>2022-01-08T02:10:21Z</time></trkpt>
<trkpt lat="46.013422" lon="9.793528">
<ele>1750</ele>
<time>2022-01-08T02:10:33Z</time></trkpt>
<trkpt lat="46.013241" lon="9.793778">
<ele>1754</ele>
<time>2022-01-08T02:10:43Z</time></trkpt>
<trkpt lat="46.013117" lon="9.794004">
<ele>1753</ele>
<time>2022-01-08T02:10:51Z</time></trkpt>
<trkpt lat="46.01311" lon="9.794144">
<ele>1749</ele>
<time>2022-01-08T02:10:55Z</time></trkpt>
<trkpt lat="46.013152" lon="9.794274">
<ele>1744</ele>
<time>2022-01-08T02:10:59Z</time></trkpt>
<trkpt lat="46.013142" lon="9.794398">
<ele>1742</ele>
<time>2022-01-08T02:11:02Z</time></trkpt>
<trkpt lat="46.013081" lon="9.794438">
<ele>1743</ele>
<time>2022-01-08T02:11:05Z</time></trkpt>
<trkpt lat="46.012956" lon="9.794802">
<ele>1740</ele>
<time>2022-01-08T02:11:16Z</time></trkpt>
<trkpt lat="46.012656" lon="9.795201">
<ele>1748</ele>
<time>2022-01-08T02:11:32Z</time></trkpt>
<trkpt lat="46.012562" lon="9.795504">
<ele>1752</ele>
<time>2022-01-08T02:11:42Z</time></trkpt>
<trkpt lat="46.012562" lon="9.795504">
<ele>1752</ele>
<time>2022-01-08T02:11:42Z</time></trkpt>
<trkpt lat="46.012423" lon="9.795949">
<ele>1760</ele>
<time>2022-01-08T02:11:55Z</time></trkpt>
<trkpt lat="46.012395" lon="9.796093">
<ele>1763</ele>
<time>2022-01-08T02:11:59Z</time></trkpt>
<trkpt lat="46.012392" lon="9.796241">
<ele>1764</ele>
<time>2022-01-08T02:12:04Z</time></trkpt>
<trkpt lat="46.012451" lon="9.796545">
<ele>1763</ele>
<time>2022-01-08T02:12:12Z</time></trkpt>
<trkpt lat="46.012532" lon="9.796704">
<ele>1761</ele>
<time>2022-01-08T02:12:18Z</time></trkpt>
<trkpt lat="46.012605" lon="9.796794">
<ele>1762</ele>
<time>2022-01-08T02:12:22Z</time></trkpt>
<trkpt lat="46.012808" lon="9.796931">
<ele>1762</ele>
<time>2022-01-08T02:12:31Z</time></trkpt>
<trkpt lat="46.01302" lon="9.796955">
<ele>1758</ele>
<time>2022-01-08T02:12:39Z</time></trkpt>
<trkpt lat="46.013836" lon="9.797277">
<ele>1776</ele>
<time>2022-01-08T02:13:13Z</time></trkpt>
<trkpt lat="46.014105" lon="9.797179">
<ele>1770</ele>
<time>2022-01-08T02:13:24Z</time></trkpt>
<trkpt lat="46.014207" lon="9.797085">
<ele>1761</ele>
<time>2022-01-08T02:13:29Z</time></trkpt>
<trkpt lat="46.014334" lon="9.797118">
<ele>1765</ele>
<time>2022-01-08T02:13:34Z</time></trkpt>
<trkpt lat="46.01442" lon="9.797176">
<ele>1770</ele>
<time>2022-01-08T02:13:38Z</time></trkpt>
<trkpt lat="46.015003" lon="9.797422">
<ele>1790</ele>
<time>2022-01-08T02:14:02Z</time></trkpt>
<trkpt lat="46.015064" lon="9.79755">
<ele>1792</ele>
<time>2022-01-08T02:14:07Z</time></trkpt>
<trkpt lat="46.015124" lon="9.797629">
<ele>1789</ele>
<time>2022-01-08T02:14:10Z</time></trkpt>
<trkpt lat="46.015257" lon="9.797593">
<ele>1779</ele>
<time>2022-01-08T02:14:15Z</time></trkpt>
<trkpt lat="46.015323" lon="9.797478">
<ele>1772</ele>
<time>2022-01-08T02:14:20Z</time></trkpt>
<trkpt lat="46.015381" lon="9.797475">
<ele>1768</ele>
<time>2022-01-08T02:14:22Z</time></trkpt>
<trkpt lat="46.015394" lon="9.797592">
<ele>1769</ele>
<time>2022-01-08T02:14:25Z</time></trkpt>
<trkpt lat="46.015261" lon="9.798062">
<ele>1783</ele>
<time>2022-01-08T02:14:39Z</time></trkpt>
<trkpt lat="46.01521" lon="9.798155">
<ele>1789</ele>
<time>2022-01-08T02:14:43Z</time></trkpt>
<trkpt lat="46.015101" lon="9.798888">
<ele>1794</ele>
<time>2022-01-08T02:15:03Z</time></trkpt>
<trkpt lat="46.014991" lon="9.799081">
<ele>1801</ele>
<time>2022-01-08T02:15:10Z</time></trkpt>
<trkpt lat="46.014885" lon="9.799534">
<ele>1801</ele>
<time>2022-01-08T02:15:24Z</time></trkpt>
<trkpt lat="46.014821" lon="9.799596">
<ele>1806</ele>
<time>2022-01-08T02:15:27Z</time></trkpt>
<trkpt lat="46.014823" lon="9.799666">
<ele>1804</ele>
<time>2022-01-08T02:15:29Z</time></trkpt>
<trkpt lat="46.014823" lon="9.799666">
<ele>1804</ele>
<time>2022-01-08T02:15:29Z</time></trkpt>
<trkpt lat="46.014826" lon="9.79973">
<ele>1802</ele>
<time>2022-01-08T02:15:31Z</time></trkpt>
<trkpt lat="46.014646" lon="9.800923">
<ele>1799</ele>
<time>2022-01-08T02:16:05Z</time></trkpt>
<trkpt lat="46.014871" lon="9.801256">
<ele>1766</ele>
<time>2022-01-08T02:16:17Z</time></trkpt>
<trkpt lat="46.015037" lon="9.801567">
<ele>1747</ele>
<time>2022-01-08T02:16:28Z</time></trkpt>
<trkpt lat="46.01511" lon="9.802">
<ele>1741</ele>
<time>2022-01-08T02:16:41Z</time></trkpt>
<trkpt lat="46.015091" lon="9.802172">
<ele>1740</ele>
<time>2022-01-08T02:16:46Z</time></trkpt>
<trkpt lat="46.01497" lon="9.802357">
<ele>1745</ele>
<time>2022-01-08T02:16:53Z</time></trkpt>
<trkpt lat="46.014943" lon="9.802518">
<ele>1745</ele>
<time>2022-01-08T02:16:57Z</time></trkpt>
<trkpt lat="46.015174" lon="9.803026">
<ele>1728</ele>
<time>2022-01-08T02:17:14Z</time></trkpt>
<trkpt lat="46.015198" lon="9.803128">
<ele>1726</ele>
<time>2022-01-08T02:17:17Z</time></trkpt>
<trkpt lat="46.015171" lon="9.803446">
<ele>1723</ele>
<time>2022-01-08T02:17:26Z</time></trkpt>
<trkpt lat="46.015215" lon="9.803769">
<ele>1722</ele>
<time>2022-01-08T02:17:35Z</time></trkpt>
<trkpt lat="46.015215" lon="9.803769">
<ele>1722</ele>
<time>2022-01-08T02:17:35Z</time></trkpt>
<trkpt lat="46.015321" lon="9.804064">
<ele>1721</ele>
<time>2022-01-08T02:17:45Z</time></trkpt>
<trkpt lat="46.015418" lon="9.804221">
<ele>1722</ele>
<time>2022-01-08T02:17:50Z</time></trkpt>
<trkpt lat="46.015617" lon="9.804397">
<ele>1724</ele>
<time>2022-01-08T02:18:00Z</time></trkpt>
<trkpt lat="46.015771" lon="9.80445">
<ele>1726</ele>
<time>2022-01-08T02:18:06Z</time></trkpt>
<trkpt lat="46.015889" lon="9.804449">
<ele>1729</ele>
<time>2022-01-08T02:18:11Z</time></trkpt>
<trkpt lat="46.016012" lon="9.804421">
<ele>1734</ele>
<time>2022-01-08T02:18:16Z</time></trkpt>
<trkpt lat="46.016069" lon="9.804739">
<ele>1741</ele>
<time>2022-01-08T02:18:25Z</time></trkpt>
<trkpt lat="46.016176" lon="9.804723">
<ele>1746</ele>
<time>2022-01-08T02:18:29Z</time></trkpt>
<trkpt lat="46.016301" lon="9.804759">
<ele>1753</ele>
<time>2022-01-08T02:18:34Z</time></trkpt>
<trkpt lat="46.016391" lon="9.804655">
<ele>1755</ele>
<time>2022-01-08T02:18:39Z</time></trkpt>
<trkpt lat="46.016437" lon="9.804702">
<ele>1758</ele>
<time>2022-01-08T02:18:41Z</time></trkpt>
<trkpt lat="46.016465" lon="9.804704">
<ele>1759</ele>
<time>2022-01-08T02:18:42Z</time></trkpt>
<trkpt lat="46.016731" lon="9.804414">
<ele>1764</ele>
<time>2022-01-08T02:18:56Z</time></trkpt>
<trkpt lat="46.016907" lon="9.804291">
<ele>1768</ele>
<time>2022-01-08T02:19:04Z</time></trkpt>
<trkpt lat="46.017062" lon="9.804113">
<ele>1769</ele>
<time>2022-01-08T02:19:11Z</time></trkpt>
<trkpt lat="46.017158" lon="9.804064">
<ele>1772</ele>
<time>2022-01-08T02:19:16Z</time></trkpt>
<trkpt lat="46.017179" lon="9.804117">
<ele>1774</ele>
<time>2022-01-08T02:19:17Z</time></trkpt>
<trkpt lat="46.017215" lon="9.804398">
<ele>1781</ele>
<time>2022-01-08T02:19:25Z</time></trkpt>
<trkpt lat="46.017195" lon="9.804524">
<ele>1783</ele>
<time>2022-01-08T02:19:29Z</time></trkpt>
<trkpt lat="46.017154" lon="9.804646">
<ele>1784</ele>
<time>2022-01-08T02:19:33Z</time></trkpt>
<trkpt lat="46.017101" lon="9.804752">
<ele>1785</ele>
<time>2022-01-08T02:19:36Z</time></trkpt>
<trkpt lat="46.017033" lon="9.80483">
<ele>1784</ele>
<time>2022-01-08T02:19:40Z</time></trkpt>
<trkpt lat="46.017042" lon="9.804972">
<ele>1788</ele>
<time>2022-01-08T02:19:44Z</time></trkpt>
<trkpt lat="46.017024" lon="9.805026">
<ele>1788</ele>
<time>2022-01-08T02:19:45Z</time></trkpt>
<trkpt lat="46.017024" lon="9.805026">
<ele>1788</ele>
<time>2022-01-08T02:19:45Z</time></trkpt>
<trkpt lat="46.017001" lon="9.805092">
<ele>1789</ele>
<time>2022-01-08T02:19:47Z</time></trkpt>
<trkpt lat="46.017019" lon="9.805183">
<ele>1791</ele>
<time>2022-01-08T02:19:50Z</time></trkpt>
<trkpt lat="46.017048" lon="9.805199">
<ele>1793</ele>
<time>2022-01-08T02:19:51Z</time></trkpt>
<trkpt lat="46.017088" lon="9.805262">
<ele>1796</ele>
<time>2022-01-08T02:19:54Z</time></trkpt>
<trkpt lat="46.017117" lon="9.805374">
<ele>1799</ele>
<time>2022-01-08T02:19:57Z</time></trkpt>
<trkpt lat="46.017237" lon="9.805329">
<ele>1802</ele>
<time>2022-01-08T02:20:02Z</time></trkpt>
<trkpt lat="46.017294" lon="9.805213">
<ele>1802</ele>
<time>2022-01-08T02:20:06Z</time></trkpt>
<trkpt lat="46.017373" lon="9.805104">
<ele>1802</ele>
<time>2022-01-08T02:20:10Z</time></trkpt>
<trkpt lat="46.017451" lon="9.805077">
<ele>1803</ele>
<time>2022-01-08T02:20:14Z</time></trkpt>
<trkpt lat="46.017479" lon="9.805167">
<ele>1807</ele>
<time>2022-01-08T02:20:16Z</time></trkpt>
<trkpt lat="46.017432" lon="9.805243">
<ele>1807</ele>
<time>2022-01-08T02:20:19Z</time></trkpt>
<trkpt lat="46.017385" lon="9.805395">
<ele>1809</ele>
<time>2022-01-08T02:20:24Z</time></trkpt>
<trkpt lat="46.017385" lon="9.805637">
<ele>1815</ele>
<time>2022-01-08T02:20:30Z</time></trkpt>
<trkpt lat="46.017331" lon="9.805866">
<ele>1819</ele>
<time>2022-01-08T02:20:37Z</time></trkpt>
<trkpt lat="46.017399" lon="9.805863">
<ele>1822</ele>
<time>2022-01-08T02:20:40Z</time></trkpt>
<trkpt lat="46.017346" lon="9.806206">
<ele>1829</ele>
<time>2022-01-08T02:20:50Z</time></trkpt>
<trkpt lat="46.017328" lon="9.806509">
<ele>1837</ele>
<time>2022-01-08T02:20:58Z</time></trkpt>
<trkpt lat="46.017163" lon="9.807249">
<ele>1845</ele>
<time>2022-01-08T02:21:20Z</time></trkpt>
<trkpt lat="46.017175" lon="9.807377">
<ele>1849</ele>
<time>2022-01-08T02:21:23Z</time></trkpt>
<trkpt lat="46.017223" lon="9.807407">
<ele>1852</ele>
<time>2022-01-08T02:21:25Z</time></trkpt>
<trkpt lat="46.017181" lon="9.807546">
<ele>1853</ele>
<time>2022-01-08T02:21:30Z</time></trkpt>
<trkpt lat="46.017068" lon="9.807783">
<ele>1850</ele>
<time>2022-01-08T02:21:38Z</time></trkpt>
<trkpt lat="46.017206" lon="9.807788">
<ele>1857</ele>
<time>2022-01-08T02:21:43Z</time></trkpt>
<trkpt lat="46.017216" lon="9.807871">
<ele>1858</ele>
<time>2022-01-08T02:21:46Z</time></trkpt>
<trkpt lat="46.017162" lon="9.808156">
<ele>1859</ele>
<time>2022-01-08T02:21:54Z</time></trkpt>
<trkpt lat="46.017145" lon="9.808514">
<ele>1862</ele>
<time>2022-01-08T02:22:04Z</time></trkpt>
<trkpt lat="46.017195" lon="9.808493">
<ele>1864</ele>
<time>2022-01-08T02:22:06Z</time></trkpt>
<trkpt lat="46.017326" lon="9.808284">
<ele>1867</ele>
<time>2022-01-08T02:22:14Z</time></trkpt>
<trkpt lat="46.017487" lon="9.808237">
<ele>1874</ele>
<time>2022-01-08T02:22:20Z</time></trkpt>
<trkpt lat="46.017527" lon="9.808168">
<ele>1873</ele>
<time>2022-01-08T02:22:23Z</time></trkpt>
<trkpt lat="46.017579" lon="9.808145">
<ele>1871</ele>
<time>2022-01-08T02:22:25Z</time></trkpt>
<trkpt lat="46.017606" lon="9.808157">
<ele>1870</ele>
<time>2022-01-08T02:22:26Z</time></trkpt>
<trkpt lat="46.01762" lon="9.808257">
<ele>1869</ele>
<time>2022-01-08T02:22:29Z</time></trkpt>
<trkpt lat="46.017573" lon="9.808641">
<ele>1870</ele>
<time>2022-01-08T02:22:40Z</time></trkpt>
<trkpt lat="46.017584" lon="9.808762">
<ele>1868</ele>
<time>2022-01-08T02:22:43Z</time></trkpt>
<trkpt lat="46.017632" lon="9.808881">
<ele>1865</ele>
<time>2022-01-08T02:22:47Z</time></trkpt>
<trkpt lat="46.01766" lon="9.809007">
<ele>1862</ele>
<time>2022-01-08T02:22:51Z</time></trkpt>
<trkpt lat="46.017625" lon="9.809107">
<ele>1864</ele>
<time>2022-01-08T02:22:54Z</time></trkpt>
<trkpt lat="46.017625" lon="9.809107">
<ele>1864</ele>
<time>2022-01-08T02:22:54Z</time></trkpt>
<trkpt lat="46.017528" lon="9.809532">
<ele>1864</ele>
<time>2022-01-08T02:23:06Z</time></trkpt>
<trkpt lat="46.017533" lon="9.809675">
<ele>1861</ele>
<time>2022-01-08T02:23:10Z</time></trkpt>
<trkpt lat="46.017548" lon="9.809689">
<ele>1859</ele>
<time>2022-01-08T02:23:11Z</time></trkpt>
<trkpt lat="46.01752" lon="9.809733">
<ele>1861</ele>
<time>2022-01-08T02:23:13Z</time></trkpt>
<trkpt lat="46.017542" lon="9.810083">
<ele>1853</ele>
<time>2022-01-08T02:23:22Z</time></trkpt>
<trkpt lat="46.017519" lon="9.810198">
<ele>1853</ele>
<time>2022-01-08T02:23:26Z</time></trkpt>
<trkpt lat="46.017497" lon="9.810871">
<ele>1844</ele>
<time>2022-01-08T02:23:44Z</time></trkpt>
<trkpt lat="46.017537" lon="9.81092">
<ele>1840</ele>
<time>2022-01-08T02:23:47Z</time></trkpt>
<trkpt lat="46.017645" lon="9.810691">
<ele>1835</ele>
<time>2022-01-08T02:23:54Z</time></trkpt>
<trkpt lat="46.01772" lon="9.810474">
<ele>1833</ele>
<time>2022-01-08T02:24:01Z</time></trkpt>
<trkpt lat="46.017869" lon="9.810185">
<ele>1827</ele>
<time>2022-01-08T02:24:11Z</time></trkpt>
<trkpt lat="46.017899" lon="9.810305">
<ele>1823</ele>
<time>2022-01-08T02:24:15Z</time></trkpt>
<trkpt lat="46.017965" lon="9.81018">
<ele>1820</ele>
<time>2022-01-08T02:24:19Z</time></trkpt>
<trkpt lat="46.017992" lon="9.81021">
<ele>1818</ele>
<time>2022-01-08T02:24:20Z</time></trkpt>
<trkpt lat="46.018029" lon="9.810582">
<ele>1809</ele>
<time>2022-01-08T02:24:31Z</time></trkpt>
<trkpt lat="46.01803" lon="9.810922">
<ele>1802</ele>
<time>2022-01-08T02:24:40Z</time></trkpt>
<trkpt lat="46.017987" lon="9.811225">
<ele>1801</ele>
<time>2022-01-08T02:24:49Z</time></trkpt>
<trkpt lat="46.018011" lon="9.811364">
<ele>1796</ele>
<time>2022-01-08T02:24:53Z</time></trkpt>
<trkpt lat="46.017963" lon="9.811623">
<ele>1796</ele>
<time>2022-01-08T02:25:00Z</time></trkpt>
<trkpt lat="46.017916" lon="9.811751">
<ele>1798</ele>
<time>2022-01-08T02:25:04Z</time></trkpt>
<trkpt lat="46.017971" lon="9.812286">
<ele>1786</ele>
<time>2022-01-08T02:25:19Z</time></trkpt>
<trkpt lat="46.017963" lon="9.81267">
<ele>1782</ele>
<time>2022-01-08T02:25:30Z</time></trkpt>
<trkpt lat="46.01799" lon="9.812821">
<ele>1779</ele>
<time>2022-01-08T02:25:34Z</time></trkpt>
<trkpt lat="46.017962" lon="9.813119">
<ele>1778</ele>
<time>2022-01-08T02:25:43Z</time></trkpt>
<trkpt lat="46.017988" lon="9.813246">
<ele>1775</ele>
<time>2022-01-08T02:25:46Z</time></trkpt>
<trkpt lat="46.017988" lon="9.813246">
<ele>1775</ele>
<time>2022-01-08T02:25:46Z</time></trkpt>
<trkpt lat="46.017976" lon="9.813485">
<ele>1773</ele>
<time>2022-01-08T02:25:53Z</time></trkpt>
<trkpt lat="46.017918" lon="9.813624">
<ele>1777</ele>
<time>2022-01-08T02:25:58Z</time></trkpt>
<trkpt lat="46.017926" lon="9.813904">
<ele>1773</ele>
<time>2022-01-08T02:26:05Z</time></trkpt>
<trkpt lat="46.017907" lon="9.814028">
<ele>1774</ele>
<time>2022-01-08T02:26:09Z</time></trkpt>
<trkpt lat="46.017937" lon="9.814221">
<ele>1770</ele>
<time>2022-01-08T02:26:14Z</time></trkpt>
<trkpt lat="46.017899" lon="9.814369">
<ele>1771</ele>
<time>2022-01-08T02:26:19Z</time></trkpt>
<trkpt lat="46.017904" lon="9.814797">
<ele>1767</ele>
<time>2022-01-08T02:26:31Z</time></trkpt>
<trkpt lat="46.017753" lon="9.815371">
<ele>1771</ele>
<time>2022-01-08T02:26:48Z</time></trkpt>
<trkpt lat="46.017742" lon="9.81564">
<ele>1768</ele>
<time>2022-01-08T02:26:55Z</time></trkpt>
<trkpt lat="46.017763" lon="9.815831">
<ele>1764</ele>
<time>2022-01-08T02:27:01Z</time></trkpt>
<trkpt lat="46.017744" lon="9.815981">
<ele>1765</ele>
<time>2022-01-08T02:27:05Z</time></trkpt>
<trkpt lat="46.017706" lon="9.816116">
<ele>1768</ele>
<time>2022-01-08T02:27:09Z</time></trkpt>
<trkpt lat="46.017723" lon="9.816248">
<ele>1767</ele>
<time>2022-01-08T02:27:13Z</time></trkpt>
<trkpt lat="46.017889" lon="9.816565">
<ele>1761</ele>
<time>2022-01-08T02:27:24Z</time></trkpt>
<trkpt lat="46.01789" lon="9.816787">
<ele>1763</ele>
<time>2022-01-08T02:27:30Z</time></trkpt>
<trkpt lat="46.01812" lon="9.817081">
<ele>1758</ele>
<time>2022-01-08T02:27:42Z</time></trkpt>
<trkpt lat="46.018153" lon="9.817214">
<ele>1759</ele>
<time>2022-01-08T02:27:46Z</time></trkpt>
<trkpt lat="46.018133" lon="9.817613">
<ele>1765</ele>
<time>2022-01-08T02:27:57Z</time></trkpt>
<trkpt lat="46.018139" lon="9.817896">
<ele>1766</ele>
<time>2022-01-08T02:28:05Z</time></trkpt>
<trkpt lat="46.018139" lon="9.817896">
<ele>1766</ele>
<time>2022-01-08T02:28:05Z</time></trkpt>
<trkpt lat="46.018091" lon="9.818176">
<ele>1769</ele>
<time>2022-01-08T02:28:13Z</time></trkpt>
<trkpt lat="46.018105" lon="9.818413">
<ele>1770</ele>
<time>2022-01-08T02:28:20Z</time></trkpt>
<trkpt lat="46.018142" lon="9.818578">
<ele>1769</ele>
<time>2022-01-08T02:28:25Z</time></trkpt>
<trkpt lat="46.01833" lon="9.818684">
<ele>1762</ele>
<time>2022-01-08T02:28:33Z</time></trkpt>
<trkpt lat="46.018392" lon="9.818772">
<ele>1761</ele>
<time>2022-01-08T02:28:36Z</time></trkpt>
<trkpt lat="46.018504" lon="9.818807">
<ele>1758</ele>
<time>2022-01-08T02:28:41Z</time></trkpt>
<trkpt lat="46.018577" lon="9.818765">
<ele>1755</ele>
<time>2022-01-08T02:28:44Z</time></trkpt>
<trkpt lat="46.018797" lon="9.818709">
<ele>1748</ele>
<time>2022-01-08T02:28:53Z</time></trkpt>
<trkpt lat="46.018892" lon="9.818794">
<ele>1746</ele>
<time>2022-01-08T02:28:58Z</time></trkpt>
<trkpt lat="46.018979" lon="9.81894">
<ele>1747</ele>
<time>2022-01-08T02:29:03Z</time></trkpt>
<trkpt lat="46.019095" lon="9.819295">
<ele>1749</ele>
<time>2022-01-08T02:29:14Z</time></trkpt>
<trkpt lat="46.018999" lon="9.820004">
<ele>1759</ele>
<time>2022-01-08T02:29:34Z</time></trkpt>
<trkpt lat="46.018993" lon="9.820264">
<ele>1762</ele>
<time>2022-01-08T02:29:41Z</time></trkpt>
<trkpt lat="46.019035" lon="9.820636">
<ele>1765</ele>
<time>2022-01-08T02:29:52Z</time></trkpt>
<trkpt lat="46.019121" lon="9.820827">
<ele>1763</ele>
<time>2022-01-08T02:29:58Z</time></trkpt>
<trkpt lat="46.01918" lon="9.82104">
<ele>1765</ele>
<time>2022-01-08T02:30:04Z</time></trkpt>
<trkpt lat="46.019247" lon="9.821172">
<ele>1764</ele>
<time>2022-01-08T02:30:09Z</time></trkpt>
<trkpt lat="46.019318" lon="9.821203">
<ele>1761</ele>
<time>2022-01-08T02:30:12Z</time></trkpt>
<trkpt lat="46.019359" lon="9.821269">
<ele>1760</ele>
<time>2022-01-08T02:30:14Z</time></trkpt>
<trkpt lat="46.019359" lon="9.821269">
<ele>1760</ele>
<time>2022-01-08T02:30:14Z</time></trkpt>
<trkpt lat="46.019438" lon="9.821397">
<ele>1759</ele>
<time>2022-01-08T02:30:19Z</time></trkpt>
<trkpt lat="46.019568" lon="9.82156">
<ele>1755</ele>
<time>2022-01-08T02:30:26Z</time></trkpt>
<trkpt lat="46.019608" lon="9.821697">
<ele>1755</ele>
<time>2022-01-08T02:30:30Z</time></trkpt>
<trkpt lat="46.019574" lon="9.821845">
<ele>1757</ele>
<time>2022-01-08T02:30:34Z</time></trkpt>
<trkpt lat="46.019574" lon="9.821993">
<ele>1758</ele>
<time>2022-01-08T02:30:39Z</time></trkpt>
<trkpt lat="46.019619" lon="9.822305">
<ele>1757</ele>
<time>2022-01-08T02:30:47Z</time></trkpt>
<trkpt lat="46.019554" lon="9.822547">
<ele>1761</ele>
<time>2022-01-08T02:30:55Z</time></trkpt>
<trkpt lat="46.019526" lon="9.822606">
<ele>1763</ele>
<time>2022-01-08T02:30:57Z</time></trkpt>
<trkpt lat="46.019521" lon="9.822812">
<ele>1761</ele>
<time>2022-01-08T02:31:02Z</time></trkpt>
<trkpt lat="46.019477" lon="9.823065">
<ele>1761</ele>
<time>2022-01-08T02:31:10Z</time></trkpt>
<trkpt lat="46.0194" lon="9.823162">
<ele>1764</ele>
<time>2022-01-08T02:31:14Z</time></trkpt>
<trkpt lat="46.019364" lon="9.823296">
<ele>1764</ele>
<time>2022-01-08T02:31:18Z</time></trkpt>
<trkpt lat="46.019298" lon="9.823929">
<ele>1768</ele>
<time>2022-01-08T02:31:36Z</time></trkpt>
<trkpt lat="46.019301" lon="9.824077">
<ele>1768</ele>
<time>2022-01-08T02:31:40Z</time></trkpt>
<trkpt lat="46.019326" lon="9.824241">
<ele>1769</ele>
<time>2022-01-08T02:31:44Z</time></trkpt>
<trkpt lat="46.019373" lon="9.82436">
<ele>1769</ele>
<time>2022-01-08T02:31:48Z</time></trkpt>
<trkpt lat="46.019535" lon="9.824552">
<ele>1766</ele>
<time>2022-01-08T02:31:57Z</time></trkpt>
<trkpt lat="46.019716" lon="9.824584">
<ele>1760</ele>
<time>2022-01-08T02:32:04Z</time></trkpt>
<trkpt lat="46.019827" lon="9.824562">
<ele>1756</ele>
<time>2022-01-08T02:32:08Z</time></trkpt>
<trkpt lat="46.019946" lon="9.824808">
<ele>1757</ele>
<time>2022-01-08T02:32:17Z</time></trkpt>
<trkpt lat="46.019984" lon="9.824954">
<ele>1759</ele>
<time>2022-01-08T02:32:21Z</time></trkpt>
<trkpt lat="46.020115" lon="9.825176">
<ele>1756</ele>
<time>2022-01-08T02:32:29Z</time></trkpt>
<trkpt lat="46.02018" lon="9.825422">
<ele>1755</ele>
<time>2022-01-08T02:32:37Z</time></trkpt>
<trkpt lat="46.02018" lon="9.825422">
<ele>1755</ele>
<time>2022-01-08T02:32:37Z</time></trkpt>
<trkpt lat="46.020188" lon="9.825452">
<ele>1755</ele>
<time>2022-01-08T02:32:37Z</time></trkpt>
<trkpt lat="46.020082" lon="9.82575">
<ele>1760</ele>
<time>2022-01-08T02:32:47Z</time></trkpt>
<trkpt lat="46.019865" lon="9.8261">
<ele>1766</ele>
<time>2022-01-08T02:33:00Z</time></trkpt>
<trkpt lat="46.019809" lon="9.826239">
<ele>1767</ele>
<time>2022-01-08T02:33:04Z</time></trkpt>
<trkpt lat="46.019683" lon="9.826677">
<ele>1768</ele>
<time>2022-01-08T02:33:17Z</time></trkpt>
<trkpt lat="46.019714" lon="9.826852">
<ele>1765</ele>
<time>2022-01-08T02:33:22Z</time></trkpt>
<trkpt lat="46.019682" lon="9.827004">
<ele>1764</ele>
<time>2022-01-08T02:33:27Z</time></trkpt>
<trkpt lat="46.019601" lon="9.82713">
<ele>1765</ele>
<time>2022-01-08T02:33:32Z</time></trkpt>
<trkpt lat="46.019415" lon="9.827276">
<ele>1771</ele>
<time>2022-01-08T02:33:40Z</time></trkpt>
<trkpt lat="46.019345" lon="9.827358">
<ele>1772</ele>
<time>2022-01-08T02:33:44Z</time></trkpt>
<trkpt lat="46.019166" lon="9.82798">
<ele>1769</ele>
<time>2022-01-08T02:34:03Z</time></trkpt>
<trkpt lat="46.019091" lon="9.828072">
<ele>1771</ele>
<time>2022-01-08T02:34:06Z</time></trkpt>
<trkpt lat="46.018992" lon="9.828559">
<ele>1769</ele>
<time>2022-01-08T02:34:21Z</time></trkpt>
<trkpt lat="46.018926" lon="9.828716">
<ele>1770</ele>
<time>2022-01-08T02:34:26Z</time></trkpt>
<trkpt lat="46.018904" lon="9.829113">
<ele>1766</ele>
<time>2022-01-08T02:34:37Z</time></trkpt>
<trkpt lat="46.018823" lon="9.829342">
<ele>1768</ele>
<time>2022-01-08T02:34:44Z</time></trkpt>
<trkpt lat="46.01878" lon="9.829593">
<ele>1768</ele>
<time>2022-01-08T02:34:51Z</time></trkpt>
<trkpt lat="46.01878" lon="9.829593">
<ele>1768</ele>
<time>2022-01-08T02:34:51Z</time></trkpt>
<trkpt lat="46.01868" lon="9.830165">
<ele>1770</ele>
<time>2022-01-08T02:35:08Z</time></trkpt>
<trkpt lat="46.018702" lon="9.830268">
<ele>1769</ele>
<time>2022-01-08T02:35:11Z</time></trkpt>
<trkpt lat="46.018893" lon="9.830589">
<ele>1760</ele>
<time>2022-01-08T02:35:22Z</time></trkpt>
<trkpt lat="46.01906" lon="9.83123">
<ele>1757</ele>
<time>2022-01-08T02:35:41Z</time></trkpt>
<trkpt lat="46.019116" lon="9.831358">
<ele>1756</ele>
<time>2022-01-08T02:35:46Z</time></trkpt>
<trkpt lat="46.019138" lon="9.831641">
<ele>1757</ele>
<time>2022-01-08T02:35:53Z</time></trkpt>
<trkpt lat="46.019119" lon="9.83191">
<ele>1765</ele>
<time>2022-01-08T02:36:01Z</time></trkpt>
<trkpt lat="46.019188" lon="9.832184">
<ele>1769</ele>
<time>2022-01-08T02:36:09Z</time></trkpt>
<trkpt lat="46.019253" lon="9.8323">
<ele>1769</ele>
<time>2022-01-08T02:36:13Z</time></trkpt>
<trkpt lat="46.019411" lon="9.832464">
<ele>1766</ele>
<time>2022-01-08T02:36:21Z</time></trkpt>
<trkpt lat="46.019577" lon="9.832563">
<ele>1762</ele>
<time>2022-01-08T02:36:28Z</time></trkpt>
<trkpt lat="46.019655" lon="9.832648">
<ele>1762</ele>
<time>2022-01-08T02:36:32Z</time></trkpt>
<trkpt lat="46.019741" lon="9.832688">
<ele>1760</ele>
<time>2022-01-08T02:36:36Z</time></trkpt>
<trkpt lat="46.020031" lon="9.832932">
<ele>1757</ele>
<time>2022-01-08T02:36:49Z</time></trkpt>
<trkpt lat="46.020031" lon="9.832932">
<ele>1757</ele>
<time>2022-01-08T02:36:49Z</time></trkpt>
<trkpt lat="46.020333" lon="9.833265">
<ele>1757</ele>
<time>2022-01-08T02:37:05Z</time></trkpt>
<trkpt lat="46.020557" lon="9.833561">
<ele>1758</ele>
<time>2022-01-08T02:37:17Z</time></trkpt>
<trkpt lat="46.020596" lon="9.833696">
<ele>1761</ele>
<time>2022-01-08T02:37:21Z</time></trkpt>
<trkpt lat="46.02073" lon="9.833918">
<ele>1762</ele>
<time>2022-01-08T02:37:29Z</time></trkpt>
<trkpt lat="46.02083" lon="9.834041">
<ele>1761</ele>
<time>2022-01-08T02:37:34Z</time></trkpt>
<trkpt lat="46.020992" lon="9.834344">
<ele>1766</ele>
<time>2022-01-08T02:37:45Z</time></trkpt>
<trkpt lat="46.021034" lon="9.834469">
<ele>1768</ele>
<time>2022-01-08T02:37:49Z</time></trkpt>
<trkpt lat="46.021208" lon="9.834811">
<ele>1768</ele>
<time>2022-01-08T02:38:01Z</time></trkpt>
<trkpt lat="46.021368" lon="9.835369">
<ele>1770</ele>
<time>2022-01-08T02:38:17Z</time></trkpt>
<trkpt lat="46.021572" lon="9.836268">
<ele>1770</ele>
<time>2022-01-08T02:38:44Z</time></trkpt>
<trkpt lat="46.021656" lon="9.836805">
<ele>1771</ele>
<time>2022-01-08T02:38:59Z</time></trkpt>
<trkpt lat="46.021742" lon="9.837707">
<ele>1776</ele>
<time>2022-01-08T02:39:24Z</time></trkpt>
<trkpt lat="46.021774" lon="9.837833">
<ele>1775</ele>
<time>2022-01-08T02:39:28Z</time></trkpt>
<trkpt lat="46.021765" lon="9.837997">
<ele>1776</ele>
<time>2022-01-08T02:39:33Z</time></trkpt>
<trkpt lat="46.021847" lon="9.838441">
<ele>1773</ele>
<time>2022-01-08T02:39:45Z</time></trkpt>
<trkpt lat="46.021709" lon="9.838926">
<ele>1770</ele>
<time>2022-01-08T02:40:00Z</time></trkpt>
<trkpt lat="46.02169" lon="9.839076">
<ele>1768</ele>
<time>2022-01-08T02:40:04Z</time></trkpt>
<trkpt lat="46.021709" lon="9.83923">
<ele>1766</ele>
<time>2022-01-08T02:40:09Z</time></trkpt>
<trkpt lat="46.021649" lon="9.839487">
<ele>1765</ele>
<time>2022-01-08T02:40:16Z</time></trkpt>
<trkpt lat="46.021656" lon="9.839519">
<ele>1764</ele>
<time>2022-01-08T02:40:17Z</time></trkpt>
<trkpt lat="46.021656" lon="9.839519">
<ele>1764</ele>
<time>2022-01-08T02:40:17Z</time></trkpt>
<trkpt lat="46.021683" lon="9.839635">
<ele>1761</ele>
<time>2022-01-08T02:40:20Z</time></trkpt>
<trkpt lat="46.021647" lon="9.839777">
<ele>1761</ele>
<time>2022-01-08T02:40:25Z</time></trkpt>
<trkpt lat="46.021573" lon="9.839927">
<ele>1763</ele>
<time>2022-01-08T02:40:30Z</time></trkpt>
<trkpt lat="46.021416" lon="9.840097">
<ele>1769</ele>
<time>2022-01-08T02:40:38Z</time></trkpt>
<trkpt lat="46.021439" lon="9.84022">
<ele>1767</ele>
<time>2022-01-08T02:40:41Z</time></trkpt>
<trkpt lat="46.021401" lon="9.840432">
<ele>1768</ele>
<time>2022-01-08T02:40:47Z</time></trkpt>
<trkpt lat="46.021437" lon="9.840493">
<ele>1765</ele>
<time>2022-01-08T02:40:50Z</time></trkpt>
<trkpt lat="46.021377" lon="9.841162">
<ele>1767</ele>
<time>2022-01-08T02:41:08Z</time></trkpt>
<trkpt lat="46.021327" lon="9.841427">
<ele>1770</ele>
<time>2022-01-08T02:41:16Z</time></trkpt>
<trkpt lat="46.021367" lon="9.841578">
<ele>1768</ele>
<time>2022-01-08T02:41:20Z</time></trkpt>
<trkpt lat="46.021472" lon="9.841795">
<ele>1763</ele>
<time>2022-01-08T02:41:28Z</time></trkpt>
<trkpt lat="46.021619" lon="9.841985">
<ele>1756</ele>
<time>2022-01-08T02:41:36Z</time></trkpt>
<trkpt lat="46.021729" lon="9.842344">
<ele>1756</ele>
<time>2022-01-08T02:41:47Z</time></trkpt>
<trkpt lat="46.021828" lon="9.842607">
<ele>1755</ele>
<time>2022-01-08T02:41:55Z</time></trkpt>
<trkpt lat="46.021846" lon="9.842816">
<ele>1757</ele>
<time>2022-01-08T02:42:01Z</time></trkpt>
<trkpt lat="46.021844" lon="9.842999">
<ele>1759</ele>
<time>2022-01-08T02:42:06Z</time></trkpt>
<trkpt lat="46.021867" lon="9.843136">
<ele>1759</ele>
<time>2022-01-08T02:42:10Z</time></trkpt>
<trkpt lat="46.021873" lon="9.843295">
<ele>1761</ele>
<time>2022-01-08T02:42:14Z</time></trkpt>
<trkpt lat="46.021824" lon="9.843763">
<ele>1766</ele>
<time>2022-01-08T02:42:27Z</time></trkpt>
<trkpt lat="46.021754" lon="9.844038">
<ele>1772</ele>
<time>2022-01-08T02:42:36Z</time></trkpt>
<trkpt lat="46.021813" lon="9.844262">
<ele>1771</ele>
<time>2022-01-08T02:42:42Z</time></trkpt>
<trkpt lat="46.021813" lon="9.844262">
<ele>1771</ele>
<time>2022-01-08T02:42:42Z</time></trkpt>
<trkpt lat="46.021874" lon="9.844438">
<ele>1770</ele>
<time>2022-01-08T02:42:48Z</time></trkpt>
<trkpt lat="46.021896" lon="9.844582">
<ele>1771</ele>
<time>2022-01-08T02:42:52Z</time></trkpt>
<trkpt lat="46.021896" lon="9.844743">
<ele>1774</ele>
<time>2022-01-08T02:42:56Z</time></trkpt>
<trkpt lat="46.021921" lon="9.844896">
<ele>1775</ele>
<time>2022-01-08T02:43:01Z</time></trkpt>
<trkpt lat="46.022086" lon="9.845437">
<ele>1773</ele>
<time>2022-01-08T02:43:17Z</time></trkpt>
<trkpt lat="46.022274" lon="9.846318">
<ele>1773</ele>
<time>2022-01-08T02:43:43Z</time></trkpt>
<trkpt lat="46.022288" lon="9.846849">
<ele>1777</ele>
<time>2022-01-08T02:43:58Z</time></trkpt>
<trkpt lat="46.022262" lon="9.847054">
<ele>1780</ele>
<time>2022-01-08T02:44:03Z</time></trkpt>
<trkpt lat="46.022297" lon="9.847184">
<ele>1779</ele>
<time>2022-01-08T02:44:07Z</time></trkpt>
<trkpt lat="46.022397" lon="9.847247">
<ele>1775</ele>
<time>2022-01-08T02:44:12Z</time></trkpt>
<trkpt lat="46.02261" lon="9.847258">
<ele>1772</ele>
<time>2022-01-08T02:44:20Z</time></trkpt>
<trkpt lat="46.022703" lon="9.847282">
<ele>1773</ele>
<time>2022-01-08T02:44:24Z</time></trkpt>
<trkpt lat="46.022818" lon="9.8474">
<ele>1775</ele>
<time>2022-01-08T02:44:30Z</time></trkpt>
<trkpt lat="46.022952" lon="9.847804">
<ele>1783</ele>
<time>2022-01-08T02:44:42Z</time></trkpt>
<trkpt lat="46.022998" lon="9.847806">
<ele>1783</ele>
<time>2022-01-08T02:44:44Z</time></trkpt>
<trkpt lat="46.023044" lon="9.847887">
<ele>1786</ele>
<time>2022-01-08T02:44:47Z</time></trkpt>
<trkpt lat="46.023118" lon="9.847941">
<ele>1788</ele>
<time>2022-01-08T02:44:50Z</time></trkpt>
<trkpt lat="46.023166" lon="9.848069">
<ele>1792</ele>
<time>2022-01-08T02:44:54Z</time></trkpt>
<trkpt lat="46.023166" lon="9.848069">
<ele>1792</ele>
<time>2022-01-08T02:44:54Z</time></trkpt>
<trkpt lat="46.023232" lon="9.848161">
<ele>1795</ele>
<time>2022-01-08T02:44:58Z</time></trkpt>
<trkpt lat="46.023434" lon="9.848266">
<ele>1803</ele>
<time>2022-01-08T02:45:06Z</time></trkpt>
<trkpt lat="46.023527" lon="9.848372">
<ele>1809</ele>
<time>2022-01-08T02:45:11Z</time></trkpt>
<trkpt lat="46.023737" lon="9.848367">
<ele>1814</ele>
<time>2022-01-08T02:45:20Z</time></trkpt>
<trkpt lat="46.023764" lon="9.8485">
<ele>1818</ele>
<time>2022-01-08T02:45:23Z</time></trkpt>
<trkpt lat="46.023827" lon="9.848597">
<ele>1822</ele>
<time>2022-01-08T02:45:27Z</time></trkpt>
<trkpt lat="46.023905" lon="9.848677">
<ele>1826</ele>
<time>2022-01-08T02:45:31Z</time></trkpt>
<trkpt lat="46.023978" lon="9.848564">
<ele>1826</ele>
<time>2022-01-08T02:45:35Z</time></trkpt>
<trkpt lat="46.023876" lon="9.849334">
<ele>1841</ele>
<time>2022-01-08T02:45:57Z</time></trkpt>
<trkpt lat="46.023876" lon="9.849525">
<ele>1846</ele>
<time>2022-01-08T02:46:02Z</time></trkpt>
<trkpt lat="46.023922" lon="9.849914">
<ele>1857</ele>
<time>2022-01-08T02:46:13Z</time></trkpt>
<trkpt lat="46.02389" lon="9.850108">
<ele>1861</ele>
<time>2022-01-08T02:46:19Z</time></trkpt>
<trkpt lat="46.023907" lon="9.850464">
<ele>1868</ele>
<time>2022-01-08T02:46:29Z</time></trkpt>
<trkpt lat="46.02395" lon="9.851045">
<ele>1877</ele>
<time>2022-01-08T02:46:45Z</time></trkpt>
<trkpt lat="46.023899" lon="9.851338">
<ele>1877</ele>
<time>2022-01-08T02:46:54Z</time></trkpt>
<trkpt lat="46.023909" lon="9.851912">
<ele>1882</ele>
<time>2022-01-08T02:47:10Z</time></trkpt>
<trkpt lat="46.023863" lon="9.852198">
<ele>1883</ele>
<time>2022-01-08T02:47:18Z</time></trkpt>
<trkpt lat="46.023863" lon="9.852198">
<ele>1883</ele>
<time>2022-01-08T02:47:18Z</time></trkpt>
<trkpt lat="46.023741" lon="9.852717">
<ele>1882</ele>
<time>2022-01-08T02:47:33Z</time></trkpt>
<trkpt lat="46.023757" lon="9.852902">
<ele>1884</ele>
<time>2022-01-08T02:47:38Z</time></trkpt>
<trkpt lat="46.023865" lon="9.853241">
<ele>1892</ele>
<time>2022-01-08T02:47:49Z</time></trkpt>
<trkpt lat="46.023921" lon="9.853709">
<ele>1896</ele>
<time>2022-01-08T02:48:02Z</time></trkpt>
<trkpt lat="46.02395" lon="9.854178">
<ele>1898</ele>
<time>2022-01-08T02:48:15Z</time></trkpt>
<trkpt lat="46.023938" lon="9.854397">
<ele>1899</ele>
<time>2022-01-08T02:48:21Z</time></trkpt>
<trkpt lat="46.023792" lon="9.854942">
<ele>1898</ele>
<time>2022-01-08T02:48:37Z</time></trkpt>
<trkpt lat="46.023784" lon="9.855172">
<ele>1898</ele>
<time>2022-01-08T02:48:44Z</time></trkpt>
<trkpt lat="46.023876" lon="9.855622">
<ele>1901</ele>
<time>2022-01-08T02:48:57Z</time></trkpt>
<trkpt lat="46.023894" lon="9.855853">
<ele>1902</ele>
<time>2022-01-08T02:49:03Z</time></trkpt>
<trkpt lat="46.023879" lon="9.856185">
<ele>1900</ele>
<time>2022-01-08T02:49:12Z</time></trkpt>
<trkpt lat="46.023879" lon="9.856185">
<ele>1900</ele>
<time>2022-01-08T02:49:12Z</time></trkpt>
<trkpt lat="46.023865" lon="9.85649">
<ele>1898</ele>
<time>2022-01-08T02:49:21Z</time></trkpt>
<trkpt lat="46.023783" lon="9.857394">
<ele>1897</ele>
<time>2022-01-08T02:49:46Z</time></trkpt>
<trkpt lat="46.023719" lon="9.857752">
<ele>1897</ele>
<time>2022-01-08T02:49:57Z</time></trkpt>
<trkpt lat="46.023604" lon="9.858107">
<ele>1897</ele>
<time>2022-01-08T02:50:07Z</time></trkpt>
<trkpt lat="46.023519" lon="9.858673">
<ele>1901</ele>
<time>2022-01-08T02:50:24Z</time></trkpt>
<trkpt lat="46.023455" lon="9.859863">
<ele>1911</ele>
<time>2022-01-08T02:50:57Z</time></trkpt>
<trkpt lat="46.02348" lon="9.860134">
<ele>1915</ele>
<time>2022-01-08T02:51:04Z</time></trkpt>
<trkpt lat="46.023473" lon="9.860227">
<ele>1916</ele>
<time>2022-01-08T02:51:07Z</time></trkpt>
<trkpt lat="46.023473" lon="9.860227">
<ele>1916</ele>
<time>2022-01-08T02:51:07Z</time></trkpt>
<trkpt lat="46.023469" lon="9.860279">
<ele>1917</ele>
<time>2022-01-08T02:51:08Z</time></trkpt>
<trkpt lat="46.023306" lon="9.860704">
<ele>1920</ele>
<time>2022-01-08T02:51:22Z</time></trkpt>
<trkpt lat="46.023276" lon="9.860923">
<ele>1923</ele>
<time>2022-01-08T02:51:28Z</time></trkpt>
<trkpt lat="46.0233" lon="9.860975">
<ele>1922</ele>
<time>2022-01-08T02:51:30Z</time></trkpt>
<trkpt lat="46.023363" lon="9.86094">
<ele>1922</ele>
<time>2022-01-08T02:51:33Z</time></trkpt>
<trkpt lat="46.023679" lon="9.860325">
<ele>1921</ele>
<time>2022-01-08T02:51:54Z</time></trkpt>
<trkpt lat="46.023728" lon="9.860306">
<ele>1922</ele>
<time>2022-01-08T02:51:56Z</time></trkpt>
<trkpt lat="46.023774" lon="9.860316">
<ele>1923</ele>
<time>2022-01-08T02:51:58Z</time></trkpt>
<trkpt lat="46.023801" lon="9.860423">
<ele>1925</ele>
<time>2022-01-08T02:52:01Z</time></trkpt>
<trkpt lat="46.023868" lon="9.860515">
<ele>1928</ele>
<time>2022-01-08T02:52:05Z</time></trkpt>
<trkpt lat="46.023863" lon="9.860649">
<ele>1931</ele>
<time>2022-01-08T02:52:08Z</time></trkpt>
<trkpt lat="46.023745" lon="9.860849">
<ele>1931</ele>
<time>2022-01-08T02:52:16Z</time></trkpt>
<trkpt lat="46.023714" lon="9.860959">
<ele>1931</ele>
<time>2022-01-08T02:52:19Z</time></trkpt>
<trkpt lat="46.023727" lon="9.860989">
<ele>1932</ele>
<time>2022-01-08T02:52:20Z</time></trkpt>
<trkpt lat="46.02376" lon="9.860986">
<ele>1933</ele>
<time>2022-01-08T02:52:21Z</time></trkpt>
<trkpt lat="46.023877" lon="9.860903">
<ele>1935</ele>
<time>2022-01-08T02:52:27Z</time></trkpt>
<trkpt lat="46.023964" lon="9.860886">
<ele>1937</ele>
<time>2022-01-08T02:52:30Z</time></trkpt>
<trkpt lat="46.024035" lon="9.860907">
<ele>1939</ele>
<time>2022-01-08T02:52:33Z</time></trkpt>
<trkpt lat="46.024088" lon="9.860953">
<ele>1941</ele>
<time>2022-01-08T02:52:35Z</time></trkpt>
<trkpt lat="46.024174" lon="9.861206">
<ele>1945</ele>
<time>2022-01-08T02:52:43Z</time></trkpt>
<trkpt lat="46.024186" lon="9.861337">
<ele>1946</ele>
<time>2022-01-08T02:52:47Z</time></trkpt>
<trkpt lat="46.024161" lon="9.861488">
<ele>1947</ele>
<time>2022-01-08T02:52:51Z</time></trkpt>
<trkpt lat="46.024134" lon="9.861947">
<ele>1947</ele>
<time>2022-01-08T02:53:04Z</time></trkpt>
<trkpt lat="46.024172" lon="9.862201">
<ele>1947</ele>
<time>2022-01-08T02:53:11Z</time></trkpt>
<trkpt lat="46.024235" lon="9.862328">
<ele>1946</ele>
<time>2022-01-08T02:53:16Z</time></trkpt>
<trkpt lat="46.024237" lon="9.862762">
<ele>1946</ele>
<time>2022-01-08T02:53:28Z</time></trkpt>
<trkpt lat="46.02425" lon="9.862795">
<ele>1946</ele>
<time>2022-01-08T02:53:29Z</time></trkpt>
<trkpt lat="46.02425" lon="9.862795">
<ele>1946</ele>
<time>2022-01-08T02:53:29Z</time></trkpt>
<trkpt lat="46.024277" lon="9.862864">
<ele>1946</ele>
<time>2022-01-08T02:53:31Z</time></trkpt>
<trkpt lat="46.024373" lon="9.862898">
<ele>1946</ele>
<time>2022-01-08T02:53:35Z</time></trkpt>
<trkpt lat="46.024441" lon="9.863001">
<ele>1946</ele>
<time>2022-01-08T02:53:39Z</time></trkpt>
<trkpt lat="46.024474" lon="9.863143">
<ele>1947</ele>
<time>2022-01-08T02:53:43Z</time></trkpt>
<trkpt lat="46.024434" lon="9.863438">
<ele>1949</ele>
<time>2022-01-08T02:53:51Z</time></trkpt>
<trkpt lat="46.024435" lon="9.863676">
<ele>1951</ele>
<time>2022-01-08T02:53:58Z</time></trkpt>
<trkpt lat="46.024394" lon="9.863916">
<ele>1952</ele>
<time>2022-01-08T02:54:05Z</time></trkpt>
<trkpt lat="46.024319" lon="9.86418">
<ele>1953</ele>
<time>2022-01-08T02:54:13Z</time></trkpt>
<trkpt lat="46.024178" lon="9.864427">
<ele>1952</ele>
<time>2022-01-08T02:54:22Z</time></trkpt>
<trkpt lat="46.024174" lon="9.864697">
<ele>1952</ele>
<time>2022-01-08T02:54:29Z</time></trkpt>
<trkpt lat="46.024225" lon="9.865457">
<ele>1956</ele>
<time>2022-01-08T02:54:51Z</time></trkpt>
<trkpt lat="46.024225" lon="9.865457">
<ele>1956</ele>
<time>2022-01-08T02:54:51Z</time></trkpt>
<trkpt lat="46.024303" lon="9.866637">
<ele>1963</ele>
<time>2022-01-08T02:55:24Z</time></trkpt>
<trkpt lat="46.024296" lon="9.866734">
<ele>1963</ele>
<time>2022-01-08T02:55:26Z</time></trkpt>
<trkpt lat="46.024245" lon="9.866869">
<ele>1961</ele>
<time>2022-01-08T02:55:31Z</time></trkpt>
<trkpt lat="46.024179" lon="9.867324">
<ele>1960</ele>
<time>2022-01-08T02:55:43Z</time></trkpt>
<trkpt lat="46.024153" lon="9.86804">
<ele>1963</ele>
<time>2022-01-08T02:56:03Z</time></trkpt>
<trkpt lat="46.02416" lon="9.868692">
<ele>1967</ele>
<time>2022-01-08T02:56:22Z</time></trkpt>
<trkpt lat="46.024102" lon="9.869493">
<ele>1971</ele>
<time>2022-01-08T02:56:44Z</time></trkpt>
<trkpt lat="46.024069" lon="9.869629">
<ele>1971</ele>
<time>2022-01-08T02:56:48Z</time></trkpt>
<trkpt lat="46.024017" lon="9.869682">
<ele>1969</ele>
<time>2022-01-08T02:56:51Z</time></trkpt>
<trkpt lat="46.023973" lon="9.869798">
<ele>1968</ele>
<time>2022-01-08T02:56:54Z</time></trkpt>
<trkpt lat="46.02395" lon="9.869922">
<ele>1968</ele>
<time>2022-01-08T02:56:58Z</time></trkpt>
<trkpt lat="46.023848" lon="9.870083">
<ele>1964</ele>
<time>2022-01-08T02:57:04Z</time></trkpt>
<trkpt lat="46.023848" lon="9.870083">
<ele>1964</ele>
<time>2022-01-08T02:57:04Z</time></trkpt>
<trkpt lat="46.023797" lon="9.870196">
<ele>1962</ele>
<time>2022-01-08T02:57:08Z</time></trkpt>
<trkpt lat="46.023799" lon="9.87035">
<ele>1963</ele>
<time>2022-01-08T02:57:12Z</time></trkpt>
<trkpt lat="46.023719" lon="9.87057">
<ele>1961</ele>
<time>2022-01-08T02:57:19Z</time></trkpt>
<trkpt lat="46.023703" lon="9.870669">
<ele>1961</ele>
<time>2022-01-08T02:57:22Z</time></trkpt>
<trkpt lat="46.02371" lon="9.870845">
<ele>1963</ele>
<time>2022-01-08T02:57:27Z</time></trkpt>
<trkpt lat="46.0237" lon="9.87093">
<ele>1963</ele>
<time>2022-01-08T02:57:29Z</time></trkpt>
<trkpt lat="46.023641" lon="9.871105">
<ele>1962</ele>
<time>2022-01-08T02:57:34Z</time></trkpt>
<trkpt lat="46.023643" lon="9.871267">
<ele>1964</ele>
<time>2022-01-08T02:57:39Z</time></trkpt>
<trkpt lat="46.023601" lon="9.871846">
<ele>1968</ele>
<time>2022-01-08T02:57:55Z</time></trkpt>
<trkpt lat="46.023488" lon="9.872433">
<ele>1969</ele>
<time>2022-01-08T02:58:12Z</time></trkpt>
<trkpt lat="46.023503" lon="9.872802">
<ele>1973</ele>
<time>2022-01-08T02:58:22Z</time></trkpt>
<trkpt lat="46.023473" lon="9.872947">
<ele>1974</ele>
<time>2022-01-08T02:58:27Z</time></trkpt>
<trkpt lat="46.023473" lon="9.873164">
<ele>1976</ele>
<time>2022-01-08T02:58:33Z</time></trkpt>
<trkpt lat="46.0234" lon="9.873426">
<ele>1978</ele>
<time>2022-01-08T02:58:40Z</time></trkpt>
<trkpt lat="46.0234" lon="9.873795">
<ele>1983</ele>
<time>2022-01-08T02:58:51Z</time></trkpt>
<trkpt lat="46.023422" lon="9.87388">
<ele>1984</ele>
<time>2022-01-08T02:58:53Z</time></trkpt>
<trkpt lat="46.023503" lon="9.874041">
<ele>1989</ele>
<time>2022-01-08T02:58:59Z</time></trkpt>
<trkpt lat="46.023512" lon="9.874128">
<ele>1990</ele>
<time>2022-01-08T02:59:01Z</time></trkpt>
<trkpt lat="46.023466" lon="9.874323">
<ele>1991</ele>
<time>2022-01-08T02:59:07Z</time></trkpt>
<trkpt lat="46.023447" lon="9.874731">
<ele>1996</ele>
<time>2022-01-08T02:59:18Z</time></trkpt>
<trkpt lat="46.023447" lon="9.874731">
<ele>1996</ele>
<time>2022-01-08T02:59:18Z</time></trkpt>
<trkpt lat="46.023438" lon="9.874916">
<ele>1998</ele>
<time>2022-01-08T02:59:23Z</time></trkpt>
<trkpt lat="46.02345" lon="9.875214">
<ele>1999</ele>
<time>2022-01-08T02:59:32Z</time></trkpt>
<trkpt lat="46.023551" lon="9.875612">
<ele>2000</ele>
<time>2022-01-08T02:59:44Z</time></trkpt>
<trkpt lat="46.023591" lon="9.875906">
<ele>1999</ele>
<time>2022-01-08T02:59:52Z</time></trkpt>
<trkpt lat="46.023608" lon="9.876159">
<ele>1998</ele>
<time>2022-01-08T02:59:59Z</time></trkpt>
<trkpt lat="46.023547" lon="9.876464">
<ele>1998</ele>
<time>2022-01-08T03:00:08Z</time></trkpt>
<trkpt lat="46.0235738" lon="9.8765071">
<ele>1998</ele>
<time>2022-01-08T03:00:09Z</time></trkpt>
<trkpt lat="46.023646" lon="9.876623">
<ele>1996</ele>
<time>2022-01-08T03:00:14Z</time></trkpt>
<trkpt lat="46.02376" lon="9.876586">
<ele>1995</ele>
<time>2022-01-08T03:00:18Z</time></trkpt>
<trkpt lat="46.023856" lon="9.876513">
<ele>1995</ele>
<time>2022-01-08T03:00:23Z</time></trkpt>
<trkpt lat="46.023995" lon="9.876493">
<ele>1994</ele>
<time>2022-01-08T03:00:28Z</time></trkpt>
<trkpt lat="46.024043" lon="9.876468">
<ele>1994</ele>
<time>2022-01-08T03:00:30Z</time></trkpt>
<trkpt lat="46.024043" lon="9.876468">
<ele>1994</ele>
<time>2022-01-08T03:00:30Z</time></trkpt>
<trkpt lat="46.024092" lon="9.876442">
<ele>1994</ele>
<time>2022-01-08T03:00:32Z</time></trkpt>
<trkpt lat="46.024358" lon="9.876481">
<ele>1990</ele>
<time>2022-01-08T03:00:43Z</time></trkpt>
<trkpt lat="46.024423" lon="9.87649">
<ele>1988</ele>
<time>2022-01-08T03:00:46Z</time></trkpt>
<trkpt lat="46.024556" lon="9.876408">
<ele>1988</ele>
<time>2022-01-08T03:00:52Z</time></trkpt>
<trkpt lat="46.024822" lon="9.876411">
<ele>1983</ele>
<time>2022-01-08T03:01:02Z</time></trkpt>
<trkpt lat="46.024911" lon="9.876354">
<ele>1983</ele>
<time>2022-01-08T03:01:06Z</time></trkpt>
<trkpt lat="46.025083" lon="9.876351">
<ele>1981</ele>
<time>2022-01-08T03:01:13Z</time></trkpt>
<trkpt lat="46.025186" lon="9.876408">
<ele>1980</ele>
<time>2022-01-08T03:01:18Z</time></trkpt>
<trkpt lat="46.025269" lon="9.87639">
<ele>1980</ele>
<time>2022-01-08T03:01:21Z</time></trkpt>
<trkpt lat="46.025269" lon="9.87639">
<ele>1980</ele>
<time>2022-01-08T03:01:21Z</time></trkpt>
<trkpt lat="46.025367" lon="9.87637">
<ele>1980</ele>
<time>2022-01-08T03:01:25Z</time></trkpt>
<trkpt lat="46.02546" lon="9.876462">
<ele>1978</ele>
<time>2022-01-08T03:01:29Z</time></trkpt>
<trkpt lat="46.025693" lon="9.876909">
<ele>1973</ele>
<time>2022-01-08T03:01:45Z</time></trkpt>
<trkpt lat="46.025722" lon="9.877366">
<ele>1970</ele>
<time>2022-01-08T03:01:58Z</time></trkpt>
<trkpt lat="46.025758" lon="9.877525">
<ele>1969</ele>
<time>2022-01-08T03:02:02Z</time></trkpt>
<trkpt lat="46.025798" lon="9.87753">
<ele>1969</ele>
<time>2022-01-08T03:02:04Z</time></trkpt>
<trkpt lat="46.026041" lon="9.877703">
<ele>1971</ele>
<time>2022-01-08T03:02:15Z</time></trkpt>
<trkpt lat="46.026333" lon="9.877767">
<ele>1973</ele>
<time>2022-01-08T03:02:27Z</time></trkpt>
<trkpt lat="46.026333" lon="9.877767">
<ele>1973</ele>
<time>2022-01-08T03:02:27Z</time></trkpt>
<trkpt lat="46.026431" lon="9.87781">
<ele>1974</ele>
<time>2022-01-08T03:02:31Z</time></trkpt>
<trkpt lat="46.026515" lon="9.877528">
<ele>1968</ele>
<time>2022-01-08T03:02:39Z</time></trkpt>
<trkpt lat="46.026636" lon="9.877397">
<ele>1966</ele>
<time>2022-01-08T03:02:45Z</time></trkpt>
<trkpt lat="46.026829" lon="9.877348">
<ele>1962</ele>
<time>2022-01-08T03:02:53Z</time></trkpt>
<trkpt lat="46.02687" lon="9.87716">
<ele>1960</ele>
<time>2022-01-08T03:02:59Z</time></trkpt>
<trkpt lat="46.026974" lon="9.877259">
<ele>1958</ele>
<time>2022-01-08T03:03:04Z</time></trkpt>
<trkpt lat="46.027065" lon="9.877222">
<ele>1956</ele>
<time>2022-01-08T03:03:07Z</time></trkpt>
<trkpt lat="46.027367" lon="9.877477">
<ele>1952</ele>
<time>2022-01-08T03:03:22Z</time></trkpt>
<trkpt lat="46.027465" lon="9.877819">
<ele>1956</ele>
<time>2022-01-08T03:03:32Z</time></trkpt>
<trkpt lat="46.027483" lon="9.878217">
<ele>1963</ele>
<time>2022-01-08T03:03:43Z</time></trkpt>
<trkpt lat="46.027602" lon="9.878556">
<ele>1965</ele>
<time>2022-01-08T03:03:53Z</time></trkpt>
<trkpt lat="46.027598" lon="9.878766">
<ele>1970</ele>
<time>2022-01-08T03:03:59Z</time></trkpt>
<trkpt lat="46.027682" lon="9.879034">
<ele>1972</ele>
<time>2022-01-08T03:04:07Z</time></trkpt>
<trkpt lat="46.027813" lon="9.87916">
<ele>1968</ele>
<time>2022-01-08T03:04:14Z</time></trkpt>
<trkpt lat="46.027813" lon="9.87916">
<ele>1968</ele>
<time>2022-01-08T03:04:14Z</time></trkpt>
<trkpt lat="46.028213" lon="9.879542">
<ele>1960</ele>
<time>2022-01-08T03:04:33Z</time></trkpt>
<trkpt lat="46.02824" lon="9.879699">
<ele>1962</ele>
<time>2022-01-08T03:04:38Z</time></trkpt>
<trkpt lat="46.028375" lon="9.879927">
<ele>1962</ele>
<time>2022-01-08T03:04:46Z</time></trkpt>
<trkpt lat="46.028495" lon="9.879973">
<ele>1957</ele>
<time>2022-01-08T03:04:51Z</time></trkpt>
<trkpt lat="46.028724" lon="9.880227">
<ele>1952</ele>
<time>2022-01-08T03:05:02Z</time></trkpt>
<trkpt lat="46.029026" lon="9.880607">
<ele>1944</ele>
<time>2022-01-08T03:05:19Z</time></trkpt>
<trkpt lat="46.029149" lon="9.880909">
<ele>1943</ele>
<time>2022-01-08T03:05:28Z</time></trkpt>
<trkpt lat="46.029216" lon="9.881492">
<ele>1950</ele>
<time>2022-01-08T03:05:45Z</time></trkpt>
<trkpt lat="46.029367" lon="9.882027">
<ele>1947</ele>
<time>2022-01-08T03:06:01Z</time></trkpt>
<trkpt lat="46.029419" lon="9.882325">
<ele>1946</ele>
<time>2022-01-08T03:06:09Z</time></trkpt>
<trkpt lat="46.029419" lon="9.882325">
<ele>1946</ele>
<time>2022-01-08T03:06:09Z</time></trkpt>
<trkpt lat="46.029521" lon="9.883082">
<ele>1945</ele>
<time>2022-01-08T03:06:31Z</time></trkpt>
<trkpt lat="46.02964" lon="9.883441">
<ele>1944</ele>
<time>2022-01-08T03:06:42Z</time></trkpt>
<trkpt lat="46.029758" lon="9.883903">
<ele>1945</ele>
<time>2022-01-08T03:06:56Z</time></trkpt>
<trkpt lat="46.029925" lon="9.884471">
<ele>1947</ele>
<time>2022-01-08T03:07:13Z</time></trkpt>
<trkpt lat="46.029876" lon="9.884783">
<ele>1952</ele>
<time>2022-01-08T03:07:22Z</time></trkpt>
<trkpt lat="46.029931" lon="9.885122">
<ele>1953</ele>
<time>2022-01-08T03:07:31Z</time></trkpt>
<trkpt lat="46.029877" lon="9.885437">
<ele>1955</ele>
<time>2022-01-08T03:07:40Z</time></trkpt>
<trkpt lat="46.029868" lon="9.885672">
<ele>1956</ele>
<time>2022-01-08T03:07:47Z</time></trkpt>
<trkpt lat="46.030079" lon="9.886594">
<ele>1957</ele>
<time>2022-01-08T03:08:14Z</time></trkpt>
<trkpt lat="46.030021" lon="9.886754">
<ele>1959</ele>
<time>2022-01-08T03:08:19Z</time></trkpt>
<trkpt lat="46.030115" lon="9.886958">
<ele>1959</ele>
<time>2022-01-08T03:08:26Z</time></trkpt>
<trkpt lat="46.030075" lon="9.887091">
<ele>1961</ele>
<time>2022-01-08T03:08:30Z</time></trkpt>
<trkpt lat="46.030104" lon="9.887145">
<ele>1961</ele>
<time>2022-01-08T03:08:32Z</time></trkpt>
<trkpt lat="46.030296" lon="9.887179">
<ele>1959</ele>
<time>2022-01-08T03:08:39Z</time></trkpt>
<trkpt lat="46.030397" lon="9.887304">
<ele>1959</ele>
<time>2022-01-08T03:08:45Z</time></trkpt>
<trkpt lat="46.030463" lon="9.887572">
<ele>1960</ele>
<time>2022-01-08T03:08:53Z</time></trkpt>
<trkpt lat="46.030536" lon="9.887568">
<ele>1959</ele>
<time>2022-01-08T03:08:56Z</time></trkpt>
<trkpt lat="46.030536" lon="9.887568">
<ele>1959</ele>
<time>2022-01-08T03:08:56Z</time></trkpt>
<trkpt lat="46.030641" lon="9.887562">
<ele>1958</ele>
<time>2022-01-08T03:09:00Z</time></trkpt>
<trkpt lat="46.030691" lon="9.888042">
<ele>1966</ele>
<time>2022-01-08T03:09:13Z</time></trkpt>
<trkpt lat="46.030766" lon="9.888369">
<ele>1971</ele>
<time>2022-01-08T03:09:23Z</time></trkpt>
<trkpt lat="46.030864" lon="9.888407">
<ele>1971</ele>
<time>2022-01-08T03:09:27Z</time></trkpt>
<trkpt lat="46.031045" lon="9.888523">
<ele>1975</ele>
<time>2022-01-08T03:09:35Z</time></trkpt>
<trkpt lat="46.031152" lon="9.888742">
<ele>1981</ele>
<time>2022-01-08T03:09:42Z</time></trkpt>
<trkpt lat="46.031378" lon="9.889082">
<ele>1988</ele>
<time>2022-01-08T03:09:55Z</time></trkpt>
<trkpt lat="46.031445" lon="9.889137">
<ele>1988</ele>
<time>2022-01-08T03:09:59Z</time></trkpt>
<trkpt lat="46.031637" lon="9.889332">
<ele>1992</ele>
<time>2022-01-08T03:10:08Z</time></trkpt>
<trkpt lat="46.031674" lon="9.889201">
<ele>1986</ele>
<time>2022-01-08T03:10:12Z</time></trkpt>
<trkpt lat="46.031775" lon="9.889195">
<ele>1988</ele>
<time>2022-01-08T03:10:16Z</time></trkpt>
<trkpt lat="46.031868" lon="9.889271">
<ele>1992</ele>
<time>2022-01-08T03:10:20Z</time></trkpt>
<trkpt lat="46.031925" lon="9.889402">
<ele>1996</ele>
<time>2022-01-08T03:10:24Z</time></trkpt>
<trkpt lat="46.032004" lon="9.889521">
<ele>2001</ele>
<time>2022-01-08T03:10:29Z</time></trkpt>
<trkpt lat="46.032056" lon="9.889689">
<ele>2005</ele>
<time>2022-01-08T03:10:34Z</time></trkpt>
<trkpt lat="46.0321" lon="9.889965">
<ele>2013</ele>
<time>2022-01-08T03:10:42Z</time></trkpt>
<trkpt lat="46.03223" lon="9.89019">
<ele>2019</ele>
<time>2022-01-08T03:10:50Z</time></trkpt>
<trkpt lat="46.032413" lon="9.890277">
<ele>2020</ele>
<time>2022-01-08T03:10:58Z</time></trkpt>
<trkpt lat="46.032592" lon="9.890487">
<ele>2025</ele>
<time>2022-01-08T03:11:07Z</time></trkpt>
<trkpt lat="46.032702" lon="9.89077">
<ele>2032</ele>
<time>2022-01-08T03:11:16Z</time></trkpt>
<trkpt lat="46.032827" lon="9.890883">
<ele>2033</ele>
<time>2022-01-08T03:11:22Z</time></trkpt>
<trkpt lat="46.033132" lon="9.89112">
<ele>2034</ele>
<time>2022-01-08T03:11:36Z</time></trkpt>
<trkpt lat="46.033258" lon="9.891295">
<ele>2036</ele>
<time>2022-01-08T03:11:43Z</time></trkpt>
<trkpt lat="46.033258" lon="9.891295">
<ele>2036</ele>
<time>2022-01-08T03:11:43Z</time></trkpt>
<trkpt lat="46.033279" lon="9.891324">
<ele>2036</ele>
<time>2022-01-08T03:11:44Z</time></trkpt>
<trkpt lat="46.033615" lon="9.89142">
<ele>2036</ele>
<time>2022-01-08T03:11:58Z</time></trkpt>
<trkpt lat="46.033845" lon="9.891293">
<ele>2034</ele>
<time>2022-01-08T03:12:08Z</time></trkpt>
<trkpt lat="46.033935" lon="9.891388">
<ele>2035</ele>
<time>2022-01-08T03:12:12Z</time></trkpt>
<trkpt lat="46.033988" lon="9.891488">
<ele>2036</ele>
<time>2022-01-08T03:12:16Z</time></trkpt>
<trkpt lat="46.034084" lon="9.891434">
<ele>2035</ele>
<time>2022-01-08T03:12:20Z</time></trkpt>
<trkpt lat="46.034272" lon="9.891262">
<ele>2037</ele>
<time>2022-01-08T03:12:29Z</time></trkpt>
<trkpt lat="46.034369" lon="9.891222">
<ele>2039</ele>
<time>2022-01-08T03:12:33Z</time></trkpt>
<trkpt lat="46.034536" lon="9.891054">
<ele>2044</ele>
<time>2022-01-08T03:12:41Z</time></trkpt>
<trkpt lat="46.034613" lon="9.889902">
<ele>2061</ele>
<time>2022-01-08T03:13:13Z</time></trkpt>
<trkpt lat="46.034677" lon="9.889803">
<ele>2067</ele>
<time>2022-01-08T03:13:17Z</time></trkpt>
<trkpt lat="46.034935" lon="9.890178">
<ele>2070</ele>
<time>2022-01-08T03:13:32Z</time></trkpt>
<trkpt lat="46.035053" lon="9.890303">
<ele>2074</ele>
<time>2022-01-08T03:13:38Z</time></trkpt>
<trkpt lat="46.035113" lon="9.890338">
<ele>2077</ele>
<time>2022-01-08T03:13:40Z</time></trkpt>
<trkpt lat="46.035113" lon="9.890338">
<ele>2077</ele>
<time>2022-01-08T03:13:40Z</time></trkpt>
<trkpt lat="46.035304" lon="9.890474">
<ele>2086</ele>
<time>2022-01-08T03:13:49Z</time></trkpt>
<trkpt lat="46.035359" lon="9.890453">
<ele>2089</ele>
<time>2022-01-08T03:13:51Z</time></trkpt>
<trkpt lat="46.035386" lon="9.890305">
<ele>2094</ele>
<time>2022-01-08T03:13:55Z</time></trkpt>
<trkpt lat="46.035451" lon="9.890271">
<ele>2098</ele>
<time>2022-01-08T03:13:58Z</time></trkpt>
<trkpt lat="46.035748" lon="9.890661">
<ele>2109</ele>
<time>2022-01-08T03:14:14Z</time></trkpt>
<trkpt lat="46.035881" lon="9.891035">
<ele>2115</ele>
<time>2022-01-08T03:14:26Z</time></trkpt>
<trkpt lat="46.036002" lon="9.891204">
<ele>2123</ele>
<time>2022-01-08T03:14:33Z</time></trkpt>
<trkpt lat="46.035952" lon="9.891473">
<ele>2118</ele>
<time>2022-01-08T03:14:40Z</time></trkpt>
<trkpt lat="46.035991" lon="9.891715">
<ele>2121</ele>
<time>2022-01-08T03:14:47Z</time></trkpt>
<trkpt lat="46.035962" lon="9.892404">
<ele>2121</ele>
<time>2022-01-08T03:15:06Z</time></trkpt>
<trkpt lat="46.036046" lon="9.892797">
<ele>2133</ele>
<time>2022-01-08T03:15:18Z</time></trkpt>
<trkpt lat="46.036025" lon="9.89304">
<ele>2136</ele>
<time>2022-01-08T03:15:25Z</time></trkpt>
<trkpt lat="46.036036" lon="9.89309">
<ele>2137</ele>
<time>2022-01-08T03:15:26Z</time></trkpt>
<trkpt lat="46.036167" lon="9.893194">
<ele>2148</ele>
<time>2022-01-08T03:15:32Z</time></trkpt>
<trkpt lat="46.036237" lon="9.893313">
<ele>2154</ele>
<time>2022-01-08T03:15:36Z</time></trkpt>
<trkpt lat="46.03632" lon="9.893261">
<ele>2159</ele>
<time>2022-01-08T03:15:40Z</time></trkpt>
<trkpt lat="46.036392" lon="9.893356">
<ele>2165</ele>
<time>2022-01-08T03:15:44Z</time></trkpt>
<trkpt lat="46.03648" lon="9.893425">
<ele>2171</ele>
<time>2022-01-08T03:15:48Z</time></trkpt>
<trkpt lat="46.03648" lon="9.893425">
<ele>2171</ele>
<time>2022-01-08T03:15:48Z</time></trkpt>
<trkpt lat="46.036535" lon="9.893469">
<ele>2175</ele>
<time>2022-01-08T03:15:51Z</time></trkpt>
<trkpt lat="46.036553" lon="9.893566">
<ele>2177</ele>
<time>2022-01-08T03:15:53Z</time></trkpt>
<trkpt lat="46.036497" lon="9.893836">
<ele>2178</ele>
<time>2022-01-08T03:16:01Z</time></trkpt>
<trkpt lat="46.036512" lon="9.893935">
<ele>2180</ele>
<time>2022-01-08T03:16:04Z</time></trkpt>
<trkpt lat="46.036768" lon="9.893968">
<ele>2193</ele>
<time>2022-01-08T03:16:14Z</time></trkpt>
<trkpt lat="46.036815" lon="9.89407">
<ele>2197</ele>
<time>2022-01-08T03:16:18Z</time></trkpt>
<trkpt lat="46.03679" lon="9.894193">
<ele>2197</ele>
<time>2022-01-08T03:16:21Z</time></trkpt>
<trkpt lat="46.036899" lon="9.894324">
<ele>2205</ele>
<time>2022-01-08T03:16:27Z</time></trkpt>
<trkpt lat="46.037017" lon="9.894406">
<ele>2213</ele>
<time>2022-01-08T03:16:32Z</time></trkpt>
<trkpt lat="46.037101" lon="9.894421">
<ele>2217</ele>
<time>2022-01-08T03:16:36Z</time></trkpt>
<trkpt lat="46.037117" lon="9.894321">
<ele>2216</ele>
<time>2022-01-08T03:16:38Z</time></trkpt>
<trkpt lat="46.037213" lon="9.894306">
<ele>2220</ele>
<time>2022-01-08T03:16:42Z</time></trkpt>
<trkpt lat="46.037335" lon="9.894175">
<ele>2223</ele>
<time>2022-01-08T03:16:48Z</time></trkpt>
<trkpt lat="46.03755" lon="9.894434">
<ele>2238</ele>
<time>2022-01-08T03:17:00Z</time></trkpt>
<trkpt lat="46.037636" lon="9.894319">
<ele>2239</ele>
<time>2022-01-08T03:17:04Z</time></trkpt>
<trkpt lat="46.03771" lon="9.894385">
<ele>2243</ele>
<time>2022-01-08T03:17:08Z</time></trkpt>
<trkpt lat="46.037783" lon="9.894362">
<ele>2246</ele>
<time>2022-01-08T03:17:11Z</time></trkpt>
<trkpt lat="46.03786" lon="9.894465">
<ele>2250</ele>
<time>2022-01-08T03:17:15Z</time></trkpt>
<trkpt lat="46.03808" lon="9.894505">
<ele>2258</ele>
<time>2022-01-08T03:17:24Z</time></trkpt>
<trkpt lat="46.038408" lon="9.894743">
<ele>2269</ele>
<time>2022-01-08T03:17:39Z</time></trkpt>
<trkpt lat="46.038531" lon="9.894916">
<ele>2273</ele>
<time>2022-01-08T03:17:46Z</time></trkpt>
<trkpt lat="46.038627" lon="9.895371">
<ele>2280</ele>
<time>2022-01-08T03:17:59Z</time></trkpt>
<trkpt lat="46.038613" lon="9.895429">
<ele>2281</ele>
<time>2022-01-08T03:18:00Z</time></trkpt>
<trkpt lat="46.038532" lon="9.895556">
<ele>2281</ele>
<time>2022-01-08T03:18:05Z</time></trkpt>
<trkpt lat="46.038616" lon="9.895781">
<ele>2285</ele>
<time>2022-01-08T03:18:12Z</time></trkpt>
<trkpt lat="46.038598" lon="9.89593">
<ele>2287</ele>
<time>2022-01-08T03:18:17Z</time></trkpt>
<trkpt lat="46.038527" lon="9.896137">
<ele>2289</ele>
<time>2022-01-08T03:18:23Z</time></trkpt>
<trkpt lat="46.038513" lon="9.896222">
<ele>2290</ele>
<time>2022-01-08T03:18:25Z</time></trkpt>
<trkpt lat="46.038513" lon="9.896222">
<ele>2290</ele>
<time>2022-01-08T03:18:25Z</time></trkpt>
<trkpt lat="46.038459" lon="9.896543">
<ele>2294</ele>
<time>2022-01-08T03:18:35Z</time></trkpt>
<trkpt lat="46.038488" lon="9.896965">
<ele>2296</ele>
<time>2022-01-08T03:18:46Z</time></trkpt>
<trkpt lat="46.038547" lon="9.8972">
<ele>2296</ele>
<time>2022-01-08T03:18:53Z</time></trkpt>
<trkpt lat="46.038796" lon="9.897489">
<ele>2299</ele>
<time>2022-01-08T03:19:06Z</time></trkpt>
<trkpt lat="46.038909" lon="9.897588">
<ele>2301</ele>
<time>2022-01-08T03:19:11Z</time></trkpt>
<trkpt lat="46.039" lon="9.897865">
<ele>2303</ele>
<time>2022-01-08T03:19:20Z</time></trkpt>
<trkpt lat="46.039084" lon="9.898605">
<ele>2306</ele>
<time>2022-01-08T03:19:41Z</time></trkpt>
<trkpt lat="46.039072" lon="9.89919">
<ele>2308</ele>
<time>2022-01-08T03:19:57Z</time></trkpt>
<trkpt lat="46.039041" lon="9.899396">
<ele>2310</ele>
<time>2022-01-08T03:20:03Z</time></trkpt>
<trkpt lat="46.039005" lon="9.899828">
<ele>2314</ele>
<time>2022-01-08T03:20:15Z</time></trkpt>
<trkpt lat="46.039008" lon="9.900091">
<ele>2316</ele>
<time>2022-01-08T03:20:22Z</time></trkpt>
<trkpt lat="46.039205" lon="9.900222">
<ele>2318</ele>
<time>2022-01-08T03:20:31Z</time></trkpt>
<trkpt lat="46.039295" lon="9.900503">
<ele>2323</ele>
<time>2022-01-08T03:20:40Z</time></trkpt>
<trkpt lat="46.039352" lon="9.900788">
<ele>2326</ele>
<time>2022-01-08T03:20:48Z</time></trkpt>
<trkpt lat="46.039391" lon="9.901481">
<ele>2326</ele>
<time>2022-01-08T03:21:07Z</time></trkpt>
<trkpt lat="46.039391" lon="9.901481">
<ele>2326</ele>
<time>2022-01-08T03:21:07Z</time></trkpt>
<trkpt lat="46.039487" lon="9.90193">
<ele>2331</ele>
<time>2022-01-08T03:21:20Z</time></trkpt>
<trkpt lat="46.039519" lon="9.902486">
<ele>2336</ele>
<time>2022-01-08T03:21:36Z</time></trkpt>
<trkpt lat="46.039534" lon="9.903101">
<ele>2341</ele>
<time>2022-01-08T03:21:53Z</time></trkpt>
<trkpt lat="46.039637" lon="9.903794">
<ele>2349</ele>
<time>2022-01-08T03:22:13Z</time></trkpt>
<trkpt lat="46.039787" lon="9.9043">
<ele>2356</ele>
<time>2022-01-08T03:22:28Z</time></trkpt>
<trkpt lat="46.03999" lon="9.904655">
<ele>2364</ele>
<time>2022-01-08T03:22:41Z</time></trkpt>
<trkpt lat="46.040044" lon="9.905253">
<ele>2367</ele>
<time>2022-01-08T03:22:58Z</time></trkpt>
<trkpt lat="46.040024" lon="9.905705">
<ele>2365</ele>
<time>2022-01-08T03:23:10Z</time></trkpt>
<trkpt lat="46.039872" lon="9.906206">
<ele>2372</ele>
<time>2022-01-08T03:23:25Z</time></trkpt>
<trkpt lat="46.039872" lon="9.906206">
<ele>2372</ele>
<time>2022-01-08T03:23:25Z</time></trkpt>
<trkpt lat="46.039576" lon="9.906968">
<ele>2391</ele>
<time>2022-01-08T03:23:50Z</time></trkpt>
<trkpt lat="46.039339" lon="9.907167">
<ele>2396</ele>
<time>2022-01-08T03:24:01Z</time></trkpt>
<trkpt lat="46.039252" lon="9.907295">
<ele>2399</ele>
<time>2022-01-08T03:24:06Z</time></trkpt>
<trkpt lat="46.039239" lon="9.907607">
<ele>2411</ele>
<time>2022-01-08T03:24:14Z</time></trkpt>
<trkpt lat="46.039192" lon="9.907915">
<ele>2422</ele>
<time>2022-01-08T03:24:23Z</time></trkpt>
<trkpt lat="46.039286" lon="9.908336">
<ele>2441</ele>
<time>2022-01-08T03:24:35Z</time></trkpt>
<trkpt lat="46.039396" lon="9.908358">
<ele>2444</ele>
<time>2022-01-08T03:24:40Z</time></trkpt>
<trkpt lat="46.039382" lon="9.908545">
<ele>2450</ele>
<time>2022-01-08T03:24:45Z</time></trkpt>
<trkpt lat="46.039201" lon="9.909444">
<ele>2473</ele>
<time>2022-01-08T03:25:11Z</time></trkpt>
<trkpt lat="46.039118" lon="9.909738">
<ele>2484</ele>
<time>2022-01-08T03:25:20Z</time></trkpt>
<trkpt lat="46.03907" lon="9.910228">
<ele>2490</ele>
<time>2022-01-08T03:25:34Z</time></trkpt>
<trkpt lat="46.038942" lon="9.910505">
<ele>2496</ele>
<time>2022-01-08T03:25:43Z</time></trkpt>
<trkpt lat="46.03895" lon="9.91055">
<ele>2496</ele>
<time>2022-01-08T03:25:44Z</time></trkpt>
<trkpt lat="46.038925" lon="9.910892">
<ele>2496</ele>
<time>2022-01-08T03:25:54Z</time></trkpt>
<trkpt lat="46.039088" lon="9.911457">
<ele>2476</ele>
<time>2022-01-08T03:26:11Z</time></trkpt>
<trkpt lat="46.039088" lon="9.911457">
<ele>2476</ele>
<time>2022-01-08T03:26:11Z</time></trkpt>
<trkpt lat="46.039267" lon="9.911812">
<ele>2466</ele>
<time>2022-01-08T03:26:23Z</time></trkpt>
<trkpt lat="46.039406" lon="9.91191">
<ele>2467</ele>
<time>2022-01-08T03:26:29Z</time></trkpt>
<trkpt lat="46.039421" lon="9.912042">
<ele>2462</ele>
<time>2022-01-08T03:26:33Z</time></trkpt>
<trkpt lat="46.039535" lon="9.912358">
<ele>2452</ele>
<time>2022-01-08T03:26:43Z</time></trkpt>
<trkpt lat="46.039645" lon="9.912573">
<ele>2447</ele>
<time>2022-01-08T03:26:50Z</time></trkpt>
<trkpt lat="46.039792" lon="9.912914">
<ele>2440</ele>
<time>2022-01-08T03:27:02Z</time></trkpt>
<trkpt lat="46.039802" lon="9.913279">
<ele>2427</ele>
<time>2022-01-08T03:27:12Z</time></trkpt>
<trkpt lat="46.0399" lon="9.913476">
<ele>2424</ele>
<time>2022-01-08T03:27:18Z</time></trkpt>
<trkpt lat="46.039989" lon="9.913588">
<ele>2425</ele>
<time>2022-01-08T03:27:23Z</time></trkpt>
<trkpt lat="46.039953" lon="9.913962">
<ele>2412</ele>
<time>2022-01-08T03:27:34Z</time></trkpt>
<trkpt lat="46.040006" lon="9.91431">
<ele>2404</ele>
<time>2022-01-08T03:27:44Z</time></trkpt>
<trkpt lat="46.03998" lon="9.914496">
<ele>2398</ele>
<time>2022-01-08T03:27:49Z</time></trkpt>
<trkpt lat="46.039921" lon="9.914661">
<ele>2391</ele>
<time>2022-01-08T03:27:54Z</time></trkpt>
<trkpt lat="46.039946" lon="9.915031">
<ele>2382</ele>
<time>2022-01-08T03:28:04Z</time></trkpt>
<trkpt lat="46.04002" lon="9.91501">
<ele>2386</ele>
<time>2022-01-08T03:28:07Z</time></trkpt>
<trkpt lat="46.040088" lon="9.915105">
<ele>2385</ele>
<time>2022-01-08T03:28:11Z</time></trkpt>
<trkpt lat="46.040185" lon="9.915555">
<ele>2374</ele>
<time>2022-01-08T03:28:24Z</time></trkpt>
<trkpt lat="46.040273" lon="9.91574">
<ele>2371</ele>
<time>2022-01-08T03:28:31Z</time></trkpt>
<trkpt lat="46.040271" lon="9.915869">
<ele>2367</ele>
<time>2022-01-08T03:28:34Z</time></trkpt>
<trkpt lat="46.040308" lon="9.916065">
<ele>2362</ele>
<time>2022-01-08T03:28:40Z</time></trkpt>
<trkpt lat="46.040308" lon="9.916065">
<ele>2362</ele>
<time>2022-01-08T03:28:40Z</time></trkpt>
<trkpt lat="46.040326" lon="9.916157">
<ele>2359</ele>
<time>2022-01-08T03:28:42Z</time></trkpt>
<trkpt lat="46.040622" lon="9.916882">
<ele>2348</ele>
<time>2022-01-08T03:29:06Z</time></trkpt>
<trkpt lat="46.040813" lon="9.917127">
<ele>2351</ele>
<time>2022-01-08T03:29:16Z</time></trkpt>
<trkpt lat="46.040942" lon="9.917651">
<ele>2332</ele>
<time>2022-01-08T03:29:32Z</time></trkpt>
<trkpt lat="46.040986" lon="9.917985">
<ele>2318</ele>
<time>2022-01-08T03:29:41Z</time></trkpt>
<trkpt lat="46.040997" lon="9.918814">
<ele>2289</ele>
<time>2022-01-08T03:30:04Z</time></trkpt>
<trkpt lat="46.040975" lon="9.919244">
<ele>2278</ele>
<time>2022-01-08T03:30:16Z</time></trkpt>
<trkpt lat="46.040901" lon="9.919671">
<ele>2270</ele>
<time>2022-01-08T03:30:28Z</time></trkpt>
<trkpt lat="46.041065" lon="9.920537">
<ele>2248</ele>
<time>2022-01-08T03:30:53Z</time></trkpt>
<trkpt lat="46.0411" lon="9.920647">
<ele>2245</ele>
<time>2022-01-08T03:30:57Z</time></trkpt>
<trkpt lat="46.041167" lon="9.920632">
<ele>2244</ele>
<time>2022-01-08T03:30:59Z</time></trkpt>
<trkpt lat="46.041413" lon="9.920135">
<ele>2247</ele>
<time>2022-01-08T03:31:16Z</time></trkpt>
<trkpt lat="46.041733" lon="9.919585">
<ele>2253</ele>
<time>2022-01-08T03:31:36Z</time></trkpt>
<trkpt lat="46.041942" lon="9.919469">
<ele>2248</ele>
<time>2022-01-08T03:31:45Z</time></trkpt>
<trkpt lat="46.042005" lon="9.91955">
<ele>2244</ele>
<time>2022-01-08T03:31:49Z</time></trkpt>
<trkpt lat="46.04211" lon="9.919562">
<ele>2239</ele>
<time>2022-01-08T03:31:53Z</time></trkpt>
<trkpt lat="46.042082" lon="9.919719">
<ele>2235</ele>
<time>2022-01-08T03:31:57Z</time></trkpt>
<trkpt lat="46.042285" lon="9.919702">
<ele>2228</ele>
<time>2022-01-08T03:32:06Z</time></trkpt>
<trkpt lat="46.042471" lon="9.919793">
<ele>2218</ele>
<time>2022-01-08T03:32:13Z</time></trkpt>
<trkpt lat="46.042565" lon="9.919896">
<ele>2211</ele>
<time>2022-01-08T03:32:18Z</time></trkpt>
<trkpt lat="46.042565" lon="9.919896">
<ele>2211</ele>
<time>2022-01-08T03:32:18Z</time></trkpt>
<trkpt lat="46.042757" lon="9.920106">
<ele>2199</ele>
<time>2022-01-08T03:32:28Z</time></trkpt>
<trkpt lat="46.042884" lon="9.920461">
<ele>2185</ele>
<time>2022-01-08T03:32:39Z</time></trkpt>
<trkpt lat="46.043375" lon="9.920808">
<ele>2166</ele>
<time>2022-01-08T03:33:01Z</time></trkpt>
<trkpt lat="46.043479" lon="9.921029">
<ele>2158</ele>
<time>2022-01-08T03:33:08Z</time></trkpt>
<trkpt lat="46.043555" lon="9.921357">
<ele>2149</ele>
<time>2022-01-08T03:33:18Z</time></trkpt>
<trkpt lat="46.043789" lon="9.921455">
<ele>2142</ele>
<time>2022-01-08T03:33:28Z</time></trkpt>
<trkpt lat="46.043859" lon="9.921581">
<ele>2138</ele>
<time>2022-01-08T03:33:32Z</time></trkpt>
<trkpt lat="46.043883" lon="9.921476">
<ele>2140</ele>
<time>2022-01-08T03:33:35Z</time></trkpt>
<trkpt lat="46.044009" lon="9.921412">
<ele>2139</ele>
<time>2022-01-08T03:33:41Z</time></trkpt>
<trkpt lat="46.044134" lon="9.921462">
<ele>2136</ele>
<time>2022-01-08T03:33:46Z</time></trkpt>
<trkpt lat="46.044289" lon="9.921391">
<ele>2135</ele>
<time>2022-01-08T03:33:52Z</time></trkpt>
<trkpt lat="46.044479" lon="9.921556">
<ele>2129</ele>
<time>2022-01-08T03:34:01Z</time></trkpt>
<trkpt lat="46.044739" lon="9.921625">
<ele>2124</ele>
<time>2022-01-08T03:34:12Z</time></trkpt>
<trkpt lat="46.045079" lon="9.921622">
<ele>2120</ele>
<time>2022-01-08T03:34:25Z</time></trkpt>
<trkpt lat="46.045322" lon="9.92149">
<ele>2118</ele>
<time>2022-01-08T03:34:36Z</time></trkpt>
<trkpt lat="46.045439" lon="9.921454">
<ele>2117</ele>
<time>2022-01-08T03:34:41Z</time></trkpt>
<trkpt lat="46.045507" lon="9.921535">
<ele>2114</ele>
<time>2022-01-08T03:34:44Z</time></trkpt>
<trkpt lat="46.045668" lon="9.922064">
<ele>2099</ele>
<time>2022-01-08T03:35:00Z</time></trkpt>
<trkpt lat="46.045854" lon="9.922008">
<ele>2097</ele>
<time>2022-01-08T03:35:08Z</time></trkpt>
<trkpt lat="46.046146" lon="9.921633">
<ele>2100</ele>
<time>2022-01-08T03:35:24Z</time></trkpt>
<trkpt lat="46.04627" lon="9.921564">
<ele>2098</ele>
<time>2022-01-08T03:35:29Z</time></trkpt>
<trkpt lat="46.046403" lon="9.921626">
<ele>2094</ele>
<time>2022-01-08T03:35:34Z</time></trkpt>
<trkpt lat="46.04653" lon="9.921898">
<ele>2085</ele>
<time>2022-01-08T03:35:44Z</time></trkpt>
<trkpt lat="46.046819" lon="9.922051">
<ele>2077</ele>
<time>2022-01-08T03:35:56Z</time></trkpt>
<trkpt lat="46.047034" lon="9.922258">
<ele>2070</ele>
<time>2022-01-08T03:36:06Z</time></trkpt>
<trkpt lat="46.047201" lon="9.922378">
<ele>2065</ele>
<time>2022-01-08T03:36:14Z</time></trkpt>
<trkpt lat="46.047343" lon="9.922388">
<ele>2062</ele>
<time>2022-01-08T03:36:19Z</time></trkpt>
<trkpt lat="46.047544" lon="9.922588">
<ele>2054</ele>
<time>2022-01-08T03:36:29Z</time></trkpt>
<trkpt lat="46.047715" lon="9.922471">
<ele>2051</ele>
<time>2022-01-08T03:36:37Z</time></trkpt>
<trkpt lat="46.047822" lon="9.922486">
<ele>2047</ele>
<time>2022-01-08T03:36:41Z</time></trkpt>
<trkpt lat="46.048037" lon="9.922282">
<ele>2046</ele>
<time>2022-01-08T03:36:51Z</time></trkpt>
<trkpt lat="46.04814" lon="9.922281">
<ele>2043</ele>
<time>2022-01-08T03:36:56Z</time></trkpt>
<trkpt lat="46.048302" lon="9.922569">
<ele>2029</ele>
<time>2022-01-08T03:37:06Z</time></trkpt>
<trkpt lat="46.048266" lon="9.922648">
<ele>2029</ele>
<time>2022-01-08T03:37:09Z</time></trkpt>
<trkpt lat="46.04829" lon="9.922737">
<ele>2026</ele>
<time>2022-01-08T03:37:11Z</time></trkpt>
<trkpt lat="46.048372" lon="9.922752">
<ele>2023</ele>
<time>2022-01-08T03:37:14Z</time></trkpt>
<trkpt lat="46.048522" lon="9.92263">
<ele>2023</ele>
<time>2022-01-08T03:37:21Z</time></trkpt>
<trkpt lat="46.048633" lon="9.922962">
<ele>2012</ele>
<time>2022-01-08T03:37:32Z</time></trkpt>
<trkpt lat="46.048633" lon="9.922962">
<ele>2012</ele>
<time>2022-01-08T03:37:32Z</time></trkpt>
<trkpt lat="46.048658" lon="9.923035">
<ele>2010</ele>
<time>2022-01-08T03:37:34Z</time></trkpt>
<trkpt lat="46.04871" lon="9.92303">
<ele>2008</ele>
<time>2022-01-08T03:37:36Z</time></trkpt>
<trkpt lat="46.048747" lon="9.923118">
<ele>2005</ele>
<time>2022-01-08T03:37:39Z</time></trkpt>
<trkpt lat="46.048805" lon="9.923138">
<ele>2003</ele>
<time>2022-01-08T03:37:41Z</time></trkpt>
<trkpt lat="46.048858" lon="9.923129">
<ele>2002</ele>
<time>2022-01-08T03:37:43Z</time></trkpt>
<trkpt lat="46.048925" lon="9.923055">
<ele>2002</ele>
<time>2022-01-08T03:37:47Z</time></trkpt>
<trkpt lat="46.04904" lon="9.922846">
<ele>2006</ele>
<time>2022-01-08T03:37:54Z</time></trkpt>
<trkpt lat="46.049292" lon="9.922908">
<ele>2000</ele>
<time>2022-01-08T03:38:04Z</time></trkpt>
<trkpt lat="46.049645" lon="9.922902">
<ele>1998</ele>
<time>2022-01-08T03:38:19Z</time></trkpt>
<trkpt lat="46.049848" lon="9.92295">
<ele>1993</ele>
<time>2022-01-08T03:38:27Z</time></trkpt>
<trkpt lat="46.050191" lon="9.922919">
<ele>1993</ele>
<time>2022-01-08T03:38:41Z</time></trkpt>
<trkpt lat="46.0504" lon="9.923005">
<ele>1985</ele>
<time>2022-01-08T03:38:49Z</time></trkpt>
<trkpt lat="46.05051" lon="9.922981">
<ele>1986</ele>
<time>2022-01-08T03:38:54Z</time></trkpt>
<trkpt lat="46.050597" lon="9.923205">
<ele>1969</ele>
<time>2022-01-08T03:39:01Z</time></trkpt>
<trkpt lat="46.050858" lon="9.923326">
<ele>1956</ele>
<time>2022-01-08T03:39:12Z</time></trkpt>
<trkpt lat="46.050977" lon="9.923151">
<ele>1965</ele>
<time>2022-01-08T03:39:19Z</time></trkpt>
<trkpt lat="46.051384" lon="9.923065">
<ele>1954</ele>
<time>2022-01-08T03:39:35Z</time></trkpt>
<trkpt lat="46.051702" lon="9.922835">
<ele>1953</ele>
<time>2022-01-08T03:39:49Z</time></trkpt>
<trkpt lat="46.052046" lon="9.922506">
<ele>1951</ele>
<time>2022-01-08T03:40:06Z</time></trkpt>
<trkpt lat="46.052186" lon="9.922347">
<ele>1951</ele>
<time>2022-01-08T03:40:13Z</time></trkpt>
<trkpt lat="46.052335" lon="9.922224">
<ele>1947</ele>
<time>2022-01-08T03:40:20Z</time></trkpt>
<trkpt lat="46.052577" lon="9.922169">
<ele>1943</ele>
<time>2022-01-08T03:40:30Z</time></trkpt>
<trkpt lat="46.052662" lon="9.922202">
<ele>1945</ele>
<time>2022-01-08T03:40:33Z</time></trkpt>
<trkpt lat="46.052739" lon="9.922285">
<ele>1947</ele>
<time>2022-01-08T03:40:37Z</time></trkpt>
<trkpt lat="46.05284" lon="9.922128">
<ele>1956</ele>
<time>2022-01-08T03:40:43Z</time></trkpt>
<trkpt lat="46.052897" lon="9.922163">
<ele>1958</ele>
<time>2022-01-08T03:40:46Z</time></trkpt>
<trkpt lat="46.052938" lon="9.9223">
<ele>1957</ele>
<time>2022-01-08T03:40:50Z</time></trkpt>
<trkpt lat="46.052965" lon="9.92268">
<ele>1955</ele>
<time>2022-01-08T03:41:00Z</time></trkpt>
<trkpt lat="46.053044" lon="9.922777">
<ele>1961</ele>
<time>2022-01-08T03:41:05Z</time></trkpt>
<trkpt lat="46.053084" lon="9.922926">
<ele>1963</ele>
<time>2022-01-08T03:41:09Z</time></trkpt>
<trkpt lat="46.053233" lon="9.922609">
<ele>1974</ele>
<time>2022-01-08T03:41:20Z</time></trkpt>
<trkpt lat="46.053216" lon="9.922921">
<ele>1973</ele>
<time>2022-01-08T03:41:28Z</time></trkpt>
<trkpt lat="46.053239" lon="9.923005">
<ele>1975</ele>
<time>2022-01-08T03:41:31Z</time></trkpt>
<trkpt lat="46.053239" lon="9.923005">
<ele>1975</ele>
<time>2022-01-08T03:41:31Z</time></trkpt>
<trkpt lat="46.053311" lon="9.923266">
<ele>1980</ele>
<time>2022-01-08T03:41:39Z</time></trkpt>
<trkpt lat="46.053441" lon="9.92349">
<ele>1987</ele>
<time>2022-01-08T03:41:47Z</time></trkpt>
<trkpt lat="46.053531" lon="9.923559">
<ele>1992</ele>
<time>2022-01-08T03:41:51Z</time></trkpt>
<trkpt lat="46.053723" lon="9.923495">
<ele>2007</ele>
<time>2022-01-08T03:41:59Z</time></trkpt>
<trkpt lat="46.053702" lon="9.923387">
<ele>2008</ele>
<time>2022-01-08T03:42:02Z</time></trkpt>
<trkpt lat="46.053893" lon="9.923296">
<ele>2023</ele>
<time>2022-01-08T03:42:10Z</time></trkpt>
<trkpt lat="46.053973" lon="9.923367">
<ele>2028</ele>
<time>2022-01-08T03:42:14Z</time></trkpt>
<trkpt lat="46.054066" lon="9.92351">
<ele>2032</ele>
<time>2022-01-08T03:42:19Z</time></trkpt>
<trkpt lat="46.05422" lon="9.923928">
<ele>2032</ele>
<time>2022-01-08T03:42:32Z</time></trkpt>
<trkpt lat="46.054301" lon="9.923992">
<ele>2035</ele>
<time>2022-01-08T03:42:36Z</time></trkpt>
<trkpt lat="46.054452" lon="9.924063">
<ele>2043</ele>
<time>2022-01-08T03:42:42Z</time></trkpt>
<trkpt lat="46.054687" lon="9.924269">
<ele>2052</ele>
<time>2022-01-08T03:42:53Z</time></trkpt>
<trkpt lat="46.054766" lon="9.924407">
<ele>2053</ele>
<time>2022-01-08T03:42:58Z</time></trkpt>
<trkpt lat="46.054993" lon="9.925061">
<ele>2053</ele>
<time>2022-01-08T03:43:19Z</time></trkpt>
<trkpt lat="46.055069" lon="9.925232">
<ele>2055</ele>
<time>2022-01-08T03:43:24Z</time></trkpt>
<trkpt lat="46.055512" lon="9.925817">
<ele>2076</ele>
<time>2022-01-08T03:43:48Z</time></trkpt>
<trkpt lat="46.055963" lon="9.926528">
<ele>2095</ele>
<time>2022-01-08T03:44:15Z</time></trkpt>
<trkpt lat="46.05602" lon="9.926653">
<ele>2097</ele>
<time>2022-01-08T03:44:19Z</time></trkpt>
<trkpt lat="46.056011" lon="9.926746">
<ele>2095</ele>
<time>2022-01-08T03:44:22Z</time></trkpt>
<trkpt lat="46.056085" lon="9.927125">
<ele>2095</ele>
<time>2022-01-08T03:44:33Z</time></trkpt>
<trkpt lat="46.056226" lon="9.927594">
<ele>2099</ele>
<time>2022-01-08T03:44:47Z</time></trkpt>
<trkpt lat="46.056343" lon="9.927686">
<ele>2106</ele>
<time>2022-01-08T03:44:53Z</time></trkpt>
<trkpt lat="46.056375" lon="9.927746">
<ele>2108</ele>
<time>2022-01-08T03:44:55Z</time></trkpt>
<trkpt lat="46.056514" lon="9.928245">
<ele>2113</ele>
<time>2022-01-08T03:45:10Z</time></trkpt>
<trkpt lat="46.056594" lon="9.928404">
<ele>2118</ele>
<time>2022-01-08T03:45:15Z</time></trkpt>
<trkpt lat="46.056619" lon="9.928603">
<ele>2122</ele>
<time>2022-01-08T03:45:21Z</time></trkpt>
<trkpt lat="46.056625" lon="9.928826">
<ele>2124</ele>
<time>2022-01-08T03:45:27Z</time></trkpt>
<trkpt lat="46.056603" lon="9.929047">
<ele>2125</ele>
<time>2022-01-08T03:45:33Z</time></trkpt>
<trkpt lat="46.056362" lon="9.929276">
<ele>2110</ele>
<time>2022-01-08T03:45:45Z</time></trkpt>
<trkpt lat="46.056197" lon="9.929655">
<ele>2113</ele>
<time>2022-01-08T03:45:57Z</time></trkpt>
<trkpt lat="46.056005" lon="9.929911">
<ele>2108</ele>
<time>2022-01-08T03:46:08Z</time></trkpt>
<trkpt lat="46.055948" lon="9.930094">
<ele>2107</ele>
<time>2022-01-08T03:46:13Z</time></trkpt>
<trkpt lat="46.055941" lon="9.93021">
<ele>2107</ele>
<time>2022-01-08T03:46:16Z</time></trkpt>
<trkpt lat="46.05597" lon="9.930673">
<ele>2110</ele>
<time>2022-01-08T03:46:29Z</time></trkpt>
<trkpt lat="46.055942" lon="9.931069">
<ele>2105</ele>
<time>2022-01-08T03:46:40Z</time></trkpt>
<trkpt lat="46.056024" lon="9.932076">
<ele>2102</ele>
<time>2022-01-08T03:47:09Z</time></trkpt>
<trkpt lat="46.055914" lon="9.932495">
<ele>2089</ele>
<time>2022-01-08T03:47:21Z</time></trkpt>
<trkpt lat="46.055927" lon="9.93258">
<ele>2089</ele>
<time>2022-01-08T03:47:23Z</time></trkpt>
<trkpt lat="46.05613" lon="9.932858">
<ele>2100</ele>
<time>2022-01-08T03:47:35Z</time></trkpt>
<trkpt lat="46.056211" lon="9.933298">
<ele>2098</ele>
<time>2022-01-08T03:47:47Z</time></trkpt>
<trkpt lat="46.056389" lon="9.933555">
<ele>2105</ele>
<time>2022-01-08T03:47:57Z</time></trkpt>
<trkpt lat="46.056389" lon="9.933555">
<ele>2105</ele>
<time>2022-01-08T03:47:57Z</time></trkpt>
<trkpt lat="46.05646" lon="9.933657">
<ele>2107</ele>
<time>2022-01-08T03:48:01Z</time></trkpt>
<trkpt lat="46.056497" lon="9.933998">
<ele>2099</ele>
<time>2022-01-08T03:48:11Z</time></trkpt>
<trkpt lat="46.056777" lon="9.934677">
<ele>2101</ele>
<time>2022-01-08T03:48:33Z</time></trkpt>
<trkpt lat="46.056842" lon="9.934892">
<ele>2100</ele>
<time>2022-01-08T03:48:40Z</time></trkpt>
<trkpt lat="46.057044" lon="9.935186">
<ele>2105</ele>
<time>2022-01-08T03:48:51Z</time></trkpt>
<trkpt lat="46.05723" lon="9.935366">
<ele>2113</ele>
<time>2022-01-08T03:49:00Z</time></trkpt>
<trkpt lat="46.057196" lon="9.935644">
<ele>2103</ele>
<time>2022-01-08T03:49:08Z</time></trkpt>
<trkpt lat="46.057283" lon="9.935894">
<ele>2103</ele>
<time>2022-01-08T03:49:16Z</time></trkpt>
<trkpt lat="46.057336" lon="9.936275">
<ele>2098</ele>
<time>2022-01-08T03:49:26Z</time></trkpt>
<trkpt lat="46.057341" lon="9.936566">
<ele>2092</ele>
<time>2022-01-08T03:49:35Z</time></trkpt>
<trkpt lat="46.057608" lon="9.936691">
<ele>2109</ele>
<time>2022-01-08T03:49:46Z</time></trkpt>
<trkpt lat="46.057795" lon="9.936974">
<ele>2119</ele>
<time>2022-01-08T03:49:57Z</time></trkpt>
<trkpt lat="46.057885" lon="9.937054">
<ele>2125</ele>
<time>2022-01-08T03:50:01Z</time></trkpt>
<trkpt lat="46.057926" lon="9.937455">
<ele>2121</ele>
<time>2022-01-08T03:50:12Z</time></trkpt>
<trkpt lat="46.058005" lon="9.937933">
<ele>2123</ele>
<time>2022-01-08T03:50:26Z</time></trkpt>
<trkpt lat="46.057971" lon="9.938159">
<ele>2118</ele>
<time>2022-01-08T03:50:32Z</time></trkpt>
<trkpt lat="46.058024" lon="9.938547">
<ele>2114</ele>
<time>2022-01-08T03:50:43Z</time></trkpt>
<trkpt lat="46.058105" lon="9.938815">
<ele>2111</ele>
<time>2022-01-08T03:50:51Z</time></trkpt>
<trkpt lat="46.058239" lon="9.939073">
<ele>2110</ele>
<time>2022-01-08T03:51:00Z</time></trkpt>
<trkpt lat="46.05829" lon="9.939236">
<ele>2107</ele>
<time>2022-01-08T03:51:05Z</time></trkpt>
<trkpt lat="46.059092" lon="9.939438">
<ele>2142</ele>
<time>2022-01-08T03:51:38Z</time></trkpt>
<trkpt lat="46.059226" lon="9.939655">
<ele>2141</ele>
<time>2022-01-08T03:51:46Z</time></trkpt>
<trkpt lat="46.059292" lon="9.939858">
<ele>2136</ele>
<time>2022-01-08T03:51:52Z</time></trkpt>
<trkpt lat="46.059382" lon="9.93996">
<ele>2136</ele>
<time>2022-01-08T03:51:57Z</time></trkpt>
<trkpt lat="46.059625" lon="9.940075">
<ele>2143</ele>
<time>2022-01-08T03:52:07Z</time></trkpt>
<trkpt lat="46.059846" lon="9.940115">
<ele>2152</ele>
<time>2022-01-08T03:52:16Z</time></trkpt>
<trkpt lat="46.060168" lon="9.940241">
<ele>2164</ele>
<time>2022-01-08T03:52:29Z</time></trkpt>
<trkpt lat="46.060307" lon="9.940407">
<ele>2166</ele>
<time>2022-01-08T03:52:37Z</time></trkpt>
<trkpt lat="46.060398" lon="9.940643">
<ele>2163</ele>
<time>2022-01-08T03:52:44Z</time></trkpt>
<trkpt lat="46.060661" lon="9.940786">
<ele>2173</ele>
<time>2022-01-08T03:52:55Z</time></trkpt>
<trkpt lat="46.060808" lon="9.941024">
<ele>2175</ele>
<time>2022-01-08T03:53:04Z</time></trkpt>
<trkpt lat="46.060836" lon="9.941316">
<ele>2171</ele>
<time>2022-01-08T03:53:13Z</time></trkpt>
<trkpt lat="46.060911" lon="9.941594">
<ele>2170</ele>
<time>2022-01-08T03:53:21Z</time></trkpt>
<trkpt lat="46.060919" lon="9.941954">
<ele>2166</ele>
<time>2022-01-08T03:53:31Z</time></trkpt>
<trkpt lat="46.060946" lon="9.942172">
<ele>2166</ele>
<time>2022-01-08T03:53:37Z</time></trkpt>
<trkpt lat="46.060943" lon="9.94297">
<ele>2161</ele>
<time>2022-01-08T03:53:59Z</time></trkpt>
<trkpt lat="46.060943" lon="9.94297">
<ele>2161</ele>
<time>2022-01-08T03:53:59Z</time></trkpt>
<trkpt lat="46.060927" lon="9.943182">
<ele>2159</ele>
<time>2022-01-08T03:54:05Z</time></trkpt>
<trkpt lat="46.061037" lon="9.944126">
<ele>2166</ele>
<time>2022-01-08T03:54:32Z</time></trkpt>
<trkpt lat="46.06116" lon="9.944422">
<ele>2173</ele>
<time>2022-01-08T03:54:41Z</time></trkpt>
<trkpt lat="46.061179" lon="9.944529">
<ele>2174</ele>
<time>2022-01-08T03:54:44Z</time></trkpt>
<trkpt lat="46.061072" lon="9.944947">
<ele>2169</ele>
<time>2022-01-08T03:54:57Z</time></trkpt>
<trkpt lat="46.061098" lon="9.945348">
<ele>2166</ele>
<time>2022-01-08T03:55:08Z</time></trkpt>
<trkpt lat="46.061069" lon="9.945508">
<ele>2163</ele>
<time>2022-01-08T03:55:13Z</time></trkpt>
<trkpt lat="46.060997" lon="9.945639">
<ele>2158</ele>
<time>2022-01-08T03:55:17Z</time></trkpt>
<trkpt lat="46.060955" lon="9.945923">
<ele>2153</ele>
<time>2022-01-08T03:55:25Z</time></trkpt>
<trkpt lat="46.061118" lon="9.94803">
<ele>2154</ele>
<time>2022-01-08T03:56:24Z</time></trkpt>
<trkpt lat="46.061195" lon="9.948358">
<ele>2157</ele>
<time>2022-01-08T03:56:34Z</time></trkpt>
<trkpt lat="46.061303" lon="9.948571">
<ele>2162</ele>
<time>2022-01-08T03:56:41Z</time></trkpt>
<trkpt lat="46.06137" lon="9.948962">
<ele>2160</ele>
<time>2022-01-08T03:56:52Z</time></trkpt>
<trkpt lat="46.061367" lon="9.94944">
<ele>2156</ele>
<time>2022-01-08T03:57:06Z</time></trkpt>
<trkpt lat="46.061383" lon="9.949782">
<ele>2156</ele>
<time>2022-01-08T03:57:15Z</time></trkpt>
<trkpt lat="46.061328" lon="9.950263">
<ele>2153</ele>
<time>2022-01-08T03:57:29Z</time></trkpt>
<trkpt lat="46.06119" lon="9.950701">
<ele>2147</ele>
<time>2022-01-08T03:57:42Z</time></trkpt>
<trkpt lat="46.061182" lon="9.951316">
<ele>2150</ele>
<time>2022-01-08T03:57:59Z</time></trkpt>
<trkpt lat="46.061158" lon="9.951448">
<ele>2149</ele>
<time>2022-01-08T03:58:03Z</time></trkpt>
<trkpt lat="46.06132" lon="9.951732">
<ele>2163</ele>
<time>2022-01-08T03:58:13Z</time></trkpt>
<trkpt lat="46.061323" lon="9.951864">
<ele>2163</ele>
<time>2022-01-08T03:58:17Z</time></trkpt>
<trkpt lat="46.06141" lon="9.951953">
<ele>2169</ele>
<time>2022-01-08T03:58:21Z</time></trkpt>
<trkpt lat="46.061409" lon="9.952578">
<ele>2167</ele>
<time>2022-01-08T03:58:39Z</time></trkpt>
<trkpt lat="46.061355" lon="9.952695">
<ele>2161</ele>
<time>2022-01-08T03:58:43Z</time></trkpt>
<trkpt lat="46.061381" lon="9.95292">
<ele>2159</ele>
<time>2022-01-08T03:58:49Z</time></trkpt>
<trkpt lat="46.061432" lon="9.952937">
<ele>2163</ele>
<time>2022-01-08T03:58:51Z</time></trkpt>
<trkpt lat="46.061726" lon="9.953356">
<ele>2180</ele>
<time>2022-01-08T03:59:08Z</time></trkpt>
<trkpt lat="46.06194" lon="9.953844">
<ele>2178</ele>
<time>2022-01-08T03:59:24Z</time></trkpt>
<trkpt lat="46.06194" lon="9.953844">
<ele>2178</ele>
<time>2022-01-08T03:59:24Z</time></trkpt>
<trkpt lat="46.06199" lon="9.953957">
<ele>2177</ele>
<time>2022-01-08T03:59:27Z</time></trkpt>
<trkpt lat="46.062128" lon="9.954174">
<ele>2178</ele>
<time>2022-01-08T03:59:36Z</time></trkpt>
<trkpt lat="46.062286" lon="9.954363">
<ele>2181</ele>
<time>2022-01-08T03:59:44Z</time></trkpt>
<trkpt lat="46.062391" lon="9.95441">
<ele>2186</ele>
<time>2022-01-08T03:59:48Z</time></trkpt>
<trkpt lat="46.062653" lon="9.954616">
<ele>2196</ele>
<time>2022-01-08T04:00:00Z</time></trkpt>
<trkpt lat="46.062854" lon="9.95497">
<ele>2196</ele>
<time>2022-01-08T04:00:13Z</time></trkpt>
<trkpt lat="46.062862" lon="9.955173">
<ele>2193</ele>
<time>2022-01-08T04:00:18Z</time></trkpt>
<trkpt lat="46.062948" lon="9.955824">
<ele>2189</ele>
<time>2022-01-08T04:00:37Z</time></trkpt>
<trkpt lat="46.06295" lon="9.956145">
<ele>2192</ele>
<time>2022-01-08T04:00:46Z</time></trkpt>
<trkpt lat="46.063011" lon="9.956546">
<ele>2199</ele>
<time>2022-01-08T04:00:57Z</time></trkpt>
<trkpt lat="46.062938" lon="9.956733">
<ele>2198</ele>
<time>2022-01-08T04:01:03Z</time></trkpt>
<trkpt lat="46.062861" lon="9.957223">
<ele>2210</ele>
<time>2022-01-08T04:01:17Z</time></trkpt>
<trkpt lat="46.062937" lon="9.957566">
<ele>2222</ele>
<time>2022-01-08T04:01:27Z</time></trkpt>
<trkpt lat="46.062926" lon="9.957801">
<ele>2227</ele>
<time>2022-01-08T04:01:34Z</time></trkpt>
<trkpt lat="46.06297" lon="9.958017">
<ele>2234</ele>
<time>2022-01-08T04:01:40Z</time></trkpt>
<trkpt lat="46.062926" lon="9.958175">
<ele>2236</ele>
<time>2022-01-08T04:01:45Z</time></trkpt>
<trkpt lat="46.062779" lon="9.958399">
<ele>2236</ele>
<time>2022-01-08T04:01:53Z</time></trkpt>
<trkpt lat="46.062787" lon="9.958574">
<ele>2240</ele>
<time>2022-01-08T04:01:58Z</time></trkpt>
<trkpt lat="46.062761" lon="9.958657">
<ele>2241</ele>
<time>2022-01-08T04:02:01Z</time></trkpt>
<trkpt lat="46.062549" lon="9.958836">
<ele>2236</ele>
<time>2022-01-08T04:02:11Z</time></trkpt>
<trkpt lat="46.06253" lon="9.958937">
<ele>2237</ele>
<time>2022-01-08T04:02:13Z</time></trkpt>
<trkpt lat="46.062545" lon="9.959254">
<ele>2246</ele>
<time>2022-01-08T04:02:22Z</time></trkpt>
<trkpt lat="46.062491" lon="9.959337">
<ele>2246</ele>
<time>2022-01-08T04:02:25Z</time></trkpt>
<trkpt lat="46.06249" lon="9.959415">
<ele>2249</ele>
<time>2022-01-08T04:02:28Z</time></trkpt>
<trkpt lat="46.062508" lon="9.959454">
<ele>2251</ele>
<time>2022-01-08T04:02:29Z</time></trkpt>
<trkpt lat="46.062508" lon="9.959454">
<ele>2251</ele>
<time>2022-01-08T04:02:29Z</time></trkpt>
<trkpt lat="46.062593" lon="9.959647">
<ele>2263</ele>
<time>2022-01-08T04:02:35Z</time></trkpt>
<trkpt lat="46.062534" lon="9.959749">
<ele>2264</ele>
<time>2022-01-08T04:02:39Z</time></trkpt>
<trkpt lat="46.062493" lon="9.959879">
<ele>2266</ele>
<time>2022-01-08T04:02:43Z</time></trkpt>
<trkpt lat="46.062439" lon="9.959959">
<ele>2265</ele>
<time>2022-01-08T04:02:46Z</time></trkpt>
<trkpt lat="46.062332" lon="9.960377">
<ele>2270</ele>
<time>2022-01-08T04:02:58Z</time></trkpt>
<trkpt lat="46.062271" lon="9.960455">
<ele>2268</ele>
<time>2022-01-08T04:03:02Z</time></trkpt>
<trkpt lat="46.0622476" lon="9.9606671">
<ele>2273</ele>
<time>2022-01-08T04:03:08Z</time></trkpt>
<trkpt lat="46.062239" lon="9.960745">
<ele>2274</ele>
<time>2022-01-08T04:03:10Z</time></trkpt>
<trkpt lat="46.06236" lon="9.961088">
<ele>2290</ele>
<time>2022-01-08T04:03:21Z</time></trkpt>
<trkpt lat="46.062496" lon="9.961259">
<ele>2302</ele>
<time>2022-01-08T04:03:28Z</time></trkpt>
<trkpt lat="46.062507" lon="9.961403">
<ele>2306</ele>
<time>2022-01-08T04:03:32Z</time></trkpt>
<trkpt lat="46.062369" lon="9.961971">
<ele>2307</ele>
<time>2022-01-08T04:03:49Z</time></trkpt>
<trkpt lat="46.062338" lon="9.96216">
<ele>2309</ele>
<time>2022-01-08T04:03:54Z</time></trkpt>
<trkpt lat="46.06229" lon="9.962323">
<ele>2309</ele>
<time>2022-01-08T04:03:59Z</time></trkpt>
<trkpt lat="46.062214" lon="9.962491">
<ele>2307</ele>
<time>2022-01-08T04:04:04Z</time></trkpt>
<trkpt lat="46.062179" lon="9.962726">
<ele>2310</ele>
<time>2022-01-08T04:04:11Z</time></trkpt>
<trkpt lat="46.062194" lon="9.962826">
<ele>2313</ele>
<time>2022-01-08T04:04:14Z</time></trkpt>
<trkpt lat="46.062147" lon="9.963082">
<ele>2315</ele>
<time>2022-01-08T04:04:21Z</time></trkpt>
<trkpt lat="46.062129" lon="9.963361">
<ele>2320</ele>
<time>2022-01-08T04:04:29Z</time></trkpt>
<trkpt lat="46.062135" lon="9.963645">
<ele>2327</ele>
<time>2022-01-08T04:04:37Z</time></trkpt>
<trkpt lat="46.061825" lon="9.964205">
<ele>2325</ele>
<time>2022-01-08T04:04:57Z</time></trkpt>
<trkpt lat="46.061775" lon="9.964484">
<ele>2327</ele>
<time>2022-01-08T04:05:05Z</time></trkpt>
<trkpt lat="46.061718" lon="9.964667">
<ele>2326</ele>
<time>2022-01-08T04:05:11Z</time></trkpt>
<trkpt lat="46.061565" lon="9.965397">
<ele>2330</ele>
<time>2022-01-08T04:05:32Z</time></trkpt>
<trkpt lat="46.061543" lon="9.965585">
<ele>2333</ele>
<time>2022-01-08T04:05:37Z</time></trkpt>
<trkpt lat="46.061557" lon="9.965902">
<ele>2342</ele>
<time>2022-01-08T04:05:46Z</time></trkpt>
<trkpt lat="46.061557" lon="9.965902">
<ele>2342</ele>
<time>2022-01-08T04:05:46Z</time></trkpt>
<trkpt lat="46.061545" lon="9.966071">
<ele>2345</ele>
<time>2022-01-08T04:05:51Z</time></trkpt>
<trkpt lat="46.061427" lon="9.966338">
<ele>2340</ele>
<time>2022-01-08T04:05:59Z</time></trkpt>
<trkpt lat="46.061409" lon="9.966411">
<ele>2340</ele>
<time>2022-01-08T04:06:02Z</time></trkpt>
<trkpt lat="46.061408" lon="9.966546">
<ele>2343</ele>
<time>2022-01-08T04:06:05Z</time></trkpt>
<trkpt lat="46.061369" lon="9.966635">
<ele>2341</ele>
<time>2022-01-08T04:06:08Z</time></trkpt>
<trkpt lat="46.061398" lon="9.966736">
<ele>2346</ele>
<time>2022-01-08T04:06:11Z</time></trkpt>
<trkpt lat="46.061392" lon="9.96684">
<ele>2347</ele>
<time>2022-01-08T04:06:14Z</time></trkpt>
<trkpt lat="46.061233" lon="9.967278">
<ele>2340</ele>
<time>2022-01-08T04:06:28Z</time></trkpt>
<trkpt lat="46.061212" lon="9.967521">
<ele>2343</ele>
<time>2022-01-08T04:06:35Z</time></trkpt>
<trkpt lat="46.061179" lon="9.967701">
<ele>2341</ele>
<time>2022-01-08T04:06:40Z</time></trkpt>
<trkpt lat="46.061243" lon="9.967834">
<ele>2347</ele>
<time>2022-01-08T04:06:44Z</time></trkpt>
<trkpt lat="46.061235" lon="9.967946">
<ele>2347</ele>
<time>2022-01-08T04:06:48Z</time></trkpt>
<trkpt lat="46.061252" lon="9.968158">
<ele>2350</ele>
<time>2022-01-08T04:06:54Z</time></trkpt>
<trkpt lat="46.061149" lon="9.968256">
<ele>2342</ele>
<time>2022-01-08T04:06:58Z</time></trkpt>
<trkpt lat="46.061034" lon="9.968574">
<ele>2337</ele>
<time>2022-01-08T04:07:08Z</time></trkpt>
<trkpt lat="46.060955" lon="9.968697">
<ele>2332</ele>
<time>2022-01-08T04:07:13Z</time></trkpt>
<trkpt lat="46.060892" lon="9.969059">
<ele>2332</ele>
<time>2022-01-08T04:07:23Z</time></trkpt>
<trkpt lat="46.060775" lon="9.969529">
<ele>2333</ele>
<time>2022-01-08T04:07:37Z</time></trkpt>
<trkpt lat="46.060738" lon="9.970254">
<ele>2347</ele>
<time>2022-01-08T04:07:58Z</time></trkpt>
<trkpt lat="46.060692" lon="9.970503">
<ele>2353</ele>
<time>2022-01-08T04:08:05Z</time></trkpt>
<trkpt lat="46.060693" lon="9.97074">
<ele>2359</ele>
<time>2022-01-08T04:08:11Z</time></trkpt>
<trkpt lat="46.060594" lon="9.970897">
<ele>2358</ele>
<time>2022-01-08T04:08:17Z</time></trkpt>
<trkpt lat="46.060577" lon="9.971099">
<ele>2362</ele>
<time>2022-01-08T04:08:23Z</time></trkpt>
<trkpt lat="46.060527" lon="9.971241">
<ele>2363</ele>
<time>2022-01-08T04:08:27Z</time></trkpt>
<trkpt lat="46.060532" lon="9.971422">
<ele>2367</ele>
<time>2022-01-08T04:08:32Z</time></trkpt>
<trkpt lat="46.060461" lon="9.971632">
<ele>2368</ele>
<time>2022-01-08T04:08:39Z</time></trkpt>
<trkpt lat="46.060377" lon="9.971982">
<ele>2376</ele>
<time>2022-01-08T04:08:49Z</time></trkpt>
<trkpt lat="46.060317" lon="9.97215">
<ele>2378</ele>
<time>2022-01-08T04:08:54Z</time></trkpt>
<trkpt lat="46.060359" lon="9.972297">
<ele>2385</ele>
<time>2022-01-08T04:08:59Z</time></trkpt>
<trkpt lat="46.060386" lon="9.972623">
<ele>2398</ele>
<time>2022-01-08T04:09:08Z</time></trkpt>
<trkpt lat="46.060369" lon="9.972894">
<ele>2407</ele>
<time>2022-01-08T04:09:16Z</time></trkpt>
<trkpt lat="46.060295" lon="9.97324">
<ele>2415</ele>
<time>2022-01-08T04:09:26Z</time></trkpt>
<trkpt lat="46.0603" lon="9.973606">
<ele>2433</ele>
<time>2022-01-08T04:09:36Z</time></trkpt>
<trkpt lat="46.060275" lon="9.97383">
<ele>2443</ele>
<time>2022-01-08T04:09:42Z</time></trkpt>
<trkpt lat="46.060163" lon="9.974109">
<ele>2450</ele>
<time>2022-01-08T04:09:51Z</time></trkpt>
<trkpt lat="46.060163" lon="9.974109">
<ele>2450</ele>
<time>2022-01-08T04:09:51Z</time></trkpt>
<trkpt lat="46.060022" lon="9.97427">
<ele>2452</ele>
<time>2022-01-08T04:09:58Z</time></trkpt>
<trkpt lat="46.059819" lon="9.974329">
<ele>2453</ele>
<time>2022-01-08T04:10:07Z</time></trkpt>
<trkpt lat="46.059691" lon="9.974501">
<ele>2463</ele>
<time>2022-01-08T04:10:14Z</time></trkpt>
<trkpt lat="46.059656" lon="9.974619">
<ele>2472</ele>
<time>2022-01-08T04:10:17Z</time></trkpt>
<trkpt lat="46.059683" lon="9.974657">
<ele>2475</ele>
<time>2022-01-08T04:10:19Z</time></trkpt>
<trkpt lat="46.059639" lon="9.974751">
<ele>2481</ele>
<time>2022-01-08T04:10:22Z</time></trkpt>
<trkpt lat="46.059649" lon="9.97482">
<ele>2486</ele>
<time>2022-01-08T04:10:24Z</time></trkpt>
<trkpt lat="46.0596" lon="9.974848">
<ele>2488</ele>
<time>2022-01-08T04:10:26Z</time></trkpt>
<trkpt lat="46.05959" lon="9.974927">
<ele>2493</ele>
<time>2022-01-08T04:10:28Z</time></trkpt>
<trkpt lat="46.059507" lon="9.974944">
<ele>2493</ele>
<time>2022-01-08T04:10:31Z</time></trkpt>
<trkpt lat="46.059463" lon="9.975027">
<ele>2498</ele>
<time>2022-01-08T04:10:34Z</time></trkpt>
<trkpt lat="46.059406" lon="9.975086">
<ele>2501</ele>
<time>2022-01-08T04:10:37Z</time></trkpt>
<trkpt lat="46.059414" lon="9.975162">
<ele>2506</ele>
<time>2022-01-08T04:10:39Z</time></trkpt>
<trkpt lat="46.059343" lon="9.975221">
<ele>2507</ele>
<time>2022-01-08T04:10:43Z</time></trkpt>
<trkpt lat="46.059344" lon="9.975342">
<ele>2514</ele>
<time>2022-01-08T04:10:46Z</time></trkpt>
<trkpt lat="46.059259" lon="9.975336">
<ele>2511</ele>
<time>2022-01-08T04:10:49Z</time></trkpt>
<trkpt lat="46.059133" lon="9.975383">
<ele>2492</ele>
<time>2022-01-08T04:10:55Z</time></trkpt>
<trkpt lat="46.058966" lon="9.975245">
<ele>2492</ele>
<time>2022-01-08T04:11:02Z</time></trkpt>
<trkpt lat="46.058783" lon="9.975152">
<ele>2492</ele>
<time>2022-01-08T04:11:10Z</time></trkpt>
<trkpt lat="46.058726" lon="9.975155">
<ele>2512</ele>
<time>2022-01-08T04:11:12Z</time></trkpt>
<trkpt lat="46.0587" lon="9.975237">
<ele>2512</ele>
<time>2022-01-08T04:11:15Z</time></trkpt>
<trkpt lat="46.05861" lon="9.975252">
<ele>2512</ele>
<time>2022-01-08T04:11:19Z</time></trkpt>
<trkpt lat="46.058583" lon="9.975298">
<ele>2512</ele>
<time>2022-01-08T04:11:20Z</time></trkpt>
<trkpt lat="46.058556" lon="9.975299">
<ele>2512</ele>
<time>2022-01-08T04:11:21Z</time></trkpt>
<trkpt lat="46.058499" lon="9.975255">
<ele>2512</ele>
<time>2022-01-08T04:11:24Z</time></trkpt>
<trkpt lat="46.058471" lon="9.97529">
<ele>2512</ele>
<time>2022-01-08T04:11:25Z</time></trkpt>
<trkpt lat="46.058434" lon="9.975239">
<ele>2512</ele>
<time>2022-01-08T04:11:27Z</time></trkpt>
<trkpt lat="46.058392" lon="9.975332">
<ele>2512</ele>
<time>2022-01-08T04:11:30Z</time></trkpt>
<trkpt lat="46.058335" lon="9.975348">
<ele>2512</ele>
<time>2022-01-08T04:11:33Z</time></trkpt>
<trkpt lat="46.05818" lon="9.975351">
<ele>2512</ele>
<time>2022-01-08T04:11:39Z</time></trkpt>
<trkpt lat="46.058022" lon="9.975274">
<ele>2512</ele>
<time>2022-01-08T04:11:46Z</time></trkpt>
<trkpt lat="46.057968" lon="9.975224">
<ele>2512</ele>
<time>2022-01-08T04:11:48Z</time></trkpt>
<trkpt lat="46.057845" lon="9.975244">
<ele>2512</ele>
<time>2022-01-08T04:11:53Z</time></trkpt>
<trkpt lat="46.057803" lon="9.97531">
<ele>2512</ele>
<time>2022-01-08T04:11:56Z</time></trkpt>
<trkpt lat="46.057794" lon="9.975402">
<ele>2512</ele>
<time>2022-01-08T04:11:58Z</time></trkpt>
<trkpt lat="46.057803" lon="9.975503">
<ele>2512</ele>
<time>2022-01-08T04:12:01Z</time></trkpt>
<trkpt lat="46.057838" lon="9.975568">
<ele>2512</ele>
<time>2022-01-08T04:12:03Z</time></trkpt>
<trkpt lat="46.05784" lon="9.975889">
<ele>2512</ele>
<time>2022-01-08T04:12:12Z</time></trkpt>
<trkpt lat="46.057905" lon="9.976139">
<ele>2512</ele>
<time>2022-01-08T04:12:20Z</time></trkpt>
<trkpt lat="46.057993" lon="9.97716">
<ele>2512</ele>
<time>2022-01-08T04:12:48Z</time></trkpt>
<trkpt lat="46.058091" lon="9.977975">
<ele>2512</ele>
<time>2022-01-08T04:13:11Z</time></trkpt>
<trkpt lat="46.058104" lon="9.978215">
<ele>2512</ele>
<time>2022-01-08T04:13:18Z</time></trkpt>
<trkpt lat="46.058239" lon="9.978488">
<ele>2512</ele>
<time>2022-01-08T04:13:27Z</time></trkpt>
<trkpt lat="46.058303" lon="9.978916">
<ele>2512</ele>
<time>2022-01-08T04:13:40Z</time></trkpt>
<trkpt lat="46.058316" lon="9.979342">
<ele>2512</ele>
<time>2022-01-08T04:13:51Z</time></trkpt>
<trkpt lat="46.05822" lon="9.979748">
<ele>2512</ele>
<time>2022-01-08T04:14:03Z</time></trkpt>
<trkpt lat="46.058185" lon="9.980121">
<ele>2512</ele>
<time>2022-01-08T04:14:14Z</time></trkpt>
<trkpt lat="46.058072" lon="9.980246">
<ele>2512</ele>
<time>2022-01-08T04:14:20Z</time></trkpt>
<trkpt lat="46.058013" lon="9.980419">
<ele>2512</ele>
<time>2022-01-08T04:14:25Z</time></trkpt>
<trkpt lat="46.057912" lon="9.980533">
<ele>2627</ele>
<time>2022-01-08T04:14:30Z</time></trkpt>
<trkpt lat="46.057912" lon="9.980533">
<ele>2627</ele>
<time>2022-01-08T04:14:30Z</time></trkpt>
<trkpt lat="46.057793" lon="9.980668">
<ele>2627</ele>
<time>2022-01-08T04:14:36Z</time></trkpt>
<trkpt lat="46.057754" lon="9.980773">
<ele>2627</ele>
<time>2022-01-08T04:14:39Z</time></trkpt>
<trkpt lat="46.057787" lon="9.980986">
<ele>2627</ele>
<time>2022-01-08T04:14:46Z</time></trkpt>
<trkpt lat="46.057773" lon="9.981141">
<ele>2627</ele>
<time>2022-01-08T04:14:50Z</time></trkpt>
<trkpt lat="46.057684" lon="9.981263">
<ele>2634</ele>
<time>2022-01-08T04:14:55Z</time></trkpt>
<trkpt lat="46.05748" lon="9.981694">
<ele>2635</ele>
<time>2022-01-08T04:15:09Z</time></trkpt>
<trkpt lat="46.0574" lon="9.981825">
<ele>2637</ele>
<time>2022-01-08T04:15:14Z</time></trkpt>
<trkpt lat="46.057288" lon="9.981905">
<ele>2639</ele>
<time>2022-01-08T04:15:19Z</time></trkpt>
<trkpt lat="46.057137" lon="9.982199">
<ele>2646</ele>
<time>2022-01-08T04:15:29Z</time></trkpt>
<trkpt lat="46.057047" lon="9.982209">
<ele>2647</ele>
<time>2022-01-08T04:15:33Z</time></trkpt>
<trkpt lat="46.056956" lon="9.982255">
<ele>2648</ele>
<time>2022-01-08T04:15:37Z</time></trkpt>
<trkpt lat="46.056846" lon="9.98225">
<ele>2648</ele>
<time>2022-01-08T04:15:41Z</time></trkpt>
<trkpt lat="46.056283" lon="9.982073">
<ele>2657</ele>
<time>2022-01-08T04:16:04Z</time></trkpt>
<trkpt lat="46.05619" lon="9.982002">
<ele>2657</ele>
<time>2022-01-08T04:16:09Z</time></trkpt>
<trkpt lat="46.055978" lon="9.981952">
<ele>2662</ele>
<time>2022-01-08T04:16:17Z</time></trkpt>
<trkpt lat="46.055751" lon="9.981925">
<ele>2665</ele>
<time>2022-01-08T04:16:26Z</time></trkpt>
<trkpt lat="46.05527" lon="9.981782">
<ele>2656</ele>
<time>2022-01-08T04:16:46Z</time></trkpt>
<trkpt lat="46.05522" lon="9.981849">
<ele>2657</ele>
<time>2022-01-08T04:16:49Z</time></trkpt>
<trkpt lat="46.055155" lon="9.982">
<ele>2657</ele>
<time>2022-01-08T04:16:54Z</time></trkpt>
<trkpt lat="46.05506" lon="9.98203">
<ele>2656</ele>
<time>2022-01-08T04:16:58Z</time></trkpt>
<trkpt lat="46.05501" lon="9.982145">
<ele>2655</ele>
<time>2022-01-08T04:17:01Z</time></trkpt>
<trkpt lat="46.054961" lon="9.982331">
<ele>2651</ele>
<time>2022-01-08T04:17:07Z</time></trkpt>
<trkpt lat="46.055016" lon="9.982664">
<ele>2650</ele>
<time>2022-01-08T04:17:16Z</time></trkpt>
<trkpt lat="46.055001" lon="9.982793">
<ele>2646</ele>
<time>2022-01-08T04:17:20Z</time></trkpt>
<trkpt lat="46.055009" lon="9.982939">
<ele>2643</ele>
<time>2022-01-08T04:17:24Z</time></trkpt>
<trkpt lat="46.054988" lon="9.983109">
<ele>2637</ele>
<time>2022-01-08T04:17:29Z</time></trkpt>
<trkpt lat="46.055011" lon="9.983252">
<ele>2634</ele>
<time>2022-01-08T04:17:33Z</time></trkpt>
<trkpt lat="46.054935" lon="9.983453">
<ele>2633</ele>
<time>2022-01-08T04:17:39Z</time></trkpt>
<trkpt lat="46.054965" lon="9.983674">
<ele>2639</ele>
<time>2022-01-08T04:17:46Z</time></trkpt>
<trkpt lat="46.054958" lon="9.983779">
<ele>2641</ele>
<time>2022-01-08T04:17:49Z</time></trkpt>
<trkpt lat="46.054911" lon="9.983933">
<ele>2644</ele>
<time>2022-01-08T04:17:53Z</time></trkpt>
<trkpt lat="46.054905" lon="9.984045">
<ele>2647</ele>
<time>2022-01-08T04:17:56Z</time></trkpt>
<trkpt lat="46.054955" lon="9.984225">
<ele>2651</ele>
<time>2022-01-08T04:18:02Z</time></trkpt>
<trkpt lat="46.054959" lon="9.984293">
<ele>2652</ele>
<time>2022-01-08T04:18:04Z</time></trkpt>
<trkpt lat="46.05489" lon="9.984653">
<ele>2654</ele>
<time>2022-01-08T04:18:14Z</time></trkpt>
<trkpt lat="46.054883" lon="9.984787">
<ele>2655</ele>
<time>2022-01-08T04:18:18Z</time></trkpt>
<trkpt lat="46.054883" lon="9.984787">
<ele>2655</ele>
<time>2022-01-08T04:18:18Z</time></trkpt>
<trkpt lat="46.054821" lon="9.98503">
<ele>2655</ele>
<time>2022-01-08T04:18:25Z</time></trkpt>
<trkpt lat="46.054723" lon="9.98516">
<ele>2653</ele>
<time>2022-01-08T04:18:30Z</time></trkpt>
<trkpt lat="46.054699" lon="9.985419">
<ele>2651</ele>
<time>2022-01-08T04:18:38Z</time></trkpt>
<trkpt lat="46.054696" lon="9.985653">
<ele>2651</ele>
<time>2022-01-08T04:18:44Z</time></trkpt>
<trkpt lat="46.054811" lon="9.986117">
<ele>2652</ele>
<time>2022-01-08T04:18:58Z</time></trkpt>
<trkpt lat="46.054874" lon="9.986475">
<ele>2653</ele>
<time>2022-01-08T04:19:08Z</time></trkpt>
<trkpt lat="46.054924" lon="9.986576">
<ele>2655</ele>
<time>2022-01-08T04:19:11Z</time></trkpt>
<trkpt lat="46.055099" lon="9.986679">
<ele>2664</ele>
<time>2022-01-08T04:19:19Z</time></trkpt>
<trkpt lat="46.055207" lon="9.986957">
<ele>2672</ele>
<time>2022-01-08T04:19:28Z</time></trkpt>
<trkpt lat="46.055203" lon="9.987152">
<ele>2673</ele>
<time>2022-01-08T04:19:33Z</time></trkpt>
<trkpt lat="46.055229" lon="9.98736">
<ele>2675</ele>
<time>2022-01-08T04:19:39Z</time></trkpt>
<trkpt lat="46.055399" lon="9.987479">
<ele>2682</ele>
<time>2022-01-08T04:19:47Z</time></trkpt>
<trkpt lat="46.055432" lon="9.987574">
<ele>2684</ele>
<time>2022-01-08T04:19:50Z</time></trkpt>
<trkpt lat="46.0554" lon="9.987802">
<ele>2685</ele>
<time>2022-01-08T04:19:56Z</time></trkpt>
<trkpt lat="46.055469" lon="9.98806">
<ele>2689</ele>
<time>2022-01-08T04:20:04Z</time></trkpt>
<trkpt lat="46.055456" lon="9.988187">
<ele>2690</ele>
<time>2022-01-08T04:20:07Z</time></trkpt>
<trkpt lat="46.055522" lon="9.988395">
<ele>2690</ele>
<time>2022-01-08T04:20:14Z</time></trkpt>
<trkpt lat="46.055601" lon="9.988486">
<ele>2689</ele>
<time>2022-01-08T04:20:18Z</time></trkpt>
<trkpt lat="46.055641" lon="9.988576">
<ele>2686</ele>
<time>2022-01-08T04:20:21Z</time></trkpt>
<trkpt lat="46.055705" lon="9.988627">
<ele>2686</ele>
<time>2022-01-08T04:20:24Z</time></trkpt>
<trkpt lat="46.055812" lon="9.988626">
<ele>2689</ele>
<time>2022-01-08T04:20:28Z</time></trkpt>
<trkpt lat="46.055823" lon="9.988731">
<ele>2685</ele>
<time>2022-01-08T04:20:31Z</time></trkpt>
<trkpt lat="46.055986" lon="9.98905">
<ele>2667</ele>
<time>2022-01-08T04:20:42Z</time></trkpt>
<trkpt lat="46.055995" lon="9.989128">
<ele>2662</ele>
<time>2022-01-08T04:20:44Z</time></trkpt>
<trkpt lat="46.056041" lon="9.989232">
<ele>2656</ele>
<time>2022-01-08T04:20:48Z</time></trkpt>
<trkpt lat="46.056115" lon="9.989268">
<ele>2651</ele>
<time>2022-01-08T04:20:51Z</time></trkpt>
<trkpt lat="46.05615" lon="9.989408">
<ele>2645</ele>
<time>2022-01-08T04:20:55Z</time></trkpt>
<trkpt lat="46.056203" lon="9.989485">
<ele>2640</ele>
<time>2022-01-08T04:20:58Z</time></trkpt>
<trkpt lat="46.056373" lon="9.98951">
<ele>2633</ele>
<time>2022-01-08T04:21:05Z</time></trkpt>
<trkpt lat="46.056419" lon="9.989623">
<ele>2628</ele>
<time>2022-01-08T04:21:08Z</time></trkpt>
<trkpt lat="46.05649" lon="9.989689">
<ele>2624</ele>
<time>2022-01-08T04:21:12Z</time></trkpt>
<trkpt lat="46.056615" lon="9.989928">
<ele>2613</ele>
<time>2022-01-08T04:21:20Z</time></trkpt>
<trkpt lat="46.056779" lon="9.990114">
<ele>2605</ele>
<time>2022-01-08T04:21:29Z</time></trkpt>
<trkpt lat="46.056847" lon="9.990145">
<ele>2604</ele>
<time>2022-01-08T04:21:31Z</time></trkpt>
<trkpt lat="46.057007" lon="9.990135">
<ele>2604</ele>
<time>2022-01-08T04:21:38Z</time></trkpt>
<trkpt lat="46.05707" lon="9.990249">
<ele>2600</ele>
<time>2022-01-08T04:21:42Z</time></trkpt>
<trkpt lat="46.05727" lon="9.990377">
<ele>2595</ele>
<time>2022-01-08T04:21:51Z</time></trkpt>
<trkpt lat="46.057399" lon="9.990392">
<ele>2595</ele>
<time>2022-01-08T04:21:56Z</time></trkpt>
<trkpt lat="46.05747" lon="9.990462">
<ele>2593</ele>
<time>2022-01-08T04:21:59Z</time></trkpt>
<trkpt lat="46.057499" lon="9.990599">
<ele>2589</ele>
<time>2022-01-08T04:22:03Z</time></trkpt>
<trkpt lat="46.057484" lon="9.990707">
<ele>2586</ele>
<time>2022-01-08T04:22:06Z</time></trkpt>
<trkpt lat="46.057535" lon="9.990793">
<ele>2584</ele>
<time>2022-01-08T04:22:09Z</time></trkpt>
<trkpt lat="46.057662" lon="9.990776">
<ele>2590</ele>
<time>2022-01-08T04:22:15Z</time></trkpt>
<trkpt lat="46.057768" lon="9.990796">
<ele>2593</ele>
<time>2022-01-08T04:22:19Z</time></trkpt>
<trkpt lat="46.05783" lon="9.991094">
<ele>2583</ele>
<time>2022-01-08T04:22:27Z</time></trkpt>
<trkpt lat="46.057754" lon="9.991405">
<ele>2568</ele>
<time>2022-01-08T04:22:37Z</time></trkpt>
<trkpt lat="46.057741" lon="9.991532">
<ele>2562</ele>
<time>2022-01-08T04:22:40Z</time></trkpt>
<trkpt lat="46.057607" lon="9.991693">
<ele>2551</ele>
<time>2022-01-08T04:22:47Z</time></trkpt>
<trkpt lat="46.057568" lon="9.991972">
<ele>2551</ele>
<time>2022-01-08T04:22:55Z</time></trkpt>
<trkpt lat="46.057505" lon="9.992055">
<ele>2551</ele>
<time>2022-01-08T04:22:59Z</time></trkpt>
<trkpt lat="46.057405" lon="9.992139">
<ele>2546</ele>
<time>2022-01-08T04:23:03Z</time></trkpt>
<trkpt lat="46.057183" lon="9.992648">
<ele>2535</ele>
<time>2022-01-08T04:23:20Z</time></trkpt>
<trkpt lat="46.057114" lon="9.993095">
<ele>2533</ele>
<time>2022-01-08T04:23:33Z</time></trkpt>
<trkpt lat="46.056932" lon="9.993725">
<ele>2522</ele>
<time>2022-01-08T04:23:52Z</time></trkpt>
<trkpt lat="46.056862" lon="9.993912">
<ele>2533</ele>
<time>2022-01-08T04:23:58Z</time></trkpt>
<trkpt lat="46.056803" lon="9.994176">
<ele>2533</ele>
<time>2022-01-08T04:24:05Z</time></trkpt>
<trkpt lat="46.056666" lon="9.994429">
<ele>2538</ele>
<time>2022-01-08T04:24:14Z</time></trkpt>
<trkpt lat="46.056553" lon="9.994684">
<ele>2535</ele>
<time>2022-01-08T04:24:23Z</time></trkpt>
<trkpt lat="46.056553" lon="9.994684">
<ele>2535</ele>
<time>2022-01-08T04:24:23Z</time></trkpt>
<trkpt lat="46.056446" lon="9.994924">
<ele>2531</ele>
<time>2022-01-08T04:24:31Z</time></trkpt>
<trkpt lat="46.056383" lon="9.995147">
<ele>2550</ele>
<time>2022-01-08T04:24:37Z</time></trkpt>
<trkpt lat="46.056342" lon="9.995358">
<ele>2550</ele>
<time>2022-01-08T04:24:43Z</time></trkpt>
<trkpt lat="46.056336" lon="9.995655">
<ele>2532</ele>
<time>2022-01-08T04:24:52Z</time></trkpt>
<trkpt lat="46.056449" lon="9.996076">
<ele>2532</ele>
<time>2022-01-08T04:25:04Z</time></trkpt>
<trkpt lat="46.056555" lon="9.996388">
<ele>2492</ele>
<time>2022-01-08T04:25:14Z</time></trkpt>
<trkpt lat="46.056793" lon="9.996903">
<ele>2475</ele>
<time>2022-01-08T04:25:31Z</time></trkpt>
<trkpt lat="46.056957" lon="9.997194">
<ele>2452</ele>
<time>2022-01-08T04:25:41Z</time></trkpt>
<trkpt lat="46.057215" lon="9.997506">
<ele>2424</ele>
<time>2022-01-08T04:25:55Z</time></trkpt>
<trkpt lat="46.057388" lon="9.997751">
<ele>2424</ele>
<time>2022-01-08T04:26:05Z</time></trkpt>
<trkpt lat="46.057556" lon="9.997838">
<ele>2424</ele>
<time>2022-01-08T04:26:12Z</time></trkpt>
<trkpt lat="46.057675" lon="9.997847">
<ele>2424</ele>
<time>2022-01-08T04:26:17Z</time></trkpt>
<trkpt lat="46.057865" lon="9.997677">
<ele>2424</ele>
<time>2022-01-08T04:26:26Z</time></trkpt>
<trkpt lat="46.057975" lon="9.997523">
<ele>2424</ele>
<time>2022-01-08T04:26:32Z</time></trkpt>
<trkpt lat="46.058064" lon="9.997555">
<ele>2424</ele>
<time>2022-01-08T04:26:35Z</time></trkpt>
<trkpt lat="46.058127" lon="9.99764">
<ele>2424</ele>
<time>2022-01-08T04:26:39Z</time></trkpt>
<trkpt lat="46.058156" lon="9.997787">
<ele>2424</ele>
<time>2022-01-08T04:26:43Z</time></trkpt>
<trkpt lat="46.058192" lon="9.997751">
<ele>2424</ele>
<time>2022-01-08T04:26:45Z</time></trkpt>
<trkpt lat="46.058274" lon="9.997755">
<ele>2424</ele>
<time>2022-01-08T04:26:48Z</time></trkpt>
<trkpt lat="46.058382" lon="9.997917">
<ele>2424</ele>
<time>2022-01-08T04:26:54Z</time></trkpt>
<trkpt lat="46.058444" lon="9.998123">
<ele>2424</ele>
<time>2022-01-08T04:27:01Z</time></trkpt>
<trkpt lat="46.058449" lon="9.998217">
<ele>2424</ele>
<time>2022-01-08T04:27:03Z</time></trkpt>
<trkpt lat="46.058486" lon="9.998277">
<ele>2424</ele>
<time>2022-01-08T04:27:05Z</time></trkpt>
<trkpt lat="46.058524" lon="9.998156">
<ele>2424</ele>
<time>2022-01-08T04:27:09Z</time></trkpt>
<trkpt lat="46.058522" lon="9.998052">
<ele>2424</ele>
<time>2022-01-08T04:27:12Z</time></trkpt>
<trkpt lat="46.058672" lon="9.997974">
<ele>2424</ele>
<time>2022-01-08T04:27:18Z</time></trkpt>
<trkpt lat="46.058812" lon="9.998041">
<ele>2424</ele>
<time>2022-01-08T04:27:24Z</time></trkpt>
<trkpt lat="46.058864" lon="9.997993">
<ele>2424</ele>
<time>2022-01-08T04:27:27Z</time></trkpt>
<trkpt lat="46.059016" lon="9.997995">
<ele>2424</ele>
<time>2022-01-08T04:27:33Z</time></trkpt>
<trkpt lat="46.05915" lon="9.998108">
<ele>2424</ele>
<time>2022-01-08T04:27:39Z</time></trkpt>
<trkpt lat="46.059294" lon="9.998081">
<ele>2424</ele>
<time>2022-01-08T04:27:45Z</time></trkpt>
<trkpt lat="46.059476" lon="9.998286">
<ele>2424</ele>
<time>2022-01-08T04:27:54Z</time></trkpt>
<trkpt lat="46.059617" lon="9.998264">
<ele>2424</ele>
<time>2022-01-08T04:28:00Z</time></trkpt>
<trkpt lat="46.060067" lon="9.998518">
<ele>2424</ele>
<time>2022-01-08T04:28:19Z</time></trkpt>
<trkpt lat="46.060078" lon="9.998598">
<ele>2424</ele>
<time>2022-01-08T04:28:22Z</time></trkpt>
<trkpt lat="46.060062" lon="9.998669">
<ele>2424</ele>
<time>2022-01-08T04:28:24Z</time></trkpt>
<trkpt lat="46.060149" lon="9.998682">
<ele>2424</ele>
<time>2022-01-08T04:28:27Z</time></trkpt>
<trkpt lat="46.060209" lon="9.998868">
<ele>2424</ele>
<time>2022-01-08T04:28:33Z</time></trkpt>
<trkpt lat="46.06017" lon="9.998978">
<ele>2424</ele>
<time>2022-01-08T04:28:36Z</time></trkpt>
<trkpt lat="46.060124" lon="9.99901">
<ele>2424</ele>
<time>2022-01-08T04:28:38Z</time></trkpt>
<trkpt lat="46.060173" lon="9.999102">
<ele>2424</ele>
<time>2022-01-08T04:28:42Z</time></trkpt>
<trkpt lat="46.060234" lon="9.999175">
<ele>2424</ele>
<time>2022-01-08T04:28:45Z</time></trkpt>
<trkpt lat="46.060365" lon="9.999176">
<ele>2424</ele>
<time>2022-01-08T04:28:50Z</time></trkpt>
<trkpt lat="46.060418" lon="9.999084">
<ele>2424</ele>
<time>2022-01-08T04:28:53Z</time></trkpt>
<trkpt lat="46.060409" lon="9.998923">
<ele>2424</ele>
<time>2022-01-08T04:28:58Z</time></trkpt>
<trkpt lat="46.06038" lon="9.998784">
<ele>2424</ele>
<time>2022-01-08T04:29:02Z</time></trkpt>
<trkpt lat="46.06038" lon="9.998784">
<ele>2424</ele>
<time>2022-01-08T04:29:02Z</time></trkpt>
<trkpt lat="46.060349" lon="9.998492">
<ele>2424</ele>
<time>2022-01-08T04:29:10Z</time></trkpt>
<trkpt lat="46.060413" lon="9.998286">
<ele>2424</ele>
<time>2022-01-08T04:29:16Z</time></trkpt>
<trkpt lat="46.060515" lon="9.998247">
<ele>2424</ele>
<time>2022-01-08T04:29:21Z</time></trkpt>
<trkpt lat="46.060652" lon="9.99826">
<ele>2424</ele>
<time>2022-01-08T04:29:26Z</time></trkpt>
<trkpt lat="46.06077" lon="9.998199">
<ele>2424</ele>
<time>2022-01-08T04:29:31Z</time></trkpt>
<trkpt lat="46.06083" lon="9.998056">
<ele>2424</ele>
<time>2022-01-08T04:29:36Z</time></trkpt>
<trkpt lat="46.060888" lon="9.997777">
<ele>2424</ele>
<time>2022-01-08T04:29:44Z</time></trkpt>
<trkpt lat="46.060932" lon="9.997695">
<ele>2424</ele>
<time>2022-01-08T04:29:47Z</time></trkpt>
<trkpt lat="46.06094" lon="9.997551">
<ele>2424</ele>
<time>2022-01-08T04:29:51Z</time></trkpt>
<trkpt lat="46.061029" lon="9.99756">
<ele>2424</ele>
<time>2022-01-08T04:29:54Z</time></trkpt>
<trkpt lat="46.061067" lon="9.997461">
<ele>2424</ele>
<time>2022-01-08T04:29:57Z</time></trkpt>
<trkpt lat="46.061084" lon="9.997135">
<ele>2424</ele>
<time>2022-01-08T04:30:06Z</time></trkpt>
<trkpt lat="46.061163" lon="9.99717">
<ele>2424</ele>
<time>2022-01-08T04:30:10Z</time></trkpt>
<trkpt lat="46.061236" lon="9.997003">
<ele>2424</ele>
<time>2022-01-08T04:30:15Z</time></trkpt>
<trkpt lat="46.06135" lon="9.996931">
<ele>2424</ele>
<time>2022-01-08T04:30:20Z</time></trkpt>
<trkpt lat="46.061472" lon="9.996949">
<ele>2424</ele>
<time>2022-01-08T04:30:25Z</time></trkpt>
<trkpt lat="46.061727" lon="9.996869">
<ele>2424</ele>
<time>2022-01-08T04:30:36Z</time></trkpt>
<trkpt lat="46.061777" lon="9.996798">
<ele>2424</ele>
<time>2022-01-08T04:30:38Z</time></trkpt>
<trkpt lat="46.061808" lon="9.996574">
<ele>2424</ele>
<time>2022-01-08T04:30:45Z</time></trkpt>
<trkpt lat="46.061878" lon="9.996558">
<ele>2424</ele>
<time>2022-01-08T04:30:48Z</time></trkpt>
<trkpt lat="46.062018" lon="9.996427">
<ele>2424</ele>
<time>2022-01-08T04:30:54Z</time></trkpt>
<trkpt lat="46.06225" lon="9.996347">
<ele>2424</ele>
<time>2022-01-08T04:31:04Z</time></trkpt>
<trkpt lat="46.062339" lon="9.996383">
<ele>2424</ele>
<time>2022-01-08T04:31:08Z</time></trkpt>
<trkpt lat="46.06248" lon="9.996952">
<ele>2424</ele>
<time>2022-01-08T04:31:24Z</time></trkpt>
<trkpt lat="46.062526" lon="9.997265">
<ele>2424</ele>
<time>2022-01-08T04:31:33Z</time></trkpt>
<trkpt lat="46.062539" lon="9.997586">
<ele>2424</ele>
<time>2022-01-08T04:31:42Z</time></trkpt>
<trkpt lat="46.062578" lon="9.997713">
<ele>2424</ele>
<time>2022-01-08T04:31:46Z</time></trkpt>
<trkpt lat="46.062569" lon="9.997908">
<ele>2424</ele>
<time>2022-01-08T04:31:52Z</time></trkpt>
<trkpt lat="46.062695" lon="9.998135">
<ele>2424</ele>
<time>2022-01-08T04:32:00Z</time></trkpt>
<trkpt lat="46.06271" lon="9.998379">
<ele>2424</ele>
<time>2022-01-08T04:32:06Z</time></trkpt>
<trkpt lat="46.062754" lon="9.998377">
<ele>2424</ele>
<time>2022-01-08T04:32:08Z</time></trkpt>
<trkpt lat="46.062766" lon="9.998699">
<ele>2424</ele>
<time>2022-01-08T04:32:17Z</time></trkpt>
<trkpt lat="46.0627" lon="9.999034">
<ele>2424</ele>
<time>2022-01-08T04:32:27Z</time></trkpt>
<trkpt lat="46.062586" lon="9.999428">
<ele>2424</ele>
<time>2022-01-08T04:32:39Z</time></trkpt>
<trkpt lat="46.062544" lon="9.999635">
<ele>2424</ele>
<time>2022-01-08T04:32:45Z</time></trkpt>
<trkpt lat="46.062447" lon="9.99983">
<ele>2424</ele>
<time>2022-01-08T04:32:51Z</time></trkpt>
<trkpt lat="46.062462" lon="9.99996">
<ele>2424</ele>
<time>2022-01-08T04:32:55Z</time></trkpt>
<trkpt lat="46.062462" lon="9.99996">
<ele>2424</ele>
<time>2022-01-08T04:32:55Z</time></trkpt>
<trkpt lat="46.062462" lon="9.999962">
<ele>2424</ele>
<time>2022-01-08T04:32:55Z</time></trkpt>
<trkpt lat="46.062466" lon="10.000117">
<ele>2424</ele>
<time>2022-01-08T04:32:59Z</time></trkpt>
<trkpt lat="46.062419" lon="10.000288">
<ele>2424</ele>
<time>2022-01-08T04:33:05Z</time></trkpt>
<trkpt lat="46.06229" lon="10.00043">
<ele>2424</ele>
<time>2022-01-08T04:33:11Z</time></trkpt>
<trkpt lat="46.062123" lon="10.000541">
<ele>2424</ele>
<time>2022-01-08T04:33:18Z</time></trkpt>
<trkpt lat="46.062007" lon="10.000649">
<ele>2424</ele>
<time>2022-01-08T04:33:24Z</time></trkpt>
<trkpt lat="46.061761" lon="10.000859">
<ele>2424</ele>
<time>2022-01-08T04:33:35Z</time></trkpt>
<trkpt lat="46.061643" lon="10.000882">
<ele>2424</ele>
<time>2022-01-08T04:33:40Z</time></trkpt>
<trkpt lat="46.061207" lon="10.001292">
<ele>2424</ele>
<time>2022-01-08T04:34:01Z</time></trkpt>
<trkpt lat="46.06114" lon="10.001381">
<ele>2424</ele>
<time>2022-01-08T04:34:05Z</time></trkpt>
<trkpt lat="46.060923" lon="10.001468">
<ele>2424</ele>
<time>2022-01-08T04:34:14Z</time></trkpt>
<trkpt lat="46.060761" lon="10.001609">
<ele>2424</ele>
<time>2022-01-08T04:34:21Z</time></trkpt>
<trkpt lat="46.060651" lon="10.001775">
<ele>2424</ele>
<time>2022-01-08T04:34:28Z</time></trkpt>
<trkpt lat="46.060551" lon="10.001829">
<ele>2424</ele>
<time>2022-01-08T04:34:32Z</time></trkpt>
<trkpt lat="46.060495" lon="10.001985">
<ele>2424</ele>
<time>2022-01-08T04:34:37Z</time></trkpt>
<trkpt lat="46.06044" lon="10.002061">
<ele>2424</ele>
<time>2022-01-08T04:34:40Z</time></trkpt>
<trkpt lat="46.060297" lon="10.00212">
<ele>2424</ele>
<time>2022-01-08T04:34:46Z</time></trkpt>
<trkpt lat="46.060173" lon="10.002307">
<ele>2424</ele>
<time>2022-01-08T04:34:53Z</time></trkpt>
<trkpt lat="46.059656" lon="10.002695">
<ele>2424</ele>
<time>2022-01-08T04:35:16Z</time></trkpt>
<trkpt lat="46.05947" lon="10.002997">
<ele>2424</ele>
<time>2022-01-08T04:35:28Z</time></trkpt>
<trkpt lat="46.059264" lon="10.003244">
<ele>2424</ele>
<time>2022-01-08T04:35:38Z</time></trkpt>
<trkpt lat="46.059243" lon="10.003367">
<ele>2424</ele>
<time>2022-01-08T04:35:42Z</time></trkpt>
<trkpt lat="46.059105" lon="10.003545">
<ele>2424</ele>
<time>2022-01-08T04:35:49Z</time></trkpt>
<trkpt lat="46.059148" lon="10.003764">
<ele>2424</ele>
<time>2022-01-08T04:35:56Z</time></trkpt>
<trkpt lat="46.059091" lon="10.003919">
<ele>2424</ele>
<time>2022-01-08T04:36:01Z</time></trkpt>
<trkpt lat="46.059091" lon="10.003919">
<ele>2424</ele>
<time>2022-01-08T04:36:01Z</time></trkpt>
<trkpt lat="46.059046" lon="10.004038">
<ele>2424</ele>
<time>2022-01-08T04:36:04Z</time></trkpt>
<trkpt lat="46.058676" lon="10.004615">
<ele>2424</ele>
<time>2022-01-08T04:36:26Z</time></trkpt>
<trkpt lat="46.058535" lon="10.004746">
<ele>2424</ele>
<time>2022-01-08T04:36:33Z</time></trkpt>
<trkpt lat="46.058325" lon="10.005213">
<ele>2424</ele>
<time>2022-01-08T04:36:48Z</time></trkpt>
<trkpt lat="46.057983" lon="10.005745">
<ele>2424</ele>
<time>2022-01-08T04:37:09Z</time></trkpt>
<trkpt lat="46.057757" lon="10.005854">
<ele>2424</ele>
<time>2022-01-08T04:37:18Z</time></trkpt>
<trkpt lat="46.057588" lon="10.005985">
<ele>2424</ele>
<time>2022-01-08T04:37:26Z</time></trkpt>
<trkpt lat="46.057348" lon="10.006228">
<ele>2424</ele>
<time>2022-01-08T04:37:38Z</time></trkpt>
<trkpt lat="46.056809" lon="10.006332">
<ele>2424</ele>
<time>2022-01-08T04:37:59Z</time></trkpt>
<trkpt lat="46.056725" lon="10.006402">
<ele>2424</ele>
<time>2022-01-08T04:38:03Z</time></trkpt>
<trkpt lat="46.056625" lon="10.006621">
<ele>2424</ele>
<time>2022-01-08T04:38:10Z</time></trkpt>
<trkpt lat="46.056482" lon="10.006801">
<ele>2424</ele>
<time>2022-01-08T04:38:18Z</time></trkpt>
<trkpt lat="46.056188" lon="10.007047">
<ele>2424</ele>
<time>2022-01-08T04:38:32Z</time></trkpt>
<trkpt lat="46.056092" lon="10.007199">
<ele>2424</ele>
<time>2022-01-08T04:38:37Z</time></trkpt>
<trkpt lat="46.056071" lon="10.007311">
<ele>2424</ele>
<time>2022-01-08T04:38:41Z</time></trkpt>
<trkpt lat="46.056102" lon="10.007471">
<ele>2424</ele>
<time>2022-01-08T04:38:45Z</time></trkpt>
<trkpt lat="46.05607" lon="10.007606">
<ele>2424</ele>
<time>2022-01-08T04:38:49Z</time></trkpt>
<trkpt lat="46.055899" lon="10.007848">
<ele>2424</ele>
<time>2022-01-08T04:38:59Z</time></trkpt>
<trkpt lat="46.055692" lon="10.007909">
<ele>2424</ele>
<time>2022-01-08T04:39:07Z</time></trkpt>
<trkpt lat="46.05554" lon="10.007988">
<ele>2424</ele>
<time>2022-01-08T04:39:14Z</time></trkpt>
<trkpt lat="46.055411" lon="10.008271">
<ele>2424</ele>
<time>2022-01-08T04:39:23Z</time></trkpt>
<trkpt lat="46.055259" lon="10.008442">
<ele>2424</ele>
<time>2022-01-08T04:39:31Z</time></trkpt>
<trkpt lat="46.054982" lon="10.008696">
<ele>2424</ele>
<time>2022-01-08T04:39:44Z</time></trkpt>
<trkpt lat="46.054982" lon="10.008696">
<ele>2424</ele>
<time>2022-01-08T04:39:44Z</time></trkpt>
<trkpt lat="46.054779" lon="10.009023">
<ele>2424</ele>
<time>2022-01-08T04:39:56Z</time></trkpt>
<trkpt lat="46.054711" lon="10.009216">
<ele>2424</ele>
<time>2022-01-08T04:40:02Z</time></trkpt>
<trkpt lat="46.054679" lon="10.009379">
<ele>2424</ele>
<time>2022-01-08T04:40:07Z</time></trkpt>
<trkpt lat="46.054709" lon="10.009635">
<ele>2424</ele>
<time>2022-01-08T04:40:14Z</time></trkpt>
<trkpt lat="46.054753" lon="10.009625">
<ele>2424</ele>
<time>2022-01-08T04:40:16Z</time></trkpt>
<trkpt lat="46.054801" lon="10.009494">
<ele>2424</ele>
<time>2022-01-08T04:40:20Z</time></trkpt>
<trkpt lat="46.054863" lon="10.009496">
<ele>2424</ele>
<time>2022-01-08T04:40:23Z</time></trkpt>
<trkpt lat="46.054886" lon="10.00964">
<ele>2424</ele>
<time>2022-01-08T04:40:27Z</time></trkpt>
<trkpt lat="46.05493" lon="10.009751">
<ele>2424</ele>
<time>2022-01-08T04:40:30Z</time></trkpt>
<trkpt lat="46.054987" lon="10.009755">
<ele>2424</ele>
<time>2022-01-08T04:40:33Z</time></trkpt>
<trkpt lat="46.05505" lon="10.009648">
<ele>2424</ele>
<time>2022-01-08T04:40:36Z</time></trkpt>
<trkpt lat="46.055093" lon="10.009642">
<ele>2424</ele>
<time>2022-01-08T04:40:38Z</time></trkpt>
<trkpt lat="46.055421" lon="10.010009">
<ele>2424</ele>
<time>2022-01-08T04:40:55Z</time></trkpt>
<trkpt lat="46.055451" lon="10.010085">
<ele>2424</ele>
<time>2022-01-08T04:40:57Z</time></trkpt>
<trkpt lat="46.055645" lon="10.010189">
<ele>2424</ele>
<time>2022-01-08T04:41:06Z</time></trkpt>
<trkpt lat="46.055744" lon="10.010553">
<ele>2424</ele>
<time>2022-01-08T04:41:16Z</time></trkpt>
<trkpt lat="46.055845" lon="10.010546">
<ele>2424</ele>
<time>2022-01-08T04:41:21Z</time></trkpt>
<trkpt lat="46.055886" lon="10.010546">
<ele>2424</ele>
<time>2022-01-08T04:41:22Z</time></trkpt>
<trkpt lat="46.055906" lon="10.010605">
<ele>2424</ele>
<time>2022-01-08T04:41:24Z</time></trkpt>
<trkpt lat="46.055917" lon="10.010761">
<ele>2424</ele>
<time>2022-01-08T04:41:28Z</time></trkpt>
<trkpt lat="46.055939" lon="10.01084">
<ele>2424</ele>
<time>2022-01-08T04:41:31Z</time></trkpt>
<trkpt lat="46.05599" lon="10.010924">
<ele>2424</ele>
<time>2022-01-08T04:41:34Z</time></trkpt>
<trkpt lat="46.056028" lon="10.010932">
<ele>2424</ele>
<time>2022-01-08T04:41:35Z</time></trkpt>
<trkpt lat="46.056046" lon="10.010904">
<ele>2424</ele>
<time>2022-01-08T04:41:36Z</time></trkpt>
<trkpt lat="46.056127" lon="10.010545">
<ele>2424</ele>
<time>2022-01-08T04:41:47Z</time></trkpt>
<trkpt lat="46.056162" lon="10.010486">
<ele>2424</ele>
<time>2022-01-08T04:41:49Z</time></trkpt>
<trkpt lat="46.056246" lon="10.0105">
<ele>2424</ele>
<time>2022-01-08T04:41:52Z</time></trkpt>
<trkpt lat="46.056294" lon="10.010432">
<ele>2424</ele>
<time>2022-01-08T04:41:55Z</time></trkpt>
<trkpt lat="46.056372" lon="10.010209">
<ele>2424</ele>
<time>2022-01-08T04:42:02Z</time></trkpt>
<trkpt lat="46.056457" lon="10.010142">
<ele>2424</ele>
<time>2022-01-08T04:42:06Z</time></trkpt>
<trkpt lat="46.056481" lon="10.010177">
<ele>2424</ele>
<time>2022-01-08T04:42:07Z</time></trkpt>
<trkpt lat="46.056585" lon="10.010477">
<ele>2424</ele>
<time>2022-01-08T04:42:17Z</time></trkpt>
<trkpt lat="46.056585" lon="10.010477">
<ele>2424</ele>
<time>2022-01-08T04:42:17Z</time></trkpt>
<trkpt lat="46.056596" lon="10.010508">
<ele>2424</ele>
<time>2022-01-08T04:42:18Z</time></trkpt>
<trkpt lat="46.05662" lon="10.010513">
<ele>2424</ele>
<time>2022-01-08T04:42:19Z</time></trkpt>
<trkpt lat="46.056726" lon="10.010454">
<ele>2424</ele>
<time>2022-01-08T04:42:23Z</time></trkpt>
<trkpt lat="46.056837" lon="10.010331">
<ele>2424</ele>
<time>2022-01-08T04:42:29Z</time></trkpt>
<trkpt lat="46.056846" lon="10.009939">
<ele>2424</ele>
<time>2022-01-08T04:42:40Z</time></trkpt>
<trkpt lat="46.056882" lon="10.009659">
<ele>2424</ele>
<time>2022-01-08T04:42:48Z</time></trkpt>
<trkpt lat="46.057011" lon="10.009456">
<ele>2424</ele>
<time>2022-01-08T04:42:55Z</time></trkpt>
<trkpt lat="46.057168" lon="10.009407">
<ele>2424</ele>
<time>2022-01-08T04:43:02Z</time></trkpt>
<trkpt lat="46.057245" lon="10.009493">
<ele>2424</ele>
<time>2022-01-08T04:43:06Z</time></trkpt>
<trkpt lat="46.057349" lon="10.009436">
<ele>2424</ele>
<time>2022-01-08T04:43:10Z</time></trkpt>
<trkpt lat="46.057418" lon="10.009307">
<ele>2424</ele>
<time>2022-01-08T04:43:15Z</time></trkpt>
<trkpt lat="46.057638" lon="10.009177">
<ele>2424</ele>
<time>2022-01-08T04:43:24Z</time></trkpt>
<trkpt lat="46.057901" lon="10.009567">
<ele>2424</ele>
<time>2022-01-08T04:43:39Z</time></trkpt>
<trkpt lat="46.057955" lon="10.009582">
<ele>2424</ele>
<time>2022-01-08T04:43:41Z</time></trkpt>
<trkpt lat="46.057985" lon="10.009533">
<ele>2424</ele>
<time>2022-01-08T04:43:43Z</time></trkpt>
<trkpt lat="46.058057" lon="10.009156">
<ele>2424</ele>
<time>2022-01-08T04:43:54Z</time></trkpt>
<trkpt lat="46.058178" lon="10.008896">
<ele>2424</ele>
<time>2022-01-08T04:44:03Z</time></trkpt>
<trkpt lat="46.058227" lon="10.008936">
<ele>2424</ele>
<time>2022-01-08T04:44:05Z</time></trkpt>
<trkpt lat="46.058315" lon="10.009067">
<ele>2424</ele>
<time>2022-01-08T04:44:10Z</time></trkpt>
<trkpt lat="46.05835" lon="10.009067">
<ele>2424</ele>
<time>2022-01-08T04:44:12Z</time></trkpt>
<trkpt lat="46.058464" lon="10.008843">
<ele>2424</ele>
<time>2022-01-08T04:44:19Z</time></trkpt>
<trkpt lat="46.058417" lon="10.008207">
<ele>2424</ele>
<time>2022-01-08T04:44:37Z</time></trkpt>
<trkpt lat="46.058563" lon="10.007753">
<ele>2424</ele>
<time>2022-01-08T04:44:51Z</time></trkpt>
<trkpt lat="46.058838" lon="10.007794">
<ele>2424</ele>
<time>2022-01-08T04:45:02Z</time></trkpt>
<trkpt lat="46.059002" lon="10.007865">
<ele>2424</ele>
<time>2022-01-08T04:45:09Z</time></trkpt>
<trkpt lat="46.059169" lon="10.007844">
<ele>2424</ele>
<time>2022-01-08T04:45:16Z</time></trkpt>
<trkpt lat="46.059224" lon="10.007874">
<ele>2424</ele>
<time>2022-01-08T04:45:18Z</time></trkpt>
<trkpt lat="46.059294" lon="10.007923">
<ele>2424</ele>
<time>2022-01-08T04:45:21Z</time></trkpt>
<trkpt lat="46.059305" lon="10.008038">
<ele>2424</ele>
<time>2022-01-08T04:45:24Z</time></trkpt>
<trkpt lat="46.059327" lon="10.008025">
<ele>2424</ele>
<time>2022-01-08T04:45:25Z</time></trkpt>
<trkpt lat="46.059343" lon="10.008216">
<ele>2424</ele>
<time>2022-01-08T04:45:31Z</time></trkpt>
<trkpt lat="46.059438" lon="10.008138">
<ele>2424</ele>
<time>2022-01-08T04:45:35Z</time></trkpt>
<trkpt lat="46.059536" lon="10.008113">
<ele>2424</ele>
<time>2022-01-08T04:45:39Z</time></trkpt>
<trkpt lat="46.059523" lon="10.00854">
<ele>2424</ele>
<time>2022-01-08T04:45:51Z</time></trkpt>
<trkpt lat="46.059532" lon="10.008625">
<ele>2424</ele>
<time>2022-01-08T04:45:53Z</time></trkpt>
<trkpt lat="46.059553" lon="10.008648">
<ele>2424</ele>
<time>2022-01-08T04:45:54Z</time></trkpt>
<trkpt lat="46.059564" lon="10.008777">
<ele>2424</ele>
<time>2022-01-08T04:45:58Z</time></trkpt>
<trkpt lat="46.059615" lon="10.008989">
<ele>2424</ele>
<time>2022-01-08T04:46:04Z</time></trkpt>
<trkpt lat="46.059721" lon="10.009272">
<ele>2424</ele>
<time>2022-01-08T04:46:13Z</time></trkpt>
<trkpt lat="46.059726" lon="10.009552">
<ele>2424</ele>
<time>2022-01-08T04:46:21Z</time></trkpt>
<trkpt lat="46.059726" lon="10.009552">
<ele>2424</ele>
<time>2022-01-08T04:46:21Z</time></trkpt>
<trkpt lat="46.059757" lon="10.009777">
<ele>2424</ele>
<time>2022-01-08T04:46:27Z</time></trkpt>
<trkpt lat="46.059804" lon="10.009908">
<ele>2424</ele>
<time>2022-01-08T04:46:31Z</time></trkpt>
<trkpt lat="46.059747" lon="10.010001">
<ele>2424</ele>
<time>2022-01-08T04:46:35Z</time></trkpt>
<trkpt lat="46.059698" lon="10.010332">
<ele>2424</ele>
<time>2022-01-08T04:46:44Z</time></trkpt>
<trkpt lat="46.05964" lon="10.01041">
<ele>2424</ele>
<time>2022-01-08T04:46:47Z</time></trkpt>
<trkpt lat="46.059608" lon="10.010562">
<ele>2424</ele>
<time>2022-01-08T04:46:52Z</time></trkpt>
<trkpt lat="46.059542" lon="10.010722">
<ele>2424</ele>
<time>2022-01-08T04:46:57Z</time></trkpt>
<trkpt lat="46.059473" lon="10.010964">
<ele>2424</ele>
<time>2022-01-08T04:47:04Z</time></trkpt>
<trkpt lat="46.059473" lon="10.01133">
<ele>2424</ele>
<time>2022-01-08T04:47:15Z</time></trkpt>
<trkpt lat="46.059499" lon="10.011459">
<ele>2424</ele>
<time>2022-01-08T04:47:18Z</time></trkpt>
<trkpt lat="46.059773" lon="10.011903">
<ele>2424</ele>
<time>2022-01-08T04:47:35Z</time></trkpt>
<trkpt lat="46.059829" lon="10.011922">
<ele>2424</ele>
<time>2022-01-08T04:47:37Z</time></trkpt>
<trkpt lat="46.059902" lon="10.012087">
<ele>2424</ele>
<time>2022-01-08T04:47:43Z</time></trkpt>
<trkpt lat="46.059974" lon="10.012197">
<ele>2424</ele>
<time>2022-01-08T04:47:47Z</time></trkpt>
<trkpt lat="46.060308" lon="10.012459">
<ele>2424</ele>
<time>2022-01-08T04:48:02Z</time></trkpt>
<trkpt lat="46.060375" lon="10.012615">
<ele>2424</ele>
<time>2022-01-08T04:48:07Z</time></trkpt>
<trkpt lat="46.060589" lon="10.0129">
<ele>2424</ele>
<time>2022-01-08T04:48:19Z</time></trkpt>
<trkpt lat="46.060738" lon="10.013031">
<ele>2424</ele>
<time>2022-01-08T04:48:26Z</time></trkpt>
<trkpt lat="46.060885" lon="10.013108">
<ele>2424</ele>
<time>2022-01-08T04:48:32Z</time></trkpt>
<trkpt lat="46.060913" lon="10.013268">
<ele>2424</ele>
<time>2022-01-08T04:48:37Z</time></trkpt>
<trkpt lat="46.060871" lon="10.013304">
<ele>2424</ele>
<time>2022-01-08T04:48:39Z</time></trkpt>
<trkpt lat="46.060829" lon="10.013413">
<ele>2424</ele>
<time>2022-01-08T04:48:42Z</time></trkpt>
<trkpt lat="46.060514" lon="10.013682">
<ele>2424</ele>
<time>2022-01-08T04:48:57Z</time></trkpt>
<trkpt lat="46.06037" lon="10.013855">
<ele>2424</ele>
<time>2022-01-08T04:49:04Z</time></trkpt>
<trkpt lat="46.060394" lon="10.013944">
<ele>2424</ele>
<time>2022-01-08T04:49:07Z</time></trkpt>
<trkpt lat="46.060429" lon="10.013982">
<ele>2424</ele>
<time>2022-01-08T04:49:09Z</time></trkpt>
<trkpt lat="46.060524" lon="10.013963">
<ele>2424</ele>
<time>2022-01-08T04:49:12Z</time></trkpt>
<trkpt lat="46.060546" lon="10.013977">
<ele>2424</ele>
<time>2022-01-08T04:49:13Z</time></trkpt>
<trkpt lat="46.060612" lon="10.013923">
<ele>2424</ele>
<time>2022-01-08T04:49:16Z</time></trkpt>
<trkpt lat="46.060677" lon="10.013981">
<ele>2424</ele>
<time>2022-01-08T04:49:20Z</time></trkpt>
<trkpt lat="46.060688" lon="10.013959">
<ele>2424</ele>
<time>2022-01-08T04:49:20Z</time></trkpt>
<trkpt lat="46.06076" lon="10.013967">
<ele>2424</ele>
<time>2022-01-08T04:49:23Z</time></trkpt>
<trkpt lat="46.060784" lon="10.013903">
<ele>2424</ele>
<time>2022-01-08T04:49:25Z</time></trkpt>
<trkpt lat="46.060818" lon="10.013977">
<ele>2424</ele>
<time>2022-01-08T04:49:28Z</time></trkpt>
<trkpt lat="46.060838" lon="10.014156">
<ele>2424</ele>
<time>2022-01-08T04:49:33Z</time></trkpt>
<trkpt lat="46.060808" lon="10.014249">
<ele>2424</ele>
<time>2022-01-08T04:49:36Z</time></trkpt>
<trkpt lat="46.060845" lon="10.014409">
<ele>2424</ele>
<time>2022-01-08T04:49:40Z</time></trkpt>
<trkpt lat="46.060843" lon="10.014432">
<ele>2424</ele>
<time>2022-01-08T04:49:41Z</time></trkpt>
<trkpt lat="46.060811" lon="10.014462">
<ele>2424</ele>
<time>2022-01-08T04:49:42Z</time></trkpt>
<trkpt lat="46.060811" lon="10.014549">
<ele>2424</ele>
<time>2022-01-08T04:49:45Z</time></trkpt>
<trkpt lat="46.060859" lon="10.014659">
<ele>2424</ele>
<time>2022-01-08T04:49:48Z</time></trkpt>
<trkpt lat="46.060902" lon="10.014872">
<ele>2424</ele>
<time>2022-01-08T04:49:55Z</time></trkpt>
<trkpt lat="46.060918" lon="10.015097">
<ele>2424</ele>
<time>2022-01-08T04:50:01Z</time></trkpt>
<trkpt lat="46.060888" lon="10.015175">
<ele>2424</ele>
<time>2022-01-08T04:50:03Z</time></trkpt>
<trkpt lat="46.060863" lon="10.015396">
<ele>2424</ele>
<time>2022-01-08T04:50:10Z</time></trkpt>
<trkpt lat="46.06083" lon="10.015467">
<ele>2424</ele>
<time>2022-01-08T04:50:12Z</time></trkpt>
<trkpt lat="46.060804" lon="10.015619">
<ele>2424</ele>
<time>2022-01-08T04:50:16Z</time></trkpt>
<trkpt lat="46.060804" lon="10.015619">
<ele>2424</ele>
<time>2022-01-08T04:50:16Z</time></trkpt>
<trkpt lat="46.060776" lon="10.015801">
<ele>2424</ele>
<time>2022-01-08T04:50:22Z</time></trkpt>
<trkpt lat="46.060739" lon="10.01589">
<ele>2424</ele>
<time>2022-01-08T04:50:24Z</time></trkpt>
<trkpt lat="46.060713" lon="10.016228">
<ele>2424</ele>
<time>2022-01-08T04:50:34Z</time></trkpt>
<trkpt lat="46.060772" lon="10.016284">
<ele>2424</ele>
<time>2022-01-08T04:50:37Z</time></trkpt>
<trkpt lat="46.060841" lon="10.016439">
<ele>2424</ele>
<time>2022-01-08T04:50:42Z</time></trkpt>
<trkpt lat="46.060894" lon="10.016496">
<ele>2424</ele>
<time>2022-01-08T04:50:45Z</time></trkpt>
<trkpt lat="46.060951" lon="10.016641">
<ele>2424</ele>
<time>2022-01-08T04:50:49Z</time></trkpt>
<trkpt lat="46.061016" lon="10.016667">
<ele>2424</ele>
<time>2022-01-08T04:50:52Z</time></trkpt>
<trkpt lat="46.061176" lon="10.016825">
<ele>2424</ele>
<time>2022-01-08T04:51:00Z</time></trkpt>
<trkpt lat="46.061241" lon="10.016857">
<ele>2424</ele>
<time>2022-01-08T04:51:02Z</time></trkpt>
<trkpt lat="46.061291" lon="10.016912">
<ele>2424</ele>
<time>2022-01-08T04:51:05Z</time></trkpt>
<trkpt lat="46.061329" lon="10.016983">
<ele>2424</ele>
<time>2022-01-08T04:51:07Z</time></trkpt>
<trkpt lat="46.061356" lon="10.017122">
<ele>2424</ele>
<time>2022-01-08T04:51:11Z</time></trkpt>
<trkpt lat="46.061407" lon="10.017215">
<ele>2424</ele>
<time>2022-01-08T04:51:15Z</time></trkpt>
<trkpt lat="46.061569" lon="10.017322">
<ele>2424</ele>
<time>2022-01-08T04:51:22Z</time></trkpt>
<trkpt lat="46.061703" lon="10.017509">
<ele>2424</ele>
<time>2022-01-08T04:51:29Z</time></trkpt>
<trkpt lat="46.061737" lon="10.017608">
<ele>2424</ele>
<time>2022-01-08T04:51:32Z</time></trkpt>
<trkpt lat="46.061817" lon="10.017693">
<ele>2424</ele>
<time>2022-01-08T04:51:36Z</time></trkpt>
<trkpt lat="46.06179" lon="10.017718">
<ele>2424</ele>
<time>2022-01-08T04:51:38Z</time></trkpt>
<trkpt lat="46.061794" lon="10.017762">
<ele>2424</ele>
<time>2022-01-08T04:51:39Z</time></trkpt>
<trkpt lat="46.061902" lon="10.017953">
<ele>2424</ele>
<time>2022-01-08T04:51:46Z</time></trkpt>
<trkpt lat="46.061906" lon="10.018185">
<ele>2424</ele>
<time>2022-01-08T04:51:52Z</time></trkpt>
<trkpt lat="46.061862" lon="10.018303">
<ele>2424</ele>
<time>2022-01-08T04:51:56Z</time></trkpt>
<trkpt lat="46.061843" lon="10.018458">
<ele>2424</ele>
<time>2022-01-08T04:52:00Z</time></trkpt>
<trkpt lat="46.061917" lon="10.018787">
<ele>2424</ele>
<time>2022-01-08T04:52:10Z</time></trkpt>
<trkpt lat="46.061901" lon="10.01884">
<ele>2424</ele>
<time>2022-01-08T04:52:12Z</time></trkpt>
<trkpt lat="46.061836" lon="10.018902">
<ele>2424</ele>
<time>2022-01-08T04:52:15Z</time></trkpt>
<trkpt lat="46.061701" lon="10.018922">
<ele>2424</ele>
<time>2022-01-08T04:52:20Z</time></trkpt>
<trkpt lat="46.06164" lon="10.018964">
<ele>2424</ele>
<time>2022-01-08T04:52:23Z</time></trkpt>
<trkpt lat="46.061571" lon="10.019202">
<ele>2424</ele>
<time>2022-01-08T04:52:30Z</time></trkpt>
<trkpt lat="46.061555" lon="10.019224">
<ele>2424</ele>
<time>2022-01-08T04:52:31Z</time></trkpt>
<trkpt lat="46.061515" lon="10.019226">
<ele>2424</ele>
<time>2022-01-08T04:52:32Z</time></trkpt>
<trkpt lat="46.061468" lon="10.019206">
<ele>2424</ele>
<time>2022-01-08T04:52:34Z</time></trkpt>
<trkpt lat="46.061446" lon="10.019234">
<ele>2424</ele>
<time>2022-01-08T04:52:36Z</time></trkpt>
<trkpt lat="46.0614" lon="10.019377">
<ele>2424</ele>
<time>2022-01-08T04:52:40Z</time></trkpt>
<trkpt lat="46.061356" lon="10.019366">
<ele>2424</ele>
<time>2022-01-08T04:52:42Z</time></trkpt>
<trkpt lat="46.061298" lon="10.019317">
<ele>2424</ele>
<time>2022-01-08T04:52:44Z</time></trkpt>
<trkpt lat="46.061252" lon="10.01933">
<ele>2424</ele>
<time>2022-01-08T04:52:46Z</time></trkpt>
<trkpt lat="46.061199" lon="10.019392">
<ele>2424</ele>
<time>2022-01-08T04:52:49Z</time></trkpt>
<trkpt lat="46.061174" lon="10.019498">
<ele>2424</ele>
<time>2022-01-08T04:52:52Z</time></trkpt>
<trkpt lat="46.061125" lon="10.019476">
<ele>2424</ele>
<time>2022-01-08T04:52:54Z</time></trkpt>
<trkpt lat="46.061076" lon="10.01948">
<ele>2424</ele>
<time>2022-01-08T04:52:56Z</time></trkpt>
<trkpt lat="46.061011" lon="10.019408">
<ele>2424</ele>
<time>2022-01-08T04:52:59Z</time></trkpt>
<trkpt lat="46.060947" lon="10.019416">
<ele>2424</ele>
<time>2022-01-08T04:53:02Z</time></trkpt>
<trkpt lat="46.060912" lon="10.019459">
<ele>2424</ele>
<time>2022-01-08T04:53:04Z</time></trkpt>
<trkpt lat="46.060879" lon="10.019529">
<ele>2424</ele>
<time>2022-01-08T04:53:06Z</time></trkpt>
<trkpt lat="46.060843" lon="10.019691">
<ele>2424</ele>
<time>2022-01-08T04:53:11Z</time></trkpt>
<trkpt lat="46.060816" lon="10.01975">
<ele>2424</ele>
<time>2022-01-08T04:53:13Z</time></trkpt>
<trkpt lat="46.060821" lon="10.020016">
<ele>2424</ele>
<time>2022-01-08T04:53:20Z</time></trkpt>
<trkpt lat="46.060807" lon="10.020046">
<ele>2424</ele>
<time>2022-01-08T04:53:21Z</time></trkpt>
<trkpt lat="46.060758" lon="10.019985">
<ele>2424</ele>
<time>2022-01-08T04:53:24Z</time></trkpt>
<trkpt lat="46.060789" lon="10.020232">
<ele>2424</ele>
<time>2022-01-08T04:53:31Z</time></trkpt>
<trkpt lat="46.060766" lon="10.020447">
<ele>2424</ele>
<time>2022-01-08T04:53:37Z</time></trkpt>
<trkpt lat="46.060768" lon="10.020592">
<ele>2424</ele>
<time>2022-01-08T04:53:41Z</time></trkpt>
<trkpt lat="46.06073" lon="10.020779">
<ele>2424</ele>
<time>2022-01-08T04:53:46Z</time></trkpt>
<trkpt lat="46.060734" lon="10.020814">
<ele>2424</ele>
<time>2022-01-08T04:53:47Z</time></trkpt>
<trkpt lat="46.060806" lon="10.020889">
<ele>2424</ele>
<time>2022-01-08T04:53:51Z</time></trkpt>
<trkpt lat="46.060913" lon="10.02095">
<ele>2424</ele>
<time>2022-01-08T04:53:56Z</time></trkpt>
<trkpt lat="46.060976" lon="10.020978">
<ele>2424</ele>
<time>2022-01-08T04:53:58Z</time></trkpt>
<trkpt lat="46.061058" lon="10.020978">
<ele>2424</ele>
<time>2022-01-08T04:54:02Z</time></trkpt>
<trkpt lat="46.061135" lon="10.021035">
<ele>2424</ele>
<time>2022-01-08T04:54:05Z</time></trkpt>
<trkpt lat="46.061254" lon="10.021307">
<ele>2424</ele>
<time>2022-01-08T04:54:14Z</time></trkpt>
<trkpt lat="46.061508" lon="10.021564">
<ele>2424</ele>
<time>2022-01-08T04:54:26Z</time></trkpt>
<trkpt lat="46.061565" lon="10.021676">
<ele>2424</ele>
<time>2022-01-08T04:54:30Z</time></trkpt>
<trkpt lat="46.061607" lon="10.021818">
<ele>2424</ele>
<time>2022-01-08T04:54:35Z</time></trkpt>
<trkpt lat="46.061651" lon="10.021995">
<ele>2424</ele>
<time>2022-01-08T04:54:40Z</time></trkpt>
<trkpt lat="46.061683" lon="10.022212">
<ele>2424</ele>
<time>2022-01-08T04:54:46Z</time></trkpt>
<trkpt lat="46.06182" lon="10.022498">
<ele>2424</ele>
<time>2022-01-08T04:54:56Z</time></trkpt>
<trkpt lat="46.061939" lon="10.022531">
<ele>2424</ele>
<time>2022-01-08T04:55:00Z</time></trkpt>
<trkpt lat="46.061969" lon="10.022828">
<ele>2424</ele>
<time>2022-01-08T04:55:09Z</time></trkpt>
<trkpt lat="46.061969" lon="10.022828">
<ele>2424</ele>
<time>2022-01-08T04:55:09Z</time></trkpt>
<trkpt lat="46.061974" lon="10.022883">
<ele>2424</ele>
<time>2022-01-08T04:55:10Z</time></trkpt>
<trkpt lat="46.062035" lon="10.023008">
<ele>2424</ele>
<time>2022-01-08T04:55:15Z</time></trkpt>
<trkpt lat="46.062031" lon="10.023136">
<ele>2424</ele>
<time>2022-01-08T04:55:18Z</time></trkpt>
<trkpt lat="46.062074" lon="10.023283">
<ele>2424</ele>
<time>2022-01-08T04:55:23Z</time></trkpt>
<trkpt lat="46.062191" lon="10.023415">
<ele>2424</ele>
<time>2022-01-08T04:55:29Z</time></trkpt>
<trkpt lat="46.062477" lon="10.023879">
<ele>2424</ele>
<time>2022-01-08T04:55:46Z</time></trkpt>
<trkpt lat="46.062698" lon="10.024033">
<ele>2424</ele>
<time>2022-01-08T04:55:56Z</time></trkpt>
<trkpt lat="46.062725" lon="10.0241">
<ele>2424</ele>
<time>2022-01-08T04:55:58Z</time></trkpt>
<trkpt lat="46.06274" lon="10.02426">
<ele>2424</ele>
<time>2022-01-08T04:56:02Z</time></trkpt>
<trkpt lat="46.062801" lon="10.024348">
<ele>2424</ele>
<time>2022-01-08T04:56:06Z</time></trkpt>
<trkpt lat="46.062812" lon="10.024425">
<ele>2424</ele>
<time>2022-01-08T04:56:08Z</time></trkpt>
<trkpt lat="46.062941" lon="10.024612">
<ele>2424</ele>
<time>2022-01-08T04:56:15Z</time></trkpt>
<trkpt lat="46.062952" lon="10.024645">
<ele>2424</ele>
<time>2022-01-08T04:56:16Z</time></trkpt>
<trkpt lat="46.062939" lon="10.024744">
<ele>2424</ele>
<time>2022-01-08T04:56:19Z</time></trkpt>
<trkpt lat="46.063007" lon="10.024893">
<ele>2424</ele>
<time>2022-01-08T04:56:24Z</time></trkpt>
<trkpt lat="46.063075" lon="10.024937">
<ele>2424</ele>
<time>2022-01-08T04:56:27Z</time></trkpt>
<trkpt lat="46.06311" lon="10.025118">
<ele>2424</ele>
<time>2022-01-08T04:56:32Z</time></trkpt>
<trkpt lat="46.063316" lon="10.025371">
<ele>2424</ele>
<time>2022-01-08T04:56:43Z</time></trkpt>
<trkpt lat="46.063419" lon="10.025372">
<ele>2424</ele>
<time>2022-01-08T04:56:47Z</time></trkpt>
<trkpt lat="46.063572" lon="10.025501">
<ele>2424</ele>
<time>2022-01-08T04:56:54Z</time></trkpt>
<trkpt lat="46.063698" lon="10.025769">
<ele>2424</ele>
<time>2022-01-08T04:57:03Z</time></trkpt>
<trkpt lat="46.063709" lon="10.025829">
<ele>2424</ele>
<time>2022-01-08T04:57:05Z</time></trkpt>
<trkpt lat="46.063786" lon="10.025964">
<ele>2339</ele>
<time>2022-01-08T04:57:10Z</time></trkpt>
<trkpt lat="46.063946" lon="10.025915">
<ele>2339</ele>
<time>2022-01-08T04:57:16Z</time></trkpt>
<trkpt lat="46.063999" lon="10.025927">
<ele>2339</ele>
<time>2022-01-08T04:57:19Z</time></trkpt>
<trkpt lat="46.064026" lon="10.025865">
<ele>2339</ele>
<time>2022-01-08T04:57:21Z</time></trkpt>
<trkpt lat="46.064217" lon="10.025744">
<ele>2339</ele>
<time>2022-01-08T04:57:29Z</time></trkpt>
<trkpt lat="46.064365" lon="10.025735">
<ele>2333</ele>
<time>2022-01-08T04:57:35Z</time></trkpt>
<trkpt lat="46.064358" lon="10.025826">
<ele>2331</ele>
<time>2022-01-08T04:57:37Z</time></trkpt>
<trkpt lat="46.064281" lon="10.025932">
<ele>2327</ele>
<time>2022-01-08T04:57:42Z</time></trkpt>
<trkpt lat="46.064274" lon="10.026035">
<ele>2320</ele>
<time>2022-01-08T04:57:45Z</time></trkpt>
<trkpt lat="46.064217" lon="10.026122">
<ele>2316</ele>
<time>2022-01-08T04:57:48Z</time></trkpt>
<trkpt lat="46.064194" lon="10.026204">
<ele>2311</ele>
<time>2022-01-08T04:57:50Z</time></trkpt>
<trkpt lat="46.064117" lon="10.026303">
<ele>2278</ele>
<time>2022-01-08T04:57:55Z</time></trkpt>
<trkpt lat="46.064129" lon="10.026339">
<ele>2278</ele>
<time>2022-01-08T04:57:56Z</time></trkpt>
<trkpt lat="46.064102" lon="10.026367">
<ele>2278</ele>
<time>2022-01-08T04:57:57Z</time></trkpt>
<trkpt lat="46.06406" lon="10.026514">
<ele>2278</ele>
<time>2022-01-08T04:58:01Z</time></trkpt>
<trkpt lat="46.064313" lon="10.026495">
<ele>2285</ele>
<time>2022-01-08T04:58:12Z</time></trkpt>
<trkpt lat="46.064243" lon="10.026608">
<ele>2280</ele>
<time>2022-01-08T04:58:16Z</time></trkpt>
<trkpt lat="46.06427" lon="10.026621">
<ele>2278</ele>
<time>2022-01-08T04:58:17Z</time></trkpt>
<trkpt lat="46.064384" lon="10.026586">
<ele>2276</ele>
<time>2022-01-08T04:58:22Z</time></trkpt>
<trkpt lat="46.064442" lon="10.026617">
<ele>2272</ele>
<time>2022-01-08T04:58:24Z</time></trkpt>
<trkpt lat="46.064335" lon="10.026796">
<ele>2264</ele>
<time>2022-01-08T04:58:31Z</time></trkpt>
<trkpt lat="46.064281" lon="10.027">
<ele>2252</ele>
<time>2022-01-08T04:58:37Z</time></trkpt>
<trkpt lat="46.064285" lon="10.027031">
<ele>2249</ele>
<time>2022-01-08T04:58:38Z</time></trkpt>
<trkpt lat="46.064243" lon="10.02707">
<ele>2248</ele>
<time>2022-01-08T04:58:40Z</time></trkpt>
<trkpt lat="46.064198" lon="10.02707">
<ele>2248</ele>
<time>2022-01-08T04:58:41Z</time></trkpt>
<trkpt lat="46.064095" lon="10.027265">
<ele>2233</ele>
<time>2022-01-08T04:58:48Z</time></trkpt>
<trkpt lat="46.064087" lon="10.027313">
<ele>2230</ele>
<time>2022-01-08T04:58:50Z</time></trkpt>
<trkpt lat="46.064102" lon="10.027428">
<ele>2222</ele>
<time>2022-01-08T04:58:53Z</time></trkpt>
<trkpt lat="46.064072" lon="10.02751">
<ele>2216</ele>
<time>2022-01-08T04:58:55Z</time></trkpt>
<trkpt lat="46.063919" lon="10.027744">
<ele>2204</ele>
<time>2022-01-08T04:59:04Z</time></trkpt>
<trkpt lat="46.063805" lon="10.027848">
<ele>2198</ele>
<time>2022-01-08T04:59:10Z</time></trkpt>
<trkpt lat="46.063801" lon="10.027876">
<ele>2197</ele>
<time>2022-01-08T04:59:11Z</time></trkpt>
<trkpt lat="46.063999" lon="10.028012">
<ele>2197</ele>
<time>2022-01-08T04:59:19Z</time></trkpt>
<trkpt lat="46.064053" lon="10.028076">
<ele>2197</ele>
<time>2022-01-08T04:59:22Z</time></trkpt>
<trkpt lat="46.064034" lon="10.028162">
<ele>2193</ele>
<time>2022-01-08T04:59:25Z</time></trkpt>
<trkpt lat="46.063938" lon="10.02834">
<ele>2184</ele>
<time>2022-01-08T04:59:31Z</time></trkpt>
<trkpt lat="46.063892" lon="10.028369">
<ele>2181</ele>
<time>2022-01-08T04:59:33Z</time></trkpt>
<trkpt lat="46.063969" lon="10.028488">
<ele>2178</ele>
<time>2022-01-08T04:59:37Z</time></trkpt>
<trkpt lat="46.06403" lon="10.028502">
<ele>2179</ele>
<time>2022-01-08T04:59:40Z</time></trkpt>
<trkpt lat="46.064037" lon="10.028543">
<ele>2178</ele>
<time>2022-01-08T04:59:41Z</time></trkpt>
<trkpt lat="46.064236" lon="10.028506">
<ele>2183</ele>
<time>2022-01-08T04:59:49Z</time></trkpt>
<trkpt lat="46.064198" lon="10.028687">
<ele>2175</ele>
<time>2022-01-08T04:59:54Z</time></trkpt>
<trkpt lat="46.064125" lon="10.02885">
<ele>2166</ele>
<time>2022-01-08T05:00:00Z</time></trkpt>
<trkpt lat="46.06406" lon="10.028937">
<ele>2160</ele>
<time>2022-01-08T05:00:03Z</time></trkpt>
<trkpt lat="46.064091" lon="10.02894">
<ele>2161</ele>
<time>2022-01-08T05:00:05Z</time></trkpt>
<trkpt lat="46.064095" lon="10.02896">
<ele>2160</ele>
<time>2022-01-08T05:00:05Z</time></trkpt>
<trkpt lat="46.064034" lon="10.029051">
<ele>2154</ele>
<time>2022-01-08T05:00:09Z</time></trkpt>
<trkpt lat="46.063992" lon="10.029073">
<ele>2151</ele>
<time>2022-01-08T05:00:11Z</time></trkpt>
<trkpt lat="46.064011" lon="10.029099">
<ele>2151</ele>
<time>2022-01-08T05:00:12Z</time></trkpt>
<trkpt lat="46.063995" lon="10.029112">
<ele>2149</ele>
<time>2022-01-08T05:00:12Z</time></trkpt>
<trkpt lat="46.063976" lon="10.029195">
<ele>2145</ele>
<time>2022-01-08T05:00:15Z</time></trkpt>
<trkpt lat="46.064014" lon="10.029227">
<ele>2144</ele>
<time>2022-01-08T05:00:16Z</time></trkpt>
<trkpt lat="46.064007" lon="10.029267">
<ele>2142</ele>
<time>2022-01-08T05:00:18Z</time></trkpt>
<trkpt lat="46.06398" lon="10.029286">
<ele>2140</ele>
<time>2022-01-08T05:00:19Z</time></trkpt>
<trkpt lat="46.063957" lon="10.029387">
<ele>2134</ele>
<time>2022-01-08T05:00:22Z</time></trkpt>
<trkpt lat="46.063892" lon="10.029471">
<ele>2128</ele>
<time>2022-01-08T05:00:25Z</time></trkpt>
<trkpt lat="46.063885" lon="10.029524">
<ele>2125</ele>
<time>2022-01-08T05:00:27Z</time></trkpt>
<trkpt lat="46.0639" lon="10.029526">
<ele>2125</ele>
<time>2022-01-08T05:00:27Z</time></trkpt>
<trkpt lat="46.063889" lon="10.029592">
<ele>2122</ele>
<time>2022-01-08T05:00:29Z</time></trkpt>
<trkpt lat="46.063713" lon="10.029883">
<ele>2101</ele>
<time>2022-01-08T05:00:40Z</time></trkpt>
<trkpt lat="46.063766" lon="10.02992">
<ele>2101</ele>
<time>2022-01-08T05:00:42Z</time></trkpt>
<trkpt lat="46.063877" lon="10.029926">
<ele>2104</ele>
<time>2022-01-08T05:00:47Z</time></trkpt>
<trkpt lat="46.063889" lon="10.029968">
<ele>2103</ele>
<time>2022-01-08T05:00:48Z</time></trkpt>
<trkpt lat="46.063835" lon="10.030113">
<ele>2095</ele>
<time>2022-01-08T05:00:53Z</time></trkpt>
<trkpt lat="46.06374" lon="10.030261">
<ele>2085</ele>
<time>2022-01-08T05:00:58Z</time></trkpt>
<trkpt lat="46.063728" lon="10.030331">
<ele>2082</ele>
<time>2022-01-08T05:01:00Z</time></trkpt>
<trkpt lat="46.063763" lon="10.030344">
<ele>2083</ele>
<time>2022-01-08T05:01:02Z</time></trkpt>
<trkpt lat="46.063828" lon="10.030328">
<ele>2085</ele>
<time>2022-01-08T05:01:04Z</time></trkpt>
<trkpt lat="46.063877" lon="10.030363">
<ele>2085</ele>
<time>2022-01-08T05:01:07Z</time></trkpt>
<trkpt lat="46.063953" lon="10.030339">
<ele>2089</ele>
<time>2022-01-08T05:01:10Z</time></trkpt>
<trkpt lat="46.06398" lon="10.030415">
<ele>2086</ele>
<time>2022-01-08T05:01:12Z</time></trkpt>
<trkpt lat="46.063961" lon="10.030477">
<ele>2083</ele>
<time>2022-01-08T05:01:14Z</time></trkpt>
<trkpt lat="46.063957" lon="10.030685">
<ele>2074</ele>
<time>2022-01-08T05:01:20Z</time></trkpt>
<trkpt lat="46.063889" lon="10.03079">
<ele>2068</ele>
<time>2022-01-08T05:01:24Z</time></trkpt>
<trkpt lat="46.064046" lon="10.030861">
<ele>2069</ele>
<time>2022-01-08T05:01:30Z</time></trkpt>
<trkpt lat="46.063778" lon="10.031056">
<ele>2055</ele>
<time>2022-01-08T05:01:42Z</time></trkpt>
<trkpt lat="46.063705" lon="10.031079">
<ele>2053</ele>
<time>2022-01-08T05:01:45Z</time></trkpt>
<trkpt lat="46.06361" lon="10.031187">
<ele>2048</ele>
<time>2022-01-08T05:01:50Z</time></trkpt>
<trkpt lat="46.063366" lon="10.031308">
<ele>2042</ele>
<time>2022-01-08T05:02:01Z</time></trkpt>
<trkpt lat="46.063358" lon="10.03135">
<ele>2041</ele>
<time>2022-01-08T05:02:02Z</time></trkpt>
<trkpt lat="46.063313" lon="10.031393">
<ele>2035</ele>
<time>2022-01-08T05:02:04Z</time></trkpt>
<trkpt lat="46.063293" lon="10.031503">
<ele>2035</ele>
<time>2022-01-08T05:02:07Z</time></trkpt>
<trkpt lat="46.063229" lon="10.031637">
<ele>2035</ele>
<time>2022-01-08T05:02:12Z</time></trkpt>
<trkpt lat="46.063319" lon="10.031645">
<ele>2035</ele>
<time>2022-01-08T05:02:15Z</time></trkpt>
<trkpt lat="46.063254" lon="10.031738">
<ele>2035</ele>
<time>2022-01-08T05:02:19Z</time></trkpt>
<trkpt lat="46.063254" lon="10.031738">
<ele>2035</ele>
<time>2022-01-08T05:02:19Z</time></trkpt>
<trkpt lat="46.063168" lon="10.031862">
<ele>2035</ele>
<time>2022-01-08T05:02:24Z</time></trkpt>
<trkpt lat="46.063213" lon="10.031862">
<ele>2035</ele>
<time>2022-01-08T05:02:26Z</time></trkpt>
<trkpt lat="46.063236" lon="10.031886">
<ele>2035</ele>
<time>2022-01-08T05:02:27Z</time></trkpt>
<trkpt lat="46.063106" lon="10.032003">
<ele>2035</ele>
<time>2022-01-08T05:02:33Z</time></trkpt>
<trkpt lat="46.063108" lon="10.032104">
<ele>2009</ele>
<time>2022-01-08T05:02:36Z</time></trkpt>
<trkpt lat="46.063065" lon="10.032135">
<ele>2009</ele>
<time>2022-01-08T05:02:38Z</time></trkpt>
<trkpt lat="46.063022" lon="10.032196">
<ele>2009</ele>
<time>2022-01-08T05:02:40Z</time></trkpt>
<trkpt lat="46.063012" lon="10.032251">
<ele>2009</ele>
<time>2022-01-08T05:02:42Z</time></trkpt>
<trkpt lat="46.06297" lon="10.032287">
<ele>2009</ele>
<time>2022-01-08T05:02:44Z</time></trkpt>
<trkpt lat="46.062958" lon="10.032338">
<ele>2009</ele>
<time>2022-01-08T05:02:45Z</time></trkpt>
<trkpt lat="46.062963" lon="10.032492">
<ele>2009</ele>
<time>2022-01-08T05:02:49Z</time></trkpt>
<trkpt lat="46.063015" lon="10.032581">
<ele>2009</ele>
<time>2022-01-08T05:02:53Z</time></trkpt>
<trkpt lat="46.063" lon="10.032672">
<ele>2009</ele>
<time>2022-01-08T05:02:55Z</time></trkpt>
<trkpt lat="46.063034" lon="10.032701">
<ele>2009</ele>
<time>2022-01-08T05:02:57Z</time></trkpt>
<trkpt lat="46.063217" lon="10.032723">
<ele>2009</ele>
<time>2022-01-08T05:03:04Z</time></trkpt>
<trkpt lat="46.063354" lon="10.032713">
<ele>2009</ele>
<time>2022-01-08T05:03:10Z</time></trkpt>
<trkpt lat="46.063771" lon="10.032896">
<ele>1990</ele>
<time>2022-01-08T05:03:27Z</time></trkpt>
<trkpt lat="46.063928" lon="10.033021">
<ele>1942</ele>
<time>2022-01-08T05:03:34Z</time></trkpt>
<trkpt lat="46.063896" lon="10.033164">
<ele>1942</ele>
<time>2022-01-08T05:03:38Z</time></trkpt>
<trkpt lat="46.063939" lon="10.033166">
<ele>1942</ele>
<time>2022-01-08T05:03:40Z</time></trkpt>
<trkpt lat="46.063915" lon="10.033207">
<ele>1942</ele>
<time>2022-01-08T05:03:42Z</time></trkpt>
<trkpt lat="46.063982" lon="10.033263">
<ele>1942</ele>
<time>2022-01-08T05:03:45Z</time></trkpt>
<trkpt lat="46.064073" lon="10.0333">
<ele>1942</ele>
<time>2022-01-08T05:03:49Z</time></trkpt>
<trkpt lat="46.064009" lon="10.033429">
<ele>1942</ele>
<time>2022-01-08T05:03:53Z</time></trkpt>
<trkpt lat="46.064003" lon="10.033503">
<ele>1942</ele>
<time>2022-01-08T05:03:55Z</time></trkpt>
<trkpt lat="46.06416" lon="10.033562">
<ele>1942</ele>
<time>2022-01-08T05:04:02Z</time></trkpt>
<trkpt lat="46.06419" lon="10.03354">
<ele>1934</ele>
<time>2022-01-08T05:04:03Z</time></trkpt>
<trkpt lat="46.064212" lon="10.033584">
<ele>1932</ele>
<time>2022-01-08T05:04:04Z</time></trkpt>
<trkpt lat="46.064326" lon="10.033658">
<ele>1927</ele>
<time>2022-01-08T05:04:09Z</time></trkpt>
<trkpt lat="46.064379" lon="10.033732">
<ele>1923</ele>
<time>2022-01-08T05:04:12Z</time></trkpt>
<trkpt lat="46.064339" lon="10.033774">
<ele>1922</ele>
<time>2022-01-08T05:04:14Z</time></trkpt>
<trkpt lat="46.064289" lon="10.033914">
<ele>1919</ele>
<time>2022-01-08T05:04:19Z</time></trkpt>
<trkpt lat="46.064217" lon="10.034034">
<ele>1916</ele>
<time>2022-01-08T05:04:23Z</time></trkpt>
<trkpt lat="46.064198" lon="10.034159">
<ele>1912</ele>
<time>2022-01-08T05:04:27Z</time></trkpt>
<trkpt lat="46.064156" lon="10.034244">
<ele>1913</ele>
<time>2022-01-08T05:04:30Z</time></trkpt>
<trkpt lat="46.064172" lon="10.034292">
<ele>1907</ele>
<time>2022-01-08T05:04:31Z</time></trkpt>
<trkpt lat="46.064456" lon="10.034473">
<ele>1891</ele>
<time>2022-01-08T05:04:43Z</time></trkpt>
<trkpt lat="46.064459" lon="10.034512">
<ele>1889</ele>
<time>2022-01-08T05:04:45Z</time></trkpt>
<trkpt lat="46.064373" lon="10.034709">
<ele>1882</ele>
<time>2022-01-08T05:04:51Z</time></trkpt>
<trkpt lat="46.064382" lon="10.034734">
<ele>1880</ele>
<time>2022-01-08T05:04:52Z</time></trkpt>
<trkpt lat="46.064455" lon="10.034752">
<ele>1878</ele>
<time>2022-01-08T05:04:55Z</time></trkpt>
<trkpt lat="46.064365" lon="10.03489">
<ele>1873</ele>
<time>2022-01-08T05:05:00Z</time></trkpt>
<trkpt lat="46.064441" lon="10.03493">
<ele>1870</ele>
<time>2022-01-08T05:05:03Z</time></trkpt>
<trkpt lat="46.064455" lon="10.03499">
<ele>1867</ele>
<time>2022-01-08T05:05:05Z</time></trkpt>
<trkpt lat="46.064512" lon="10.034981">
<ele>1866</ele>
<time>2022-01-08T05:05:07Z</time></trkpt>
<trkpt lat="46.064567" lon="10.035007">
<ele>1864</ele>
<time>2022-01-08T05:05:10Z</time></trkpt>
<trkpt lat="46.064626" lon="10.034992">
<ele>1863</ele>
<time>2022-01-08T05:05:12Z</time></trkpt>
<trkpt lat="46.06464" lon="10.035019">
<ele>1862</ele>
<time>2022-01-08T05:05:13Z</time></trkpt>
<trkpt lat="46.064599" lon="10.03515">
<ele>1857</ele>
<time>2022-01-08T05:05:17Z</time></trkpt>
<trkpt lat="46.064676" lon="10.035187">
<ele>1854</ele>
<time>2022-01-08T05:05:20Z</time></trkpt>
<trkpt lat="46.064529" lon="10.035526">
<ele>1844</ele>
<time>2022-01-08T05:05:31Z</time></trkpt>
<trkpt lat="46.064625" lon="10.035547">
<ele>1841</ele>
<time>2022-01-08T05:05:35Z</time></trkpt>
<trkpt lat="46.064747" lon="10.035531">
<ele>1840</ele>
<time>2022-01-08T05:05:40Z</time></trkpt>
<trkpt lat="46.064888" lon="10.035565">
<ele>1835</ele>
<time>2022-01-08T05:05:46Z</time></trkpt>
<trkpt lat="46.065113" lon="10.035546">
<ele>1833</ele>
<time>2022-01-08T05:05:55Z</time></trkpt>
<trkpt lat="46.065182" lon="10.035501">
<ele>1834</ele>
<time>2022-01-08T05:05:58Z</time></trkpt>
<trkpt lat="46.065535" lon="10.035422">
<ele>1831</ele>
<time>2022-01-08T05:06:12Z</time></trkpt>
<trkpt lat="46.065472" lon="10.035829">
<ele>1822</ele>
<time>2022-01-08T05:06:24Z</time></trkpt>
<trkpt lat="46.065446" lon="10.035922">
<ele>1820</ele>
<time>2022-01-08T05:06:27Z</time></trkpt>
<trkpt lat="46.065483" lon="10.036027">
<ele>1819</ele>
<time>2022-01-08T05:06:30Z</time></trkpt>
<trkpt lat="46.065575" lon="10.036096">
<ele>1817</ele>
<time>2022-01-08T05:06:34Z</time></trkpt>
<trkpt lat="46.065632" lon="10.036073">
<ele>1818</ele>
<time>2022-01-08T05:06:36Z</time></trkpt>
<trkpt lat="46.065685" lon="10.036131">
<ele>1817</ele>
<time>2022-01-08T05:06:39Z</time></trkpt>
<trkpt lat="46.065866" lon="10.03623">
<ele>1817</ele>
<time>2022-01-08T05:06:47Z</time></trkpt>
<trkpt lat="46.065871" lon="10.036305">
<ele>1817</ele>
<time>2022-01-08T05:06:49Z</time></trkpt>
<trkpt lat="46.065824" lon="10.036345">
<ele>1814</ele>
<time>2022-01-08T05:06:51Z</time></trkpt>
<trkpt lat="46.065739" lon="10.036343">
<ele>1814</ele>
<time>2022-01-08T05:06:55Z</time></trkpt>
<trkpt lat="46.065694" lon="10.036426">
<ele>1813</ele>
<time>2022-01-08T05:06:58Z</time></trkpt>
<trkpt lat="46.06562" lon="10.036787">
<ele>1807</ele>
<time>2022-01-08T05:07:08Z</time></trkpt>
<trkpt lat="46.065601" lon="10.036974">
<ele>1806</ele>
<time>2022-01-08T05:07:13Z</time></trkpt>
<trkpt lat="46.065701" lon="10.03758">
<ele>1802</ele>
<time>2022-01-08T05:07:31Z</time></trkpt>
<trkpt lat="46.065804" lon="10.037677">
<ele>1803</ele>
<time>2022-01-08T05:07:36Z</time></trkpt>
<trkpt lat="46.065853" lon="10.037914">
<ele>1803</ele>
<time>2022-01-08T05:07:42Z</time></trkpt>
<trkpt lat="46.065929" lon="10.038139">
<ele>1806</ele>
<time>2022-01-08T05:07:49Z</time></trkpt>
<trkpt lat="46.06591" lon="10.038377">
<ele>1805</ele>
<time>2022-01-08T05:07:56Z</time></trkpt>
<trkpt lat="46.065937" lon="10.038589">
<ele>1806</ele>
<time>2022-01-08T05:08:02Z</time></trkpt>
<trkpt lat="46.065926" lon="10.038673">
<ele>1805</ele>
<time>2022-01-08T05:08:04Z</time></trkpt>
<trkpt lat="46.065987" lon="10.039099">
<ele>1806</ele>
<time>2022-01-08T05:08:16Z</time></trkpt>
<trkpt lat="46.065987" lon="10.039099">
<ele>1806</ele>
<time>2022-01-08T05:08:16Z</time></trkpt>
<trkpt lat="46.066174" lon="10.039823">
<ele>1813</ele>
<time>2022-01-08T05:08:38Z</time></trkpt>
<trkpt lat="46.066174" lon="10.039999">
<ele>1812</ele>
<time>2022-01-08T05:08:43Z</time></trkpt>
<trkpt lat="46.066212" lon="10.040167">
<ele>1814</ele>
<time>2022-01-08T05:08:48Z</time></trkpt>
<trkpt lat="46.066223" lon="10.040314">
<ele>1815</ele>
<time>2022-01-08T05:08:52Z</time></trkpt>
<trkpt lat="46.066147" lon="10.040552">
<ele>1812</ele>
<time>2022-01-08T05:08:59Z</time></trkpt>
<trkpt lat="46.066124" lon="10.040695">
<ele>1812</ele>
<time>2022-01-08T05:09:03Z</time></trkpt>
<trkpt lat="46.066071" lon="10.040834">
<ele>1810</ele>
<time>2022-01-08T05:09:08Z</time></trkpt>
<trkpt lat="46.066041" lon="10.041078">
<ele>1811</ele>
<time>2022-01-08T05:09:15Z</time></trkpt>
<trkpt lat="46.065971" lon="10.041275">
<ele>1810</ele>
<time>2022-01-08T05:09:21Z</time></trkpt>
<trkpt lat="46.065937" lon="10.041327">
<ele>1810</ele>
<time>2022-01-08T05:09:23Z</time></trkpt>
<trkpt lat="46.065791" lon="10.041432">
<ele>1809</ele>
<time>2022-01-08T05:09:29Z</time></trkpt>
<trkpt lat="46.065594" lon="10.041416">
<ele>1817</ele>
<time>2022-01-08T05:09:37Z</time></trkpt>
<trkpt lat="46.065522" lon="10.041322">
<ele>1817</ele>
<time>2022-01-08T05:09:41Z</time></trkpt>
<trkpt lat="46.065479" lon="10.041468">
<ele>1822</ele>
<time>2022-01-08T05:09:45Z</time></trkpt>
<trkpt lat="46.06548" lon="10.041566">
<ele>1825</ele>
<time>2022-01-08T05:09:48Z</time></trkpt>
<trkpt lat="46.065277" lon="10.041357">
<ele>1827</ele>
<time>2022-01-08T05:09:58Z</time></trkpt>
<trkpt lat="46.065178" lon="10.041338">
<ele>1830</ele>
<time>2022-01-08T05:10:02Z</time></trkpt>
<trkpt lat="46.06508" lon="10.04138">
<ele>1835</ele>
<time>2022-01-08T05:10:06Z</time></trkpt>
<trkpt lat="46.064986" lon="10.041336">
<ele>1836</ele>
<time>2022-01-08T05:10:10Z</time></trkpt>
<trkpt lat="46.064895" lon="10.041323">
<ele>1838</ele>
<time>2022-01-08T05:10:14Z</time></trkpt>
<trkpt lat="46.064909" lon="10.04143">
<ele>1842</ele>
<time>2022-01-08T05:10:17Z</time></trkpt>
<trkpt lat="46.06484" lon="10.041447">
<ele>1845</ele>
<time>2022-01-08T05:10:20Z</time></trkpt>
<trkpt lat="46.064766" lon="10.04155">
<ele>1852</ele>
<time>2022-01-08T05:10:24Z</time></trkpt>
<trkpt lat="46.064833" lon="10.041575">
<ele>1851</ele>
<time>2022-01-08T05:10:27Z</time></trkpt>
<trkpt lat="46.064815" lon="10.041716">
<ele>1856</ele>
<time>2022-01-08T05:10:31Z</time></trkpt>
<trkpt lat="46.064882" lon="10.041777">
<ele>1855</ele>
<time>2022-01-08T05:10:34Z</time></trkpt>
<trkpt lat="46.06502" lon="10.04211">
<ele>1853</ele>
<time>2022-01-08T05:10:45Z</time></trkpt>
<trkpt lat="46.064893" lon="10.042037">
<ele>1858</ele>
<time>2022-01-08T05:10:50Z</time></trkpt>
<trkpt lat="46.064898" lon="10.042117">
<ele>1858</ele>
<time>2022-01-08T05:10:52Z</time></trkpt>
<trkpt lat="46.06496" lon="10.042321">
<ele>1857</ele>
<time>2022-01-08T05:10:58Z</time></trkpt>
<trkpt lat="46.064877" lon="10.042617">
<ele>1862</ele>
<time>2022-01-08T05:11:07Z</time></trkpt>
<trkpt lat="46.064877" lon="10.042702">
<ele>1861</ele>
<time>2022-01-08T05:11:10Z</time></trkpt>
<trkpt lat="46.064831" lon="10.042821">
<ele>1862</ele>
<time>2022-01-08T05:11:13Z</time></trkpt>
<trkpt lat="46.064835" lon="10.042904">
<ele>1861</ele>
<time>2022-01-08T05:11:16Z</time></trkpt>
<trkpt lat="46.064732" lon="10.04306">
<ele>1866</ele>
<time>2022-01-08T05:11:22Z</time></trkpt>
<trkpt lat="46.064713" lon="10.043318">
<ele>1866</ele>
<time>2022-01-08T05:11:29Z</time></trkpt>
<trkpt lat="46.06464" lon="10.043499">
<ele>1868</ele>
<time>2022-01-08T05:11:35Z</time></trkpt>
<trkpt lat="46.064552" lon="10.043654">
<ele>1871</ele>
<time>2022-01-08T05:11:40Z</time></trkpt>
<trkpt lat="46.064495" lon="10.04371">
<ele>1874</ele>
<time>2022-01-08T05:11:43Z</time></trkpt>
<trkpt lat="46.064384" lon="10.043871">
<ele>1877</ele>
<time>2022-01-08T05:11:49Z</time></trkpt>
<trkpt lat="46.064316" lon="10.044064">
<ele>1875</ele>
<time>2022-01-08T05:11:55Z</time></trkpt>
<trkpt lat="46.06403" lon="10.044344">
<ele>1883</ele>
<time>2022-01-08T05:12:09Z</time></trkpt>
<trkpt lat="46.063928" lon="10.044568">
<ele>1883</ele>
<time>2022-01-08T05:12:17Z</time></trkpt>
<trkpt lat="46.063928" lon="10.044568">
<ele>1883</ele>
<time>2022-01-08T05:12:17Z</time></trkpt>
<trkpt lat="46.0639" lon="10.044631">
<ele>1882</ele>
<time>2022-01-08T05:12:19Z</time></trkpt>
<trkpt lat="46.063797" lon="10.044758">
<ele>1885</ele>
<time>2022-01-08T05:12:24Z</time></trkpt>
<trkpt lat="46.063782" lon="10.044868">
<ele>1882</ele>
<time>2022-01-08T05:12:27Z</time></trkpt>
<trkpt lat="46.063713" lon="10.045095">
<ele>1880</ele>
<time>2022-01-08T05:12:34Z</time></trkpt>
<trkpt lat="46.063633" lon="10.045265">
<ele>1880</ele>
<time>2022-01-08T05:12:40Z</time></trkpt>
<trkpt lat="46.063469" lon="10.045451">
<ele>1883</ele>
<time>2022-01-08T05:12:48Z</time></trkpt>
<trkpt lat="46.063465" lon="10.045474">
<ele>1883</ele>
<time>2022-01-08T05:12:49Z</time></trkpt>
<trkpt lat="46.063374" lon="10.045548">
<ele>1885</ele>
<time>2022-01-08T05:12:53Z</time></trkpt>
<trkpt lat="46.063332" lon="10.045637">
<ele>1884</ele>
<time>2022-01-08T05:12:56Z</time></trkpt>
<trkpt lat="46.063278" lon="10.045959">
<ele>1875</ele>
<time>2022-01-08T05:13:05Z</time></trkpt>
<trkpt lat="46.063217" lon="10.046094">
<ele>1874</ele>
<time>2022-01-08T05:13:10Z</time></trkpt>
<trkpt lat="46.063168" lon="10.046167">
<ele>1874</ele>
<time>2022-01-08T05:13:13Z</time></trkpt>
<trkpt lat="46.063107" lon="10.046197">
<ele>1875</ele>
<time>2022-01-08T05:13:15Z</time></trkpt>
<trkpt lat="46.062957" lon="10.04651">
<ele>1873</ele>
<time>2022-01-08T05:13:26Z</time></trkpt>
<trkpt lat="46.062821" lon="10.046566">
<ele>1876</ele>
<time>2022-01-08T05:13:32Z</time></trkpt>
<trkpt lat="46.0629" lon="10.046665">
<ele>1872</ele>
<time>2022-01-08T05:13:36Z</time></trkpt>
<trkpt lat="46.06295" lon="10.046814">
<ele>1869</ele>
<time>2022-01-08T05:13:40Z</time></trkpt>
<trkpt lat="46.062908" lon="10.046858">
<ele>1870</ele>
<time>2022-01-08T05:13:42Z</time></trkpt>
<trkpt lat="46.062779" lon="10.047197">
<ele>1874</ele>
<time>2022-01-08T05:13:53Z</time></trkpt>
<trkpt lat="46.062745" lon="10.047362">
<ele>1875</ele>
<time>2022-01-08T05:13:58Z</time></trkpt>
<trkpt lat="46.062719" lon="10.047399">
<ele>1876</ele>
<time>2022-01-08T05:13:59Z</time></trkpt>
<trkpt lat="46.062699" lon="10.047535">
<ele>1876</ele>
<time>2022-01-08T05:14:03Z</time></trkpt>
<trkpt lat="46.062576" lon="10.047627">
<ele>1881</ele>
<time>2022-01-08T05:14:09Z</time></trkpt>
<trkpt lat="46.062517" lon="10.047711">
<ele>1882</ele>
<time>2022-01-08T05:14:12Z</time></trkpt>
<trkpt lat="46.062397" lon="10.048081">
<ele>1879</ele>
<time>2022-01-08T05:14:24Z</time></trkpt>
<trkpt lat="46.062397" lon="10.048081">
<ele>1879</ele>
<time>2022-01-08T05:14:24Z</time></trkpt>
<trkpt lat="46.062312" lon="10.048302">
<ele>1878</ele>
<time>2022-01-08T05:14:31Z</time></trkpt>
<trkpt lat="46.062269" lon="10.048349">
<ele>1879</ele>
<time>2022-01-08T05:14:33Z</time></trkpt>
<trkpt lat="46.062213" lon="10.048351">
<ele>1880</ele>
<time>2022-01-08T05:14:35Z</time></trkpt>
<trkpt lat="46.062109" lon="10.048283">
<ele>1885</ele>
<time>2022-01-08T05:14:40Z</time></trkpt>
<trkpt lat="46.06192" lon="10.048073">
<ele>1892</ele>
<time>2022-01-08T05:14:49Z</time></trkpt>
<trkpt lat="46.061739" lon="10.048018">
<ele>1896</ele>
<time>2022-01-08T05:14:57Z</time></trkpt>
<trkpt lat="46.061658" lon="10.047913">
<ele>1898</ele>
<time>2022-01-08T05:15:01Z</time></trkpt>
<trkpt lat="46.061506" lon="10.047759">
<ele>1898</ele>
<time>2022-01-08T05:15:08Z</time></trkpt>
<trkpt lat="46.061391" lon="10.04759">
<ele>1895</ele>
<time>2022-01-08T05:15:15Z</time></trkpt>
<trkpt lat="46.061121" lon="10.047362">
<ele>1886</ele>
<time>2022-01-08T05:15:27Z</time></trkpt>
<trkpt lat="46.061009" lon="10.047228">
<ele>1879</ele>
<time>2022-01-08T05:15:33Z</time></trkpt>
<trkpt lat="46.060926" lon="10.047162">
<ele>1875</ele>
<time>2022-01-08T05:15:37Z</time></trkpt>
<trkpt lat="46.060836" lon="10.047125">
<ele>1872</ele>
<time>2022-01-08T05:15:41Z</time></trkpt>
<trkpt lat="46.060727" lon="10.047126">
<ele>1870</ele>
<time>2022-01-08T05:15:45Z</time></trkpt>
<trkpt lat="46.060664" lon="10.047187">
<ele>1871</ele>
<time>2022-01-08T05:15:48Z</time></trkpt>
<trkpt lat="46.060542" lon="10.047364">
<ele>1876</ele>
<time>2022-01-08T05:15:55Z</time></trkpt>
<trkpt lat="46.060427" lon="10.04744">
<ele>1878</ele>
<time>2022-01-08T05:16:00Z</time></trkpt>
<trkpt lat="46.060297" lon="10.047472">
<ele>1877</ele>
<time>2022-01-08T05:16:06Z</time></trkpt>
<trkpt lat="46.060277" lon="10.047478">
<ele>1877</ele>
<time>2022-01-08T05:16:06Z</time></trkpt>
<trkpt lat="46.06025" lon="10.04754">
<ele>1879</ele>
<time>2022-01-08T05:16:08Z</time></trkpt>
<trkpt lat="46.060263" lon="10.047735">
<ele>1886</ele>
<time>2022-01-08T05:16:14Z</time></trkpt>
<trkpt lat="46.06025" lon="10.047798">
<ele>1888</ele>
<time>2022-01-08T05:16:16Z</time></trkpt>
<trkpt lat="46.060044" lon="10.048076">
<ele>1893</ele>
<time>2022-01-08T05:16:27Z</time></trkpt>
<trkpt lat="46.059995" lon="10.048115">
<ele>1893</ele>
<time>2022-01-08T05:16:29Z</time></trkpt>
<trkpt lat="46.059679" lon="10.048121">
<ele>1884</ele>
<time>2022-01-08T05:16:42Z</time></trkpt>
<trkpt lat="46.05948" lon="10.048039">
<ele>1875</ele>
<time>2022-01-08T05:16:50Z</time></trkpt>
<trkpt lat="46.059377" lon="10.048126">
<ele>1876</ele>
<time>2022-01-08T05:16:55Z</time></trkpt>
<trkpt lat="46.05932" lon="10.048126">
<ele>1874</ele>
<time>2022-01-08T05:16:57Z</time></trkpt>
<trkpt lat="46.059167" lon="10.048071">
<ele>1867</ele>
<time>2022-01-08T05:17:04Z</time></trkpt>
<trkpt lat="46.059033" lon="10.047995">
<ele>1851</ele>
<time>2022-01-08T05:17:09Z</time></trkpt>
<trkpt lat="46.05899" lon="10.047948">
<ele>1844</ele>
<time>2022-01-08T05:17:12Z</time></trkpt>
<trkpt lat="46.058824" lon="10.047977">
<ele>1831</ele>
<time>2022-01-08T05:17:18Z</time></trkpt>
<trkpt lat="46.058526" lon="10.048083">
<ele>1812</ele>
<time>2022-01-08T05:17:31Z</time></trkpt>
<trkpt lat="46.058476" lon="10.048123">
<ele>1812</ele>
<time>2022-01-08T05:17:33Z</time></trkpt>
<trkpt lat="46.058439" lon="10.048189">
<ele>1814</ele>
<time>2022-01-08T05:17:35Z</time></trkpt>
<trkpt lat="46.058411" lon="10.048287">
<ele>1821</ele>
<time>2022-01-08T05:17:38Z</time></trkpt>
<trkpt lat="46.058409" lon="10.048382">
<ele>1828</ele>
<time>2022-01-08T05:17:41Z</time></trkpt>
<trkpt lat="46.058365" lon="10.048477">
<ele>1831</ele>
<time>2022-01-08T05:17:44Z</time></trkpt>
<trkpt lat="46.058048" lon="10.048846">
<ele>1834</ele>
<time>2022-01-08T05:18:00Z</time></trkpt>
<trkpt lat="46.058048" lon="10.048846">
<ele>1834</ele>
<time>2022-01-08T05:18:00Z</time></trkpt>
<trkpt lat="46.057997" lon="10.048929">
<ele>1836</ele>
<time>2022-01-08T05:18:03Z</time></trkpt>
<trkpt lat="46.057876" lon="10.048956">
<ele>1830</ele>
<time>2022-01-08T05:18:08Z</time></trkpt>
<trkpt lat="46.05767" lon="10.049091">
<ele>1825</ele>
<time>2022-01-08T05:18:17Z</time></trkpt>
<trkpt lat="46.057494" lon="10.049512">
<ele>1840</ele>
<time>2022-01-08T05:18:31Z</time></trkpt>
<trkpt lat="46.057407" lon="10.049651">
<ele>1843</ele>
<time>2022-01-08T05:18:36Z</time></trkpt>
<trkpt lat="46.057399" lon="10.049707">
<ele>1846</ele>
<time>2022-01-08T05:18:38Z</time></trkpt>
<trkpt lat="46.057437" lon="10.049862">
<ele>1859</ele>
<time>2022-01-08T05:18:42Z</time></trkpt>
<trkpt lat="46.05742" lon="10.049945">
<ele>1863</ele>
<time>2022-01-08T05:18:45Z</time></trkpt>
<trkpt lat="46.057342" lon="10.049958">
<ele>1858</ele>
<time>2022-01-08T05:18:48Z</time></trkpt>
<trkpt lat="46.05719" lon="10.050059">
<ele>1852</ele>
<time>2022-01-08T05:18:55Z</time></trkpt>
<trkpt lat="46.057104" lon="10.050253">
<ele>1856</ele>
<time>2022-01-08T05:19:01Z</time></trkpt>
<trkpt lat="46.057022" lon="10.050496">
<ele>1864</ele>
<time>2022-01-08T05:19:09Z</time></trkpt>
<trkpt lat="46.056998" lon="10.050505">
<ele>1863</ele>
<time>2022-01-08T05:19:10Z</time></trkpt>
<trkpt lat="46.056737" lon="10.050402">
<ele>1837</ele>
<time>2022-01-08T05:19:20Z</time></trkpt>
<trkpt lat="46.056484" lon="10.050352">
<ele>1826</ele>
<time>2022-01-08T05:19:31Z</time></trkpt>
<trkpt lat="46.056207" lon="10.050258">
<ele>1818</ele>
<time>2022-01-08T05:19:42Z</time></trkpt>
<trkpt lat="46.056105" lon="10.050248">
<ele>1816</ele>
<time>2022-01-08T05:19:46Z</time></trkpt>
<trkpt lat="46.055922" lon="10.05015">
<ele>1810</ele>
<time>2022-01-08T05:19:54Z</time></trkpt>
<trkpt lat="46.055825" lon="10.050162">
<ele>1810</ele>
<time>2022-01-08T05:19:58Z</time></trkpt>
<trkpt lat="46.055703" lon="10.05009">
<ele>1807</ele>
<time>2022-01-08T05:20:03Z</time></trkpt>
<trkpt lat="46.055584" lon="10.050083">
<ele>1807</ele>
<time>2022-01-08T05:20:08Z</time></trkpt>
<trkpt lat="46.05542" lon="10.049956">
<ele>1801</ele>
<time>2022-01-08T05:20:15Z</time></trkpt>
<trkpt lat="46.055126" lon="10.049883">
<ele>1797</ele>
<time>2022-01-08T05:20:27Z</time></trkpt>
<trkpt lat="46.054817" lon="10.049838">
<ele>1796</ele>
<time>2022-01-08T05:20:40Z</time></trkpt>
<trkpt lat="46.054544" lon="10.049894">
<ele>1800</ele>
<time>2022-01-08T05:20:51Z</time></trkpt>
<trkpt lat="46.054367" lon="10.049737">
<ele>1792</ele>
<time>2022-01-08T05:20:59Z</time></trkpt>
<trkpt lat="46.05405" lon="10.049562">
<ele>1785</ele>
<time>2022-01-08T05:21:13Z</time></trkpt>
<trkpt lat="46.053921" lon="10.049428">
<ele>1780</ele>
<time>2022-01-08T05:21:19Z</time></trkpt>
<trkpt lat="46.053733" lon="10.049391">
<ele>1782</ele>
<time>2022-01-08T05:21:27Z</time></trkpt>
<trkpt lat="46.053631" lon="10.049233">
<ele>1775</ele>
<time>2022-01-08T05:21:33Z</time></trkpt>
<trkpt lat="46.053378" lon="10.049092">
<ele>1773</ele>
<time>2022-01-08T05:21:44Z</time></trkpt>
<trkpt lat="46.053378" lon="10.049092">
<ele>1773</ele>
<time>2022-01-08T05:21:44Z</time></trkpt>
<trkpt lat="46.053268" lon="10.049031">
<ele>1773</ele>
<time>2022-01-08T05:21:48Z</time></trkpt>
<trkpt lat="46.05309" lon="10.048845">
<ele>1766</ele>
<time>2022-01-08T05:21:57Z</time></trkpt>
<trkpt lat="46.052938" lon="10.048742">
<ele>1763</ele>
<time>2022-01-08T05:22:04Z</time></trkpt>
<trkpt lat="46.052762" lon="10.048587">
<ele>1757</ele>
<time>2022-01-08T05:22:12Z</time></trkpt>
<trkpt lat="46.052467" lon="10.048419">
<ele>1750</ele>
<time>2022-01-08T05:22:25Z</time></trkpt>
<trkpt lat="46.052294" lon="10.048386">
<ele>1748</ele>
<time>2022-01-08T05:22:32Z</time></trkpt>
<trkpt lat="46.051749" lon="10.048614">
<ele>1761</ele>
<time>2022-01-08T05:22:55Z</time></trkpt>
<trkpt lat="46.051572" lon="10.048657">
<ele>1763</ele>
<time>2022-01-08T05:23:02Z</time></trkpt>
<trkpt lat="46.051297" lon="10.048636">
<ele>1761</ele>
<time>2022-01-08T05:23:13Z</time></trkpt>
<trkpt lat="46.051228" lon="10.048583">
<ele>1758</ele>
<time>2022-01-08T05:23:16Z</time></trkpt>
<trkpt lat="46.051107" lon="10.048646">
<ele>1760</ele>
<time>2022-01-08T05:23:21Z</time></trkpt>
<trkpt lat="46.051035" lon="10.048633">
<ele>1760</ele>
<time>2022-01-08T05:23:24Z</time></trkpt>
<trkpt lat="46.050939" lon="10.048505">
<ele>1754</ele>
<time>2022-01-08T05:23:29Z</time></trkpt>
<trkpt lat="46.050689" lon="10.048499">
<ele>1755</ele>
<time>2022-01-08T05:23:39Z</time></trkpt>
<trkpt lat="46.050521" lon="10.048562">
<ele>1761</ele>
<time>2022-01-08T05:23:46Z</time></trkpt>
<trkpt lat="46.050402" lon="10.048239">
<ele>1749</ele>
<time>2022-01-08T05:23:56Z</time></trkpt>
<trkpt lat="46.050329" lon="10.048134">
<ele>1745</ele>
<time>2022-01-08T05:24:01Z</time></trkpt>
<trkpt lat="46.050027" lon="10.047832">
<ele>1739</ele>
<time>2022-01-08T05:24:15Z</time></trkpt>
<trkpt lat="46.049649" lon="10.047675">
<ele>1747</ele>
<time>2022-01-08T05:24:31Z</time></trkpt>
<trkpt lat="46.04947" lon="10.047536">
<ele>1747</ele>
<time>2022-01-08T05:24:39Z</time></trkpt>
<trkpt lat="46.049345" lon="10.047375">
<ele>1744</ele>
<time>2022-01-08T05:24:46Z</time></trkpt>
<trkpt lat="46.048875" lon="10.047012">
<ele>1748</ele>
<time>2022-01-08T05:25:07Z</time></trkpt>
<trkpt lat="46.048225" lon="10.046681">
<ele>1760</ele>
<time>2022-01-08T05:25:35Z</time></trkpt>
<trkpt lat="46.048165" lon="10.046616">
<ele>1760</ele>
<time>2022-01-08T05:25:38Z</time></trkpt>
<trkpt lat="46.048165" lon="10.046616">
<ele>1760</ele>
<time>2022-01-08T05:25:38Z</time></trkpt>
<trkpt lat="46.047294" lon="10.045663">
<ele>1770</ele>
<time>2022-01-08T05:26:22Z</time></trkpt>
<trkpt lat="46.047126" lon="10.045536">
<ele>1776</ele>
<time>2022-01-08T05:26:29Z</time></trkpt>
<trkpt lat="46.046961" lon="10.045186">
<ele>1781</ele>
<time>2022-01-08T05:26:41Z</time></trkpt>
<trkpt lat="46.046875" lon="10.045125">
<ele>1785</ele>
<time>2022-01-08T05:26:45Z</time></trkpt>
<trkpt lat="46.046922" lon="10.044559">
<ele>1787</ele>
<time>2022-01-08T05:27:01Z</time></trkpt>
<trkpt lat="46.046908" lon="10.044389">
<ele>1790</ele>
<time>2022-01-08T05:27:06Z</time></trkpt>
<trkpt lat="46.046925" lon="10.044036">
<ele>1790</ele>
<time>2022-01-08T05:27:15Z</time></trkpt>
<trkpt lat="46.046867" lon="10.043909">
<ele>1792</ele>
<time>2022-01-08T05:27:20Z</time></trkpt>
<trkpt lat="46.046704" lon="10.043722">
<ele>1800</ele>
<time>2022-01-08T05:27:28Z</time></trkpt>
<trkpt lat="46.046587" lon="10.043491">
<ele>1803</ele>
<time>2022-01-08T05:27:36Z</time></trkpt>
<trkpt lat="46.046426" lon="10.043284">
<ele>1807</ele>
<time>2022-01-08T05:27:45Z</time></trkpt>
<trkpt lat="46.046202" lon="10.043148">
<ele>1811</ele>
<time>2022-01-08T05:27:54Z</time></trkpt>
<trkpt lat="46.045837" lon="10.043116">
<ele>1827</ele>
<time>2022-01-08T05:28:09Z</time></trkpt>
<trkpt lat="46.045653" lon="10.04301">
<ele>1830</ele>
<time>2022-01-08T05:28:17Z</time></trkpt>
<trkpt lat="46.045497" lon="10.042782">
<ele>1825</ele>
<time>2022-01-08T05:28:26Z</time></trkpt>
<trkpt lat="46.045353" lon="10.042433">
<ele>1815</ele>
<time>2022-01-08T05:28:37Z</time></trkpt>
<trkpt lat="46.045145" lon="10.041993">
<ele>1810</ele>
<time>2022-01-08T05:28:52Z</time></trkpt>
<trkpt lat="46.045078" lon="10.041706">
<ele>1804</ele>
<time>2022-01-08T05:29:00Z</time></trkpt>
<trkpt lat="46.044333" lon="10.04125">
<ele>1806</ele>
<time>2022-01-08T05:29:33Z</time></trkpt>
<trkpt lat="46.044205" lon="10.041223">
<ele>1807</ele>
<time>2022-01-08T05:29:38Z</time></trkpt>
<trkpt lat="46.0436" lon="10.040841">
<ele>1800</ele>
<time>2022-01-08T05:30:04Z</time></trkpt>
<trkpt lat="46.0436" lon="10.040841">
<ele>1800</ele>
<time>2022-01-08T05:30:04Z</time></trkpt>
<trkpt lat="46.043401" lon="10.040715">
<ele>1798</ele>
<time>2022-01-08T05:30:13Z</time></trkpt>
<trkpt lat="46.043242" lon="10.040539">
<ele>1793</ele>
<time>2022-01-08T05:30:21Z</time></trkpt>
<trkpt lat="46.042939" lon="10.040499">
<ele>1798</ele>
<time>2022-01-08T05:30:33Z</time></trkpt>
<trkpt lat="46.042813" lon="10.040433">
<ele>1797</ele>
<time>2022-01-08T05:30:39Z</time></trkpt>
<trkpt lat="46.042582" lon="10.040415">
<ele>1801</ele>
<time>2022-01-08T05:30:48Z</time></trkpt>
<trkpt lat="46.04224" lon="10.040252">
<ele>1798</ele>
<time>2022-01-08T05:31:02Z</time></trkpt>
<trkpt lat="46.042043" lon="10.040222">
<ele>1800</ele>
<time>2022-01-08T05:31:10Z</time></trkpt>
<trkpt lat="46.041731" lon="10.040136">
<ele>1800</ele>
<time>2022-01-08T05:31:23Z</time></trkpt>
<trkpt lat="46.041567" lon="10.039958">
<ele>1796</ele>
<time>2022-01-08T05:31:31Z</time></trkpt>
<trkpt lat="46.041392" lon="10.039599">
<ele>1781</ele>
<time>2022-01-08T05:31:44Z</time></trkpt>
<trkpt lat="46.041261" lon="10.039523">
<ele>1781</ele>
<time>2022-01-08T05:31:49Z</time></trkpt>
<trkpt lat="46.041088" lon="10.039524">
<ele>1787</ele>
<time>2022-01-08T05:31:56Z</time></trkpt>
<trkpt lat="46.040947" lon="10.039387">
<ele>1783</ele>
<time>2022-01-08T05:32:03Z</time></trkpt>
<trkpt lat="46.0408" lon="10.039298">
<ele>1781</ele>
<time>2022-01-08T05:32:09Z</time></trkpt>
<trkpt lat="46.040655" lon="10.039364">
<ele>1785</ele>
<time>2022-01-08T05:32:15Z</time></trkpt>
<trkpt lat="46.040581" lon="10.03934">
<ele>1784</ele>
<time>2022-01-08T05:32:19Z</time></trkpt>
<trkpt lat="46.040392" lon="10.039134">
<ele>1769</ele>
<time>2022-01-08T05:32:28Z</time></trkpt>
<trkpt lat="46.040263" lon="10.039064">
<ele>1765</ele>
<time>2022-01-08T05:32:34Z</time></trkpt>
<trkpt lat="46.040093" lon="10.0391">
<ele>1767</ele>
<time>2022-01-08T05:32:40Z</time></trkpt>
<trkpt lat="46.039714" lon="10.039046">
<ele>1762</ele>
<time>2022-01-08T05:32:56Z</time></trkpt>
<trkpt lat="46.039565" lon="10.039108">
<ele>1764</ele>
<time>2022-01-08T05:33:02Z</time></trkpt>
<trkpt lat="46.039406" lon="10.039404">
<ele>1783</ele>
<time>2022-01-08T05:33:12Z</time></trkpt>
<trkpt lat="46.039363" lon="10.039539">
<ele>1793</ele>
<time>2022-01-08T05:33:16Z</time></trkpt>
<trkpt lat="46.039145" lon="10.039572">
<ele>1794</ele>
<time>2022-01-08T05:33:25Z</time></trkpt>
<trkpt lat="46.038656" lon="10.039731">
<ele>1804</ele>
<time>2022-01-08T05:33:45Z</time></trkpt>
<trkpt lat="46.038656" lon="10.039731">
<ele>1804</ele>
<time>2022-01-08T05:33:45Z</time></trkpt>
<trkpt lat="46.037995" lon="10.039964">
<ele>1818</ele>
<time>2022-01-08T05:34:13Z</time></trkpt>
<trkpt lat="46.037725" lon="10.040125">
<ele>1830</ele>
<time>2022-01-08T05:34:24Z</time></trkpt>
<trkpt lat="46.037569" lon="10.040316">
<ele>1843</ele>
<time>2022-01-08T05:34:32Z</time></trkpt>
<trkpt lat="46.03689" lon="10.040648">
<ele>1866</ele>
<time>2022-01-08T05:35:01Z</time></trkpt>
<trkpt lat="46.036683" lon="10.040683">
<ele>1869</ele>
<time>2022-01-08T05:35:10Z</time></trkpt>
<trkpt lat="46.036778" lon="10.040806">
<ele>1875</ele>
<time>2022-01-08T05:35:15Z</time></trkpt>
<trkpt lat="46.036789" lon="10.040906">
<ele>1881</ele>
<time>2022-01-08T05:35:18Z</time></trkpt>
<trkpt lat="46.03641" lon="10.04094">
<ele>1890</ele>
<time>2022-01-08T05:35:33Z</time></trkpt>
<trkpt lat="46.036118" lon="10.04108">
<ele>1902</ele>
<time>2022-01-08T05:35:45Z</time></trkpt>
<trkpt lat="46.035931" lon="10.041078">
<ele>1905</ele>
<time>2022-01-08T05:35:53Z</time></trkpt>
<trkpt lat="46.03599" lon="10.041173">
<ele>1907</ele>
<time>2022-01-08T05:35:56Z</time></trkpt>
<trkpt lat="46.035993" lon="10.041243">
<ele>1909</ele>
<time>2022-01-08T05:35:58Z</time></trkpt>
<trkpt lat="46.035909" lon="10.041315">
<ele>1911</ele>
<time>2022-01-08T05:36:02Z</time></trkpt>
<trkpt lat="46.035759" lon="10.041232">
<ele>1908</ele>
<time>2022-01-08T05:36:08Z</time></trkpt>
<trkpt lat="46.035661" lon="10.041238">
<ele>1906</ele>
<time>2022-01-08T05:36:12Z</time></trkpt>
<trkpt lat="46.035097" lon="10.041071">
<ele>1898</ele>
<time>2022-01-08T05:36:35Z</time></trkpt>
<trkpt lat="46.035013" lon="10.041106">
<ele>1896</ele>
<time>2022-01-08T05:36:39Z</time></trkpt>
<trkpt lat="46.035213" lon="10.041534">
<ele>1889</ele>
<time>2022-01-08T05:36:53Z</time></trkpt>
<trkpt lat="46.035279" lon="10.041785">
<ele>1888</ele>
<time>2022-01-08T05:37:01Z</time></trkpt>
<trkpt lat="46.035284" lon="10.041886">
<ele>1888</ele>
<time>2022-01-08T05:37:04Z</time></trkpt>
<trkpt lat="46.035317" lon="10.041949">
<ele>1889</ele>
<time>2022-01-08T05:37:06Z</time></trkpt>
<trkpt lat="46.035317" lon="10.042303">
<ele>1885</ele>
<time>2022-01-08T05:37:16Z</time></trkpt>
<trkpt lat="46.035285" lon="10.042362">
<ele>1882</ele>
<time>2022-01-08T05:37:18Z</time></trkpt>
<trkpt lat="46.035056" lon="10.042532">
<ele>1865</ele>
<time>2022-01-08T05:37:28Z</time></trkpt>
<trkpt lat="46.034979" lon="10.042671">
<ele>1861</ele>
<time>2022-01-08T05:37:33Z</time></trkpt>
<trkpt lat="46.034739" lon="10.042955">
<ele>1846</ele>
<time>2022-01-08T05:37:45Z</time></trkpt>
<trkpt lat="46.034663" lon="10.043209">
<ele>1843</ele>
<time>2022-01-08T05:37:53Z</time></trkpt>
<trkpt lat="46.034619" lon="10.043227">
<ele>1840</ele>
<time>2022-01-08T05:37:55Z</time></trkpt>
<trkpt lat="46.034613" lon="10.043293">
<ele>1840</ele>
<time>2022-01-08T05:37:57Z</time></trkpt>
<trkpt lat="46.034395" lon="10.043513">
<ele>1823</ele>
<time>2022-01-08T05:38:07Z</time></trkpt>
<trkpt lat="46.034351" lon="10.043672">
<ele>1819</ele>
<time>2022-01-08T05:38:12Z</time></trkpt>
<trkpt lat="46.034357" lon="10.043863">
<ele>1819</ele>
<time>2022-01-08T05:38:18Z</time></trkpt>
<trkpt lat="46.034462" lon="10.044205">
<ele>1827</ele>
<time>2022-01-08T05:38:28Z</time></trkpt>
<trkpt lat="46.034449" lon="10.044262">
<ele>1825</ele>
<time>2022-01-08T05:38:30Z</time></trkpt>
<trkpt lat="46.034397" lon="10.044319">
<ele>1820</ele>
<time>2022-01-08T05:38:32Z</time></trkpt>
<trkpt lat="46.034376" lon="10.044375">
<ele>1818</ele>
<time>2022-01-08T05:38:34Z</time></trkpt>
<trkpt lat="46.034327" lon="10.044339">
<ele>1814</ele>
<time>2022-01-08T05:38:36Z</time></trkpt>
<trkpt lat="46.034267" lon="10.044408">
<ele>1808</ele>
<time>2022-01-08T05:38:39Z</time></trkpt>
<trkpt lat="46.034224" lon="10.044562">
<ele>1804</ele>
<time>2022-01-08T05:38:44Z</time></trkpt>
<trkpt lat="46.034187" lon="10.044826">
<ele>1799</ele>
<time>2022-01-08T05:38:51Z</time></trkpt>
<trkpt lat="46.034187" lon="10.044826">
<ele>1799</ele>
<time>2022-01-08T05:38:51Z</time></trkpt>
<trkpt lat="46.034129" lon="10.045241">
<ele>1795</ele>
<time>2022-01-08T05:39:03Z</time></trkpt>
<trkpt lat="46.034161" lon="10.045473">
<ele>1797</ele>
<time>2022-01-08T05:39:10Z</time></trkpt>
<trkpt lat="46.034066" lon="10.045647">
<ele>1791</ele>
<time>2022-01-08T05:39:16Z</time></trkpt>
<trkpt lat="46.033913" lon="10.045817">
<ele>1781</ele>
<time>2022-01-08T05:39:24Z</time></trkpt>
<trkpt lat="46.033783" lon="10.046033">
<ele>1774</ele>
<time>2022-01-08T05:39:32Z</time></trkpt>
<trkpt lat="46.033685" lon="10.046072">
<ele>1768</ele>
<time>2022-01-08T05:39:36Z</time></trkpt>
<trkpt lat="46.03366" lon="10.046147">
<ele>1767</ele>
<time>2022-01-08T05:39:38Z</time></trkpt>
<trkpt lat="46.033607" lon="10.046169">
<ele>1764</ele>
<time>2022-01-08T05:39:40Z</time></trkpt>
<trkpt lat="46.033573" lon="10.046123">
<ele>1761</ele>
<time>2022-01-08T05:39:42Z</time></trkpt>
<trkpt lat="46.033487" lon="10.046121">
<ele>1756</ele>
<time>2022-01-08T05:39:46Z</time></trkpt>
<trkpt lat="46.03347" lon="10.046006">
<ele>1754</ele>
<time>2022-01-08T05:39:49Z</time></trkpt>
<trkpt lat="46.033502" lon="10.045846">
<ele>1754</ele>
<time>2022-01-08T05:39:53Z</time></trkpt>
<trkpt lat="46.033493" lon="10.04571">
<ele>1753</ele>
<time>2022-01-08T05:39:57Z</time></trkpt>
<trkpt lat="46.03351" lon="10.045574">
<ele>1753</ele>
<time>2022-01-08T05:40:01Z</time></trkpt>
<trkpt lat="46.033535" lon="10.045522">
<ele>1754</ele>
<time>2022-01-08T05:40:03Z</time></trkpt>
<trkpt lat="46.033461" lon="10.045431">
<ele>1748</ele>
<time>2022-01-08T05:40:07Z</time></trkpt>
<trkpt lat="46.033475" lon="10.04499">
<ele>1746</ele>
<time>2022-01-08T05:40:19Z</time></trkpt>
<trkpt lat="46.03343" lon="10.044921">
<ele>1742</ele>
<time>2022-01-08T05:40:22Z</time></trkpt>
<trkpt lat="46.033391" lon="10.044942">
<ele>1739</ele>
<time>2022-01-08T05:40:23Z</time></trkpt>
<trkpt lat="46.033369" lon="10.044907">
<ele>1738</ele>
<time>2022-01-08T05:40:25Z</time></trkpt>
<trkpt lat="46.033335" lon="10.044909">
<ele>1735</ele>
<time>2022-01-08T05:40:26Z</time></trkpt>
<trkpt lat="46.033091" lon="10.045339">
<ele>1726</ele>
<time>2022-01-08T05:40:41Z</time></trkpt>
<trkpt lat="46.033036" lon="10.045366">
<ele>1723</ele>
<time>2022-01-08T05:40:44Z</time></trkpt>
<trkpt lat="46.032933" lon="10.045475">
<ele>1720</ele>
<time>2022-01-08T05:40:49Z</time></trkpt>
<trkpt lat="46.032946" lon="10.045625">
<ele>1722</ele>
<time>2022-01-08T05:40:53Z</time></trkpt>
<trkpt lat="46.03292" lon="10.045698">
<ele>1722</ele>
<time>2022-01-08T05:40:55Z</time></trkpt>
<trkpt lat="46.032851" lon="10.045765">
<ele>1719</ele>
<time>2022-01-08T05:40:59Z</time></trkpt>
<trkpt lat="46.032748" lon="10.045788">
<ele>1714</ele>
<time>2022-01-08T05:41:03Z</time></trkpt>
<trkpt lat="46.032579" lon="10.045722">
<ele>1705</ele>
<time>2022-01-08T05:41:10Z</time></trkpt>
<trkpt lat="46.032303" lon="10.045687">
<ele>1694</ele>
<time>2022-01-08T05:41:21Z</time></trkpt>
<trkpt lat="46.032029" lon="10.046102">
<ele>1688</ele>
<time>2022-01-08T05:41:37Z</time></trkpt>
<trkpt lat="46.031968" lon="10.04613">
<ele>1686</ele>
<time>2022-01-08T05:41:40Z</time></trkpt>
<trkpt lat="46.031931" lon="10.046174">
<ele>1684</ele>
<time>2022-01-08T05:41:41Z</time></trkpt>
<trkpt lat="46.031822" lon="10.046462">
<ele>1679</ele>
<time>2022-01-08T05:41:51Z</time></trkpt>
<trkpt lat="46.031751" lon="10.046552">
<ele>1676</ele>
<time>2022-01-08T05:41:54Z</time></trkpt>
<trkpt lat="46.031684" lon="10.04656">
<ele>1673</ele>
<time>2022-01-08T05:41:57Z</time></trkpt>
<trkpt lat="46.031731" lon="10.046767">
<ele>1671</ele>
<time>2022-01-08T05:42:03Z</time></trkpt>
<trkpt lat="46.031858" lon="10.047017">
<ele>1669</ele>
<time>2022-01-08T05:42:12Z</time></trkpt>
<trkpt lat="46.03185" lon="10.047108">
<ele>1665</ele>
<time>2022-01-08T05:42:14Z</time></trkpt>
<trkpt lat="46.031875" lon="10.047186">
<ele>1664</ele>
<time>2022-01-08T05:42:17Z</time></trkpt>
<trkpt lat="46.032073" lon="10.047502">
<ele>1666</ele>
<time>2022-01-08T05:42:29Z</time></trkpt>
<trkpt lat="46.032174" lon="10.047598">
<ele>1670</ele>
<time>2022-01-08T05:42:33Z</time></trkpt>
<trkpt lat="46.032175" lon="10.047725">
<ele>1667</ele>
<time>2022-01-08T05:42:37Z</time></trkpt>
<trkpt lat="46.032153" lon="10.047807">
<ele>1664</ele>
<time>2022-01-08T05:42:39Z</time></trkpt>
<trkpt lat="46.032196" lon="10.048029">
<ele>1662</ele>
<time>2022-01-08T05:42:46Z</time></trkpt>
<trkpt lat="46.032048" lon="10.048255">
<ele>1649</ele>
<time>2022-01-08T05:42:54Z</time></trkpt>
<trkpt lat="46.031882" lon="10.048304">
<ele>1639</ele>
<time>2022-01-08T05:43:01Z</time></trkpt>
<trkpt lat="46.031853" lon="10.048346">
<ele>1637</ele>
<time>2022-01-08T05:43:03Z</time></trkpt>
<trkpt lat="46.031899" lon="10.048859">
<ele>1633</ele>
<time>2022-01-08T05:43:17Z</time></trkpt>
<trkpt lat="46.032016" lon="10.049363">
<ele>1636</ele>
<time>2022-01-08T05:43:32Z</time></trkpt>
<trkpt lat="46.031955" lon="10.049334">
<ele>1633</ele>
<time>2022-01-08T05:43:35Z</time></trkpt>
<trkpt lat="46.031903" lon="10.049349">
<ele>1631</ele>
<time>2022-01-08T05:43:37Z</time></trkpt>
<trkpt lat="46.031813" lon="10.049303">
<ele>1627</ele>
<time>2022-01-08T05:43:41Z</time></trkpt>
<trkpt lat="46.031774" lon="10.049266">
<ele>1625</ele>
<time>2022-01-08T05:43:42Z</time></trkpt>
<trkpt lat="46.031731" lon="10.049142">
<ele>1622</ele>
<time>2022-01-08T05:43:46Z</time></trkpt>
<trkpt lat="46.031661" lon="10.049102">
<ele>1620</ele>
<time>2022-01-08T05:43:49Z</time></trkpt>
<trkpt lat="46.031607" lon="10.049177">
<ele>1621</ele>
<time>2022-01-08T05:43:52Z</time></trkpt>
<trkpt lat="46.0316" lon="10.049291">
<ele>1624</ele>
<time>2022-01-08T05:43:55Z</time></trkpt>
<trkpt lat="46.031624" lon="10.049368">
<ele>1624</ele>
<time>2022-01-08T05:43:58Z</time></trkpt>
<trkpt lat="46.031682" lon="10.049455">
<ele>1624</ele>
<time>2022-01-08T05:44:01Z</time></trkpt>
<trkpt lat="46.031697" lon="10.04952">
<ele>1625</ele>
<time>2022-01-08T05:44:03Z</time></trkpt>
<trkpt lat="46.031644" lon="10.049603">
<ele>1627</ele>
<time>2022-01-08T05:44:06Z</time></trkpt>
<trkpt lat="46.031554" lon="10.049539">
<ele>1630</ele>
<time>2022-01-08T05:44:10Z</time></trkpt>
<trkpt lat="46.031395" lon="10.049361">
<ele>1634</ele>
<time>2022-01-08T05:44:18Z</time></trkpt>
<trkpt lat="46.031255" lon="10.049004">
<ele>1633</ele>
<time>2022-01-08T05:44:30Z</time></trkpt>
<trkpt lat="46.030971" lon="10.048641">
<ele>1630</ele>
<time>2022-01-08T05:44:45Z</time></trkpt>
<trkpt lat="46.030783" lon="10.048195">
<ele>1621</ele>
<time>2022-01-08T05:44:59Z</time></trkpt>
<trkpt lat="46.030783" lon="10.048195">
<ele>1621</ele>
<time>2022-01-08T05:44:59Z</time></trkpt>
<trkpt lat="46.03071" lon="10.048021">
<ele>1621</ele>
<time>2022-01-08T05:45:05Z</time></trkpt>
<trkpt lat="46.030583" lon="10.047798">
<ele>1620</ele>
<time>2022-01-08T05:45:13Z</time></trkpt>
<trkpt lat="46.030402" lon="10.047517">
<ele>1615</ele>
<time>2022-01-08T05:45:24Z</time></trkpt>
<trkpt lat="46.030291" lon="10.047392">
<ele>1615</ele>
<time>2022-01-08T05:45:29Z</time></trkpt>
<trkpt lat="46.030072" lon="10.0474">
<ele>1617</ele>
<time>2022-01-08T05:45:38Z</time></trkpt>
<trkpt lat="46.029852" lon="10.047304">
<ele>1621</ele>
<time>2022-01-08T05:45:47Z</time></trkpt>
<trkpt lat="46.029466" lon="10.047063">
<ele>1626</ele>
<time>2022-01-08T05:46:04Z</time></trkpt>
<trkpt lat="46.029079" lon="10.046938">
<ele>1635</ele>
<time>2022-01-08T05:46:20Z</time></trkpt>
<trkpt lat="46.028923" lon="10.046798">
<ele>1636</ele>
<time>2022-01-08T05:46:28Z</time></trkpt>
<trkpt lat="46.028783" lon="10.046629">
<ele>1635</ele>
<time>2022-01-08T05:46:35Z</time></trkpt>
<trkpt lat="46.028663" lon="10.046354">
<ele>1632</ele>
<time>2022-01-08T05:46:44Z</time></trkpt>
<trkpt lat="46.028614" lon="10.046171">
<ele>1627</ele>
<time>2022-01-08T05:46:49Z</time></trkpt>
<trkpt lat="46.028468" lon="10.045905">
<ele>1623</ele>
<time>2022-01-08T05:46:59Z</time></trkpt>
<trkpt lat="46.028346" lon="10.045827">
<ele>1625</ele>
<time>2022-01-08T05:47:04Z</time></trkpt>
<trkpt lat="46.028225" lon="10.045802">
<ele>1626</ele>
<time>2022-01-08T05:47:09Z</time></trkpt>
<trkpt lat="46.028" lon="10.045892">
<ele>1632</ele>
<time>2022-01-08T05:47:18Z</time></trkpt>
<trkpt lat="46.027854" lon="10.045923">
<ele>1636</ele>
<time>2022-01-08T05:47:24Z</time></trkpt>
<trkpt lat="46.027608" lon="10.045814">
<ele>1633</ele>
<time>2022-01-08T05:47:35Z</time></trkpt>
<trkpt lat="46.027533" lon="10.045621">
<ele>1625</ele>
<time>2022-01-08T05:47:41Z</time></trkpt>
<trkpt lat="46.027486" lon="10.045357">
<ele>1613</ele>
<time>2022-01-08T05:47:48Z</time></trkpt>
<trkpt lat="46.027418" lon="10.045222">
<ele>1608</ele>
<time>2022-01-08T05:47:53Z</time></trkpt>
<trkpt lat="46.02725" lon="10.045094">
<ele>1603</ele>
<time>2022-01-08T05:48:01Z</time></trkpt>
<trkpt lat="46.026842" lon="10.045031">
<ele>1602</ele>
<time>2022-01-08T05:48:17Z</time></trkpt>
<trkpt lat="46.02657" lon="10.044945">
<ele>1602</ele>
<time>2022-01-08T05:48:28Z</time></trkpt>
<trkpt lat="46.026434" lon="10.045074">
<ele>1612</ele>
<time>2022-01-08T05:48:35Z</time></trkpt>
<trkpt lat="46.026305" lon="10.045136">
<ele>1618</ele>
<time>2022-01-08T05:48:40Z</time></trkpt>
<trkpt lat="46.026211" lon="10.044981">
<ele>1614</ele>
<time>2022-01-08T05:48:46Z</time></trkpt>
<trkpt lat="46.026061" lon="10.044825">
<ele>1612</ele>
<time>2022-01-08T05:48:53Z</time></trkpt>
<trkpt lat="46.025962" lon="10.04478">
<ele>1613</ele>
<time>2022-01-08T05:48:58Z</time></trkpt>
<trkpt lat="46.025962" lon="10.04478">
<ele>1613</ele>
<time>2022-01-08T05:48:58Z</time></trkpt>
<trkpt lat="46.025682" lon="10.044767">
<ele>1622</ele>
<time>2022-01-08T05:49:09Z</time></trkpt>
<trkpt lat="46.025508" lon="10.044903">
<ele>1635</ele>
<time>2022-01-08T05:49:17Z</time></trkpt>
<trkpt lat="46.025161" lon="10.044609">
<ele>1632</ele>
<time>2022-01-08T05:49:33Z</time></trkpt>
<trkpt lat="46.024709" lon="10.044634">
<ele>1649</ele>
<time>2022-01-08T05:49:51Z</time></trkpt>
<trkpt lat="46.024345" lon="10.044536">
<ele>1656</ele>
<time>2022-01-08T05:50:06Z</time></trkpt>
<trkpt lat="46.023832" lon="10.044531">
<ele>1676</ele>
<time>2022-01-08T05:50:26Z</time></trkpt>
<trkpt lat="46.023682" lon="10.044368">
<ele>1675</ele>
<time>2022-01-08T05:50:34Z</time></trkpt>
<trkpt lat="46.023516" lon="10.043951">
<ele>1665</ele>
<time>2022-01-08T05:50:47Z</time></trkpt>
<trkpt lat="46.023443" lon="10.043825">
<ele>1664</ele>
<time>2022-01-08T05:50:52Z</time></trkpt>
<trkpt lat="46.023207" lon="10.043627">
<ele>1668</ele>
<time>2022-01-08T05:51:03Z</time></trkpt>
<trkpt lat="46.023059" lon="10.043421">
<ele>1667</ele>
<time>2022-01-08T05:51:11Z</time></trkpt>
<trkpt lat="46.022932" lon="10.043303">
<ele>1668</ele>
<time>2022-01-08T05:51:17Z</time></trkpt>
<trkpt lat="46.022627" lon="10.043114">
<ele>1676</ele>
<time>2022-01-08T05:51:30Z</time></trkpt>
<trkpt lat="46.022548" lon="10.042996">
<ele>1676</ele>
<time>2022-01-08T05:51:35Z</time></trkpt>
<trkpt lat="46.022327" lon="10.042795">
<ele>1678</ele>
<time>2022-01-08T05:51:45Z</time></trkpt>
<trkpt lat="46.022147" lon="10.0428">
<ele>1685</ele>
<time>2022-01-08T05:51:53Z</time></trkpt>
<trkpt lat="46.021978" lon="10.042658">
<ele>1688</ele>
<time>2022-01-08T05:52:00Z</time></trkpt>
<trkpt lat="46.021916" lon="10.042477">
<ele>1686</ele>
<time>2022-01-08T05:52:06Z</time></trkpt>
<trkpt lat="46.02183" lon="10.042133">
<ele>1682</ele>
<time>2022-01-08T05:52:16Z</time></trkpt>
<trkpt lat="46.021659" lon="10.041845">
<ele>1684</ele>
<time>2022-01-08T05:52:27Z</time></trkpt>
<trkpt lat="46.021445" lon="10.041639">
<ele>1686</ele>
<time>2022-01-08T05:52:37Z</time></trkpt>
<trkpt lat="46.021132" lon="10.041437">
<ele>1687</ele>
<time>2022-01-08T05:52:51Z</time></trkpt>
<trkpt lat="46.02071" lon="10.041234">
<ele>1692</ele>
<time>2022-01-08T05:53:09Z</time></trkpt>
<trkpt lat="46.020557" lon="10.041117">
<ele>1693</ele>
<time>2022-01-08T05:53:16Z</time></trkpt>
<trkpt lat="46.020557" lon="10.041116">
<ele>1693</ele>
<time>2022-01-08T05:53:16Z</time></trkpt>
<trkpt lat="46.020396" lon="10.040992">
<ele>1694</ele>
<time>2022-01-08T05:53:23Z</time></trkpt>
<trkpt lat="46.020189" lon="10.040929">
<ele>1698</ele>
<time>2022-01-08T05:53:31Z</time></trkpt>
<trkpt lat="46.019903" lon="10.04073">
<ele>1703</ele>
<time>2022-01-08T05:53:44Z</time></trkpt>
<trkpt lat="46.019846" lon="10.040492">
<ele>1703</ele>
<time>2022-01-08T05:53:51Z</time></trkpt>
<trkpt lat="46.019893" lon="10.040321">
<ele>1697</ele>
<time>2022-01-08T05:53:56Z</time></trkpt>
<trkpt lat="46.019975" lon="10.040126">
<ele>1689</ele>
<time>2022-01-08T05:54:03Z</time></trkpt>
<trkpt lat="46.020036" lon="10.03981">
<ele>1680</ele>
<time>2022-01-08T05:54:12Z</time></trkpt>
<trkpt lat="46.020002" lon="10.039657">
<ele>1679</ele>
<time>2022-01-08T05:54:16Z</time></trkpt>
<trkpt lat="46.019832" lon="10.039337">
<ele>1684</ele>
<time>2022-01-08T05:54:27Z</time></trkpt>
<trkpt lat="46.019592" lon="10.038822">
<ele>1688</ele>
<time>2022-01-08T05:54:45Z</time></trkpt>
<trkpt lat="46.019385" lon="10.038524">
<ele>1693</ele>
<time>2022-01-08T05:54:56Z</time></trkpt>
<trkpt lat="46.019244" lon="10.038215">
<ele>1694</ele>
<time>2022-01-08T05:55:07Z</time></trkpt>
<trkpt lat="46.019099" lon="10.037813">
<ele>1692</ele>
<time>2022-01-08T05:55:19Z</time></trkpt>
<trkpt lat="46.019082" lon="10.037458">
<ele>1684</ele>
<time>2022-01-08T05:55:29Z</time></trkpt>
<trkpt lat="46.018675" lon="10.036499">
<ele>1683</ele>
<time>2022-01-08T05:56:01Z</time></trkpt>
<trkpt lat="46.018613" lon="10.03619">
<ele>1679</ele>
<time>2022-01-08T05:56:09Z</time></trkpt>
<trkpt lat="46.018475" lon="10.035902">
<ele>1680</ele>
<time>2022-01-08T05:56:19Z</time></trkpt>
<trkpt lat="46.018329" lon="10.035682">
<ele>1681</ele>
<time>2022-01-08T05:56:28Z</time></trkpt>
<trkpt lat="46.018159" lon="10.035575">
<ele>1683</ele>
<time>2022-01-08T05:56:35Z</time></trkpt>
<trkpt lat="46.017821" lon="10.035163">
<ele>1678</ele>
<time>2022-01-08T05:56:53Z</time></trkpt>
<trkpt lat="46.017614" lon="10.035043">
<ele>1679</ele>
<time>2022-01-08T05:57:02Z</time></trkpt>
<trkpt lat="46.017057" lon="10.034783">
<ele>1683</ele>
<time>2022-01-08T05:57:25Z</time></trkpt>
<trkpt lat="46.016874" lon="10.03461">
<ele>1680</ele>
<time>2022-01-08T05:57:34Z</time></trkpt>
<trkpt lat="46.016531" lon="10.034424">
<ele>1683</ele>
<time>2022-01-08T05:57:49Z</time></trkpt>
<trkpt lat="46.016356" lon="10.034271">
<ele>1684</ele>
<time>2022-01-08T05:57:57Z</time></trkpt>
<trkpt lat="46.016273" lon="10.034125">
<ele>1683</ele>
<time>2022-01-08T05:58:02Z</time></trkpt>
<trkpt lat="46.016065" lon="10.033879">
<ele>1686</ele>
<time>2022-01-08T05:58:13Z</time></trkpt>
<trkpt lat="46.01599" lon="10.033693">
<ele>1685</ele>
<time>2022-01-08T05:58:19Z</time></trkpt>
<trkpt lat="46.015826" lon="10.033374">
<ele>1685</ele>
<time>2022-01-08T05:58:30Z</time></trkpt>
<trkpt lat="46.015586" lon="10.03299">
<ele>1701</ele>
<time>2022-01-08T05:58:44Z</time></trkpt>
<trkpt lat="46.015586" lon="10.03299">
<ele>1701</ele>
<time>2022-01-08T05:58:44Z</time></trkpt>
<trkpt lat="46.01551" lon="10.032889">
<ele>1706</ele>
<time>2022-01-08T05:58:49Z</time></trkpt>
<trkpt lat="46.015415" lon="10.032799">
<ele>1712</ele>
<time>2022-01-08T05:58:53Z</time></trkpt>
<trkpt lat="46.015322" lon="10.032646">
<ele>1718</ele>
<time>2022-01-08T05:58:59Z</time></trkpt>
<trkpt lat="46.015266" lon="10.032319">
<ele>1723</ele>
<time>2022-01-08T05:59:08Z</time></trkpt>
<trkpt lat="46.015315" lon="10.032226">
<ele>1720</ele>
<time>2022-01-08T05:59:11Z</time></trkpt>
<trkpt lat="46.015383" lon="10.032035">
<ele>1717</ele>
<time>2022-01-08T05:59:17Z</time></trkpt>
<trkpt lat="46.015435" lon="10.031653">
<ele>1717</ele>
<time>2022-01-08T05:59:28Z</time></trkpt>
<trkpt lat="46.015421" lon="10.031036">
<ele>1728</ele>
<time>2022-01-08T05:59:45Z</time></trkpt>
<trkpt lat="46.015446" lon="10.03089">
<ele>1729</ele>
<time>2022-01-08T05:59:50Z</time></trkpt>
<trkpt lat="46.015442" lon="10.030739">
<ele>1730</ele>
<time>2022-01-08T05:59:54Z</time></trkpt>
<trkpt lat="46.015413" lon="10.030566">
<ele>1731</ele>
<time>2022-01-08T05:59:59Z</time></trkpt>
<trkpt lat="46.015416" lon="10.030388">
<ele>1730</ele>
<time>2022-01-08T06:00:04Z</time></trkpt>
<trkpt lat="46.015392" lon="10.030252">
<ele>1731</ele>
<time>2022-01-08T06:00:08Z</time></trkpt>
<trkpt lat="46.014975" lon="10.029717">
<ele>1750</ele>
<time>2022-01-08T06:00:30Z</time></trkpt>
<trkpt lat="46.014769" lon="10.029375">
<ele>1755</ele>
<time>2022-01-08T06:00:43Z</time></trkpt>
<trkpt lat="46.014394" lon="10.028602">
<ele>1762</ele>
<time>2022-01-08T06:01:09Z</time></trkpt>
<trkpt lat="46.014289" lon="10.028426">
<ele>1764</ele>
<time>2022-01-08T06:01:15Z</time></trkpt>
<trkpt lat="46.014136" lon="10.028313">
<ele>1769</ele>
<time>2022-01-08T06:01:22Z</time></trkpt>
<trkpt lat="46.013914" lon="10.028207">
<ele>1771</ele>
<time>2022-01-08T06:01:32Z</time></trkpt>
<trkpt lat="46.013637" lon="10.027959">
<ele>1776</ele>
<time>2022-01-08T06:01:45Z</time></trkpt>
<trkpt lat="46.013409" lon="10.027877">
<ele>1782</ele>
<time>2022-01-08T06:01:54Z</time></trkpt>
<trkpt lat="46.013223" lon="10.026424">
<ele>1784</ele>
<time>2022-01-08T06:02:35Z</time></trkpt>
<trkpt lat="46.01317" lon="10.025568">
<ele>1789</ele>
<time>2022-01-08T06:02:59Z</time></trkpt>
<trkpt lat="46.013207" lon="10.025291">
<ele>1791</ele>
<time>2022-01-08T06:03:07Z</time></trkpt>
<trkpt lat="46.013175" lon="10.025114">
<ele>1792</ele>
<time>2022-01-08T06:03:12Z</time></trkpt>
<trkpt lat="46.013122" lon="10.024516">
<ele>1793</ele>
<time>2022-01-08T06:03:29Z</time></trkpt>
<trkpt lat="46.013087" lon="10.024326">
<ele>1793</ele>
<time>2022-01-08T06:03:34Z</time></trkpt>
<trkpt lat="46.013087" lon="10.024326">
<ele>1793</ele>
<time>2022-01-08T06:03:34Z</time></trkpt>
<trkpt lat="46.013069" lon="10.024228">
<ele>1793</ele>
<time>2022-01-08T06:03:37Z</time></trkpt>
<trkpt lat="46.013006" lon="10.024158">
<ele>1793</ele>
<time>2022-01-08T06:03:40Z</time></trkpt>
<trkpt lat="46.012634" lon="10.024304">
<ele>1792</ele>
<time>2022-01-08T06:03:56Z</time></trkpt>
<trkpt lat="46.012444" lon="10.024449">
<ele>1791</ele>
<time>2022-01-08T06:04:04Z</time></trkpt>
<trkpt lat="46.012247" lon="10.024527">
<ele>1790</ele>
<time>2022-01-08T06:04:12Z</time></trkpt>
<trkpt lat="46.012021" lon="10.024161">
<ele>1792</ele>
<time>2022-01-08T06:04:26Z</time></trkpt>
<trkpt lat="46.011876" lon="10.023992">
<ele>1786</ele>
<time>2022-01-08T06:04:34Z</time></trkpt>
<trkpt lat="46.011523" lon="10.023802">
<ele>1783</ele>
<time>2022-01-08T06:04:49Z</time></trkpt>
<trkpt lat="46.011118" lon="10.023618">
<ele>1787</ele>
<time>2022-01-08T06:05:06Z</time></trkpt>
<trkpt lat="46.010905" lon="10.023408">
<ele>1786</ele>
<time>2022-01-08T06:05:16Z</time></trkpt>
<trkpt lat="46.010614" lon="10.023025">
<ele>1784</ele>
<time>2022-01-08T06:05:32Z</time></trkpt>
<trkpt lat="46.010529" lon="10.023014">
<ele>1788</ele>
<time>2022-01-08T06:05:35Z</time></trkpt>
<trkpt lat="46.010472" lon="10.022944">
<ele>1788</ele>
<time>2022-01-08T06:05:38Z</time></trkpt>
<trkpt lat="46.010455" lon="10.02278">
<ele>1785</ele>
<time>2022-01-08T06:05:43Z</time></trkpt>
<trkpt lat="46.010248" lon="10.022403">
<ele>1786</ele>
<time>2022-01-08T06:05:56Z</time></trkpt>
<trkpt lat="46.010194" lon="10.022119">
<ele>1784</ele>
<time>2022-01-08T06:06:04Z</time></trkpt>
<trkpt lat="46.010055" lon="10.021626">
<ele>1784</ele>
<time>2022-01-08T06:06:19Z</time></trkpt>
<trkpt lat="46.009966" lon="10.021247">
<ele>1781</ele>
<time>2022-01-08T06:06:30Z</time></trkpt>
<trkpt lat="46.009911" lon="10.021079">
<ele>1780</ele>
<time>2022-01-08T06:06:36Z</time></trkpt>
<trkpt lat="46.009581" lon="10.020736">
<ele>1786</ele>
<time>2022-01-08T06:06:52Z</time></trkpt>
<trkpt lat="46.009458" lon="10.020587">
<ele>1787</ele>
<time>2022-01-08T06:06:58Z</time></trkpt>
<trkpt lat="46.00938" lon="10.020435">
<ele>1786</ele>
<time>2022-01-08T06:07:04Z</time></trkpt>
<trkpt lat="46.009302" lon="10.020348">
<ele>1786</ele>
<time>2022-01-08T06:07:08Z</time></trkpt>
<trkpt lat="46.009241" lon="10.020023">
<ele>1779</ele>
<time>2022-01-08T06:07:17Z</time></trkpt>
<trkpt lat="46.009114" lon="10.019835">
<ele>1782</ele>
<time>2022-01-08T06:07:24Z</time></trkpt>
<trkpt lat="46.009021" lon="10.019529">
<ele>1781</ele>
<time>2022-01-08T06:07:34Z</time></trkpt>
<trkpt lat="46.00888" lon="10.019222">
<ele>1783</ele>
<time>2022-01-08T06:07:44Z</time></trkpt>
<trkpt lat="46.008767" lon="10.018902">
<ele>1786</ele>
<time>2022-01-08T06:07:54Z</time></trkpt>
<trkpt lat="46.008713" lon="10.018584">
<ele>1787</ele>
<time>2022-01-08T06:08:03Z</time></trkpt>
<trkpt lat="46.008618" lon="10.018359">
<ele>1791</ele>
<time>2022-01-08T06:08:10Z</time></trkpt>
<trkpt lat="46.008418" lon="10.017309">
<ele>1799</ele>
<time>2022-01-08T06:08:41Z</time></trkpt>
<trkpt lat="46.008486" lon="10.016829">
<ele>1795</ele>
<time>2022-01-08T06:08:54Z</time></trkpt>
<trkpt lat="46.008445" lon="10.016662">
<ele>1797</ele>
<time>2022-01-08T06:08:59Z</time></trkpt>
<trkpt lat="46.008265" lon="10.01653">
<ele>1804</ele>
<time>2022-01-08T06:09:07Z</time></trkpt>
<trkpt lat="46.008265" lon="10.01653">
<ele>1804</ele>
<time>2022-01-08T06:09:07Z</time></trkpt>
<trkpt lat="46.007941" lon="10.016292">
<ele>1812</ele>
<time>2022-01-08T06:09:22Z</time></trkpt>
<trkpt lat="46.007913" lon="10.016237">
<ele>1813</ele>
<time>2022-01-08T06:09:24Z</time></trkpt>
<trkpt lat="46.007907" lon="10.016187">
<ele>1813</ele>
<time>2022-01-08T06:09:25Z</time></trkpt>
<trkpt lat="46.007936" lon="10.015969">
<ele>1812</ele>
<time>2022-01-08T06:09:31Z</time></trkpt>
<trkpt lat="46.007977" lon="10.015919">
<ele>1811</ele>
<time>2022-01-08T06:09:33Z</time></trkpt>
<trkpt lat="46.008048" lon="10.015757">
<ele>1810</ele>
<time>2022-01-08T06:09:39Z</time></trkpt>
<trkpt lat="46.008086" lon="10.015355">
<ele>1819</ele>
<time>2022-01-08T06:09:50Z</time></trkpt>
<trkpt lat="46.008059" lon="10.015333">
<ele>1820</ele>
<time>2022-01-08T06:09:51Z</time></trkpt>
<trkpt lat="46.007932" lon="10.015418">
<ele>1822</ele>
<time>2022-01-08T06:09:57Z</time></trkpt>
<trkpt lat="46.007874" lon="10.015419">
<ele>1823</ele>
<time>2022-01-08T06:09:59Z</time></trkpt>
<trkpt lat="46.00784" lon="10.015335">
<ele>1826</ele>
<time>2022-01-08T06:10:02Z</time></trkpt>
<trkpt lat="46.007784" lon="10.015087">
<ele>1834</ele>
<time>2022-01-08T06:10:09Z</time></trkpt>
<trkpt lat="46.007794" lon="10.014711">
<ele>1847</ele>
<time>2022-01-08T06:10:20Z</time></trkpt>
<trkpt lat="46.007775" lon="10.01466">
<ele>1850</ele>
<time>2022-01-08T06:10:21Z</time></trkpt>
<trkpt lat="46.007622" lon="10.014668">
<ele>1854</ele>
<time>2022-01-08T06:10:27Z</time></trkpt>
<trkpt lat="46.007489" lon="10.014648">
<ele>1858</ele>
<time>2022-01-08T06:10:33Z</time></trkpt>
<trkpt lat="46.007281" lon="10.014799">
<ele>1854</ele>
<time>2022-01-08T06:10:42Z</time></trkpt>
<trkpt lat="46.007201" lon="10.014813">
<ele>1854</ele>
<time>2022-01-08T06:10:45Z</time></trkpt>
<trkpt lat="46.00714" lon="10.014767">
<ele>1856</ele>
<time>2022-01-08T06:10:48Z</time></trkpt>
<trkpt lat="46.00715" lon="10.014699">
<ele>1859</ele>
<time>2022-01-08T06:10:50Z</time></trkpt>
<trkpt lat="46.007208" lon="10.014526">
<ele>1866</ele>
<time>2022-01-08T06:10:55Z</time></trkpt>
<trkpt lat="46.007397" lon="10.014108">
<ele>1882</ele>
<time>2022-01-08T06:11:09Z</time></trkpt>
<trkpt lat="46.007356" lon="10.014086">
<ele>1883</ele>
<time>2022-01-08T06:11:11Z</time></trkpt>
<trkpt lat="46.00705" lon="10.014069">
<ele>1886</ele>
<time>2022-01-08T06:11:23Z</time></trkpt>
<trkpt lat="46.006833" lon="10.013757">
<ele>1902</ele>
<time>2022-01-08T06:11:36Z</time></trkpt>
<trkpt lat="46.00671" lon="10.013375">
<ele>1919</ele>
<time>2022-01-08T06:11:47Z</time></trkpt>
<trkpt lat="46.0066" lon="10.013146">
<ele>1929</ele>
<time>2022-01-08T06:11:55Z</time></trkpt>
<trkpt lat="46.00645" lon="10.013051">
<ele>1931</ele>
<time>2022-01-08T06:12:02Z</time></trkpt>
<trkpt lat="46.006353" lon="10.012821">
<ele>1939</ele>
<time>2022-01-08T06:12:09Z</time></trkpt>
<trkpt lat="46.006137" lon="10.012476">
<ele>1948</ele>
<time>2022-01-08T06:12:22Z</time></trkpt>
<trkpt lat="46.005918" lon="10.012263">
<ele>1950</ele>
<time>2022-01-08T06:12:33Z</time></trkpt>
<trkpt lat="46.005802" lon="10.012209">
<ele>1950</ele>
<time>2022-01-08T06:12:37Z</time></trkpt>
<trkpt lat="46.00552" lon="10.012027">
<ele>1956</ele>
<time>2022-01-08T06:12:50Z</time></trkpt>
<trkpt lat="46.005433" lon="10.012034">
<ele>1957</ele>
<time>2022-01-08T06:12:53Z</time></trkpt>
<trkpt lat="46.005365" lon="10.012101">
<ele>1956</ele>
<time>2022-01-08T06:12:57Z</time></trkpt>
<trkpt lat="46.005305" lon="10.01213">
<ele>1956</ele>
<time>2022-01-08T06:12:59Z</time></trkpt>
<trkpt lat="46.005305" lon="10.01213">
<ele>1956</ele>
<time>2022-01-08T06:12:59Z</time></trkpt>
<trkpt lat="46.005255" lon="10.012154">
<ele>1955</ele>
<time>2022-01-08T06:13:01Z</time></trkpt>
<trkpt lat="46.005174" lon="10.012122">
<ele>1957</ele>
<time>2022-01-08T06:13:05Z</time></trkpt>
<trkpt lat="46.004576" lon="10.011493">
<ele>1964</ele>
<time>2022-01-08T06:13:34Z</time></trkpt>
<trkpt lat="46.003929" lon="10.011143">
<ele>1960</ele>
<time>2022-01-08T06:14:02Z</time></trkpt>
<trkpt lat="46.003156" lon="10.011142">
<ele>1953</ele>
<time>2022-01-08T06:14:33Z</time></trkpt>
<trkpt lat="46.002926" lon="10.011059">
<ele>1950</ele>
<time>2022-01-08T06:14:43Z</time></trkpt>
<trkpt lat="46.002367" lon="10.011049">
<ele>1949</ele>
<time>2022-01-08T06:15:05Z</time></trkpt>
<trkpt lat="46.002118" lon="10.010973">
<ele>1948</ele>
<time>2022-01-08T06:15:15Z</time></trkpt>
<trkpt lat="46.001995" lon="10.011037">
<ele>1951</ele>
<time>2022-01-08T06:15:20Z</time></trkpt>
<trkpt lat="46.001905" lon="10.011028">
<ele>1951</ele>
<time>2022-01-08T06:15:24Z</time></trkpt>
<trkpt lat="46.001775" lon="10.010969">
<ele>1950</ele>
<time>2022-01-08T06:15:29Z</time></trkpt>
<trkpt lat="46.001688" lon="10.011003">
<ele>1951</ele>
<time>2022-01-08T06:15:33Z</time></trkpt>
<trkpt lat="46.001458" lon="10.010997">
<ele>1949</ele>
<time>2022-01-08T06:15:42Z</time></trkpt>
<trkpt lat="46.001235" lon="10.011265">
<ele>1959</ele>
<time>2022-01-08T06:15:54Z</time></trkpt>
<trkpt lat="46.001054" lon="10.011422">
<ele>1967</ele>
<time>2022-01-08T06:16:02Z</time></trkpt>
<trkpt lat="46.000839" lon="10.011536">
<ele>1974</ele>
<time>2022-01-08T06:16:12Z</time></trkpt>
<trkpt lat="46.000776" lon="10.011686">
<ele>1981</ele>
<time>2022-01-08T06:16:16Z</time></trkpt>
<trkpt lat="46.000655" lon="10.011837">
<ele>1981</ele>
<time>2022-01-08T06:16:23Z</time></trkpt>
<trkpt lat="46.000454" lon="10.011907">
<ele>1975</ele>
<time>2022-01-08T06:16:31Z</time></trkpt>
<trkpt lat="46.000336" lon="10.012005">
<ele>1973</ele>
<time>2022-01-08T06:16:37Z</time></trkpt>
<trkpt lat="46.000336" lon="10.012005">
<ele>1973</ele>
<time>2022-01-08T06:16:37Z</time></trkpt>
<trkpt lat="46.000269" lon="10.012062">
<ele>1972</ele>
<time>2022-01-08T06:16:40Z</time></trkpt>
<trkpt lat="46.000175" lon="10.01221">
<ele>1971</ele>
<time>2022-01-08T06:16:45Z</time></trkpt>
<trkpt lat="46.000084" lon="10.012467">
<ele>1973</ele>
<time>2022-01-08T06:16:53Z</time></trkpt>
<trkpt lat="45.999966" lon="10.012911">
<ele>1977</ele>
<time>2022-01-08T06:17:07Z</time></trkpt>
<trkpt lat="45.999863" lon="10.013199">
<ele>1978</ele>
<time>2022-01-08T06:17:16Z</time></trkpt>
<trkpt lat="45.999755" lon="10.013409">
<ele>1978</ele>
<time>2022-01-08T06:17:23Z</time></trkpt>
<trkpt lat="45.999671" lon="10.013456">
<ele>1975</ele>
<time>2022-01-08T06:17:26Z</time></trkpt>
<trkpt lat="45.999587" lon="10.013426">
<ele>1971</ele>
<time>2022-01-08T06:17:30Z</time></trkpt>
<trkpt lat="45.999595" lon="10.013389">
<ele>1971</ele>
<time>2022-01-08T06:17:31Z</time></trkpt>
<trkpt lat="45.999553" lon="10.013367">
<ele>1968</ele>
<time>2022-01-08T06:17:33Z</time></trkpt>
<trkpt lat="45.999459" lon="10.013527">
<ele>1968</ele>
<time>2022-01-08T06:17:39Z</time></trkpt>
<trkpt lat="45.999446" lon="10.013679">
<ele>1970</ele>
<time>2022-01-08T06:17:43Z</time></trkpt>
<trkpt lat="45.999381" lon="10.013862">
<ele>1971</ele>
<time>2022-01-08T06:17:49Z</time></trkpt>
<trkpt lat="45.999244" lon="10.014045">
<ele>1968</ele>
<time>2022-01-08T06:17:56Z</time></trkpt>
<trkpt lat="45.998814" lon="10.014384">
<ele>1961</ele>
<time>2022-01-08T06:18:16Z</time></trkpt>
<trkpt lat="45.998602" lon="10.014575">
<ele>1957</ele>
<time>2022-01-08T06:18:26Z</time></trkpt>
<trkpt lat="45.998376" lon="10.014976">
<ele>1956</ele>
<time>2022-01-08T06:18:40Z</time></trkpt>
<trkpt lat="45.998332" lon="10.015138">
<ele>1958</ele>
<time>2022-01-08T06:18:45Z</time></trkpt>
<trkpt lat="45.998286" lon="10.015439">
<ele>1964</ele>
<time>2022-01-08T06:18:54Z</time></trkpt>
<trkpt lat="45.998228" lon="10.015707">
<ele>1968</ele>
<time>2022-01-08T06:19:01Z</time></trkpt>
<trkpt lat="45.998056" lon="10.016039">
<ele>1973</ele>
<time>2022-01-08T06:19:13Z</time></trkpt>
<trkpt lat="45.997837" lon="10.016274">
<ele>1974</ele>
<time>2022-01-08T06:19:24Z</time></trkpt>
<trkpt lat="45.997648" lon="10.016316">
<ele>1971</ele>
<time>2022-01-08T06:19:32Z</time></trkpt>
<trkpt lat="45.997359" lon="10.016296">
<ele>1966</ele>
<time>2022-01-08T06:19:43Z</time></trkpt>
<trkpt lat="45.997261" lon="10.016268">
<ele>1964</ele>
<time>2022-01-08T06:19:47Z</time></trkpt>
<trkpt lat="45.997169" lon="10.016192">
<ele>1962</ele>
<time>2022-01-08T06:19:51Z</time></trkpt>
<trkpt lat="45.997079" lon="10.016206">
<ele>1961</ele>
<time>2022-01-08T06:19:55Z</time></trkpt>
<trkpt lat="45.997006" lon="10.01629">
<ele>1962</ele>
<time>2022-01-08T06:19:59Z</time></trkpt>
<trkpt lat="45.996793" lon="10.016295">
<ele>1961</ele>
<time>2022-01-08T06:20:07Z</time></trkpt>
<trkpt lat="45.996656" lon="10.016431">
<ele>1962</ele>
<time>2022-01-08T06:20:14Z</time></trkpt>
<trkpt lat="45.996295" lon="10.017038">
<ele>1964</ele>
<time>2022-01-08T06:20:36Z</time></trkpt>
<trkpt lat="45.996209" lon="10.017242">
<ele>1964</ele>
<time>2022-01-08T06:20:43Z</time></trkpt>
<trkpt lat="45.996188" lon="10.017394">
<ele>1965</ele>
<time>2022-01-08T06:20:47Z</time></trkpt>
<trkpt lat="45.996156" lon="10.017446">
<ele>1965</ele>
<time>2022-01-08T06:20:49Z</time></trkpt>
<trkpt lat="45.996156" lon="10.017446">
<ele>1965</ele>
<time>2022-01-08T06:20:49Z</time></trkpt>
<trkpt lat="45.996098" lon="10.017491">
<ele>1964</ele>
<time>2022-01-08T06:20:52Z</time></trkpt>
<trkpt lat="45.99597" lon="10.017823">
<ele>1965</ele>
<time>2022-01-08T06:21:02Z</time></trkpt>
<trkpt lat="45.995852" lon="10.017917">
<ele>1963</ele>
<time>2022-01-08T06:21:08Z</time></trkpt>
<trkpt lat="45.995546" lon="10.018379">
<ele>1969</ele>
<time>2022-01-08T06:21:26Z</time></trkpt>
<trkpt lat="45.995132" lon="10.018556">
<ele>1973</ele>
<time>2022-01-08T06:21:43Z</time></trkpt>
<trkpt lat="45.995024" lon="10.018539">
<ele>1972</ele>
<time>2022-01-08T06:21:47Z</time></trkpt>
<trkpt lat="45.994962" lon="10.018407">
<ele>1973</ele>
<time>2022-01-08T06:21:52Z</time></trkpt>
<trkpt lat="45.994788" lon="10.017881">
<ele>1980</ele>
<time>2022-01-08T06:22:08Z</time></trkpt>
<trkpt lat="45.994691" lon="10.017473">
<ele>1983</ele>
<time>2022-01-08T06:22:20Z</time></trkpt>
<trkpt lat="45.994574" lon="10.016873">
<ele>1979</ele>
<time>2022-01-08T06:22:37Z</time></trkpt>
<trkpt lat="45.994525" lon="10.016705">
<ele>1978</ele>
<time>2022-01-08T06:22:42Z</time></trkpt>
<trkpt lat="45.994426" lon="10.016603">
<ele>1979</ele>
<time>2022-01-08T06:22:47Z</time></trkpt>
<trkpt lat="45.994276" lon="10.016513">
<ele>1982</ele>
<time>2022-01-08T06:22:54Z</time></trkpt>
<trkpt lat="45.994192" lon="10.016524">
<ele>1986</ele>
<time>2022-01-08T06:22:57Z</time></trkpt>
<trkpt lat="45.994125" lon="10.016584">
<ele>1989</ele>
<time>2022-01-08T06:23:00Z</time></trkpt>
<trkpt lat="45.993917" lon="10.016591">
<ele>1992</ele>
<time>2022-01-08T06:23:09Z</time></trkpt>
<trkpt lat="45.993736" lon="10.016667">
<ele>1997</ele>
<time>2022-01-08T06:23:16Z</time></trkpt>
<trkpt lat="45.993429" lon="10.016683">
<ele>2002</ele>
<time>2022-01-08T06:23:28Z</time></trkpt>
<trkpt lat="45.992908" lon="10.016894">
<ele>2022</ele>
<time>2022-01-08T06:23:50Z</time></trkpt>
<trkpt lat="45.9927" lon="10.01703">
<ele>2029</ele>
<time>2022-01-08T06:23:59Z</time></trkpt>
<trkpt lat="45.992521" lon="10.017071">
<ele>2033</ele>
<time>2022-01-08T06:24:07Z</time></trkpt>
<trkpt lat="45.992483" lon="10.017142">
<ele>2035</ele>
<time>2022-01-08T06:24:09Z</time></trkpt>
<trkpt lat="45.992534" lon="10.017419">
<ele>2040</ele>
<time>2022-01-08T06:24:17Z</time></trkpt>
<trkpt lat="45.992829" lon="10.017548">
<ele>2046</ele>
<time>2022-01-08T06:24:29Z</time></trkpt>
<trkpt lat="45.992606" lon="10.017783">
<ele>2056</ele>
<time>2022-01-08T06:24:40Z</time></trkpt>
<trkpt lat="45.992282" lon="10.018196">
<ele>2073</ele>
<time>2022-01-08T06:24:58Z</time></trkpt>
<trkpt lat="45.992473" lon="10.018266">
<ele>2076</ele>
<time>2022-01-08T06:25:06Z</time></trkpt>
<trkpt lat="45.99245" lon="10.018329">
<ele>2079</ele>
<time>2022-01-08T06:25:08Z</time></trkpt>
<trkpt lat="45.992184" lon="10.018528">
<ele>2089</ele>
<time>2022-01-08T06:25:20Z</time></trkpt>
<trkpt lat="45.992141" lon="10.018647">
<ele>2094</ele>
<time>2022-01-08T06:25:23Z</time></trkpt>
<trkpt lat="45.99226" lon="10.018732">
<ele>2101</ele>
<time>2022-01-08T06:25:29Z</time></trkpt>
<trkpt lat="45.992241" lon="10.018797">
<ele>2105</ele>
<time>2022-01-08T06:25:31Z</time></trkpt>
<trkpt lat="45.992109" lon="10.018935">
<ele>2109</ele>
<time>2022-01-08T06:25:37Z</time></trkpt>
<trkpt lat="45.991822" lon="10.019702">
<ele>2136</ele>
<time>2022-01-08T06:26:01Z</time></trkpt>
<trkpt lat="45.991937" lon="10.019722">
<ele>2141</ele>
<time>2022-01-08T06:26:06Z</time></trkpt>
<trkpt lat="45.991874" lon="10.019905">
<ele>2147</ele>
<time>2022-01-08T06:26:12Z</time></trkpt>
<trkpt lat="45.991967" lon="10.01991">
<ele>2151</ele>
<time>2022-01-08T06:26:16Z</time></trkpt>
<trkpt lat="45.991967" lon="10.01991">
<ele>2151</ele>
<time>2022-01-08T06:26:16Z</time></trkpt>
<trkpt lat="45.991987" lon="10.019911">
<ele>2152</ele>
<time>2022-01-08T06:26:16Z</time></trkpt>
<trkpt lat="45.991938" lon="10.020003">
<ele>2154</ele>
<time>2022-01-08T06:26:20Z</time></trkpt>
<trkpt lat="45.992013" lon="10.020004">
<ele>2157</ele>
<time>2022-01-08T06:26:23Z</time></trkpt>
<trkpt lat="45.992133" lon="10.019966">
<ele>2159</ele>
<time>2022-01-08T06:26:27Z</time></trkpt>
<trkpt lat="45.992185" lon="10.019927">
<ele>2159</ele>
<time>2022-01-08T06:26:30Z</time></trkpt>
<trkpt lat="45.992291" lon="10.019717">
<ele>2153</ele>
<time>2022-01-08T06:26:37Z</time></trkpt>
<trkpt lat="45.992468" lon="10.019595">
<ele>2154</ele>
<time>2022-01-08T06:26:45Z</time></trkpt>
<trkpt lat="45.992421" lon="10.01979">
<ele>2161</ele>
<time>2022-01-08T06:26:51Z</time></trkpt>
<trkpt lat="45.992516" lon="10.019772">
<ele>2163</ele>
<time>2022-01-08T06:26:55Z</time></trkpt>
<trkpt lat="45.992484" lon="10.019943">
<ele>2170</ele>
<time>2022-01-08T06:26:59Z</time></trkpt>
<trkpt lat="45.992614" lon="10.019985">
<ele>2174</ele>
<time>2022-01-08T06:27:05Z</time></trkpt>
<trkpt lat="45.992578" lon="10.020162">
<ele>2181</ele>
<time>2022-01-08T06:27:10Z</time></trkpt>
<trkpt lat="45.992659" lon="10.020183">
<ele>2183</ele>
<time>2022-01-08T06:27:13Z</time></trkpt>
<trkpt lat="45.992669" lon="10.020265">
<ele>2187</ele>
<time>2022-01-08T06:27:16Z</time></trkpt>
<trkpt lat="45.992661" lon="10.020489">
<ele>2196</ele>
<time>2022-01-08T06:27:22Z</time></trkpt>
<trkpt lat="45.99263" lon="10.0207">
<ele>2204</ele>
<time>2022-01-08T06:27:28Z</time></trkpt>
<trkpt lat="45.992556" lon="10.020882">
<ele>2208</ele>
<time>2022-01-08T06:27:34Z</time></trkpt>
<trkpt lat="45.992453" lon="10.021047">
<ele>2213</ele>
<time>2022-01-08T06:27:40Z</time></trkpt>
<trkpt lat="45.992048" lon="10.021338">
<ele>2210</ele>
<time>2022-01-08T06:27:58Z</time></trkpt>
<trkpt lat="45.991978" lon="10.021539">
<ele>2215</ele>
<time>2022-01-08T06:28:04Z</time></trkpt>
<trkpt lat="45.991886" lon="10.021609">
<ele>2216</ele>
<time>2022-01-08T06:28:08Z</time></trkpt>
<trkpt lat="45.991711" lon="10.021541">
<ele>2209</ele>
<time>2022-01-08T06:28:16Z</time></trkpt>
<trkpt lat="45.991457" lon="10.021566">
<ele>2204</ele>
<time>2022-01-08T06:28:26Z</time></trkpt>
<trkpt lat="45.991123" lon="10.021829">
<ele>2196</ele>
<time>2022-01-08T06:28:41Z</time></trkpt>
<trkpt lat="45.991002" lon="10.021863">
<ele>2192</ele>
<time>2022-01-08T06:28:46Z</time></trkpt>
<trkpt lat="45.990867" lon="10.021829">
<ele>2189</ele>
<time>2022-01-08T06:28:52Z</time></trkpt>
<trkpt lat="45.99054" lon="10.021583">
<ele>2179</ele>
<time>2022-01-08T06:29:06Z</time></trkpt>
<trkpt lat="45.990408" lon="10.021426">
<ele>2175</ele>
<time>2022-01-08T06:29:13Z</time></trkpt>
<trkpt lat="45.990199" lon="10.021112">
<ele>2172</ele>
<time>2022-01-08T06:29:25Z</time></trkpt>
<trkpt lat="45.989941" lon="10.020318">
<ele>2188</ele>
<time>2022-01-08T06:29:50Z</time></trkpt>
<trkpt lat="45.989628" lon="10.019941">
<ele>2180</ele>
<time>2022-01-08T06:30:06Z</time></trkpt>
<trkpt lat="45.989189" lon="10.019633">
<ele>2164</ele>
<time>2022-01-08T06:30:26Z</time></trkpt>
<trkpt lat="45.988949" lon="10.019426">
<ele>2161</ele>
<time>2022-01-08T06:30:37Z</time></trkpt>
<trkpt lat="45.988609" lon="10.019053">
<ele>2161</ele>
<time>2022-01-08T06:30:54Z</time></trkpt>
<trkpt lat="45.988396" lon="10.018919">
<ele>2157</ele>
<time>2022-01-08T06:31:03Z</time></trkpt>
<trkpt lat="45.988174" lon="10.018613">
<ele>2164</ele>
<time>2022-01-08T06:31:16Z</time></trkpt>
<trkpt lat="45.987821" lon="10.018203">
<ele>2167</ele>
<time>2022-01-08T06:31:34Z</time></trkpt>
<trkpt lat="45.987259" lon="10.017366">
<ele>2180</ele>
<time>2022-01-08T06:32:06Z</time></trkpt>
<trkpt lat="45.986822" lon="10.016291">
<ele>2194</ele>
<time>2022-01-08T06:32:41Z</time></trkpt>
<trkpt lat="45.98663" lon="10.016176">
<ele>2192</ele>
<time>2022-01-08T06:32:49Z</time></trkpt>
<trkpt lat="45.986538" lon="10.015909">
<ele>2203</ele>
<time>2022-01-08T06:32:58Z</time></trkpt>
<trkpt lat="45.986392" lon="10.015794">
<ele>2209</ele>
<time>2022-01-08T06:33:04Z</time></trkpt>
<trkpt lat="45.986308" lon="10.015789">
<ele>2210</ele>
<time>2022-01-08T06:33:08Z</time></trkpt>
<trkpt lat="45.986258" lon="10.01573">
<ele>2212</ele>
<time>2022-01-08T06:33:10Z</time></trkpt>
<trkpt lat="45.986251" lon="10.015623">
<ele>2215</ele>
<time>2022-01-08T06:33:13Z</time></trkpt>
<trkpt lat="45.986162" lon="10.015692">
<ele>2214</ele>
<time>2022-01-08T06:33:17Z</time></trkpt>
<trkpt lat="45.98605" lon="10.015579">
<ele>2217</ele>
<time>2022-01-08T06:33:23Z</time></trkpt>
<trkpt lat="45.985971" lon="10.015596">
<ele>2218</ele>
<time>2022-01-08T06:33:26Z</time></trkpt>
<trkpt lat="45.9859" lon="10.015565">
<ele>2219</ele>
<time>2022-01-08T06:33:29Z</time></trkpt>
<trkpt lat="45.985778" lon="10.015472">
<ele>2220</ele>
<time>2022-01-08T06:33:34Z</time></trkpt>
<trkpt lat="45.985612" lon="10.015645">
<ele>2220</ele>
<time>2022-01-08T06:33:43Z</time></trkpt>
<trkpt lat="45.985479" lon="10.015872">
<ele>2220</ele>
<time>2022-01-08T06:33:51Z</time></trkpt>
<trkpt lat="45.985421" lon="10.015901">
<ele>2221</ele>
<time>2022-01-08T06:33:53Z</time></trkpt>
<trkpt lat="45.985249" lon="10.015822">
<ele>2223</ele>
<time>2022-01-08T06:34:01Z</time></trkpt>
<trkpt lat="45.985158" lon="10.015803">
<ele>2224</ele>
<time>2022-01-08T06:34:04Z</time></trkpt>
<trkpt lat="45.985127" lon="10.015858">
<ele>2225</ele>
<time>2022-01-08T06:34:06Z</time></trkpt>
<trkpt lat="45.984945" lon="10.01584">
<ele>2225</ele>
<time>2022-01-08T06:34:14Z</time></trkpt>
<trkpt lat="45.984829" lon="10.015875">
<ele>2224</ele>
<time>2022-01-08T06:34:18Z</time></trkpt>
<trkpt lat="45.984791" lon="10.015967">
<ele>2226</ele>
<time>2022-01-08T06:34:21Z</time></trkpt>
<trkpt lat="45.984786" lon="10.016087">
<ele>2229</ele>
<time>2022-01-08T06:34:25Z</time></trkpt>
<trkpt lat="45.98462" lon="10.016181">
<ele>2230</ele>
<time>2022-01-08T06:34:32Z</time></trkpt>
<trkpt lat="45.984599" lon="10.016302">
<ele>2233</ele>
<time>2022-01-08T06:34:35Z</time></trkpt>
<trkpt lat="45.984617" lon="10.01646">
<ele>2238</ele>
<time>2022-01-08T06:34:40Z</time></trkpt>
<trkpt lat="45.984699" lon="10.016595">
<ele>2242</ele>
<time>2022-01-08T06:34:45Z</time></trkpt>
<trkpt lat="45.98485" lon="10.016608">
<ele>2244</ele>
<time>2022-01-08T06:34:51Z</time></trkpt>
<trkpt lat="45.984902" lon="10.016694">
<ele>2246</ele>
<time>2022-01-08T06:34:54Z</time></trkpt>
<trkpt lat="45.984891" lon="10.016863">
<ele>2248</ele>
<time>2022-01-08T06:34:59Z</time></trkpt>
<trkpt lat="45.984926" lon="10.017202">
<ele>2253</ele>
<time>2022-01-08T06:35:08Z</time></trkpt>
<trkpt lat="45.984898" lon="10.017367">
<ele>2255</ele>
<time>2022-01-08T06:35:13Z</time></trkpt>
<trkpt lat="45.984947" lon="10.017813">
<ele>2261</ele>
<time>2022-01-08T06:35:25Z</time></trkpt>
<trkpt lat="45.984889" lon="10.017965">
<ele>2261</ele>
<time>2022-01-08T06:35:30Z</time></trkpt>
<trkpt lat="45.984889" lon="10.017965">
<ele>2261</ele>
<time>2022-01-08T06:35:30Z</time></trkpt>
<trkpt lat="45.984847" lon="10.018078">
<ele>2262</ele>
<time>2022-01-08T06:35:34Z</time></trkpt>
<trkpt lat="45.984878" lon="10.018463">
<ele>2264</ele>
<time>2022-01-08T06:35:45Z</time></trkpt>
<trkpt lat="45.984854" lon="10.018708">
<ele>2262</ele>
<time>2022-01-08T06:35:52Z</time></trkpt>
<trkpt lat="45.984786" lon="10.018902">
<ele>2261</ele>
<time>2022-01-08T06:35:58Z</time></trkpt>
<trkpt lat="45.984757" lon="10.019145">
<ele>2260</ele>
<time>2022-01-08T06:36:04Z</time></trkpt>
<trkpt lat="45.984695" lon="10.01937">
<ele>2258</ele>
<time>2022-01-08T06:36:11Z</time></trkpt>
<trkpt lat="45.984318" lon="10.019845">
<ele>2261</ele>
<time>2022-01-08T06:36:31Z</time></trkpt>
<trkpt lat="45.984247" lon="10.019981">
<ele>2264</ele>
<time>2022-01-08T06:36:36Z</time></trkpt>
<trkpt lat="45.984121" lon="10.020851">
<ele>2280</ele>
<time>2022-01-08T06:37:01Z</time></trkpt>
<trkpt lat="45.984031" lon="10.021188">
<ele>2283</ele>
<time>2022-01-08T06:37:11Z</time></trkpt>
<trkpt lat="45.983903" lon="10.021512">
<ele>2286</ele>
<time>2022-01-08T06:37:21Z</time></trkpt>
<trkpt lat="45.983587" lon="10.021984">
<ele>2287</ele>
<time>2022-01-08T06:37:39Z</time></trkpt>
<trkpt lat="45.983134" lon="10.022372">
<ele>2293</ele>
<time>2022-01-08T06:38:01Z</time></trkpt>
<trkpt lat="45.983122" lon="10.022449">
<ele>2295</ele>
<time>2022-01-08T06:38:03Z</time></trkpt>
<trkpt lat="45.983152" lon="10.022515">
<ele>2297</ele>
<time>2022-01-08T06:38:05Z</time></trkpt>
<trkpt lat="45.983113" lon="10.02263">
<ele>2296</ele>
<time>2022-01-08T06:38:09Z</time></trkpt>
<trkpt lat="45.983036" lon="10.022674">
<ele>2296</ele>
<time>2022-01-08T06:38:12Z</time></trkpt>
<trkpt lat="45.983057" lon="10.022745">
<ele>2296</ele>
<time>2022-01-08T06:38:14Z</time></trkpt>
<trkpt lat="45.982992" lon="10.022811">
<ele>2296</ele>
<time>2022-01-08T06:38:17Z</time></trkpt>
<trkpt lat="45.98285" lon="10.022877">
<ele>2296</ele>
<time>2022-01-08T06:38:23Z</time></trkpt>
<trkpt lat="45.982554" lon="10.022961">
<ele>2298</ele>
<time>2022-01-08T06:38:35Z</time></trkpt>
<trkpt lat="45.98233" lon="10.023265">
<ele>2306</ele>
<time>2022-01-08T06:38:48Z</time></trkpt>
<trkpt lat="45.982275" lon="10.023417">
<ele>2305</ele>
<time>2022-01-08T06:38:52Z</time></trkpt>
<trkpt lat="45.98226" lon="10.023548">
<ele>2302</ele>
<time>2022-01-08T06:38:56Z</time></trkpt>
<trkpt lat="45.98219" lon="10.023695">
<ele>2298</ele>
<time>2022-01-08T06:39:01Z</time></trkpt>
<trkpt lat="45.982044" lon="10.02367">
<ele>2299</ele>
<time>2022-01-08T06:39:07Z</time></trkpt>
<trkpt lat="45.981802" lon="10.023512">
<ele>2303</ele>
<time>2022-01-08T06:39:18Z</time></trkpt>
<trkpt lat="45.98157" lon="10.023529">
<ele>2301</ele>
<time>2022-01-08T06:39:27Z</time></trkpt>
<trkpt lat="45.981143" lon="10.023635">
<ele>2291</ele>
<time>2022-01-08T06:39:44Z</time></trkpt>
<trkpt lat="45.981069" lon="10.023684">
<ele>2289</ele>
<time>2022-01-08T06:39:48Z</time></trkpt>
<trkpt lat="45.981069" lon="10.023684">
<ele>2289</ele>
<time>2022-01-08T06:39:48Z</time></trkpt>
<trkpt lat="45.980468" lon="10.024077">
<ele>2264</ele>
<time>2022-01-08T06:40:14Z</time></trkpt>
<trkpt lat="45.98038" lon="10.024096">
<ele>2261</ele>
<time>2022-01-08T06:40:18Z</time></trkpt>
<trkpt lat="45.980241" lon="10.024493">
<ele>2253</ele>
<time>2022-01-08T06:40:30Z</time></trkpt>
<trkpt lat="45.98007" lon="10.024904">
<ele>2248</ele>
<time>2022-01-08T06:40:43Z</time></trkpt>
<trkpt lat="45.979944" lon="10.025073">
<ele>2247</ele>
<time>2022-01-08T06:40:50Z</time></trkpt>
<trkpt lat="45.97989" lon="10.025364">
<ele>2247</ele>
<time>2022-01-08T06:40:59Z</time></trkpt>
<trkpt lat="45.979407" lon="10.026059">
<ele>2249</ele>
<time>2022-01-08T06:41:26Z</time></trkpt>
<trkpt lat="45.979046" lon="10.026519">
<ele>2246</ele>
<time>2022-01-08T06:41:45Z</time></trkpt>
<trkpt lat="45.978729" lon="10.026828">
<ele>2244</ele>
<time>2022-01-08T06:42:01Z</time></trkpt>
<trkpt lat="45.97848" lon="10.027193">
<ele>2245</ele>
<time>2022-01-08T06:42:15Z</time></trkpt>
<trkpt lat="45.97839" lon="10.027554">
<ele>2247</ele>
<time>2022-01-08T06:42:26Z</time></trkpt>
<trkpt lat="45.978088" lon="10.028331">
<ele>2248</ele>
<time>2022-01-08T06:42:50Z</time></trkpt>
<trkpt lat="45.977938" lon="10.028579">
<ele>2245</ele>
<time>2022-01-08T06:42:59Z</time></trkpt>
<trkpt lat="45.977753" lon="10.028828">
<ele>2242</ele>
<time>2022-01-08T06:43:10Z</time></trkpt>
<trkpt lat="45.977384" lon="10.028876">
<ele>2245</ele>
<time>2022-01-08T06:43:24Z</time></trkpt>
<trkpt lat="45.977041" lon="10.028859">
<ele>2250</ele>
<time>2022-01-08T06:43:38Z</time></trkpt>
<trkpt lat="45.976744" lon="10.028998">
<ele>2250</ele>
<time>2022-01-08T06:43:51Z</time></trkpt>
<trkpt lat="45.976575" lon="10.029109">
<ele>2247</ele>
<time>2022-01-08T06:43:58Z</time></trkpt>
<trkpt lat="45.976575" lon="10.029109">
<ele>2247</ele>
<time>2022-01-08T06:43:58Z</time></trkpt>
<trkpt lat="45.976464" lon="10.029183">
<ele>2247</ele>
<time>2022-01-08T06:44:03Z</time></trkpt>
<trkpt lat="45.976232" lon="10.02942">
<ele>2247</ele>
<time>2022-01-08T06:44:15Z</time></trkpt>
<trkpt lat="45.976036" lon="10.02983">
<ele>2236</ele>
<time>2022-01-08T06:44:28Z</time></trkpt>
<trkpt lat="45.975952" lon="10.029845">
<ele>2236</ele>
<time>2022-01-08T06:44:32Z</time></trkpt>
<trkpt lat="45.975833" lon="10.029902">
<ele>2236</ele>
<time>2022-01-08T06:44:37Z</time></trkpt>
<trkpt lat="45.97569" lon="10.030092">
<ele>2236</ele>
<time>2022-01-08T06:44:45Z</time></trkpt>
<trkpt lat="45.975574" lon="10.030193">
<ele>2236</ele>
<time>2022-01-08T06:44:50Z</time></trkpt>
<trkpt lat="45.975403" lon="10.030195">
<ele>2236</ele>
<time>2022-01-08T06:44:57Z</time></trkpt>
<trkpt lat="45.975118" lon="10.030341">
<ele>2236</ele>
<time>2022-01-08T06:45:09Z</time></trkpt>
<trkpt lat="45.974984" lon="10.030369">
<ele>2236</ele>
<time>2022-01-08T06:45:14Z</time></trkpt>
<trkpt lat="45.974593" lon="10.030343">
<ele>2236</ele>
<time>2022-01-08T06:45:30Z</time></trkpt>
<trkpt lat="45.974431" lon="10.030404">
<ele>2236</ele>
<time>2022-01-08T06:45:37Z</time></trkpt>
<trkpt lat="45.974431" lon="10.030404">
<ele>2236</ele>
<time>2022-01-08T06:45:37Z</time></trkpt>
<trkpt lat="45.974226" lon="10.030517">
<ele>2275</ele>
<time>2022-01-08T06:45:46Z</time></trkpt>
<trkpt lat="45.973652" lon="10.030721">
<ele>2281</ele>
<time>2022-01-08T06:46:09Z</time></trkpt>
<trkpt lat="45.973386" lon="10.030736">
<ele>2281</ele>
<time>2022-01-08T06:46:20Z</time></trkpt>
<trkpt lat="45.973167" lon="10.030824">
<ele>2281</ele>
<time>2022-01-08T06:46:29Z</time></trkpt>
<trkpt lat="45.973039" lon="10.030934">
<ele>2277</ele>
<time>2022-01-08T06:46:35Z</time></trkpt>
<trkpt lat="45.972253" lon="10.031776">
<ele>2278</ele>
<time>2022-01-08T06:47:14Z</time></trkpt>
<trkpt lat="45.971763" lon="10.032429">
<ele>2273</ele>
<time>2022-01-08T06:47:41Z</time></trkpt>
<trkpt lat="45.971546" lon="10.032622">
<ele>2273</ele>
<time>2022-01-08T06:47:51Z</time></trkpt>
<trkpt lat="45.971203" lon="10.032987">
<ele>2266</ele>
<time>2022-01-08T06:48:08Z</time></trkpt>
<trkpt lat="45.970611" lon="10.033339">
<ele>2262</ele>
<time>2022-01-08T06:48:34Z</time></trkpt>
<trkpt lat="45.969847" lon="10.034235">
<ele>2239</ele>
<time>2022-01-08T06:49:14Z</time></trkpt>
<trkpt lat="45.969677" lon="10.034516">
<ele>2229</ele>
<time>2022-01-08T06:49:24Z</time></trkpt>
<trkpt lat="45.969677" lon="10.034516">
<ele>2229</ele>
<time>2022-01-08T06:49:24Z</time></trkpt>
<trkpt lat="45.96944" lon="10.034905">
<ele>2223</ele>
<time>2022-01-08T06:49:38Z</time></trkpt>
<trkpt lat="45.969435" lon="10.035022">
<ele>2223</ele>
<time>2022-01-08T06:49:42Z</time></trkpt>
<trkpt lat="45.969359" lon="10.035183">
<ele>2220</ele>
<time>2022-01-08T06:49:47Z</time></trkpt>
<trkpt lat="45.969189" lon="10.035377">
<ele>2220</ele>
<time>2022-01-08T06:49:56Z</time></trkpt>
<trkpt lat="45.969181" lon="10.035469">
<ele>2219</ele>
<time>2022-01-08T06:49:58Z</time></trkpt>
<trkpt lat="45.969285" lon="10.035568">
<ele>2216</ele>
<time>2022-01-08T06:50:03Z</time></trkpt>
<trkpt lat="45.969381" lon="10.035619">
<ele>2213</ele>
<time>2022-01-08T06:50:07Z</time></trkpt>
<trkpt lat="45.969377" lon="10.03575">
<ele>2212</ele>
<time>2022-01-08T06:50:11Z</time></trkpt>
<trkpt lat="45.969323" lon="10.035852">
<ele>2211</ele>
<time>2022-01-08T06:50:15Z</time></trkpt>
<trkpt lat="45.96929" lon="10.035877">
<ele>2211</ele>
<time>2022-01-08T06:50:16Z</time></trkpt>
<trkpt lat="45.969291" lon="10.035916">
<ele>2210</ele>
<time>2022-01-08T06:50:17Z</time></trkpt>
<trkpt lat="45.969368" lon="10.03608">
<ele>2203</ele>
<time>2022-01-08T06:50:23Z</time></trkpt>
<trkpt lat="45.969427" lon="10.03613">
<ele>2200</ele>
<time>2022-01-08T06:50:25Z</time></trkpt>
<trkpt lat="45.969402" lon="10.036228">
<ele>2198</ele>
<time>2022-01-08T06:50:28Z</time></trkpt>
<trkpt lat="45.969458" lon="10.036249">
<ele>2196</ele>
<time>2022-01-08T06:50:31Z</time></trkpt>
<trkpt lat="45.969496" lon="10.036334">
<ele>2192</ele>
<time>2022-01-08T06:50:34Z</time></trkpt>
<trkpt lat="45.9695" lon="10.036431">
<ele>2190</ele>
<time>2022-01-08T06:50:36Z</time></trkpt>
<trkpt lat="45.969484" lon="10.036472">
<ele>2189</ele>
<time>2022-01-08T06:50:38Z</time></trkpt>
<trkpt lat="45.969431" lon="10.036506">
<ele>2189</ele>
<time>2022-01-08T06:50:40Z</time></trkpt>
<trkpt lat="45.96942" lon="10.036644">
<ele>2186</ele>
<time>2022-01-08T06:50:44Z</time></trkpt>
<trkpt lat="45.969491" lon="10.03673">
<ele>2181</ele>
<time>2022-01-08T06:50:47Z</time></trkpt>
<trkpt lat="45.969256" lon="10.037461">
<ele>2168</ele>
<time>2022-01-08T06:51:10Z</time></trkpt>
<trkpt lat="45.969268" lon="10.037928">
<ele>2164</ele>
<time>2022-01-08T06:51:23Z</time></trkpt>
<trkpt lat="45.969222" lon="10.038171">
<ele>2163</ele>
<time>2022-01-08T06:51:30Z</time></trkpt>
<trkpt lat="45.9690162" lon="10.0386785">
<ele>2158</ele>
<time>2022-01-08T06:51:46Z</time></trkpt>
<trkpt lat="45.969016" lon="10.038678">
<ele>2158</ele>
<time>2022-01-08T06:51:46Z</time></trkpt>
<trkpt lat="45.968969" lon="10.038795">
<ele>2156</ele>
<time>2022-01-08T06:51:50Z</time></trkpt>
<trkpt lat="45.968799" lon="10.039084">
<ele>2153</ele>
<time>2022-01-08T06:52:01Z</time></trkpt>
<trkpt lat="45.968719" lon="10.039136">
<ele>2153</ele>
<time>2022-01-08T06:52:04Z</time></trkpt>
<trkpt lat="45.968789" lon="10.039245">
<ele>2153</ele>
<time>2022-01-08T06:52:08Z</time></trkpt>
<trkpt lat="45.96878" lon="10.039342">
<ele>2152</ele>
<time>2022-01-08T06:52:11Z</time></trkpt>
<trkpt lat="45.968638" lon="10.039513">
<ele>2150</ele>
<time>2022-01-08T06:52:18Z</time></trkpt>
<trkpt lat="45.968588" lon="10.039691">
<ele>2148</ele>
<time>2022-01-08T06:52:24Z</time></trkpt>
<trkpt lat="45.968568" lon="10.039863">
<ele>2147</ele>
<time>2022-01-08T06:52:29Z</time></trkpt>
<trkpt lat="45.968455" lon="10.040079">
<ele>2145</ele>
<time>2022-01-08T06:52:36Z</time></trkpt>
<trkpt lat="45.968461" lon="10.040121">
<ele>2145</ele>
<time>2022-01-08T06:52:37Z</time></trkpt>
<trkpt lat="45.968386" lon="10.040323">
<ele>2142</ele>
<time>2022-01-08T06:52:44Z</time></trkpt>
<trkpt lat="45.96825" lon="10.040467">
<ele>2138</ele>
<time>2022-01-08T06:52:51Z</time></trkpt>
<trkpt lat="45.968222" lon="10.040464">
<ele>2138</ele>
<time>2022-01-08T06:52:52Z</time></trkpt>
<trkpt lat="45.968201" lon="10.040521">
<ele>2137</ele>
<time>2022-01-08T06:52:53Z</time></trkpt>
<trkpt lat="45.96806" lon="10.040567">
<ele>2133</ele>
<time>2022-01-08T06:52:59Z</time></trkpt>
<trkpt lat="45.96799" lon="10.040634">
<ele>2132</ele>
<time>2022-01-08T06:53:03Z</time></trkpt>
<trkpt lat="45.96795" lon="10.040739">
<ele>2130</ele>
<time>2022-01-08T06:53:06Z</time></trkpt>
<trkpt lat="45.96795" lon="10.040739">
<ele>2130</ele>
<time>2022-01-08T06:53:06Z</time></trkpt>
<trkpt lat="45.967889" lon="10.040835">
<ele>2129</ele>
<time>2022-01-08T06:53:10Z</time></trkpt>
<trkpt lat="45.967774" lon="10.041097">
<ele>2127</ele>
<time>2022-01-08T06:53:18Z</time></trkpt>
<trkpt lat="45.967676" lon="10.041245">
<ele>2127</ele>
<time>2022-01-08T06:53:24Z</time></trkpt>
<trkpt lat="45.967614" lon="10.041394">
<ele>2127</ele>
<time>2022-01-08T06:53:29Z</time></trkpt>
<trkpt lat="45.967563" lon="10.041472">
<ele>2128</ele>
<time>2022-01-08T06:53:32Z</time></trkpt>
<trkpt lat="45.967427" lon="10.041588">
<ele>2127</ele>
<time>2022-01-08T06:53:38Z</time></trkpt>
<trkpt lat="45.967364" lon="10.041611">
<ele>2126</ele>
<time>2022-01-08T06:53:41Z</time></trkpt>
<trkpt lat="45.967222" lon="10.041711">
<ele>2124</ele>
<time>2022-01-08T06:53:47Z</time></trkpt>
<trkpt lat="45.967148" lon="10.041796">
<ele>2123</ele>
<time>2022-01-08T06:53:51Z</time></trkpt>
<trkpt lat="45.967111" lon="10.041801">
<ele>2123</ele>
<time>2022-01-08T06:53:52Z</time></trkpt>
<trkpt lat="45.966983" lon="10.041904">
<ele>2121</ele>
<time>2022-01-08T06:53:58Z</time></trkpt>
<trkpt lat="45.966954" lon="10.041904">
<ele>2121</ele>
<time>2022-01-08T06:53:59Z</time></trkpt>
<trkpt lat="45.966821" lon="10.041989">
<ele>2120</ele>
<time>2022-01-08T06:54:05Z</time></trkpt>
<trkpt lat="45.966797" lon="10.042128">
<ele>2121</ele>
<time>2022-01-08T06:54:09Z</time></trkpt>
<trkpt lat="45.966689" lon="10.042301">
<ele>2122</ele>
<time>2022-01-08T06:54:16Z</time></trkpt>
<trkpt lat="45.966629" lon="10.042352">
<ele>2122</ele>
<time>2022-01-08T06:54:18Z</time></trkpt>
<trkpt lat="45.966467" lon="10.042434">
<ele>2122</ele>
<time>2022-01-08T06:54:25Z</time></trkpt>
<trkpt lat="45.966456" lon="10.042458">
<ele>2122</ele>
<time>2022-01-08T06:54:26Z</time></trkpt>
<trkpt lat="45.96636" lon="10.0425">
<ele>2122</ele>
<time>2022-01-08T06:54:30Z</time></trkpt>
<trkpt lat="45.966318" lon="10.04259">
<ele>2121</ele>
<time>2022-01-08T06:54:33Z</time></trkpt>
<trkpt lat="45.966137" lon="10.042804">
<ele>2120</ele>
<time>2022-01-08T06:54:42Z</time></trkpt>
<trkpt lat="45.966032" lon="10.042894">
<ele>2120</ele>
<time>2022-01-08T06:54:47Z</time></trkpt>
<trkpt lat="45.965995" lon="10.042902">
<ele>2120</ele>
<time>2022-01-08T06:54:49Z</time></trkpt>
<trkpt lat="45.965931" lon="10.04298">
<ele>2120</ele>
<time>2022-01-08T06:54:52Z</time></trkpt>
<trkpt lat="45.965857" lon="10.043019">
<ele>2120</ele>
<time>2022-01-08T06:54:55Z</time></trkpt>
<trkpt lat="45.965818" lon="10.043085">
<ele>2120</ele>
<time>2022-01-08T06:54:58Z</time></trkpt>
<trkpt lat="45.965689" lon="10.043131">
<ele>2113</ele>
<time>2022-01-08T06:55:03Z</time></trkpt>
<trkpt lat="45.965672" lon="10.043157">
<ele>2112</ele>
<time>2022-01-08T06:55:04Z</time></trkpt>
<trkpt lat="45.965617" lon="10.043418">
<ele>2109</ele>
<time>2022-01-08T06:55:12Z</time></trkpt>
<trkpt lat="45.965647" lon="10.043591">
<ele>2109</ele>
<time>2022-01-08T06:55:17Z</time></trkpt>
<trkpt lat="45.965687" lon="10.043677">
<ele>2111</ele>
<time>2022-01-08T06:55:20Z</time></trkpt>
<trkpt lat="45.965628" lon="10.043831">
<ele>2107</ele>
<time>2022-01-08T06:55:24Z</time></trkpt>
<trkpt lat="45.965556" lon="10.043897">
<ele>2103</ele>
<time>2022-01-08T06:55:28Z</time></trkpt>
<trkpt lat="45.965567" lon="10.043917">
<ele>2103</ele>
<time>2022-01-08T06:55:29Z</time></trkpt>
<trkpt lat="45.96554" lon="10.043989">
<ele>2102</ele>
<time>2022-01-08T06:55:31Z</time></trkpt>
<trkpt lat="45.96554" lon="10.043989">
<ele>2102</ele>
<time>2022-01-08T06:55:31Z</time></trkpt>
<trkpt lat="45.965466" lon="10.04419">
<ele>2098</ele>
<time>2022-01-08T06:55:37Z</time></trkpt>
<trkpt lat="45.965453" lon="10.044346">
<ele>2095</ele>
<time>2022-01-08T06:55:42Z</time></trkpt>
<trkpt lat="45.965426" lon="10.04441">
<ele>2093</ele>
<time>2022-01-08T06:55:44Z</time></trkpt>
<trkpt lat="45.965486" lon="10.044645">
<ele>2091</ele>
<time>2022-01-08T06:55:51Z</time></trkpt>
<trkpt lat="45.96548" lon="10.044744">
<ele>2090</ele>
<time>2022-01-08T06:55:53Z</time></trkpt>
<trkpt lat="45.965517" lon="10.044822">
<ele>2089</ele>
<time>2022-01-08T06:55:56Z</time></trkpt>
<trkpt lat="45.965505" lon="10.044843">
<ele>2089</ele>
<time>2022-01-08T06:55:57Z</time></trkpt>
<trkpt lat="45.965459" lon="10.044852">
<ele>2088</ele>
<time>2022-01-08T06:55:59Z</time></trkpt>
<trkpt lat="45.965462" lon="10.044874">
<ele>2087</ele>
<time>2022-01-08T06:55:59Z</time></trkpt>
<trkpt lat="45.965501" lon="10.044975">
<ele>2086</ele>
<time>2022-01-08T06:56:03Z</time></trkpt>
<trkpt lat="45.965558" lon="10.045035">
<ele>2086</ele>
<time>2022-01-08T06:56:05Z</time></trkpt>
<trkpt lat="45.965569" lon="10.045087">
<ele>2085</ele>
<time>2022-01-08T06:56:07Z</time></trkpt>
<trkpt lat="45.965541" lon="10.045291">
<ele>2081</ele>
<time>2022-01-08T06:56:13Z</time></trkpt>
<trkpt lat="45.965509" lon="10.045364">
<ele>2079</ele>
<time>2022-01-08T06:56:15Z</time></trkpt>
<trkpt lat="45.965534" lon="10.045445">
<ele>2078</ele>
<time>2022-01-08T06:56:18Z</time></trkpt>
<trkpt lat="45.965547" lon="10.045622">
<ele>2075</ele>
<time>2022-01-08T06:56:23Z</time></trkpt>
<trkpt lat="45.965577" lon="10.045729">
<ele>2073</ele>
<time>2022-01-08T06:56:26Z</time></trkpt>
<trkpt lat="45.96555" lon="10.045772">
<ele>2072</ele>
<time>2022-01-08T06:56:27Z</time></trkpt>
<trkpt lat="45.965564" lon="10.045869">
<ele>2071</ele>
<time>2022-01-08T06:56:30Z</time></trkpt>
<trkpt lat="45.965534" lon="10.0459">
<ele>2071</ele>
<time>2022-01-08T06:56:32Z</time></trkpt>
<trkpt lat="45.965514" lon="10.046002">
<ele>2071</ele>
<time>2022-01-08T06:56:35Z</time></trkpt>
<trkpt lat="45.965458" lon="10.046124">
<ele>2071</ele>
<time>2022-01-08T06:56:39Z</time></trkpt>
<trkpt lat="45.965484" lon="10.04626">
<ele>2071</ele>
<time>2022-01-08T06:56:43Z</time></trkpt>
<trkpt lat="45.965466" lon="10.046322">
<ele>2071</ele>
<time>2022-01-08T06:56:44Z</time></trkpt>
<trkpt lat="45.965477" lon="10.046409">
<ele>2071</ele>
<time>2022-01-08T06:56:47Z</time></trkpt>
<trkpt lat="45.965441" lon="10.046536">
<ele>2071</ele>
<time>2022-01-08T06:56:51Z</time></trkpt>
<trkpt lat="45.965509" lon="10.04677">
<ele>2071</ele>
<time>2022-01-08T06:56:58Z</time></trkpt>
<trkpt lat="45.96555" lon="10.046794">
<ele>2072</ele>
<time>2022-01-08T06:57:00Z</time></trkpt>
<trkpt lat="45.965554" lon="10.046887">
<ele>2071</ele>
<time>2022-01-08T06:57:02Z</time></trkpt>
<trkpt lat="45.965547" lon="10.046944">
<ele>2070</ele>
<time>2022-01-08T06:57:04Z</time></trkpt>
<trkpt lat="45.96543" lon="10.04708">
<ele>2068</ele>
<time>2022-01-08T06:57:10Z</time></trkpt>
<trkpt lat="45.965453" lon="10.047131">
<ele>2068</ele>
<time>2022-01-08T06:57:11Z</time></trkpt>
<trkpt lat="45.965481" lon="10.047378">
<ele>2067</ele>
<time>2022-01-08T06:57:18Z</time></trkpt>
<trkpt lat="45.96552" lon="10.047485">
<ele>2066</ele>
<time>2022-01-08T06:57:22Z</time></trkpt>
<trkpt lat="45.965702" lon="10.047756">
<ele>2066</ele>
<time>2022-01-08T06:57:32Z</time></trkpt>
<trkpt lat="45.965781" lon="10.04784">
<ele>2066</ele>
<time>2022-01-08T06:57:36Z</time></trkpt>
<trkpt lat="45.965847" lon="10.047964">
<ele>2065</ele>
<time>2022-01-08T06:57:41Z</time></trkpt>
<trkpt lat="45.965818" lon="10.048053">
<ele>2065</ele>
<time>2022-01-08T06:57:43Z</time></trkpt>
<trkpt lat="45.966012" lon="10.048334">
<ele>2055</ele>
<time>2022-01-08T06:57:54Z</time></trkpt>
<trkpt lat="45.966217" lon="10.048591">
<ele>2045</ele>
<time>2022-01-08T06:58:05Z</time></trkpt>
<trkpt lat="45.966352" lon="10.048702">
<ele>2039</ele>
<time>2022-01-08T06:58:11Z</time></trkpt>
<trkpt lat="45.966393" lon="10.048766">
<ele>2037</ele>
<time>2022-01-08T06:58:14Z</time></trkpt>
<trkpt lat="45.966432" lon="10.048915">
<ele>2035</ele>
<time>2022-01-08T06:58:18Z</time></trkpt>
<trkpt lat="45.966392" lon="10.049488">
<ele>2031</ele>
<time>2022-01-08T06:58:34Z</time></trkpt>
<trkpt lat="45.966392" lon="10.049488">
<ele>2031</ele>
<time>2022-01-08T06:58:34Z</time></trkpt>
<trkpt lat="45.966315" lon="10.049991">
<ele>2023</ele>
<time>2022-01-08T06:58:49Z</time></trkpt>
<trkpt lat="45.966119" lon="10.050943">
<ele>2009</ele>
<time>2022-01-08T06:59:16Z</time></trkpt>
<trkpt lat="45.966083" lon="10.0516">
<ele>2002</ele>
<time>2022-01-08T06:59:35Z</time></trkpt>
<trkpt lat="45.966113" lon="10.051741">
<ele>2000</ele>
<time>2022-01-08T06:59:39Z</time></trkpt>
<trkpt lat="45.96618" lon="10.051824">
<ele>1998</ele>
<time>2022-01-08T06:59:42Z</time></trkpt>
<trkpt lat="45.96619" lon="10.051885">
<ele>1998</ele>
<time>2022-01-08T06:59:44Z</time></trkpt>
<trkpt lat="45.9664" lon="10.052016">
<ele>1995</ele>
<time>2022-01-08T06:59:53Z</time></trkpt>
<trkpt lat="45.966425" lon="10.052086">
<ele>1994</ele>
<time>2022-01-08T06:59:55Z</time></trkpt>
<trkpt lat="45.966416" lon="10.052119">
<ele>1993</ele>
<time>2022-01-08T06:59:56Z</time></trkpt>
<trkpt lat="45.966507" lon="10.052166">
<ele>1992</ele>
<time>2022-01-08T07:00:00Z</time></trkpt>
<trkpt lat="45.966559" lon="10.052236">
<ele>1991</ele>
<time>2022-01-08T07:00:03Z</time></trkpt>
<trkpt lat="45.966569" lon="10.052338">
<ele>1990</ele>
<time>2022-01-08T07:00:06Z</time></trkpt>
<trkpt lat="45.966632" lon="10.052615">
<ele>1986</ele>
<time>2022-01-08T07:00:14Z</time></trkpt>
<trkpt lat="45.9667" lon="10.052769">
<ele>1983</ele>
<time>2022-01-08T07:00:19Z</time></trkpt>
<trkpt lat="45.966817" lon="10.052761">
<ele>1982</ele>
<time>2022-01-08T07:00:24Z</time></trkpt>
<trkpt lat="45.966854" lon="10.052783">
<ele>1982</ele>
<time>2022-01-08T07:00:26Z</time></trkpt>
<trkpt lat="45.966874" lon="10.052848">
<ele>1981</ele>
<time>2022-01-08T07:00:28Z</time></trkpt>
<trkpt lat="45.966788" lon="10.053115">
<ele>1978</ele>
<time>2022-01-08T07:00:36Z</time></trkpt>
<trkpt lat="45.966844" lon="10.053205">
<ele>1976</ele>
<time>2022-01-08T07:00:39Z</time></trkpt>
<trkpt lat="45.966919" lon="10.053244">
<ele>1975</ele>
<time>2022-01-08T07:00:42Z</time></trkpt>
<trkpt lat="45.96695" lon="10.053303">
<ele>1974</ele>
<time>2022-01-08T07:00:44Z</time></trkpt>
<trkpt lat="45.96693" lon="10.053363">
<ele>1973</ele>
<time>2022-01-08T07:00:46Z</time></trkpt>
<trkpt lat="45.966669" lon="10.053667">
<ele>1970</ele>
<time>2022-01-08T07:01:00Z</time></trkpt>
<trkpt lat="45.966643" lon="10.053793">
<ele>1968</ele>
<time>2022-01-08T07:01:03Z</time></trkpt>
<trkpt lat="45.966617" lon="10.054149">
<ele>1962</ele>
<time>2022-01-08T07:01:13Z</time></trkpt>
<trkpt lat="45.966522" lon="10.054485">
<ele>1958</ele>
<time>2022-01-08T07:01:23Z</time></trkpt>
<trkpt lat="45.966457" lon="10.054564">
<ele>1958</ele>
<time>2022-01-08T07:01:27Z</time></trkpt>
<trkpt lat="45.966546" lon="10.054565">
<ele>1957</ele>
<time>2022-01-08T07:01:30Z</time></trkpt>
<trkpt lat="45.966572" lon="10.054603">
<ele>1956</ele>
<time>2022-01-08T07:01:32Z</time></trkpt>
<trkpt lat="45.966529" lon="10.054622">
<ele>1956</ele>
<time>2022-01-08T07:01:34Z</time></trkpt>
<trkpt lat="45.966489" lon="10.054733">
<ele>1954</ele>
<time>2022-01-08T07:01:37Z</time></trkpt>
<trkpt lat="45.966509" lon="10.054844">
<ele>1952</ele>
<time>2022-01-08T07:01:40Z</time></trkpt>
<trkpt lat="45.966628" lon="10.055085">
<ele>1947</ele>
<time>2022-01-08T07:01:49Z</time></trkpt>
<trkpt lat="45.966637" lon="10.055184">
<ele>1945</ele>
<time>2022-01-08T07:01:51Z</time></trkpt>
<trkpt lat="45.9666203" lon="10.0553237">
<ele>1943</ele>
<time>2022-01-08T07:01:55Z</time></trkpt>
<trkpt lat="45.966612" lon="10.055393">
<ele>1942</ele>
<time>2022-01-08T07:01:57Z</time></trkpt>
<trkpt lat="45.966612" lon="10.055393">
<ele>1942</ele>
<time>2022-01-08T07:01:57Z</time></trkpt>
<trkpt lat="45.966637" lon="10.055184">
<ele>1945</ele>
<time>2022-01-08T07:02:03Z</time></trkpt>
<trkpt lat="45.966628" lon="10.055085">
<ele>1947</ele>
<time>2022-01-08T07:02:06Z</time></trkpt>
<trkpt lat="45.966509" lon="10.054844">
<ele>1952</ele>
<time>2022-01-08T07:02:14Z</time></trkpt>
<trkpt lat="45.966489" lon="10.054733">
<ele>1954</ele>
<time>2022-01-08T07:02:17Z</time></trkpt>
<trkpt lat="45.966501" lon="10.054699">
<ele>1955</ele>
<time>2022-01-08T07:02:18Z</time></trkpt>
<trkpt lat="45.966501" lon="10.054699">
<ele>1955</ele>
<time>2022-01-08T07:02:18Z</time></trkpt>
<trkpt lat="45.966529" lon="10.054622">
<ele>1956</ele>
<time>2022-01-08T07:02:21Z</time></trkpt>
<trkpt lat="45.966572" lon="10.054603">
<ele>1956</ele>
<time>2022-01-08T07:02:23Z</time></trkpt>
<trkpt lat="45.966546" lon="10.054565">
<ele>1957</ele>
<time>2022-01-08T07:02:24Z</time></trkpt>
<trkpt lat="45.966457" lon="10.054564">
<ele>1958</ele>
<time>2022-01-08T07:02:28Z</time></trkpt>
<trkpt lat="45.966522" lon="10.054485">
<ele>1958</ele>
<time>2022-01-08T07:02:31Z</time></trkpt>
<trkpt lat="45.966617" lon="10.054149">
<ele>1962</ele>
<time>2022-01-08T07:02:41Z</time></trkpt>
<trkpt lat="45.9666239" lon="10.0540542">
<ele>1964</ele>
<time>2022-01-08T07:02:44Z</time></trkpt>
<trkpt lat="45.966643" lon="10.053793">
<ele>1968</ele>
<time>2022-01-08T07:02:51Z</time></trkpt>
<trkpt lat="45.966669" lon="10.053667">
<ele>1970</ele>
<time>2022-01-08T07:02:55Z</time></trkpt>
<trkpt lat="45.96693" lon="10.053363">
<ele>1973</ele>
<time>2022-01-08T07:03:08Z</time></trkpt>
<trkpt lat="45.96695" lon="10.053303">
<ele>1974</ele>
<time>2022-01-08T07:03:10Z</time></trkpt>
<trkpt lat="45.966919" lon="10.053244">
<ele>1975</ele>
<time>2022-01-08T07:03:12Z</time></trkpt>
<trkpt lat="45.966844" lon="10.053205">
<ele>1976</ele>
<time>2022-01-08T07:03:15Z</time></trkpt>
<trkpt lat="45.966788" lon="10.053115">
<ele>1978</ele>
<time>2022-01-08T07:03:19Z</time></trkpt>
<trkpt lat="45.966874" lon="10.052848">
<ele>1981</ele>
<time>2022-01-08T07:03:27Z</time></trkpt>
<trkpt lat="45.966854" lon="10.052783">
<ele>1982</ele>
<time>2022-01-08T07:03:29Z</time></trkpt>
<trkpt lat="45.966817" lon="10.052761">
<ele>1982</ele>
<time>2022-01-08T07:03:31Z</time></trkpt>
<trkpt lat="45.9667" lon="10.052769">
<ele>1983</ele>
<time>2022-01-08T07:03:35Z</time></trkpt>
<trkpt lat="45.966632" lon="10.052615">
<ele>1986</ele>
<time>2022-01-08T07:03:40Z</time></trkpt>
<trkpt lat="45.966569" lon="10.052338">
<ele>1990</ele>
<time>2022-01-08T07:03:48Z</time></trkpt>
<trkpt lat="45.966559" lon="10.052236">
<ele>1991</ele>
<time>2022-01-08T07:03:51Z</time></trkpt>
<trkpt lat="45.966507" lon="10.052166">
<ele>1992</ele>
<time>2022-01-08T07:03:54Z</time></trkpt>
<trkpt lat="45.966416" lon="10.052119">
<ele>1993</ele>
<time>2022-01-08T07:03:58Z</time></trkpt>
<trkpt lat="45.966425" lon="10.052086">
<ele>1994</ele>
<time>2022-01-08T07:03:59Z</time></trkpt>
<trkpt lat="45.9664" lon="10.052016">
<ele>1995</ele>
<time>2022-01-08T07:04:01Z</time></trkpt>
<trkpt lat="45.96619" lon="10.051885">
<ele>1998</ele>
<time>2022-01-08T07:04:10Z</time></trkpt>
<trkpt lat="45.96618" lon="10.051824">
<ele>1998</ele>
<time>2022-01-08T07:04:12Z</time></trkpt>
<trkpt lat="45.966113" lon="10.051741">
<ele>2000</ele>
<time>2022-01-08T07:04:16Z</time></trkpt>
<trkpt lat="45.966083" lon="10.0516">
<ele>2002</ele>
<time>2022-01-08T07:04:20Z</time></trkpt>
<trkpt lat="45.96609" lon="10.051458">
<ele>2003</ele>
<time>2022-01-08T07:04:24Z</time></trkpt>
<trkpt lat="45.96609" lon="10.051458">
<ele>2003</ele>
<time>2022-01-08T07:04:24Z</time></trkpt>
<trkpt lat="45.966119" lon="10.050943">
<ele>2009</ele>
<time>2022-01-08T07:04:38Z</time></trkpt>
<trkpt lat="45.966315" lon="10.049991">
<ele>2023</ele>
<time>2022-01-08T07:05:06Z</time></trkpt>
<trkpt lat="45.966391" lon="10.049509">
<ele>2030</ele>
<time>2022-01-08T07:05:20Z</time></trkpt>
<trkpt lat="45.966432" lon="10.048915">
<ele>2035</ele>
<time>2022-01-08T07:05:36Z</time></trkpt>
<trkpt lat="45.966393" lon="10.048766">
<ele>2037</ele>
<time>2022-01-08T07:05:41Z</time></trkpt>
<trkpt lat="45.966352" lon="10.048702">
<ele>2039</ele>
<time>2022-01-08T07:05:43Z</time></trkpt>
<trkpt lat="45.966217" lon="10.048591">
<ele>2045</ele>
<time>2022-01-08T07:05:49Z</time></trkpt>
<trkpt lat="45.966012" lon="10.048334">
<ele>2055</ele>
<time>2022-01-08T07:06:00Z</time></trkpt>
<trkpt lat="45.965818" lon="10.048053">
<ele>2065</ele>
<time>2022-01-08T07:06:11Z</time></trkpt>
<trkpt lat="45.965847" lon="10.047964">
<ele>2065</ele>
<time>2022-01-08T07:06:14Z</time></trkpt>
<trkpt lat="45.965781" lon="10.04784">
<ele>2066</ele>
<time>2022-01-08T07:06:18Z</time></trkpt>
<trkpt lat="45.965702" lon="10.047756">
<ele>2066</ele>
<time>2022-01-08T07:06:22Z</time></trkpt>
<trkpt lat="45.965632" lon="10.047699">
<ele>2066</ele>
<time>2022-01-08T07:06:26Z</time></trkpt>
<trkpt lat="45.965566" lon="10.047682">
<ele>2066</ele>
<time>2022-01-08T07:06:28Z</time></trkpt>
<trkpt lat="45.965468" lon="10.047725">
<ele>2065</ele>
<time>2022-01-08T07:06:32Z</time></trkpt>
<trkpt lat="45.965447" lon="10.047717">
<ele>2065</ele>
<time>2022-01-08T07:06:33Z</time></trkpt>
<trkpt lat="45.965312" lon="10.047862">
<ele>2064</ele>
<time>2022-01-08T07:06:40Z</time></trkpt>
<trkpt lat="45.965297" lon="10.047914">
<ele>2064</ele>
<time>2022-01-08T07:06:42Z</time></trkpt>
<trkpt lat="45.965103" lon="10.048011">
<ele>2063</ele>
<time>2022-01-08T07:06:50Z</time></trkpt>
<trkpt lat="45.964962" lon="10.048028">
<ele>2062</ele>
<time>2022-01-08T07:06:55Z</time></trkpt>
<trkpt lat="45.964962" lon="10.048028">
<ele>2062</ele>
<time>2022-01-08T07:06:55Z</time></trkpt>
<trkpt lat="45.964713" lon="10.048057">
<ele>2054</ele>
<time>2022-01-08T07:07:05Z</time></trkpt>
<trkpt lat="45.964384" lon="10.048271">
<ele>2045</ele>
<time>2022-01-08T07:07:20Z</time></trkpt>
<trkpt lat="45.964215" lon="10.048318">
<ele>2039</ele>
<time>2022-01-08T07:07:27Z</time></trkpt>
<trkpt lat="45.964053" lon="10.048421">
<ele>2037</ele>
<time>2022-01-08T07:07:34Z</time></trkpt>
<trkpt lat="45.963928" lon="10.048381">
<ele>2034</ele>
<time>2022-01-08T07:07:39Z</time></trkpt>
<trkpt lat="45.96378" lon="10.048183">
<ele>2028</ele>
<time>2022-01-08T07:07:47Z</time></trkpt>
<trkpt lat="45.96375" lon="10.04805">
<ele>2027</ele>
<time>2022-01-08T07:07:51Z</time></trkpt>
<trkpt lat="45.963679" lon="10.04792">
<ele>2024</ele>
<time>2022-01-08T07:07:56Z</time></trkpt>
<trkpt lat="45.963657" lon="10.047845">
<ele>2022</ele>
<time>2022-01-08T07:07:58Z</time></trkpt>
<trkpt lat="45.963595" lon="10.047794">
<ele>2020</ele>
<time>2022-01-08T07:08:01Z</time></trkpt>
<trkpt lat="45.963406" lon="10.047875">
<ele>2015</ele>
<time>2022-01-08T07:08:09Z</time></trkpt>
<trkpt lat="45.963299" lon="10.047897">
<ele>2012</ele>
<time>2022-01-08T07:08:13Z</time></trkpt>
<trkpt lat="45.963127" lon="10.047877">
<ele>2003</ele>
<time>2022-01-08T07:08:20Z</time></trkpt>
<trkpt lat="45.962991" lon="10.047958">
<ele>1997</ele>
<time>2022-01-08T07:08:26Z</time></trkpt>
<trkpt lat="45.962878" lon="10.048079">
<ele>1994</ele>
<time>2022-01-08T07:08:31Z</time></trkpt>
<trkpt lat="45.962725" lon="10.048192">
<ele>1990</ele>
<time>2022-01-08T07:08:38Z</time></trkpt>
<trkpt lat="45.96263" lon="10.048166">
<ele>1985</ele>
<time>2022-01-08T07:08:42Z</time></trkpt>
<trkpt lat="45.962707" lon="10.048013">
<ele>1985</ele>
<time>2022-01-08T07:08:47Z</time></trkpt>
<trkpt lat="45.962729" lon="10.04782">
<ele>1981</ele>
<time>2022-01-08T07:08:53Z</time></trkpt>
<trkpt lat="45.962715" lon="10.047778">
<ele>1979</ele>
<time>2022-01-08T07:08:54Z</time></trkpt>
<trkpt lat="45.962833" lon="10.047378">
<ele>1976</ele>
<time>2022-01-08T07:09:06Z</time></trkpt>
<trkpt lat="45.962827" lon="10.04728">
<ele>1973</ele>
<time>2022-01-08T07:09:09Z</time></trkpt>
<trkpt lat="45.962827" lon="10.04728">
<ele>1973</ele>
<time>2022-01-08T07:09:09Z</time></trkpt>
<trkpt lat="45.962826" lon="10.047251">
<ele>1972</ele>
<time>2022-01-08T07:09:10Z</time></trkpt>
<trkpt lat="45.962892" lon="10.047087">
<ele>1973</ele>
<time>2022-01-08T07:09:15Z</time></trkpt>
<trkpt lat="45.962875" lon="10.046925">
<ele>1968</ele>
<time>2022-01-08T07:09:20Z</time></trkpt>
<trkpt lat="45.962897" lon="10.046759">
<ele>1966</ele>
<time>2022-01-08T07:09:24Z</time></trkpt>
<trkpt lat="45.962981" lon="10.046574">
<ele>1967</ele>
<time>2022-01-08T07:09:31Z</time></trkpt>
<trkpt lat="45.962925" lon="10.046411">
<ele>1958</ele>
<time>2022-01-08T07:09:36Z</time></trkpt>
<trkpt lat="45.962852" lon="10.046309">
<ele>1950</ele>
<time>2022-01-08T07:09:40Z</time></trkpt>
<trkpt lat="45.962813" lon="10.046002">
<ele>1938</ele>
<time>2022-01-08T07:09:48Z</time></trkpt>
<trkpt lat="45.962823" lon="10.045861">
<ele>1934</ele>
<time>2022-01-08T07:09:52Z</time></trkpt>
<trkpt lat="45.962877" lon="10.045564">
<ele>1934</ele>
<time>2022-01-08T07:10:01Z</time></trkpt>
<trkpt lat="45.962936" lon="10.045364">
<ele>1935</ele>
<time>2022-01-08T07:10:07Z</time></trkpt>
<trkpt lat="45.96294" lon="10.045006">
<ele>1931</ele>
<time>2022-01-08T07:10:17Z</time></trkpt>
<trkpt lat="45.962963" lon="10.044693">
<ele>1931</ele>
<time>2022-01-08T07:10:26Z</time></trkpt>
<trkpt lat="45.962916" lon="10.044276">
<ele>1926</ele>
<time>2022-01-08T07:10:37Z</time></trkpt>
<trkpt lat="45.962855" lon="10.04411">
<ele>1921</ele>
<time>2022-01-08T07:10:43Z</time></trkpt>
<trkpt lat="45.962897" lon="10.043766">
<ele>1920</ele>
<time>2022-01-08T07:10:52Z</time></trkpt>
<trkpt lat="45.962887" lon="10.043689">
<ele>1918</ele>
<time>2022-01-08T07:10:55Z</time></trkpt>
<trkpt lat="45.962925" lon="10.043402">
<ele>1917</ele>
<time>2022-01-08T07:11:03Z</time></trkpt>
<trkpt lat="45.962814" lon="10.042983">
<ele>1907</ele>
<time>2022-01-08T07:11:15Z</time></trkpt>
<trkpt lat="45.962796" lon="10.042514">
<ele>1902</ele>
<time>2022-01-08T07:11:28Z</time></trkpt>
<trkpt lat="45.962796" lon="10.042514">
<ele>1902</ele>
<time>2022-01-08T07:11:28Z</time></trkpt>
<trkpt lat="45.962813" lon="10.042225">
<ele>1900</ele>
<time>2022-01-08T07:11:36Z</time></trkpt>
<trkpt lat="45.96278" lon="10.041888">
<ele>1895</ele>
<time>2022-01-08T07:11:46Z</time></trkpt>
<trkpt lat="45.96284" lon="10.041813">
<ele>1897</ele>
<time>2022-01-08T07:11:49Z</time></trkpt>
<trkpt lat="45.962883" lon="10.041673">
<ele>1897</ele>
<time>2022-01-08T07:11:53Z</time></trkpt>
<trkpt lat="45.962856" lon="10.041512">
<ele>1893</ele>
<time>2022-01-08T07:11:58Z</time></trkpt>
<trkpt lat="45.962894" lon="10.041322">
<ele>1891</ele>
<time>2022-01-08T07:12:03Z</time></trkpt>
<trkpt lat="45.962882" lon="10.041191">
<ele>1889</ele>
<time>2022-01-08T07:12:07Z</time></trkpt>
<trkpt lat="45.96282" lon="10.041129">
<ele>1885</ele>
<time>2022-01-08T07:12:10Z</time></trkpt>
<trkpt lat="45.962837" lon="10.040948">
<ele>1883</ele>
<time>2022-01-08T07:12:15Z</time></trkpt>
<trkpt lat="45.962833" lon="10.040822">
<ele>1881</ele>
<time>2022-01-08T07:12:19Z</time></trkpt>
<trkpt lat="45.96278" lon="10.040565">
<ele>1877</ele>
<time>2022-01-08T07:12:26Z</time></trkpt>
<trkpt lat="45.962788" lon="10.040537">
<ele>1877</ele>
<time>2022-01-08T07:12:27Z</time></trkpt>
<trkpt lat="45.962721" lon="10.040345">
<ele>1874</ele>
<time>2022-01-08T07:12:33Z</time></trkpt>
<trkpt lat="45.962692" lon="10.040134">
<ele>1871</ele>
<time>2022-01-08T07:12:39Z</time></trkpt>
<trkpt lat="45.962654" lon="10.040009">
<ele>1869</ele>
<time>2022-01-08T07:12:43Z</time></trkpt>
<trkpt lat="45.962578" lon="10.0399">
<ele>1866</ele>
<time>2022-01-08T07:12:47Z</time></trkpt>
<trkpt lat="45.96254" lon="10.039782">
<ele>1864</ele>
<time>2022-01-08T07:12:51Z</time></trkpt>
<trkpt lat="45.962475" lon="10.039714">
<ele>1861</ele>
<time>2022-01-08T07:12:54Z</time></trkpt>
<trkpt lat="45.962449" lon="10.039459">
<ele>1857</ele>
<time>2022-01-08T07:13:01Z</time></trkpt>
<trkpt lat="45.962398" lon="10.039319">
<ele>1854</ele>
<time>2022-01-08T07:13:06Z</time></trkpt>
<trkpt lat="45.962341" lon="10.039066">
<ele>1850</ele>
<time>2022-01-08T07:13:13Z</time></trkpt>
<trkpt lat="45.962358" lon="10.038915">
<ele>1848</ele>
<time>2022-01-08T07:13:17Z</time></trkpt>
<trkpt lat="45.962466" lon="10.038672">
<ele>1850</ele>
<time>2022-01-08T07:13:25Z</time></trkpt>
<trkpt lat="45.962524" lon="10.03846">
<ele>1849</ele>
<time>2022-01-08T07:13:32Z</time></trkpt>
<trkpt lat="45.962405" lon="10.038097">
<ele>1842</ele>
<time>2022-01-08T07:13:43Z</time></trkpt>
<trkpt lat="45.962224" lon="10.037678">
<ele>1833</ele>
<time>2022-01-08T07:13:57Z</time></trkpt>
<trkpt lat="45.962122" lon="10.03724">
<ele>1828</ele>
<time>2022-01-08T07:14:09Z</time></trkpt>
<trkpt lat="45.961986" lon="10.036794">
<ele>1822</ele>
<time>2022-01-08T07:14:23Z</time></trkpt>
<trkpt lat="45.961946" lon="10.036516">
<ele>1820</ele>
<time>2022-01-08T07:14:31Z</time></trkpt>
<trkpt lat="45.961946" lon="10.036516">
<ele>1820</ele>
<time>2022-01-08T07:14:31Z</time></trkpt>
<trkpt lat="45.961927" lon="10.036468">
<ele>1819</ele>
<time>2022-01-08T07:14:32Z</time></trkpt>
<trkpt lat="45.961913" lon="10.036312">
<ele>1818</ele>
<time>2022-01-08T07:14:37Z</time></trkpt>
<trkpt lat="45.961872" lon="10.036137">
<ele>1817</ele>
<time>2022-01-08T07:14:42Z</time></trkpt>
<trkpt lat="45.961868" lon="10.035975">
<ele>1817</ele>
<time>2022-01-08T07:14:46Z</time></trkpt>
<trkpt lat="45.961818" lon="10.035714">
<ele>1814</ele>
<time>2022-01-08T07:14:54Z</time></trkpt>
<trkpt lat="45.961719" lon="10.035554">
<ele>1810</ele>
<time>2022-01-08T07:15:00Z</time></trkpt>
<trkpt lat="45.961624" lon="10.03518">
<ele>1806</ele>
<time>2022-01-08T07:15:11Z</time></trkpt>
<trkpt lat="45.96155" lon="10.035023">
<ele>1804</ele>
<time>2022-01-08T07:15:16Z</time></trkpt>
<trkpt lat="45.961494" lon="10.034855">
<ele>1801</ele>
<time>2022-01-08T07:15:22Z</time></trkpt>
<trkpt lat="45.961386" lon="10.034692">
<ele>1796</ele>
<time>2022-01-08T07:15:28Z</time></trkpt>
<trkpt lat="45.961233" lon="10.034514">
<ele>1790</ele>
<time>2022-01-08T07:15:36Z</time></trkpt>
<trkpt lat="45.961125" lon="10.034347">
<ele>1785</ele>
<time>2022-01-08T07:15:42Z</time></trkpt>
<trkpt lat="45.961057" lon="10.034126">
<ele>1782</ele>
<time>2022-01-08T07:15:49Z</time></trkpt>
<trkpt lat="45.961066" lon="10.034009">
<ele>1782</ele>
<time>2022-01-08T07:15:52Z</time></trkpt>
<trkpt lat="45.961039" lon="10.033963">
<ele>1781</ele>
<time>2022-01-08T07:15:54Z</time></trkpt>
<trkpt lat="45.961027" lon="10.033804">
<ele>1779</ele>
<time>2022-01-08T07:15:58Z</time></trkpt>
<trkpt lat="45.960985" lon="10.033752">
<ele>1778</ele>
<time>2022-01-08T07:16:00Z</time></trkpt>
<trkpt lat="45.960934" lon="10.033766">
<ele>1776</ele>
<time>2022-01-08T07:16:03Z</time></trkpt>
<trkpt lat="45.960763" lon="10.034213">
<ele>1772</ele>
<time>2022-01-08T07:16:17Z</time></trkpt>
<trkpt lat="45.960513" lon="10.03423">
<ele>1764</ele>
<time>2022-01-08T07:16:27Z</time></trkpt>
<trkpt lat="45.960415" lon="10.03432">
<ele>1761</ele>
<time>2022-01-08T07:16:31Z</time></trkpt>
<trkpt lat="45.960179" lon="10.034199">
<ele>1752</ele>
<time>2022-01-08T07:16:41Z</time></trkpt>
<trkpt lat="45.960027" lon="10.034">
<ele>1746</ele>
<time>2022-01-08T07:16:50Z</time></trkpt>
<trkpt lat="45.959773" lon="10.033735">
<ele>1736</ele>
<time>2022-01-08T07:17:02Z</time></trkpt>
<trkpt lat="45.959763" lon="10.033703">
<ele>1736</ele>
<time>2022-01-08T07:17:03Z</time></trkpt>
<trkpt lat="45.959763" lon="10.033703">
<ele>1736</ele>
<time>2022-01-08T07:17:03Z</time></trkpt>
<trkpt lat="45.959744" lon="10.033643">
<ele>1735</ele>
<time>2022-01-08T07:17:05Z</time></trkpt>
<trkpt lat="45.959743" lon="10.033545">
<ele>1735</ele>
<time>2022-01-08T07:17:08Z</time></trkpt>
<trkpt lat="45.959685" lon="10.033337">
<ele>1732</ele>
<time>2022-01-08T07:17:14Z</time></trkpt>
<trkpt lat="45.959604" lon="10.033221">
<ele>1729</ele>
<time>2022-01-08T07:17:19Z</time></trkpt>
<trkpt lat="45.959541" lon="10.033182">
<ele>1727</ele>
<time>2022-01-08T07:17:21Z</time></trkpt>
<trkpt lat="45.959431" lon="10.033672">
<ele>1725</ele>
<time>2022-01-08T07:17:36Z</time></trkpt>
<trkpt lat="45.959284" lon="10.033926">
<ele>1720</ele>
<time>2022-01-08T07:17:45Z</time></trkpt>
<trkpt lat="45.959061" lon="10.033936">
<ele>1712</ele>
<time>2022-01-08T07:17:54Z</time></trkpt>
<trkpt lat="45.959024" lon="10.033781">
<ele>1711</ele>
<time>2022-01-08T07:17:58Z</time></trkpt>
<trkpt lat="45.959014" lon="10.033427">
<ele>1710</ele>
<time>2022-01-08T07:18:08Z</time></trkpt>
<trkpt lat="45.958862" lon="10.03312">
<ele>1703</ele>
<time>2022-01-08T07:18:19Z</time></trkpt>
<trkpt lat="45.958806" lon="10.03313">
<ele>1701</ele>
<time>2022-01-08T07:18:21Z</time></trkpt>
<trkpt lat="45.958729" lon="10.033361">
<ele>1698</ele>
<time>2022-01-08T07:18:28Z</time></trkpt>
<trkpt lat="45.958729" lon="10.033361">
<ele>1698</ele>
<time>2022-01-08T07:18:28Z</time></trkpt>
<trkpt lat="45.958689" lon="10.033532">
<ele>1698</ele>
<time>2022-01-08T07:18:33Z</time></trkpt>
<trkpt lat="45.958642" lon="10.033583">
<ele>1696</ele>
<time>2022-01-08T07:18:36Z</time></trkpt>
<trkpt lat="45.958616" lon="10.033487">
<ele>1695</ele>
<time>2022-01-08T07:18:38Z</time></trkpt>
<trkpt lat="45.958537" lon="10.033477">
<ele>1691</ele>
<time>2022-01-08T07:18:42Z</time></trkpt>
<trkpt lat="45.958513" lon="10.033304">
<ele>1689</ele>
<time>2022-01-08T07:18:47Z</time></trkpt>
<trkpt lat="45.958463" lon="10.0332">
<ele>1687</ele>
<time>2022-01-08T07:18:50Z</time></trkpt>
<trkpt lat="45.958409" lon="10.033025">
<ele>1684</ele>
<time>2022-01-08T07:18:55Z</time></trkpt>
<trkpt lat="45.958299" lon="10.032899">
<ele>1679</ele>
<time>2022-01-08T07:19:01Z</time></trkpt>
<trkpt lat="45.958275" lon="10.032835">
<ele>1678</ele>
<time>2022-01-08T07:19:03Z</time></trkpt>
<trkpt lat="45.958246" lon="10.032605">
<ele>1676</ele>
<time>2022-01-08T07:19:10Z</time></trkpt>
<trkpt lat="45.9582" lon="10.032491">
<ele>1674</ele>
<time>2022-01-08T07:19:13Z</time></trkpt>
<trkpt lat="45.957893" lon="10.031973">
<ele>1657</ele>
<time>2022-01-08T07:19:32Z</time></trkpt>
<trkpt lat="45.95772" lon="10.030527">
<ele>1638</ele>
<time>2022-01-08T07:20:13Z</time></trkpt>
<trkpt lat="45.95772" lon="10.030527">
<ele>1638</ele>
<time>2022-01-08T07:20:13Z</time></trkpt>
<trkpt lat="45.957686" lon="10.030117">
<ele>1635</ele>
<time>2022-01-08T07:20:25Z</time></trkpt>
<trkpt lat="45.957658" lon="10.030019">
<ele>1634</ele>
<time>2022-01-08T07:20:28Z</time></trkpt>
<trkpt lat="45.957456" lon="10.029708">
<ele>1629</ele>
<time>2022-01-08T07:20:39Z</time></trkpt>
<trkpt lat="45.95737" lon="10.029533">
<ele>1627</ele>
<time>2022-01-08T07:20:45Z</time></trkpt>
<trkpt lat="45.957354" lon="10.029369">
<ele>1627</ele>
<time>2022-01-08T07:20:50Z</time></trkpt>
<trkpt lat="45.957316" lon="10.029198">
<ele>1626</ele>
<time>2022-01-08T07:20:55Z</time></trkpt>
<trkpt lat="45.957121" lon="10.028669">
<ele>1621</ele>
<time>2022-01-08T07:21:12Z</time></trkpt>
<trkpt lat="45.956909" lon="10.027969">
<ele>1616</ele>
<time>2022-01-08T07:21:33Z</time></trkpt>
<trkpt lat="45.956773" lon="10.027608">
<ele>1614</ele>
<time>2022-01-08T07:21:44Z</time></trkpt>
<trkpt lat="45.956506" lon="10.027109">
<ele>1608</ele>
<time>2022-01-08T07:22:02Z</time></trkpt>
<trkpt lat="45.956379" lon="10.026762">
<ele>1604</ele>
<time>2022-01-08T07:22:13Z</time></trkpt>
<trkpt lat="45.956374" lon="10.026509">
<ele>1602</ele>
<time>2022-01-08T07:22:20Z</time></trkpt>
<trkpt lat="45.956307" lon="10.02615">
<ele>1598</ele>
<time>2022-01-08T07:22:30Z</time></trkpt>
<trkpt lat="45.956307" lon="10.02615">
<ele>1598</ele>
<time>2022-01-08T07:22:30Z</time></trkpt>
<trkpt lat="45.956224" lon="10.025862">
<ele>1594</ele>
<time>2022-01-08T07:22:39Z</time></trkpt>
<trkpt lat="45.956099" lon="10.02553">
<ele>1588</ele>
<time>2022-01-08T07:22:49Z</time></trkpt>
<trkpt lat="45.956037" lon="10.025422">
<ele>1585</ele>
<time>2022-01-08T07:22:53Z</time></trkpt>
<trkpt lat="45.95602" lon="10.025325">
<ele>1584</ele>
<time>2022-01-08T07:22:56Z</time></trkpt>
<trkpt lat="45.955921" lon="10.025166">
<ele>1580</ele>
<time>2022-01-08T07:23:02Z</time></trkpt>
<trkpt lat="45.955859" lon="10.025098">
<ele>1579</ele>
<time>2022-01-08T07:23:05Z</time></trkpt>
<trkpt lat="45.955792" lon="10.024929">
<ele>1575</ele>
<time>2022-01-08T07:23:11Z</time></trkpt>
<trkpt lat="45.955595" lon="10.024699">
<ele>1570</ele>
<time>2022-01-08T07:23:21Z</time></trkpt>
<trkpt lat="45.955496" lon="10.024615">
<ele>1567</ele>
<time>2022-01-08T07:23:25Z</time></trkpt>
<trkpt lat="45.95525" lon="10.024535">
<ele>1563</ele>
<time>2022-01-08T07:23:36Z</time></trkpt>
<trkpt lat="45.955126" lon="10.02444">
<ele>1560</ele>
<time>2022-01-08T07:23:41Z</time></trkpt>
<trkpt lat="45.955089" lon="10.024305">
<ele>1558</ele>
<time>2022-01-08T07:23:45Z</time></trkpt>
<trkpt lat="45.955119" lon="10.024162">
<ele>1556</ele>
<time>2022-01-08T07:23:49Z</time></trkpt>
<trkpt lat="45.955118" lon="10.024025">
<ele>1553</ele>
<time>2022-01-08T07:23:53Z</time></trkpt>
<trkpt lat="45.955091" lon="10.023847">
<ele>1549</ele>
<time>2022-01-08T07:23:58Z</time></trkpt>
<trkpt lat="45.955037" lon="10.023724">
<ele>1545</ele>
<time>2022-01-08T07:24:02Z</time></trkpt>
<trkpt lat="45.955069" lon="10.023594">
<ele>1543</ele>
<time>2022-01-08T07:24:06Z</time></trkpt>
<trkpt lat="45.955135" lon="10.02343">
<ele>1540</ele>
<time>2022-01-08T07:24:11Z</time></trkpt>
<trkpt lat="45.955127" lon="10.02325">
<ele>1536</ele>
<time>2022-01-08T07:24:16Z</time></trkpt>
<trkpt lat="45.955074" lon="10.023106">
<ele>1532</ele>
<time>2022-01-08T07:24:21Z</time></trkpt>
<trkpt lat="45.954979" lon="10.023087">
<ele>1531</ele>
<time>2022-01-08T07:24:25Z</time></trkpt>
<trkpt lat="45.954886" lon="10.023208">
<ele>1535</ele>
<time>2022-01-08T07:24:30Z</time></trkpt>
<trkpt lat="45.954855" lon="10.023223">
<ele>1536</ele>
<time>2022-01-08T07:24:31Z</time></trkpt>
<trkpt lat="45.954855" lon="10.023222">
<ele>1536</ele>
<time>2022-01-08T07:24:31Z</time></trkpt>
<trkpt lat="45.954808" lon="10.023244">
<ele>1537</ele>
<time>2022-01-08T07:24:33Z</time></trkpt>
<trkpt lat="45.954695" lon="10.023182">
<ele>1537</ele>
<time>2022-01-08T07:24:38Z</time></trkpt>
<trkpt lat="45.954588" lon="10.02305">
<ele>1535</ele>
<time>2022-01-08T07:24:44Z</time></trkpt>
<trkpt lat="45.954451" lon="10.022826">
<ele>1530</ele>
<time>2022-01-08T07:24:52Z</time></trkpt>
<trkpt lat="45.954394" lon="10.022515">
<ele>1523</ele>
<time>2022-01-08T07:25:01Z</time></trkpt>
<trkpt lat="45.954424" lon="10.022363">
<ele>1520</ele>
<time>2022-01-08T07:25:05Z</time></trkpt>
<trkpt lat="45.954441" lon="10.022196">
<ele>1516</ele>
<time>2022-01-08T07:25:10Z</time></trkpt>
<trkpt lat="45.954558" lon="10.021781">
<ele>1507</ele>
<time>2022-01-08T07:25:23Z</time></trkpt>
<trkpt lat="45.954555" lon="10.021611">
<ele>1504</ele>
<time>2022-01-08T07:25:27Z</time></trkpt>
<trkpt lat="45.95453" lon="10.021454">
<ele>1502</ele>
<time>2022-01-08T07:25:32Z</time></trkpt>
<trkpt lat="45.954528" lon="10.021105">
<ele>1496</ele>
<time>2022-01-08T07:25:42Z</time></trkpt>
<trkpt lat="45.954509" lon="10.02111">
<ele>1496</ele>
<time>2022-01-08T07:25:42Z</time></trkpt>
<trkpt lat="45.954465" lon="10.020985">
<ele>1495</ele>
<time>2022-01-08T07:25:46Z</time></trkpt>
<trkpt lat="45.954427" lon="10.020665">
<ele>1489</ele>
<time>2022-01-08T07:25:55Z</time></trkpt>
<trkpt lat="45.954427" lon="10.020665">
<ele>1489</ele>
<time>2022-01-08T07:25:55Z</time></trkpt>
<trkpt lat="45.95438" lon="10.020277">
<ele>1481</ele>
<time>2022-01-08T07:26:06Z</time></trkpt>
<trkpt lat="45.954328" lon="10.020092">
<ele>1477</ele>
<time>2022-01-08T07:26:12Z</time></trkpt>
<trkpt lat="45.954321" lon="10.019888">
<ele>1472</ele>
<time>2022-01-08T07:26:17Z</time></trkpt>
<trkpt lat="45.954288" lon="10.019663">
<ele>1467</ele>
<time>2022-01-08T07:26:24Z</time></trkpt>
<trkpt lat="45.954213" lon="10.019477">
<ele>1463</ele>
<time>2022-01-08T07:26:30Z</time></trkpt>
<trkpt lat="45.954113" lon="10.019312">
<ele>1460</ele>
<time>2022-01-08T07:26:36Z</time></trkpt>
<trkpt lat="45.954135" lon="10.019182">
<ele>1456</ele>
<time>2022-01-08T07:26:40Z</time></trkpt>
<trkpt lat="45.954109" lon="10.019095">
<ele>1454</ele>
<time>2022-01-08T07:26:42Z</time></trkpt>
<trkpt lat="45.954034" lon="10.019073">
<ele>1453</ele>
<time>2022-01-08T07:26:45Z</time></trkpt>
<trkpt lat="45.954049" lon="10.018946">
<ele>1450</ele>
<time>2022-01-08T07:26:49Z</time></trkpt>
<trkpt lat="45.95421" lon="10.018815">
<ele>1446</ele>
<time>2022-01-08T07:26:56Z</time></trkpt>
<trkpt lat="45.954235" lon="10.01873">
<ele>1443</ele>
<time>2022-01-08T07:26:59Z</time></trkpt>
<trkpt lat="45.954068" lon="10.018518">
<ele>1437</ele>
<time>2022-01-08T07:27:08Z</time></trkpt>
<trkpt lat="45.954028" lon="10.018412">
<ele>1434</ele>
<time>2022-01-08T07:27:11Z</time></trkpt>
<trkpt lat="45.954055" lon="10.018289">
<ele>1430</ele>
<time>2022-01-08T07:27:15Z</time></trkpt>
<trkpt lat="45.953984" lon="10.018067">
<ele>1426</ele>
<time>2022-01-08T07:27:22Z</time></trkpt>
<trkpt lat="45.953931" lon="10.018027">
<ele>1425</ele>
<time>2022-01-08T07:27:24Z</time></trkpt>
<trkpt lat="45.953815" lon="10.017988">
<ele>1424</ele>
<time>2022-01-08T07:27:29Z</time></trkpt>
<trkpt lat="45.953826" lon="10.017875">
<ele>1421</ele>
<time>2022-01-08T07:27:32Z</time></trkpt>
<trkpt lat="45.953742" lon="10.01782">
<ele>1419</ele>
<time>2022-01-08T07:27:36Z</time></trkpt>
<trkpt lat="45.953753" lon="10.017728">
<ele>1417</ele>
<time>2022-01-08T07:27:38Z</time></trkpt>
<trkpt lat="45.953689" lon="10.017648">
<ele>1415</ele>
<time>2022-01-08T07:27:42Z</time></trkpt>
<trkpt lat="45.953697" lon="10.017573">
<ele>1413</ele>
<time>2022-01-08T07:27:44Z</time></trkpt>
<trkpt lat="45.953678" lon="10.017507">
<ele>1412</ele>
<time>2022-01-08T07:27:46Z</time></trkpt>
<trkpt lat="45.953549" lon="10.01744">
<ele>1410</ele>
<time>2022-01-08T07:27:51Z</time></trkpt>
<trkpt lat="45.9534" lon="10.017524">
<ele>1410</ele>
<time>2022-01-08T07:27:58Z</time></trkpt>
<trkpt lat="45.953263" lon="10.017521">
<ele>1410</ele>
<time>2022-01-08T07:28:03Z</time></trkpt>
<trkpt lat="45.953233" lon="10.017497">
<ele>1410</ele>
<time>2022-01-08T07:28:05Z</time></trkpt>
<trkpt lat="45.953112" lon="10.017298">
<ele>1408</ele>
<time>2022-01-08T07:28:12Z</time></trkpt>
<trkpt lat="45.953112" lon="10.017298">
<ele>1408</ele>
<time>2022-01-08T07:28:12Z</time></trkpt>
<trkpt lat="45.953015" lon="10.017136">
<ele>1405</ele>
<time>2022-01-08T07:28:18Z</time></trkpt>
<trkpt lat="45.952796" lon="10.016941">
<ele>1402</ele>
<time>2022-01-08T07:28:28Z</time></trkpt>
<trkpt lat="45.952441" lon="10.016715">
<ele>1397</ele>
<time>2022-01-08T07:28:44Z</time></trkpt>
<trkpt lat="45.952149" lon="10.016325">
<ele>1390</ele>
<time>2022-01-08T07:29:00Z</time></trkpt>
<trkpt lat="45.952072" lon="10.016174">
<ele>1387</ele>
<time>2022-01-08T07:29:05Z</time></trkpt>
<trkpt lat="45.952053" lon="10.015857">
<ele>1380</ele>
<time>2022-01-08T07:29:14Z</time></trkpt>
<trkpt lat="45.952081" lon="10.015668">
<ele>1376</ele>
<time>2022-01-08T07:29:19Z</time></trkpt>
<trkpt lat="45.952225" lon="10.015444">
<ele>1374</ele>
<time>2022-01-08T07:29:28Z</time></trkpt>
<trkpt lat="45.952253" lon="10.015347">
<ele>1372</ele>
<time>2022-01-08T07:29:31Z</time></trkpt>
<trkpt lat="45.952239" lon="10.015256">
<ele>1370</ele>
<time>2022-01-08T07:29:33Z</time></trkpt>
<trkpt lat="45.952075" lon="10.015176">
<ele>1366</ele>
<time>2022-01-08T07:29:40Z</time></trkpt>
<trkpt lat="45.951988" lon="10.015051">
<ele>1362</ele>
<time>2022-01-08T07:29:45Z</time></trkpt>
<trkpt lat="45.951881" lon="10.014945">
<ele>1359</ele>
<time>2022-01-08T07:29:50Z</time></trkpt>
<trkpt lat="45.951736" lon="10.01498">
<ele>1356</ele>
<time>2022-01-08T07:29:56Z</time></trkpt>
<trkpt lat="45.951736" lon="10.01498">
<ele>1356</ele>
<time>2022-01-08T07:29:56Z</time></trkpt>
<trkpt lat="45.951679" lon="10.014994">
<ele>1355</ele>
<time>2022-01-08T07:29:59Z</time></trkpt>
<trkpt lat="45.951502" lon="10.015105">
<ele>1355</ele>
<time>2022-01-08T07:30:06Z</time></trkpt>
<trkpt lat="45.95115" lon="10.015195">
<ele>1352</ele>
<time>2022-01-08T07:30:21Z</time></trkpt>
<trkpt lat="45.951011" lon="10.0152">
<ele>1350</ele>
<time>2022-01-08T07:30:26Z</time></trkpt>
<trkpt lat="45.950849" lon="10.015057">
<ele>1343</ele>
<time>2022-01-08T07:30:34Z</time></trkpt>
<trkpt lat="45.950751" lon="10.014834">
<ele>1339</ele>
<time>2022-01-08T07:30:41Z</time></trkpt>
<trkpt lat="45.950621" lon="10.014603">
<ele>1335</ele>
<time>2022-01-08T07:30:49Z</time></trkpt>
<trkpt lat="45.950428" lon="10.014423">
<ele>1333</ele>
<time>2022-01-08T07:30:59Z</time></trkpt>
<trkpt lat="45.950031" lon="10.013933">
<ele>1327</ele>
<time>2022-01-08T07:31:20Z</time></trkpt>
<trkpt lat="45.949975" lon="10.013907">
<ele>1326</ele>
<time>2022-01-08T07:31:22Z</time></trkpt>
<trkpt lat="45.949904" lon="10.013906">
<ele>1325</ele>
<time>2022-01-08T07:31:25Z</time></trkpt>
<trkpt lat="45.949859" lon="10.01385">
<ele>1324</ele>
<time>2022-01-08T07:31:27Z</time></trkpt>
<trkpt lat="45.949855" lon="10.013803">
<ele>1323</ele>
<time>2022-01-08T07:31:28Z</time></trkpt>
<trkpt lat="45.949876" lon="10.013744">
<ele>1322</ele>
<time>2022-01-08T07:31:30Z</time></trkpt>
<trkpt lat="45.950032" lon="10.013609">
<ele>1321</ele>
<time>2022-01-08T07:31:38Z</time></trkpt>
<trkpt lat="45.950018" lon="10.013524">
<ele>1320</ele>
<time>2022-01-08T07:31:40Z</time></trkpt>
<trkpt lat="45.949953" lon="10.013384">
<ele>1316</ele>
<time>2022-01-08T07:31:45Z</time></trkpt>
<trkpt lat="45.949936" lon="10.013238">
<ele>1315</ele>
<time>2022-01-08T07:31:49Z</time></trkpt>
<trkpt lat="45.949896" lon="10.0131">
<ele>1313</ele>
<time>2022-01-08T07:31:53Z</time></trkpt>
<trkpt lat="45.949792" lon="10.012941">
<ele>1310</ele>
<time>2022-01-08T07:31:59Z</time></trkpt>
<trkpt lat="45.949642" lon="10.012778">
<ele>1307</ele>
<time>2022-01-08T07:32:07Z</time></trkpt>
<trkpt lat="45.949497" lon="10.012727">
<ele>1304</ele>
<time>2022-01-08T07:32:13Z</time></trkpt>
<trkpt lat="45.949477" lon="10.0127">
<ele>1303</ele>
<time>2022-01-08T07:32:14Z</time></trkpt>
<trkpt lat="45.949148" lon="10.012737">
<ele>1298</ele>
<time>2022-01-08T07:32:27Z</time></trkpt>
<trkpt lat="45.949148" lon="10.012737">
<ele>1298</ele>
<time>2022-01-08T07:32:27Z</time></trkpt>
<trkpt lat="45.948898" lon="10.01283">
<ele>1297</ele>
<time>2022-01-08T07:32:37Z</time></trkpt>
<trkpt lat="45.948816" lon="10.012802">
<ele>1296</ele>
<time>2022-01-08T07:32:41Z</time></trkpt>
<trkpt lat="45.948799" lon="10.012725">
<ele>1294</ele>
<time>2022-01-08T07:32:43Z</time></trkpt>
<trkpt lat="45.948801" lon="10.012383">
<ele>1291</ele>
<time>2022-01-08T07:32:52Z</time></trkpt>
<trkpt lat="45.948771" lon="10.012251">
<ele>1290</ele>
<time>2022-01-08T07:32:56Z</time></trkpt>
<trkpt lat="45.948692" lon="10.012155">
<ele>1289</ele>
<time>2022-01-08T07:33:00Z</time></trkpt>
<trkpt lat="45.948617" lon="10.011998">
<ele>1288</ele>
<time>2022-01-08T07:33:06Z</time></trkpt>
<trkpt lat="45.948463" lon="10.011925">
<ele>1286</ele>
<time>2022-01-08T07:33:12Z</time></trkpt>
<trkpt lat="45.948183" lon="10.011691">
<ele>1282</ele>
<time>2022-01-08T07:33:25Z</time></trkpt>
<trkpt lat="45.948041" lon="10.011597">
<ele>1282</ele>
<time>2022-01-08T07:33:32Z</time></trkpt>
<trkpt lat="45.947813" lon="10.011516">
<ele>1280</ele>
<time>2022-01-08T07:33:41Z</time></trkpt>
<trkpt lat="45.94756" lon="10.011535">
<ele>1278</ele>
<time>2022-01-08T07:33:51Z</time></trkpt>
<trkpt lat="45.947318" lon="10.011425">
<ele>1277</ele>
<time>2022-01-08T07:34:01Z</time></trkpt>
<trkpt lat="45.947206" lon="10.011339">
<ele>1277</ele>
<time>2022-01-08T07:34:06Z</time></trkpt>
<trkpt lat="45.94703" lon="10.011162">
<ele>1276</ele>
<time>2022-01-08T07:34:15Z</time></trkpt>
<trkpt lat="45.946769" lon="10.010981">
<ele>1273</ele>
<time>2022-01-08T07:34:27Z</time></trkpt>
<trkpt lat="45.946756" lon="10.010784">
<ele>1273</ele>
<time>2022-01-08T07:34:32Z</time></trkpt>
<trkpt lat="45.946629" lon="10.010691">
<ele>1273</ele>
<time>2022-01-08T07:34:38Z</time></trkpt>
<trkpt lat="45.946512" lon="10.010633">
<ele>1272</ele>
<time>2022-01-08T07:34:43Z</time></trkpt>
<trkpt lat="45.946387" lon="10.010478">
<ele>1272</ele>
<time>2022-01-08T07:34:49Z</time></trkpt>
<trkpt lat="45.94627" lon="10.010433">
<ele>1271</ele>
<time>2022-01-08T07:34:54Z</time></trkpt>
<trkpt lat="45.946202" lon="10.010437">
<ele>1270</ele>
<time>2022-01-08T07:34:57Z</time></trkpt>
<trkpt lat="45.946376" lon="10.009957">
<ele>1275</ele>
<time>2022-01-08T07:35:12Z</time></trkpt>
<trkpt lat="45.946415" lon="10.009768">
<ele>1278</ele>
<time>2022-01-08T07:35:18Z</time></trkpt>
<trkpt lat="45.946497" lon="10.009526">
<ele>1281</ele>
<time>2022-01-08T07:35:25Z</time></trkpt>
<trkpt lat="45.946715" lon="10.009184">
<ele>1289</ele>
<time>2022-01-08T07:35:38Z</time></trkpt>
<trkpt lat="45.94685" lon="10.00911">
<ele>1293</ele>
<time>2022-01-08T07:35:44Z</time></trkpt>
<trkpt lat="45.947022" lon="10.008897">
<ele>1302</ele>
<time>2022-01-08T07:35:53Z</time></trkpt>
<trkpt lat="45.947119" lon="10.008917">
<ele>1304</ele>
<time>2022-01-08T07:35:57Z</time></trkpt>
<trkpt lat="45.947075" lon="10.008759">
<ele>1308</ele>
<time>2022-01-08T07:36:02Z</time></trkpt>
<trkpt lat="45.946978" lon="10.008611">
<ele>1309</ele>
<time>2022-01-08T07:36:07Z</time></trkpt>
<trkpt lat="45.946892" lon="10.008548">
<ele>1309</ele>
<time>2022-01-08T07:36:11Z</time></trkpt>
<trkpt lat="45.946599" lon="10.008433">
<ele>1305</ele>
<time>2022-01-08T07:36:23Z</time></trkpt>
<trkpt lat="45.946515" lon="10.008248">
<ele>1309</ele>
<time>2022-01-08T07:36:29Z</time></trkpt>
<trkpt lat="45.946537" lon="10.008127">
<ele>1314</ele>
<time>2022-01-08T07:36:33Z</time></trkpt>
<trkpt lat="45.946515" lon="10.008016">
<ele>1317</ele>
<time>2022-01-08T07:36:36Z</time></trkpt>
<trkpt lat="45.946416" lon="10.007931">
<ele>1319</ele>
<time>2022-01-08T07:36:41Z</time></trkpt>
<trkpt lat="45.946089" lon="10.00783">
<ele>1318</ele>
<time>2022-01-08T07:36:54Z</time></trkpt>
<trkpt lat="45.945872" lon="10.007518">
<ele>1328</ele>
<time>2022-01-08T07:37:06Z</time></trkpt>
<trkpt lat="45.945706" lon="10.007443">
<ele>1330</ele>
<time>2022-01-08T07:37:13Z</time></trkpt>
<trkpt lat="45.945706" lon="10.007443">
<ele>1330</ele>
<time>2022-01-08T07:37:13Z</time></trkpt>
<trkpt lat="45.945202" lon="10.007152">
<ele>1337</ele>
<time>2022-01-08T07:37:35Z</time></trkpt>
<trkpt lat="45.945028" lon="10.007078">
<ele>1338</ele>
<time>2022-01-08T07:37:42Z</time></trkpt>
<trkpt lat="45.944675" lon="10.006844">
<ele>1341</ele>
<time>2022-01-08T07:37:58Z</time></trkpt>
<trkpt lat="45.944633" lon="10.006744">
<ele>1344</ele>
<time>2022-01-08T07:38:01Z</time></trkpt>
<trkpt lat="45.944628" lon="10.006585">
<ele>1348</ele>
<time>2022-01-08T07:38:06Z</time></trkpt>
<trkpt lat="45.944558" lon="10.00649">
<ele>1348</ele>
<time>2022-01-08T07:38:10Z</time></trkpt>
<trkpt lat="45.944442" lon="10.006161">
<ele>1350</ele>
<time>2022-01-08T07:38:20Z</time></trkpt>
<trkpt lat="45.944351" lon="10.005839">
<ele>1353</ele>
<time>2022-01-08T07:38:30Z</time></trkpt>
<trkpt lat="45.944351" lon="10.005768">
<ele>1355</ele>
<time>2022-01-08T07:38:31Z</time></trkpt>
<trkpt lat="45.944154" lon="10.005484">
<ele>1359</ele>
<time>2022-01-08T07:38:43Z</time></trkpt>
<trkpt lat="45.943638" lon="10.004944">
<ele>1359</ele>
<time>2022-01-08T07:39:08Z</time></trkpt>
<trkpt lat="45.943211" lon="10.004409">
<ele>1360</ele>
<time>2022-01-08T07:39:31Z</time></trkpt>
<trkpt lat="45.94306" lon="10.004182">
<ele>1362</ele>
<time>2022-01-08T07:39:40Z</time></trkpt>
<trkpt lat="45.942979" lon="10.003959">
<ele>1369</ele>
<time>2022-01-08T07:39:47Z</time></trkpt>
<trkpt lat="45.942583" lon="10.00383">
<ele>1368</ele>
<time>2022-01-08T07:40:03Z</time></trkpt>
<trkpt lat="45.942426" lon="10.003749">
<ele>1369</ele>
<time>2022-01-08T07:40:10Z</time></trkpt>
<trkpt lat="45.94219" lon="10.003568">
<ele>1372</ele>
<time>2022-01-08T07:40:20Z</time></trkpt>
<trkpt lat="45.941995" lon="10.003389">
<ele>1375</ele>
<time>2022-01-08T07:40:30Z</time></trkpt>
<trkpt lat="45.941882" lon="10.003332">
<ele>1375</ele>
<time>2022-01-08T07:40:34Z</time></trkpt>
<trkpt lat="45.941849" lon="10.00324">
<ele>1377</ele>
<time>2022-01-08T07:40:37Z</time></trkpt>
<trkpt lat="45.941861" lon="10.003125">
<ele>1380</ele>
<time>2022-01-08T07:40:41Z</time></trkpt>
<trkpt lat="45.941833" lon="10.003038">
<ele>1381</ele>
<time>2022-01-08T07:40:43Z</time></trkpt>
<trkpt lat="45.941747" lon="10.002897">
<ele>1382</ele>
<time>2022-01-08T07:40:48Z</time></trkpt>
<trkpt lat="45.941712" lon="10.002882">
<ele>1382</ele>
<time>2022-01-08T07:40:50Z</time></trkpt>
<trkpt lat="45.941687" lon="10.002778">
<ele>1383</ele>
<time>2022-01-08T07:40:53Z</time></trkpt>
<trkpt lat="45.941687" lon="10.002778">
<ele>1383</ele>
<time>2022-01-08T07:40:53Z</time></trkpt>
<trkpt lat="45.94156" lon="10.002416">
<ele>1387</ele>
<time>2022-01-08T07:41:04Z</time></trkpt>
<trkpt lat="45.941495" lon="10.002346">
<ele>1387</ele>
<time>2022-01-08T07:41:08Z</time></trkpt>
<trkpt lat="45.941452" lon="10.002191">
<ele>1388</ele>
<time>2022-01-08T07:41:12Z</time></trkpt>
<trkpt lat="45.941399" lon="10.002086">
<ele>1388</ele>
<time>2022-01-08T07:41:16Z</time></trkpt>
<trkpt lat="45.94124" lon="10.001888">
<ele>1388</ele>
<time>2022-01-08T07:41:24Z</time></trkpt>
<trkpt lat="45.941212" lon="10.00179">
<ele>1389</ele>
<time>2022-01-08T07:41:27Z</time></trkpt>
<trkpt lat="45.941155" lon="10.001672">
<ele>1391</ele>
<time>2022-01-08T07:41:31Z</time></trkpt>
<trkpt lat="45.941058" lon="10.001575">
<ele>1391</ele>
<time>2022-01-08T07:41:36Z</time></trkpt>
<trkpt lat="45.940968" lon="10.001532">
<ele>1391</ele>
<time>2022-01-08T07:41:40Z</time></trkpt>
<trkpt lat="45.940868" lon="10.001578">
<ele>1388</ele>
<time>2022-01-08T07:41:44Z</time></trkpt>
<trkpt lat="45.940591" lon="10.001487">
<ele>1382</ele>
<time>2022-01-08T07:41:55Z</time></trkpt>
<trkpt lat="45.940534" lon="10.001443">
<ele>1381</ele>
<time>2022-01-08T07:41:58Z</time></trkpt>
<trkpt lat="45.940422" lon="10.00105">
<ele>1387</ele>
<time>2022-01-08T07:42:10Z</time></trkpt>
<trkpt lat="45.940391" lon="10.000797">
<ele>1393</ele>
<time>2022-01-08T07:42:17Z</time></trkpt>
<trkpt lat="45.940322" lon="10.00052">
<ele>1400</ele>
<time>2022-01-08T07:42:25Z</time></trkpt>
<trkpt lat="45.940081" lon="10.000462">
<ele>1396</ele>
<time>2022-01-08T07:42:35Z</time></trkpt>
<trkpt lat="45.939914" lon="10.000471">
<ele>1392</ele>
<time>2022-01-08T07:42:42Z</time></trkpt>
<trkpt lat="45.939571" lon="10.00028">
<ele>1391</ele>
<time>2022-01-08T07:42:56Z</time></trkpt>
<trkpt lat="45.939274" lon="10.000008">
<ele>1395</ele>
<time>2022-01-08T07:43:10Z</time></trkpt>
<trkpt lat="45.939066" lon="9.999854">
<ele>1397</ele>
<time>2022-01-08T07:43:20Z</time></trkpt>
<trkpt lat="45.938888" lon="9.999627">
<ele>1401</ele>
<time>2022-01-08T07:43:29Z</time></trkpt>
<trkpt lat="45.93856" lon="9.999344">
<ele>1403</ele>
<time>2022-01-08T07:43:45Z</time></trkpt>
<trkpt lat="45.938476" lon="9.999234">
<ele>1405</ele>
<time>2022-01-08T07:43:49Z</time></trkpt>
<trkpt lat="45.938351" lon="9.999126">
<ele>1405</ele>
<time>2022-01-08T07:43:55Z</time></trkpt>
<trkpt lat="45.938176" lon="9.999087">
<ele>1403</ele>
<time>2022-01-08T07:44:02Z</time></trkpt>
<trkpt lat="45.937961" lon="9.998952">
<ele>1404</ele>
<time>2022-01-08T07:44:12Z</time></trkpt>
<trkpt lat="45.937778" lon="9.998749">
<ele>1406</ele>
<time>2022-01-08T07:44:21Z</time></trkpt>
<trkpt lat="45.937761" lon="9.998711">
<ele>1406</ele>
<time>2022-01-08T07:44:22Z</time></trkpt>
<trkpt lat="45.937714" lon="9.998257">
<ele>1417</ele>
<time>2022-01-08T07:44:35Z</time></trkpt>
<trkpt lat="45.937346" lon="9.997874">
<ele>1419</ele>
<time>2022-01-08T07:44:53Z</time></trkpt>
<trkpt lat="45.937302" lon="9.997749">
<ele>1422</ele>
<time>2022-01-08T07:44:57Z</time></trkpt>
<trkpt lat="45.937198" lon="9.997702">
<ele>1421</ele>
<time>2022-01-08T07:45:01Z</time></trkpt>
<trkpt lat="45.937107" lon="9.997618">
<ele>1422</ele>
<time>2022-01-08T07:45:06Z</time></trkpt>
<trkpt lat="45.936803" lon="9.997523">
<ele>1420</ele>
<time>2022-01-08T07:45:18Z</time></trkpt>
<trkpt lat="45.936803" lon="9.997523">
<ele>1420</ele>
<time>2022-01-08T07:45:18Z</time></trkpt>
<trkpt lat="45.936693" lon="9.997489">
<ele>1419</ele>
<time>2022-01-08T07:45:23Z</time></trkpt>
<trkpt lat="45.936325" lon="9.997506">
<ele>1403</ele>
<time>2022-01-08T07:45:37Z</time></trkpt>
<trkpt lat="45.936051" lon="9.997298">
<ele>1397</ele>
<time>2022-01-08T07:45:50Z</time></trkpt>
<trkpt lat="45.935945" lon="9.996921">
<ele>1404</ele>
<time>2022-01-08T07:46:01Z</time></trkpt>
<trkpt lat="45.935866" lon="9.996534">
<ele>1410</ele>
<time>2022-01-08T07:46:12Z</time></trkpt>
<trkpt lat="45.935763" lon="9.996261">
<ele>1407</ele>
<time>2022-01-08T07:46:21Z</time></trkpt>
<trkpt lat="45.93575" lon="9.99618">
<ele>1407</ele>
<time>2022-01-08T07:46:23Z</time></trkpt>
<trkpt lat="45.935588" lon="9.995963">
<ele>1401</ele>
<time>2022-01-08T07:46:32Z</time></trkpt>
<trkpt lat="45.93552" lon="9.99582">
<ele>1399</ele>
<time>2022-01-08T07:46:37Z</time></trkpt>
<trkpt lat="45.935535" lon="9.995738">
<ele>1400</ele>
<time>2022-01-08T07:46:39Z</time></trkpt>
<trkpt lat="45.93542" lon="9.995646">
<ele>1394</ele>
<time>2022-01-08T07:46:45Z</time></trkpt>
<trkpt lat="45.935349" lon="9.995543">
<ele>1391</ele>
<time>2022-01-08T07:46:49Z</time></trkpt>
<trkpt lat="45.935352" lon="9.99551">
<ele>1391</ele>
<time>2022-01-08T07:46:50Z</time></trkpt>
<trkpt lat="45.935271" lon="9.995291">
<ele>1387</ele>
<time>2022-01-08T07:46:57Z</time></trkpt>
<trkpt lat="45.935257" lon="9.995198">
<ele>1387</ele>
<time>2022-01-08T07:46:59Z</time></trkpt>
<trkpt lat="45.935153" lon="9.994932">
<ele>1381</ele>
<time>2022-01-08T07:47:08Z</time></trkpt>
<trkpt lat="45.935158" lon="9.994564">
<ele>1383</ele>
<time>2022-01-08T07:47:18Z</time></trkpt>
<trkpt lat="45.935136" lon="9.994312">
<ele>1383</ele>
<time>2022-01-08T07:47:25Z</time></trkpt>
<trkpt lat="45.935088" lon="9.993826">
<ele>1377</ele>
<time>2022-01-08T07:47:39Z</time></trkpt>
<trkpt lat="45.935035" lon="9.993645">
<ele>1372</ele>
<time>2022-01-08T07:47:44Z</time></trkpt>
<trkpt lat="45.935101" lon="9.993304">
<ele>1372</ele>
<time>2022-01-08T07:47:54Z</time></trkpt>
<trkpt lat="45.935398" lon="9.992904">
<ele>1378</ele>
<time>2022-01-08T07:48:10Z</time></trkpt>
<trkpt lat="45.935784" lon="9.991943">
<ele>1379</ele>
<time>2022-01-08T07:48:41Z</time></trkpt>
<trkpt lat="45.935847" lon="9.991817">
<ele>1380</ele>
<time>2022-01-08T07:48:46Z</time></trkpt>
<trkpt lat="45.936013" lon="9.991183">
<ele>1381</ele>
<time>2022-01-08T07:49:05Z</time></trkpt>
<trkpt lat="45.935993" lon="9.990653">
<ele>1372</ele>
<time>2022-01-08T07:49:19Z</time></trkpt>
<trkpt lat="45.936" lon="9.990391">
<ele>1371</ele>
<time>2022-01-08T07:49:27Z</time></trkpt>
<trkpt lat="45.936148" lon="9.989827">
<ele>1377</ele>
<time>2022-01-08T07:49:44Z</time></trkpt>
<trkpt lat="45.936148" lon="9.989827">
<ele>1377</ele>
<time>2022-01-08T07:49:44Z</time></trkpt>
<trkpt lat="45.936199" lon="9.989633">
<ele>1380</ele>
<time>2022-01-08T07:49:49Z</time></trkpt>
<trkpt lat="45.936252" lon="9.989132">
<ele>1381</ele>
<time>2022-01-08T07:50:03Z</time></trkpt>
<trkpt lat="45.936207" lon="9.989026">
<ele>1380</ele>
<time>2022-01-08T07:50:07Z</time></trkpt>
<trkpt lat="45.936001" lon="9.987677">
<ele>1381</ele>
<time>2022-01-08T07:50:45Z</time></trkpt>
<trkpt lat="45.935884" lon="9.987299">
<ele>1381</ele>
<time>2022-01-08T07:50:57Z</time></trkpt>
<trkpt lat="45.935674" lon="9.98646">
<ele>1380</ele>
<time>2022-01-08T07:51:22Z</time></trkpt>
<trkpt lat="45.935449" lon="9.986075">
<ele>1372</ele>
<time>2022-01-08T07:51:36Z</time></trkpt>
<trkpt lat="45.935395" lon="9.98595">
<ele>1370</ele>
<time>2022-01-08T07:51:40Z</time></trkpt>
<trkpt lat="45.935392" lon="9.985879">
<ele>1370</ele>
<time>2022-01-08T07:51:42Z</time></trkpt>
<trkpt lat="45.935595" lon="9.985288">
<ele>1375</ele>
<time>2022-01-08T07:52:00Z</time></trkpt>
<trkpt lat="45.935732" lon="9.985125">
<ele>1379</ele>
<time>2022-01-08T07:52:07Z</time></trkpt>
<trkpt lat="45.935951" lon="9.984705">
<ele>1388</ele>
<time>2022-01-08T07:52:22Z</time></trkpt>
<trkpt lat="45.935656" lon="9.984444">
<ele>1376</ele>
<time>2022-01-08T07:52:36Z</time></trkpt>
<trkpt lat="45.93533" lon="9.983748">
<ele>1362</ele>
<time>2022-01-08T07:52:59Z</time></trkpt>
<trkpt lat="45.935288" lon="9.983551">
<ele>1361</ele>
<time>2022-01-08T07:53:05Z</time></trkpt>
<trkpt lat="45.935239" lon="9.983158">
<ele>1360</ele>
<time>2022-01-08T07:53:16Z</time></trkpt>
<trkpt lat="45.935186" lon="9.982527">
<ele>1362</ele>
<time>2022-01-08T07:53:34Z</time></trkpt>
<trkpt lat="45.935161" lon="9.981924">
<ele>1361</ele>
<time>2022-01-08T07:53:51Z</time></trkpt>
<trkpt lat="45.93514" lon="9.981772">
<ele>1360</ele>
<time>2022-01-08T07:53:55Z</time></trkpt>
<trkpt lat="45.93508" lon="9.981667">
<ele>1356</ele>
<time>2022-01-08T07:53:59Z</time></trkpt>
<trkpt lat="45.935074" lon="9.981056">
<ele>1359</ele>
<time>2022-01-08T07:54:16Z</time></trkpt>
<trkpt lat="45.935032" lon="9.980818">
<ele>1358</ele>
<time>2022-01-08T07:54:23Z</time></trkpt>
<trkpt lat="45.935032" lon="9.980818">
<ele>1358</ele>
<time>2022-01-08T07:54:23Z</time></trkpt>
<trkpt lat="45.934979" lon="9.980521">
<ele>1359</ele>
<time>2022-01-08T07:54:31Z</time></trkpt>
<trkpt lat="45.93476" lon="9.980165">
<ele>1352</ele>
<time>2022-01-08T07:54:44Z</time></trkpt>
<trkpt lat="45.934652" lon="9.979888">
<ele>1349</ele>
<time>2022-01-08T07:54:53Z</time></trkpt>
<trkpt lat="45.934759" lon="9.978916">
<ele>1350</ele>
<time>2022-01-08T07:55:21Z</time></trkpt>
<trkpt lat="45.934794" lon="9.978817">
<ele>1350</ele>
<time>2022-01-08T07:55:24Z</time></trkpt>
<trkpt lat="45.935205" lon="9.978322">
<ele>1355</ele>
<time>2022-01-08T07:55:45Z</time></trkpt>
<trkpt lat="45.935559" lon="9.978014">
<ele>1352</ele>
<time>2022-01-08T07:56:02Z</time></trkpt>
<trkpt lat="45.935607" lon="9.977928">
<ele>1349</ele>
<time>2022-01-08T07:56:05Z</time></trkpt>
<trkpt lat="45.935705" lon="9.977765">
<ele>1344</ele>
<time>2022-01-08T07:56:11Z</time></trkpt>
<trkpt lat="45.935862" lon="9.977557">
<ele>1339</ele>
<time>2022-01-08T07:56:20Z</time></trkpt>
<trkpt lat="45.936161" lon="9.977257">
<ele>1338</ele>
<time>2022-01-08T07:56:34Z</time></trkpt>
<trkpt lat="45.936831" lon="9.976684">
<ele>1345</ele>
<time>2022-01-08T07:57:05Z</time></trkpt>
<trkpt lat="45.93692" lon="9.976553">
<ele>1348</ele>
<time>2022-01-08T07:57:10Z</time></trkpt>
<trkpt lat="45.936916" lon="9.976503">
<ele>1346</ele>
<time>2022-01-08T07:57:12Z</time></trkpt>
<trkpt lat="45.936749" lon="9.97596">
<ele>1329</ele>
<time>2022-01-08T07:57:28Z</time></trkpt>
<trkpt lat="45.93677" lon="9.975507">
<ele>1329</ele>
<time>2022-01-08T07:57:41Z</time></trkpt>
<trkpt lat="45.936813" lon="9.975272">
<ele>1331</ele>
<time>2022-01-08T07:57:48Z</time></trkpt>
<trkpt lat="45.93695" lon="9.97511">
<ele>1336</ele>
<time>2022-01-08T07:57:55Z</time></trkpt>
<trkpt lat="45.937018" lon="9.975101">
<ele>1338</ele>
<time>2022-01-08T07:57:58Z</time></trkpt>
<trkpt lat="45.937018" lon="9.975101">
<ele>1338</ele>
<time>2022-01-08T07:57:58Z</time></trkpt>
<trkpt lat="45.93716" lon="9.975081">
<ele>1342</ele>
<time>2022-01-08T07:58:03Z</time></trkpt>
<trkpt lat="45.937661" lon="9.974757">
<ele>1351</ele>
<time>2022-01-08T07:58:25Z</time></trkpt>
<trkpt lat="45.937703" lon="9.974425">
<ele>1345</ele>
<time>2022-01-08T07:58:35Z</time></trkpt>
<trkpt lat="45.937785" lon="9.974131">
<ele>1339</ele>
<time>2022-01-08T07:58:44Z</time></trkpt>
<trkpt lat="45.937823" lon="9.974055">
<ele>1338</ele>
<time>2022-01-08T07:58:46Z</time></trkpt>
<trkpt lat="45.938118" lon="9.973848">
<ele>1339</ele>
<time>2022-01-08T07:58:59Z</time></trkpt>
<trkpt lat="45.938629" lon="9.973594">
<ele>1349</ele>
<time>2022-01-08T07:59:21Z</time></trkpt>
<trkpt lat="45.93869" lon="9.973482">
<ele>1348</ele>
<time>2022-01-08T07:59:25Z</time></trkpt>
<trkpt lat="45.938695" lon="9.973389">
<ele>1346</ele>
<time>2022-01-08T07:59:28Z</time></trkpt>
<trkpt lat="45.938647" lon="9.973144">
<ele>1342</ele>
<time>2022-01-08T07:59:35Z</time></trkpt>
<trkpt lat="45.938682" lon="9.972205">
<ele>1340</ele>
<time>2022-01-08T08:00:01Z</time></trkpt>
<trkpt lat="45.938747" lon="9.971731">
<ele>1344</ele>
<time>2022-01-08T08:00:14Z</time></trkpt>
<trkpt lat="45.938747" lon="9.971609">
<ele>1343</ele>
<time>2022-01-08T08:00:18Z</time></trkpt>
<trkpt lat="45.938701" lon="9.971602">
<ele>1341</ele>
<time>2022-01-08T08:00:20Z</time></trkpt>
<trkpt lat="45.938664" lon="9.971555">
<ele>1339</ele>
<time>2022-01-08T08:00:22Z</time></trkpt>
<trkpt lat="45.938664" lon="9.971404">
<ele>1338</ele>
<time>2022-01-08T08:00:26Z</time></trkpt>
<trkpt lat="45.938755" lon="9.971178">
<ele>1337</ele>
<time>2022-01-08T08:00:33Z</time></trkpt>
<trkpt lat="45.938798" lon="9.971021">
<ele>1336</ele>
<time>2022-01-08T08:00:38Z</time></trkpt>
<trkpt lat="45.938741" lon="9.970909">
<ele>1333</ele>
<time>2022-01-08T08:00:42Z</time></trkpt>
<trkpt lat="45.938656" lon="9.970824">
<ele>1331</ele>
<time>2022-01-08T08:00:46Z</time></trkpt>
<trkpt lat="45.938457" lon="9.970759">
<ele>1327</ele>
<time>2022-01-08T08:00:54Z</time></trkpt>
<trkpt lat="45.938344" lon="9.970577">
<ele>1322</ele>
<time>2022-01-08T08:01:01Z</time></trkpt>
<trkpt lat="45.938241" lon="9.97024">
<ele>1312</ele>
<time>2022-01-08T08:01:11Z</time></trkpt>
<trkpt lat="45.938095" lon="9.969531">
<ele>1298</ele>
<time>2022-01-08T08:01:32Z</time></trkpt>
<trkpt lat="45.938095" lon="9.969531">
<ele>1298</ele>
<time>2022-01-08T08:01:32Z</time></trkpt>
<trkpt lat="45.938034" lon="9.969374">
<ele>1296</ele>
<time>2022-01-08T08:01:37Z</time></trkpt>
<trkpt lat="45.937776" lon="9.968863">
<ele>1296</ele>
<time>2022-01-08T08:01:54Z</time></trkpt>
<trkpt lat="45.937727" lon="9.968705">
<ele>1297</ele>
<time>2022-01-08T08:01:59Z</time></trkpt>
<trkpt lat="45.937535" lon="9.968307">
<ele>1302</ele>
<time>2022-01-08T08:02:13Z</time></trkpt>
<trkpt lat="45.937258" lon="9.967797">
<ele>1301</ele>
<time>2022-01-08T08:02:31Z</time></trkpt>
<trkpt lat="45.937024" lon="9.967461">
<ele>1301</ele>
<time>2022-01-08T08:02:44Z</time></trkpt>
<trkpt lat="45.936822" lon="9.967262">
<ele>1302</ele>
<time>2022-01-08T08:02:54Z</time></trkpt>
<trkpt lat="45.93647" lon="9.966993">
<ele>1304</ele>
<time>2022-01-08T08:03:10Z</time></trkpt>
<trkpt lat="45.93643" lon="9.966943">
<ele>1304</ele>
<time>2022-01-08T08:03:12Z</time></trkpt>
<trkpt lat="45.936338" lon="9.966908">
<ele>1304</ele>
<time>2022-01-08T08:03:16Z</time></trkpt>
<trkpt lat="45.936238" lon="9.966911">
<ele>1304</ele>
<time>2022-01-08T08:03:20Z</time></trkpt>
<trkpt lat="45.935806" lon="9.967151">
<ele>1301</ele>
<time>2022-01-08T08:03:38Z</time></trkpt>
<trkpt lat="45.935721" lon="9.967178">
<ele>1299</ele>
<time>2022-01-08T08:03:42Z</time></trkpt>
<trkpt lat="45.935645" lon="9.967128">
<ele>1299</ele>
<time>2022-01-08T08:03:45Z</time></trkpt>
<trkpt lat="45.93561" lon="9.967041">
<ele>1300</ele>
<time>2022-01-08T08:03:48Z</time></trkpt>
<trkpt lat="45.935535" lon="9.966928">
<ele>1301</ele>
<time>2022-01-08T08:03:52Z</time></trkpt>
<trkpt lat="45.935465" lon="9.966587">
<ele>1306</ele>
<time>2022-01-08T08:04:02Z</time></trkpt>
<trkpt lat="45.93537" lon="9.966367">
<ele>1311</ele>
<time>2022-01-08T08:04:09Z</time></trkpt>
<trkpt lat="45.935346" lon="9.966275">
<ele>1314</ele>
<time>2022-01-08T08:04:12Z</time></trkpt>
<trkpt lat="45.935652" lon="9.966336">
<ele>1314</ele>
<time>2022-01-08T08:04:24Z</time></trkpt>
<trkpt lat="45.935712" lon="9.966284">
<ele>1316</ele>
<time>2022-01-08T08:04:27Z</time></trkpt>
<trkpt lat="45.935915" lon="9.965938">
<ele>1324</ele>
<time>2022-01-08T08:04:40Z</time></trkpt>
<trkpt lat="45.935986" lon="9.965666">
<ele>1327</ele>
<time>2022-01-08T08:04:48Z</time></trkpt>
<trkpt lat="45.93604" lon="9.965539">
<ele>1328</ele>
<time>2022-01-08T08:04:52Z</time></trkpt>
<trkpt lat="45.936116" lon="9.965157">
<ele>1333</ele>
<time>2022-01-08T08:05:03Z</time></trkpt>
<trkpt lat="45.936291" lon="9.964941">
<ele>1331</ele>
<time>2022-01-08T08:05:12Z</time></trkpt>
<trkpt lat="45.936362" lon="9.964682">
<ele>1331</ele>
<time>2022-01-08T08:05:20Z</time></trkpt>
<trkpt lat="45.936316" lon="9.964431">
<ele>1336</ele>
<time>2022-01-08T08:05:27Z</time></trkpt>
<trkpt lat="45.936434" lon="9.964035">
<ele>1336</ele>
<time>2022-01-08T08:05:39Z</time></trkpt>
<trkpt lat="45.936389" lon="9.963943">
<ele>1339</ele>
<time>2022-01-08T08:05:43Z</time></trkpt>
<trkpt lat="45.936396" lon="9.963829">
<ele>1340</ele>
<time>2022-01-08T08:05:46Z</time></trkpt>
<trkpt lat="45.936396" lon="9.963829">
<ele>1340</ele>
<time>2022-01-08T08:05:46Z</time></trkpt>
<trkpt lat="45.936444" lon="9.962989">
<ele>1346</ele>
<time>2022-01-08T08:06:09Z</time></trkpt>
<trkpt lat="45.936486" lon="9.962713">
<ele>1347</ele>
<time>2022-01-08T08:06:17Z</time></trkpt>
<trkpt lat="45.936441" lon="9.962347">
<ele>1349</ele>
<time>2022-01-08T08:06:27Z</time></trkpt>
<trkpt lat="45.936054" lon="9.961684">
<ele>1357</ele>
<time>2022-01-08T08:06:52Z</time></trkpt>
<trkpt lat="45.935978" lon="9.961356">
<ele>1355</ele>
<time>2022-01-08T08:07:01Z</time></trkpt>
<trkpt lat="45.935816" lon="9.961189">
<ele>1360</ele>
<time>2022-01-08T08:07:09Z</time></trkpt>
<trkpt lat="45.935855" lon="9.961072">
<ele>1357</ele>
<time>2022-01-08T08:07:13Z</time></trkpt>
<trkpt lat="45.935831" lon="9.960768">
<ele>1354</ele>
<time>2022-01-08T08:07:21Z</time></trkpt>
<trkpt lat="45.935757" lon="9.960658">
<ele>1356</ele>
<time>2022-01-08T08:07:26Z</time></trkpt>
<trkpt lat="45.935814" lon="9.960404">
<ele>1349</ele>
<time>2022-01-08T08:07:33Z</time></trkpt>
<trkpt lat="45.935776" lon="9.959913">
<ele>1342</ele>
<time>2022-01-08T08:07:47Z</time></trkpt>
<trkpt lat="45.935466" lon="9.959749">
<ele>1354</ele>
<time>2022-01-08T08:08:00Z</time></trkpt>
<trkpt lat="45.935437" lon="9.959451">
<ele>1347</ele>
<time>2022-01-08T08:08:08Z</time></trkpt>
<trkpt lat="45.935388" lon="9.95926">
<ele>1344</ele>
<time>2022-01-08T08:08:14Z</time></trkpt>
<trkpt lat="45.935255" lon="9.959126">
<ele>1347</ele>
<time>2022-01-08T08:08:21Z</time></trkpt>
<trkpt lat="45.935225" lon="9.959027">
<ele>1346</ele>
<time>2022-01-08T08:08:24Z</time></trkpt>
<trkpt lat="45.935055" lon="9.958708">
<ele>1347</ele>
<time>2022-01-08T08:08:35Z</time></trkpt>
<trkpt lat="45.934994" lon="9.958312">
<ele>1343</ele>
<time>2022-01-08T08:08:46Z</time></trkpt>
<trkpt lat="45.93491" lon="9.95811">
<ele>1348</ele>
<time>2022-01-08T08:08:53Z</time></trkpt>
<trkpt lat="45.934962" lon="9.957944">
<ele>1344</ele>
<time>2022-01-08T08:08:58Z</time></trkpt>
<trkpt lat="45.934983" lon="9.957669">
<ele>1342</ele>
<time>2022-01-08T08:09:06Z</time></trkpt>
<trkpt lat="45.934949" lon="9.957378">
<ele>1342</ele>
<time>2022-01-08T08:09:14Z</time></trkpt>
<trkpt lat="45.934927" lon="9.956956">
<ele>1338</ele>
<time>2022-01-08T08:09:26Z</time></trkpt>
<trkpt lat="45.934967" lon="9.956847">
<ele>1336</ele>
<time>2022-01-08T08:09:29Z</time></trkpt>
<trkpt lat="45.935128" lon="9.956608">
<ele>1326</ele>
<time>2022-01-08T08:09:38Z</time></trkpt>
<trkpt lat="45.935235" lon="9.956517">
<ele>1319</ele>
<time>2022-01-08T08:09:43Z</time></trkpt>
<trkpt lat="45.935622" lon="9.955805">
<ele>1301</ele>
<time>2022-01-08T08:10:08Z</time></trkpt>
<trkpt lat="45.935732" lon="9.955645">
<ele>1296</ele>
<time>2022-01-08T08:10:15Z</time></trkpt>
<trkpt lat="45.93588" lon="9.955514">
<ele>1291</ele>
<time>2022-01-08T08:10:22Z</time></trkpt>
<trkpt lat="45.935939" lon="9.9553">
<ele>1285</ele>
<time>2022-01-08T08:10:28Z</time></trkpt>
<trkpt lat="45.93623" lon="9.954905">
<ele>1273</ele>
<time>2022-01-08T08:10:44Z</time></trkpt>
<trkpt lat="45.936475" lon="9.954737">
<ele>1269</ele>
<time>2022-01-08T08:10:55Z</time></trkpt>
<trkpt lat="45.936643" lon="9.954316">
<ele>1265</ele>
<time>2022-01-08T08:11:09Z</time></trkpt>
<trkpt lat="45.936643" lon="9.954316">
<ele>1265</ele>
<time>2022-01-08T08:11:09Z</time></trkpt>
<trkpt lat="45.93674" lon="9.954072">
<ele>1259</ele>
<time>2022-01-08T08:11:16Z</time></trkpt>
<trkpt lat="45.936974" lon="9.95368">
<ele>1242</ele>
<time>2022-01-08T08:11:31Z</time></trkpt>
<trkpt lat="45.937314" lon="9.953189">
<ele>1232</ele>
<time>2022-01-08T08:11:50Z</time></trkpt>
<trkpt lat="45.937524" lon="9.952988">
<ele>1229</ele>
<time>2022-01-08T08:12:00Z</time></trkpt>
<trkpt lat="45.937684" lon="9.952673">
<ele>1220</ele>
<time>2022-01-08T08:12:11Z</time></trkpt>
<trkpt lat="45.937715" lon="9.952345">
<ele>1213</ele>
<time>2022-01-08T08:12:20Z</time></trkpt>
<trkpt lat="45.937834" lon="9.951894">
<ele>1195</ele>
<time>2022-01-08T08:12:34Z</time></trkpt>
<trkpt lat="45.937685" lon="9.951889">
<ele>1198</ele>
<time>2022-01-08T08:12:40Z</time></trkpt>
<trkpt lat="45.937722" lon="9.951561">
<ele>1185</ele>
<time>2022-01-08T08:12:49Z</time></trkpt>
<trkpt lat="45.937801" lon="9.951124">
<ele>1167</ele>
<time>2022-01-08T08:13:02Z</time></trkpt>
<trkpt lat="45.937824" lon="9.95063">
<ele>1150</ele>
<time>2022-01-08T08:13:15Z</time></trkpt>
<trkpt lat="45.937754" lon="9.950237">
<ele>1141</ele>
<time>2022-01-08T08:13:27Z</time></trkpt>
<trkpt lat="45.937634" lon="9.949862">
<ele>1132</ele>
<time>2022-01-08T08:13:38Z</time></trkpt>
<trkpt lat="45.937456" lon="9.949517">
<ele>1123</ele>
<time>2022-01-08T08:13:50Z</time></trkpt>
<trkpt lat="45.937388" lon="9.94909">
<ele>1107</ele>
<time>2022-01-08T08:14:02Z</time></trkpt>
<trkpt lat="45.937189" lon="9.949134">
<ele>1101</ele>
<time>2022-01-08T08:14:10Z</time></trkpt>
<trkpt lat="45.937112" lon="9.948993">
<ele>1092</ele>
<time>2022-01-08T08:14:15Z</time></trkpt>
<trkpt lat="45.936851" lon="9.948911">
<ele>1079</ele>
<time>2022-01-08T08:14:26Z</time></trkpt>
<trkpt lat="45.936668" lon="9.949029">
<ele>1077</ele>
<time>2022-01-08T08:14:34Z</time></trkpt>
<trkpt lat="45.936556" lon="9.948951">
<ele>1068</ele>
<time>2022-01-08T08:14:39Z</time></trkpt>
<trkpt lat="45.936463" lon="9.949159">
<ele>1072</ele>
<time>2022-01-08T08:14:46Z</time></trkpt>
<trkpt lat="45.936382" lon="9.949114">
<ele>1066</ele>
<time>2022-01-08T08:14:49Z</time></trkpt>
<trkpt lat="45.936181" lon="9.94946">
<ele>1067</ele>
<time>2022-01-08T08:15:02Z</time></trkpt>
<trkpt lat="45.936097" lon="9.949434">
<ele>1062</ele>
<time>2022-01-08T08:15:05Z</time></trkpt>
<trkpt lat="45.935979" lon="9.949172">
<ele>1048</ele>
<time>2022-01-08T08:15:14Z</time></trkpt>
<trkpt lat="45.935919" lon="9.949252">
<ele>1047</ele>
<time>2022-01-08T08:15:17Z</time></trkpt>
<trkpt lat="45.935745" lon="9.949087">
<ele>1037</ele>
<time>2022-01-08T08:15:26Z</time></trkpt>
<trkpt lat="45.93562" lon="9.948814">
<ele>1028</ele>
<time>2022-01-08T08:15:35Z</time></trkpt>
<trkpt lat="45.935629" lon="9.948364">
<ele>1014</ele>
<time>2022-01-08T08:15:47Z</time></trkpt>
<trkpt lat="45.935654" lon="9.948189">
<ele>1007</ele>
<time>2022-01-08T08:15:52Z</time></trkpt>
<trkpt lat="45.935703" lon="9.948052">
<ele>1001</ele>
<time>2022-01-08T08:15:57Z</time></trkpt>
<trkpt lat="45.935767" lon="9.947765">
<ele>987</ele>
<time>2022-01-08T08:16:05Z</time></trkpt>
<trkpt lat="45.936145" lon="9.946706">
<ele>949</ele>
<time>2022-01-08T08:16:38Z</time></trkpt>
<trkpt lat="45.936368" lon="9.946209">
<ele>933</ele>
<time>2022-01-08T08:16:55Z</time></trkpt>
<trkpt lat="45.936482" lon="9.946083">
<ele>928</ele>
<time>2022-01-08T08:17:01Z</time></trkpt>
<trkpt lat="45.936685" lon="9.945998">
<ele>923</ele>
<time>2022-01-08T08:17:09Z</time></trkpt>
<trkpt lat="45.936769" lon="9.945646">
<ele>910</ele>
<time>2022-01-08T08:17:19Z</time></trkpt>
<trkpt lat="45.937062" lon="9.945343">
<ele>901</ele>
<time>2022-01-08T08:17:34Z</time></trkpt>
<trkpt lat="45.937039" lon="9.945303">
<ele>899</ele>
<time>2022-01-08T08:17:35Z</time></trkpt>
<trkpt lat="45.936679" lon="9.945112">
<ele>889</ele>
<time>2022-01-08T08:17:51Z</time></trkpt>
<trkpt lat="45.936672" lon="9.944838">
<ele>881</ele>
<time>2022-01-08T08:17:58Z</time></trkpt>
<trkpt lat="45.936702" lon="9.94476">
<ele>879</ele>
<time>2022-01-08T08:18:01Z</time></trkpt>
<trkpt lat="45.936899" lon="9.944537">
<ele>872</ele>
<time>2022-01-08T08:18:11Z</time></trkpt>
<trkpt lat="45.936926" lon="9.944438">
<ele>869</ele>
<time>2022-01-08T08:18:14Z</time></trkpt>
<trkpt lat="45.93699" lon="9.944346">
<ele>866</ele>
<time>2022-01-08T08:18:17Z</time></trkpt>
<trkpt lat="45.93709" lon="9.944146">
<ele>858</ele>
<time>2022-01-08T08:18:24Z</time></trkpt>
<trkpt lat="45.937314" lon="9.943608">
<ele>841</ele>
<time>2022-01-08T08:18:42Z</time></trkpt>
<trkpt lat="45.937459" lon="9.943371">
<ele>830</ele>
<time>2022-01-08T08:18:51Z</time></trkpt>
<trkpt lat="45.937579" lon="9.943079">
<ele>822</ele>
<time>2022-01-08T08:19:00Z</time></trkpt>
<trkpt lat="45.937981" lon="9.942386">
<ele>808</ele>
<time>2022-01-08T08:19:25Z</time></trkpt>
<trkpt lat="45.938094" lon="9.942111">
<ele>802</ele>
<time>2022-01-08T08:19:34Z</time></trkpt>
<trkpt lat="45.9378268" lon="9.9426518">
<ele>814</ele>
<time>2022-01-08T08:19:53Z</time></trkpt>
<trkpt lat="45.937981" lon="9.942386">
<ele>808</ele>
<time>2022-01-08T08:20:02Z</time></trkpt>
<trkpt lat="45.938093" lon="9.942111">
<ele>802</ele>
<time>2022-01-08T08:20:11Z</time></trkpt>
<trkpt lat="45.93835" lon="9.94166">
<ele>788</ele>
<time>2022-01-08T08:20:27Z</time></trkpt>
<trkpt lat="45.93835" lon="9.94166">
<ele>788</ele>
<time>2022-01-08T08:20:27Z</time></trkpt>
<trkpt lat="45.938435" lon="9.94151">
<ele>786</ele>
<time>2022-01-08T08:20:33Z</time></trkpt>
<trkpt lat="45.938662" lon="9.941253">
<ele>783</ele>
<time>2022-01-08T08:20:44Z</time></trkpt>
<trkpt lat="45.938972" lon="9.941084">
<ele>781</ele>
<time>2022-01-08T08:20:58Z</time></trkpt>
<trkpt lat="45.93909" lon="9.9411">
<ele>783</ele>
<time>2022-01-08T08:21:02Z</time></trkpt>
<trkpt lat="45.93909" lon="9.940848">
<ele>775</ele>
<time>2022-01-08T08:21:09Z</time></trkpt>
<trkpt lat="45.93913" lon="9.940814">
<ele>774</ele>
<time>2022-01-08T08:21:11Z</time></trkpt>
<trkpt lat="45.939534" lon="9.940762">
<ele>769</ele>
<time>2022-01-08T08:21:28Z</time></trkpt>
<trkpt lat="45.939774" lon="9.940864">
<ele>771</ele>
<time>2022-01-08T08:21:38Z</time></trkpt>
<trkpt lat="45.939931" lon="9.940885">
<ele>770</ele>
<time>2022-01-08T08:21:44Z</time></trkpt>
<trkpt lat="45.940064" lon="9.940968">
<ele>773</ele>
<time>2022-01-08T08:21:50Z</time></trkpt>
<trkpt lat="45.940095" lon="9.941025">
<ele>776</ele>
<time>2022-01-08T08:21:52Z</time></trkpt>
<trkpt lat="45.940265" lon="9.941065">
<ele>776</ele>
<time>2022-01-08T08:21:59Z</time></trkpt>
<trkpt lat="45.940369" lon="9.94103">
<ele>774</ele>
<time>2022-01-08T08:22:03Z</time></trkpt>
<trkpt lat="45.940503" lon="9.941057">
<ele>774</ele>
<time>2022-01-08T08:22:08Z</time></trkpt>
<trkpt lat="45.940801" lon="9.941066">
<ele>773</ele>
<time>2022-01-08T08:22:20Z</time></trkpt>
<trkpt lat="45.940883" lon="9.941049">
<ele>772</ele>
<time>2022-01-08T08:22:24Z</time></trkpt>
<trkpt lat="45.940738" lon="9.940919">
<ele>765</ele>
<time>2022-01-08T08:22:30Z</time></trkpt>
<trkpt lat="45.940424" lon="9.940573">
<ele>750</ele>
<time>2022-01-08T08:22:46Z</time></trkpt>
<trkpt lat="45.940407" lon="9.940519">
<ele>748</ele>
<time>2022-01-08T08:22:48Z</time></trkpt>
<trkpt lat="45.940548" lon="9.940487">
<ele>745</ele>
<time>2022-01-08T08:22:54Z</time></trkpt>
<trkpt lat="45.940379" lon="9.940195">
<ele>731</ele>
<time>2022-01-08T08:23:04Z</time></trkpt>
<trkpt lat="45.940305" lon="9.9401">
<ele>727</ele>
<time>2022-01-08T08:23:08Z</time></trkpt>
<trkpt lat="45.940305" lon="9.9401">
<ele>727</ele>
<time>2022-01-08T08:23:08Z</time></trkpt>
<trkpt lat="45.940112" lon="9.939853">
<ele>718</ele>
<time>2022-01-08T08:23:19Z</time></trkpt>
<trkpt lat="45.940015" lon="9.939568">
<ele>710</ele>
<time>2022-01-08T08:23:27Z</time></trkpt>
<trkpt lat="45.939896" lon="9.939381">
<ele>708</ele>
<time>2022-01-08T08:23:34Z</time></trkpt>
<trkpt lat="45.939472" lon="9.938396">
<ele>691</ele>
<time>2022-01-08T08:24:07Z</time></trkpt>
<trkpt lat="45.939196" lon="9.938079">
<ele>688</ele>
<time>2022-01-08T08:24:21Z</time></trkpt>
<trkpt lat="45.939154" lon="9.937827">
<ele>687</ele>
<time>2022-01-08T08:24:28Z</time></trkpt>
<trkpt lat="45.939211" lon="9.937753">
<ele>686</ele>
<time>2022-01-08T08:24:31Z</time></trkpt>
<trkpt lat="45.939215" lon="9.937619">
<ele>685</ele>
<time>2022-01-08T08:24:35Z</time></trkpt>
<trkpt lat="45.939184" lon="9.937435">
<ele>685</ele>
<time>2022-01-08T08:24:40Z</time></trkpt>
<trkpt lat="45.939175" lon="9.937266">
<ele>685</ele>
<time>2022-01-08T08:24:45Z</time></trkpt>
<trkpt lat="45.939185" lon="9.937162">
<ele>686</ele>
<time>2022-01-08T08:24:48Z</time></trkpt>
<trkpt lat="45.939246" lon="9.936946">
<ele>687</ele>
<time>2022-01-08T08:24:54Z</time></trkpt>
<trkpt lat="45.939496" lon="9.936343">
<ele>682</ele>
<time>2022-01-08T08:25:14Z</time></trkpt>
<trkpt lat="45.939541" lon="9.935851">
<ele>677</ele>
<time>2022-01-08T08:25:28Z</time></trkpt>
<trkpt lat="45.939541" lon="9.935851">
<ele>677</ele>
<time>2022-01-08T08:25:28Z</time></trkpt>
<trkpt lat="45.939566" lon="9.935576">
<ele>672</ele>
<time>2022-01-08T08:25:35Z</time></trkpt>
<trkpt lat="45.93955" lon="9.934946">
<ele>662</ele>
<time>2022-01-08T08:25:53Z</time></trkpt>
<trkpt lat="45.939485" lon="9.934297">
<ele>654</ele>
<time>2022-01-08T08:26:11Z</time></trkpt>
<trkpt lat="45.939556" lon="9.933658">
<ele>644</ele>
<time>2022-01-08T08:26:29Z</time></trkpt>
<trkpt lat="45.939558" lon="9.933298">
<ele>639</ele>
<time>2022-01-08T08:26:39Z</time></trkpt>
<trkpt lat="45.939497" lon="9.933035">
<ele>636</ele>
<time>2022-01-08T08:26:47Z</time></trkpt>
<trkpt lat="45.93947" lon="9.932975">
<ele>635</ele>
<time>2022-01-08T08:26:49Z</time></trkpt>
<trkpt lat="45.93947" lon="9.932975">
<ele>635</ele>
<time>2022-01-08T08:26:49Z</time></trkpt>
<trkpt lat="45.939343" lon="9.932689">
<ele>630</ele>
<time>2022-01-08T08:26:59Z</time></trkpt>
<trkpt lat="45.939331" lon="9.932564">
<ele>627</ele>
<time>2022-01-08T08:27:02Z</time></trkpt>
<trkpt lat="45.939338" lon="9.932443">
<ele>625</ele>
<time>2022-01-08T08:27:05Z</time></trkpt>
<trkpt lat="45.939392" lon="9.932133">
<ele>622</ele>
<time>2022-01-08T08:27:14Z</time></trkpt>
<trkpt lat="45.939433" lon="9.932072">
<ele>621</ele>
<time>2022-01-08T08:27:17Z</time></trkpt>
<trkpt lat="45.939741" lon="9.931868">
<ele>619</ele>
<time>2022-01-08T08:27:30Z</time></trkpt>
<trkpt lat="45.93975" lon="9.931788">
<ele>618</ele>
<time>2022-01-08T08:27:33Z</time></trkpt>
<trkpt lat="45.939783" lon="9.93169">
<ele>617</ele>
<time>2022-01-08T08:27:36Z</time></trkpt>
<trkpt lat="45.93978" lon="9.931599">
<ele>616</ele>
<time>2022-01-08T08:27:38Z</time></trkpt>
<trkpt lat="45.939847" lon="9.931451">
<ele>615</ele>
<time>2022-01-08T08:27:43Z</time></trkpt>
<trkpt lat="45.939688" lon="9.931266">
<ele>613</ele>
<time>2022-01-08T08:27:51Z</time></trkpt>
<trkpt lat="45.93956" lon="9.93117">
<ele>613</ele>
<time>2022-01-08T08:27:57Z</time></trkpt>
<trkpt lat="45.939422" lon="9.931111">
<ele>612</ele>
<time>2022-01-08T08:28:03Z</time></trkpt>
<trkpt lat="45.939422" lon="9.931111">
<ele>612</ele>
<time>2022-01-08T08:28:03Z</time></trkpt>
<trkpt lat="45.939356" lon="9.931083">
<ele>612</ele>
<time>2022-01-08T08:28:06Z</time></trkpt>
<trkpt lat="45.939144" lon="9.930853">
<ele>610</ele>
<time>2022-01-08T08:28:16Z</time></trkpt>
<trkpt lat="45.939051" lon="9.930811">
<ele>609</ele>
<time>2022-01-08T08:28:20Z</time></trkpt>
<trkpt lat="45.938894" lon="9.930811">
<ele>609</ele>
<time>2022-01-08T08:28:26Z</time></trkpt>
<trkpt lat="45.93873" lon="9.930881">
<ele>609</ele>
<time>2022-01-08T08:28:33Z</time></trkpt>
<trkpt lat="45.938707" lon="9.930817">
<ele>609</ele>
<time>2022-01-08T08:28:35Z</time></trkpt>
<trkpt lat="45.938656" lon="9.930504">
<ele>606</ele>
<time>2022-01-08T08:28:44Z</time></trkpt>
<trkpt lat="45.938614" lon="9.930432">
<ele>606</ele>
<time>2022-01-08T08:28:47Z</time></trkpt>
<trkpt lat="45.938571" lon="9.930414">
<ele>605</ele>
<time>2022-01-08T08:28:49Z</time></trkpt>
<trkpt lat="45.938287" lon="9.930069">
<ele>603</ele>
<time>2022-01-08T08:29:04Z</time></trkpt>
<trkpt lat="45.938287" lon="9.930069">
<ele>603</ele>
<time>2022-01-08T08:29:04Z</time></trkpt>
<trkpt lat="45.938118" lon="9.929985">
<ele>601</ele>
<time>2022-01-08T08:29:11Z</time></trkpt>
<trkpt lat="45.937815" lon="9.929971">
<ele>598</ele>
<time>2022-01-08T08:29:23Z</time></trkpt>
<trkpt lat="45.937915" lon="9.929754">
<ele>598</ele>
<time>2022-01-08T08:29:30Z</time></trkpt>
<trkpt lat="45.937949" lon="9.929739">
<ele>598</ele>
<time>2022-01-08T08:29:32Z</time></trkpt>
<trkpt lat="45.93797" lon="9.929698">
<ele>598</ele>
<time>2022-01-08T08:29:33Z</time></trkpt>
<trkpt lat="45.937972" lon="9.929648">
<ele>597</ele>
<time>2022-01-08T08:29:34Z</time></trkpt>
<trkpt lat="45.937952" lon="9.929605">
<ele>597</ele>
<time>2022-01-08T08:29:36Z</time></trkpt>
<trkpt lat="45.938021" lon="9.92959">
<ele>597</ele>
<time>2022-01-08T08:29:39Z</time></trkpt>
<trkpt lat="45.938135" lon="9.929524">
<ele>597</ele>
<time>2022-01-08T08:29:44Z</time></trkpt>
<trkpt lat="45.938135" lon="9.929524">
<ele>597</ele>
<time>2022-01-08T08:29:44Z</time></trkpt>
<trkpt lat="45.938331" lon="9.92941">
<ele>598</ele>
<time>2022-01-08T08:29:52Z</time></trkpt>
</trkseg>
</trk>
</gpx>